<?xml version="1.0" encoding="UTF-8" standalone="no" ?>
<gpx xmlns="http://www.topografix.com/GPX/1/1" xmlns:xsi="http://www.w3.org/2001/XMLSchema-instance" xsi:schemaLocation="http://www.topografix.com/GPX/1/1 http://www.topografix.com/GPX/1/1/gpx.xsd" version="1.1" creator="VisuGPX - https://www.visugpx.com">
  <metadata>
    <name>Diagonale du Doubs 2011</name>
    <desc><![CDATA[Une rando d\'exeption dans le Jura, avec un passage dans la magnifique vallée de la Loue.
]]></desc>
  </metadata>
  <trk>
    <name><![CDATA[diagonale du doubs]]></name>
    <trkseg>
      <trkpt lat="47.14919" lon="6.34358">
        <ele>656.23706054688</ele>
        <time>2011-04-17T05:40:37Z</time>
      </trkpt>
      <trkpt lat="47.14919" lon="6.34371">
        <ele>655.75659179688</ele>
        <time>2011-04-17T05:40:39Z</time>
      </trkpt>
      <trkpt lat="47.14922" lon="6.34424">
        <ele>656.23706054688</ele>
        <time>2011-04-17T05:40:47Z</time>
      </trkpt>
      <trkpt lat="47.14919" lon="6.34466">
        <ele>657.67919921875</ele>
        <time>2011-04-17T05:40:55Z</time>
      </trkpt>
      <trkpt lat="47.14915" lon="6.34495">
        <ele>658.64038085938</ele>
        <time>2011-04-17T05:41:01Z</time>
      </trkpt>
      <trkpt lat="47.14927" lon="6.34528">
        <ele>659.12109375</ele>
        <time>2011-04-17T05:41:07Z</time>
      </trkpt>
      <trkpt lat="47.14948" lon="6.34583">
        <ele>660.08227539062</ele>
        <time>2011-04-17T05:41:16Z</time>
      </trkpt>
      <trkpt lat="47.14966" lon="6.34626">
        <ele>661.04370117188</ele>
        <time>2011-04-17T05:41:24Z</time>
      </trkpt>
      <trkpt lat="47.14981" lon="6.34665">
        <ele>662.96630859375</ele>
        <time>2011-04-17T05:41:33Z</time>
      </trkpt>
      <trkpt lat="47.14985" lon="6.34679">
        <ele>663.44702148438</ele>
        <time>2011-04-17T05:41:38Z</time>
      </trkpt>
      <trkpt lat="47.14989" lon="6.34677">
        <ele>663.92749023438</ele>
        <time>2011-04-17T05:41:43Z</time>
      </trkpt>
      <trkpt lat="47.14984" lon="6.34665">
        <ele>664.88891601562</ele>
        <time>2011-04-17T05:41:47Z</time>
      </trkpt>
      <trkpt lat="47.14977" lon="6.34649">
        <ele>662.96630859375</ele>
        <time>2011-04-17T05:41:50Z</time>
      </trkpt>
      <trkpt lat="47.14966" lon="6.34621">
        <ele>661.04370117188</ele>
        <time>2011-04-17T05:41:54Z</time>
      </trkpt>
      <trkpt lat="47.1496" lon="6.34592">
        <ele>659.12109375</ele>
        <time>2011-04-17T05:41:58Z</time>
      </trkpt>
      <trkpt lat="47.14938" lon="6.34535">
        <ele>658.64038085938</ele>
        <time>2011-04-17T05:42:05Z</time>
      </trkpt>
      <trkpt lat="47.14923" lon="6.34499">
        <ele>658.64038085938</ele>
        <time>2011-04-17T05:42:10Z</time>
      </trkpt>
      <trkpt lat="47.14921" lon="6.34494">
        <ele>658.64038085938</ele>
        <time>2011-04-17T05:42:11Z</time>
      </trkpt>
      <trkpt lat="47.14924" lon="6.34472">
        <ele>659.12109375</ele>
        <time>2011-04-17T05:42:15Z</time>
      </trkpt>
      <trkpt lat="47.14925" lon="6.34438">
        <ele>658.15991210938</ele>
        <time>2011-04-17T05:42:19Z</time>
      </trkpt>
      <trkpt lat="47.14923" lon="6.34396">
        <ele>656.23706054688</ele>
        <time>2011-04-17T05:42:23Z</time>
      </trkpt>
      <trkpt lat="47.14919" lon="6.34344">
        <ele>656.23706054688</ele>
        <time>2011-04-17T05:42:28Z</time>
      </trkpt>
      <trkpt lat="47.1493" lon="6.34324">
        <ele>656.7177734375</ele>
        <time>2011-04-17T05:42:32Z</time>
      </trkpt>
      <trkpt lat="47.14953" lon="6.3432">
        <ele>656.23706054688</ele>
        <time>2011-04-17T05:42:36Z</time>
      </trkpt>
      <trkpt lat="47.14959" lon="6.34298">
        <ele>654.79516601562</ele>
        <time>2011-04-17T05:42:39Z</time>
      </trkpt>
      <trkpt lat="47.14959" lon="6.34289">
        <ele>654.79516601562</ele>
        <time>2011-04-17T05:42:40Z</time>
      </trkpt>
      <trkpt lat="47.14958" lon="6.34272">
        <ele>654.31469726562</ele>
        <time>2011-04-17T05:42:42Z</time>
      </trkpt>
      <trkpt lat="47.14964" lon="6.34251">
        <ele>654.31469726562</ele>
        <time>2011-04-17T05:42:46Z</time>
      </trkpt>
      <trkpt lat="47.14972" lon="6.34246">
        <ele>655.27587890625</ele>
        <time>2011-04-17T05:42:50Z</time>
      </trkpt>
      <trkpt lat="47.14973" lon="6.34246">
        <ele>654.31469726562</ele>
        <time>2011-04-17T05:42:51Z</time>
      </trkpt>
      <trkpt lat="47.14975" lon="6.34245">
        <ele>654.31469726562</ele>
        <time>2011-04-17T05:42:56Z</time>
      </trkpt>
      <trkpt lat="47.14976" lon="6.34246">
        <ele>653.833984375</ele>
        <time>2011-04-17T05:42:58Z</time>
      </trkpt>
      <trkpt lat="47.14974" lon="6.34246">
        <ele>653.35327148438</ele>
        <time>2011-04-17T05:43:00Z</time>
      </trkpt>
      <trkpt lat="47.14964" lon="6.34249">
        <ele>653.35327148438</ele>
        <time>2011-04-17T05:43:07Z</time>
      </trkpt>
      <trkpt lat="47.1496" lon="6.3426">
        <ele>653.833984375</ele>
        <time>2011-04-17T05:43:13Z</time>
      </trkpt>
      <trkpt lat="47.14957" lon="6.34274">
        <ele>654.31469726562</ele>
        <time>2011-04-17T05:43:18Z</time>
      </trkpt>
      <trkpt lat="47.14954" lon="6.34309">
        <ele>654.79516601562</ele>
        <time>2011-04-17T05:43:26Z</time>
      </trkpt>
      <trkpt lat="47.14953" lon="6.34314">
        <ele>654.79516601562</ele>
        <time>2011-04-17T05:43:27Z</time>
      </trkpt>
      <trkpt lat="47.1494" lon="6.34323">
        <ele>655.75659179688</ele>
        <time>2011-04-17T05:43:31Z</time>
      </trkpt>
      <trkpt lat="47.14921" lon="6.34333">
        <ele>656.23706054688</ele>
        <time>2011-04-17T05:43:36Z</time>
      </trkpt>
      <trkpt lat="47.14918" lon="6.34354">
        <ele>656.23706054688</ele>
        <time>2011-04-17T05:43:39Z</time>
      </trkpt>
      <trkpt lat="47.14922" lon="6.34426">
        <ele>656.7177734375</ele>
        <time>2011-04-17T05:43:48Z</time>
      </trkpt>
      <trkpt lat="47.14919" lon="6.34466">
        <ele>657.19848632812</ele>
        <time>2011-04-17T05:43:54Z</time>
      </trkpt>
      <trkpt lat="47.14913" lon="6.34484">
        <ele>658.64038085938</ele>
        <time>2011-04-17T05:43:57Z</time>
      </trkpt>
      <trkpt lat="47.14916" lon="6.34502">
        <ele>658.15991210938</ele>
        <time>2011-04-17T05:44:00Z</time>
      </trkpt>
      <trkpt lat="47.14931" lon="6.34541">
        <ele>658.64038085938</ele>
        <time>2011-04-17T05:44:06Z</time>
      </trkpt>
      <trkpt lat="47.14936" lon="6.34555">
        <ele>659.12109375</ele>
        <time>2011-04-17T05:44:08Z</time>
      </trkpt>
      <trkpt lat="47.14957" lon="6.34605">
        <ele>659.60180664062</ele>
        <time>2011-04-17T05:44:16Z</time>
      </trkpt>
      <trkpt lat="47.14974" lon="6.34651">
        <ele>662.00512695312</ele>
        <time>2011-04-17T05:44:25Z</time>
      </trkpt>
      <trkpt lat="47.14984" lon="6.34683">
        <ele>663.92749023438</ele>
        <time>2011-04-17T05:44:32Z</time>
      </trkpt>
      <trkpt lat="47.14978" lon="6.34692">
        <ele>665.36962890625</ele>
        <time>2011-04-17T05:44:35Z</time>
      </trkpt>
      <trkpt lat="47.14975" lon="6.34694">
        <ele>665.36962890625</ele>
        <time>2011-04-17T05:44:36Z</time>
      </trkpt>
      <trkpt lat="47.14941" lon="6.34721">
        <ele>666.8115234375</ele>
        <time>2011-04-17T05:44:47Z</time>
      </trkpt>
      <trkpt lat="47.1491" lon="6.34746">
        <ele>668.734375</ele>
        <time>2011-04-17T05:44:57Z</time>
      </trkpt>
      <trkpt lat="47.14886" lon="6.34759">
        <ele>670.17626953125</ele>
        <time>2011-04-17T05:45:05Z</time>
      </trkpt>
      <trkpt lat="47.1488" lon="6.34762">
        <ele>669.69580078125</ele>
        <time>2011-04-17T05:45:07Z</time>
      </trkpt>
      <trkpt lat="47.14878" lon="6.34765">
        <ele>669.21508789062</ele>
        <time>2011-04-17T05:45:08Z</time>
      </trkpt>
      <trkpt lat="47.14878" lon="6.3478">
        <ele>671.6181640625</ele>
        <time>2011-04-17T05:45:12Z</time>
      </trkpt>
      <trkpt lat="47.1488" lon="6.34784">
        <ele>671.1376953125</ele>
        <time>2011-04-17T05:45:13Z</time>
      </trkpt>
      <trkpt lat="47.14904" lon="6.34819">
        <ele>671.6181640625</ele>
        <time>2011-04-17T05:45:23Z</time>
      </trkpt>
      <trkpt lat="47.14921" lon="6.34842">
        <ele>671.6181640625</ele>
        <time>2011-04-17T05:45:30Z</time>
      </trkpt>
      <trkpt lat="47.14939" lon="6.34867">
        <ele>671.6181640625</ele>
        <time>2011-04-17T05:45:38Z</time>
      </trkpt>
      <trkpt lat="47.14944" lon="6.34874">
        <ele>671.6181640625</ele>
        <time>2011-04-17T05:45:40Z</time>
      </trkpt>
      <trkpt lat="47.14949" lon="6.34882">
        <ele>672.09887695312</ele>
        <time>2011-04-17T05:45:42Z</time>
      </trkpt>
      <trkpt lat="47.14965" lon="6.34902">
        <ele>672.09887695312</ele>
        <time>2011-04-17T05:45:46Z</time>
      </trkpt>
      <trkpt lat="47.14991" lon="6.34945">
        <ele>672.09887695312</ele>
        <time>2011-04-17T05:45:54Z</time>
      </trkpt>
      <trkpt lat="47.14997" lon="6.34975">
        <ele>670.17626953125</ele>
        <time>2011-04-17T05:45:58Z</time>
      </trkpt>
      <trkpt lat="47.14999" lon="6.3501">
        <ele>669.21508789062</ele>
        <time>2011-04-17T05:46:02Z</time>
      </trkpt>
      <trkpt lat="47.15014" lon="6.35053">
        <ele>668.734375</ele>
        <time>2011-04-17T05:46:07Z</time>
      </trkpt>
      <trkpt lat="47.15044" lon="6.35104">
        <ele>666.33081054688</ele>
        <time>2011-04-17T05:46:14Z</time>
      </trkpt>
      <trkpt lat="47.15059" lon="6.35129">
        <ele>664.88891601562</ele>
        <time>2011-04-17T05:46:17Z</time>
      </trkpt>
      <trkpt lat="47.15075" lon="6.35155">
        <ele>662.96630859375</ele>
        <time>2011-04-17T05:46:20Z</time>
      </trkpt>
      <trkpt lat="47.15102" lon="6.35178">
        <ele>662.48559570312</ele>
        <time>2011-04-17T05:46:24Z</time>
      </trkpt>
      <trkpt lat="47.1512" lon="6.35197">
        <ele>662.00512695312</ele>
        <time>2011-04-17T05:46:27Z</time>
      </trkpt>
      <trkpt lat="47.15131" lon="6.35226">
        <ele>661.5244140625</ele>
        <time>2011-04-17T05:46:31Z</time>
      </trkpt>
      <trkpt lat="47.15133" lon="6.35242">
        <ele>661.5244140625</ele>
        <time>2011-04-17T05:46:33Z</time>
      </trkpt>
      <trkpt lat="47.15133" lon="6.35258">
        <ele>661.04370117188</ele>
        <time>2011-04-17T05:46:35Z</time>
      </trkpt>
      <trkpt lat="47.15145" lon="6.35317">
        <ele>660.08227539062</ele>
        <time>2011-04-17T05:46:43Z</time>
      </trkpt>
      <trkpt lat="47.15142" lon="6.35353">
        <ele>659.12109375</ele>
        <time>2011-04-17T05:46:48Z</time>
      </trkpt>
      <trkpt lat="47.15135" lon="6.35367">
        <ele>658.15991210938</ele>
        <time>2011-04-17T05:46:50Z</time>
      </trkpt>
      <trkpt lat="47.1513" lon="6.35392">
        <ele>658.15991210938</ele>
        <time>2011-04-17T05:46:53Z</time>
      </trkpt>
      <trkpt lat="47.1513" lon="6.3541">
        <ele>658.15991210938</ele>
        <time>2011-04-17T05:46:55Z</time>
      </trkpt>
      <trkpt lat="47.15129" lon="6.35463">
        <ele>659.60180664062</ele>
        <time>2011-04-17T05:47:02Z</time>
      </trkpt>
      <trkpt lat="47.15127" lon="6.35477">
        <ele>659.60180664062</ele>
        <time>2011-04-17T05:47:04Z</time>
      </trkpt>
      <trkpt lat="47.1511" lon="6.35524">
        <ele>660.08227539062</ele>
        <time>2011-04-17T05:47:11Z</time>
      </trkpt>
      <trkpt lat="47.15093" lon="6.35565">
        <ele>662.00512695312</ele>
        <time>2011-04-17T05:47:18Z</time>
      </trkpt>
      <trkpt lat="47.15078" lon="6.35592">
        <ele>663.92749023438</ele>
        <time>2011-04-17T05:47:24Z</time>
      </trkpt>
      <trkpt lat="47.15057" lon="6.35622">
        <ele>663.92749023438</ele>
        <time>2011-04-17T05:47:31Z</time>
      </trkpt>
      <trkpt lat="47.15033" lon="6.35659">
        <ele>665.85034179688</ele>
        <time>2011-04-17T05:47:40Z</time>
      </trkpt>
      <trkpt lat="47.15011" lon="6.35691">
        <ele>667.77270507812</ele>
        <time>2011-04-17T05:47:49Z</time>
      </trkpt>
      <trkpt lat="47.15007" lon="6.35698">
        <ele>668.734375</ele>
        <time>2011-04-17T05:47:51Z</time>
      </trkpt>
      <trkpt lat="47.15002" lon="6.35716">
        <ele>668.734375</ele>
        <time>2011-04-17T05:47:55Z</time>
      </trkpt>
      <trkpt lat="47.15012" lon="6.35732">
        <ele>668.734375</ele>
        <time>2011-04-17T05:47:59Z</time>
      </trkpt>
      <trkpt lat="47.15042" lon="6.35772">
        <ele>668.734375</ele>
        <time>2011-04-17T05:48:08Z</time>
      </trkpt>
      <trkpt lat="47.15065" lon="6.35799">
        <ele>669.21508789062</ele>
        <time>2011-04-17T05:48:15Z</time>
      </trkpt>
      <trkpt lat="47.15099" lon="6.35834">
        <ele>671.1376953125</ele>
        <time>2011-04-17T05:48:25Z</time>
      </trkpt>
      <trkpt lat="47.15126" lon="6.35859">
        <ele>670.17626953125</ele>
        <time>2011-04-17T05:48:32Z</time>
      </trkpt>
      <trkpt lat="47.1513" lon="6.35863">
        <ele>670.17626953125</ele>
        <time>2011-04-17T05:48:33Z</time>
      </trkpt>
      <trkpt lat="47.15155" lon="6.35904">
        <ele>670.65698242188</ele>
        <time>2011-04-17T05:48:40Z</time>
      </trkpt>
      <trkpt lat="47.15175" lon="6.35947">
        <ele>672.57958984375</ele>
        <time>2011-04-17T05:48:48Z</time>
      </trkpt>
      <trkpt lat="47.15197" lon="6.35999">
        <ele>674.021484375</ele>
        <time>2011-04-17T05:48:58Z</time>
      </trkpt>
      <trkpt lat="47.15213" lon="6.36038">
        <ele>675.46337890625</ele>
        <time>2011-04-17T05:49:06Z</time>
      </trkpt>
      <trkpt lat="47.15225" lon="6.36064">
        <ele>675.94409179688</ele>
        <time>2011-04-17T05:49:12Z</time>
      </trkpt>
      <trkpt lat="47.1524" lon="6.36097">
        <ele>676.4248046875</ele>
        <time>2011-04-17T05:49:19Z</time>
      </trkpt>
      <trkpt lat="47.15252" lon="6.36128">
        <ele>676.90551757812</ele>
        <time>2011-04-17T05:49:25Z</time>
      </trkpt>
      <trkpt lat="47.15263" lon="6.3615">
        <ele>677.38623046875</ele>
        <time>2011-04-17T05:49:30Z</time>
      </trkpt>
      <trkpt lat="47.15268" lon="6.36166">
        <ele>676.90551757812</ele>
        <time>2011-04-17T05:49:33Z</time>
      </trkpt>
      <trkpt lat="47.15271" lon="6.36185">
        <ele>676.90551757812</ele>
        <time>2011-04-17T05:49:36Z</time>
      </trkpt>
      <trkpt lat="47.15269" lon="6.36223">
        <ele>675.46337890625</ele>
        <time>2011-04-17T05:49:41Z</time>
      </trkpt>
      <trkpt lat="47.15267" lon="6.36249">
        <ele>674.021484375</ele>
        <time>2011-04-17T05:49:44Z</time>
      </trkpt>
      <trkpt lat="47.15266" lon="6.36258">
        <ele>674.021484375</ele>
        <time>2011-04-17T05:49:45Z</time>
      </trkpt>
      <trkpt lat="47.1526" lon="6.36299">
        <ele>674.98291015625</ele>
        <time>2011-04-17T05:49:51Z</time>
      </trkpt>
      <trkpt lat="47.15267" lon="6.36332">
        <ele>674.98291015625</ele>
        <time>2011-04-17T05:49:56Z</time>
      </trkpt>
      <trkpt lat="47.15269" lon="6.36337">
        <ele>674.50219726562</ele>
        <time>2011-04-17T05:49:57Z</time>
      </trkpt>
      <trkpt lat="47.15276" lon="6.36347">
        <ele>674.021484375</ele>
        <time>2011-04-17T05:49:59Z</time>
      </trkpt>
      <trkpt lat="47.153" lon="6.3637">
        <ele>674.98291015625</ele>
        <time>2011-04-17T05:50:05Z</time>
      </trkpt>
      <trkpt lat="47.15315" lon="6.36383">
        <ele>677.38623046875</ele>
        <time>2011-04-17T05:50:10Z</time>
      </trkpt>
      <trkpt lat="47.15325" lon="6.36398">
        <ele>678.828125</ele>
        <time>2011-04-17T05:50:15Z</time>
      </trkpt>
      <trkpt lat="47.1533" lon="6.36419">
        <ele>679.78930664062</ele>
        <time>2011-04-17T05:50:20Z</time>
      </trkpt>
      <trkpt lat="47.15336" lon="6.36436">
        <ele>680.75073242188</ele>
        <time>2011-04-17T05:50:24Z</time>
      </trkpt>
      <trkpt lat="47.15343" lon="6.36455">
        <ele>681.2314453125</ele>
        <time>2011-04-17T05:50:28Z</time>
      </trkpt>
      <trkpt lat="47.15353" lon="6.36478">
        <ele>682.19262695312</ele>
        <time>2011-04-17T05:50:34Z</time>
      </trkpt>
      <trkpt lat="47.15363" lon="6.36505">
        <ele>682.67333984375</ele>
        <time>2011-04-17T05:50:40Z</time>
      </trkpt>
      <trkpt lat="47.15369" lon="6.3652">
        <ele>683.15380859375</ele>
        <time>2011-04-17T05:50:44Z</time>
      </trkpt>
      <trkpt lat="47.15379" lon="6.36545">
        <ele>684.11547851562</ele>
        <time>2011-04-17T05:50:50Z</time>
      </trkpt>
      <trkpt lat="47.15386" lon="6.36566">
        <ele>684.59619140625</ele>
        <time>2011-04-17T05:50:55Z</time>
      </trkpt>
      <trkpt lat="47.15395" lon="6.36588">
        <ele>685.55737304688</ele>
        <time>2011-04-17T05:51:00Z</time>
      </trkpt>
      <trkpt lat="47.15408" lon="6.36616">
        <ele>685.55737304688</ele>
        <time>2011-04-17T05:51:06Z</time>
      </trkpt>
      <trkpt lat="47.15415" lon="6.36634">
        <ele>685.55737304688</ele>
        <time>2011-04-17T05:51:10Z</time>
      </trkpt>
      <trkpt lat="47.15407" lon="6.36649">
        <ele>685.07690429688</ele>
        <time>2011-04-17T05:51:14Z</time>
      </trkpt>
      <trkpt lat="47.15386" lon="6.36668">
        <ele>685.07690429688</ele>
        <time>2011-04-17T05:51:21Z</time>
      </trkpt>
      <trkpt lat="47.1537" lon="6.36684">
        <ele>685.07690429688</ele>
        <time>2011-04-17T05:51:26Z</time>
      </trkpt>
      <trkpt lat="47.15354" lon="6.36697">
        <ele>685.07690429688</ele>
        <time>2011-04-17T05:51:30Z</time>
      </trkpt>
      <trkpt lat="47.15344" lon="6.36706">
        <ele>684.59619140625</ele>
        <time>2011-04-17T05:51:33Z</time>
      </trkpt>
      <trkpt lat="47.15342" lon="6.36709">
        <ele>684.11547851562</ele>
        <time>2011-04-17T05:51:34Z</time>
      </trkpt>
      <trkpt lat="47.15326" lon="6.36724">
        <ele>685.07690429688</ele>
        <time>2011-04-17T05:51:39Z</time>
      </trkpt>
      <trkpt lat="47.1531" lon="6.36738">
        <ele>684.11547851562</ele>
        <time>2011-04-17T05:51:43Z</time>
      </trkpt>
      <trkpt lat="47.15289" lon="6.36755">
        <ele>683.63452148438</ele>
        <time>2011-04-17T05:51:48Z</time>
      </trkpt>
      <trkpt lat="47.15285" lon="6.36758">
        <ele>684.11547851562</ele>
        <time>2011-04-17T05:51:49Z</time>
      </trkpt>
      <trkpt lat="47.15276" lon="6.36766">
        <ele>683.15380859375</ele>
        <time>2011-04-17T05:51:51Z</time>
      </trkpt>
      <trkpt lat="47.15253" lon="6.36778">
        <ele>683.63452148438</ele>
        <time>2011-04-17T05:51:56Z</time>
      </trkpt>
      <trkpt lat="47.15245" lon="6.36786">
        <ele>683.15380859375</ele>
        <time>2011-04-17T05:51:58Z</time>
      </trkpt>
      <trkpt lat="47.15227" lon="6.368">
        <ele>683.63452148438</ele>
        <time>2011-04-17T05:52:03Z</time>
      </trkpt>
      <trkpt lat="47.15206" lon="6.36813">
        <ele>683.63452148438</ele>
        <time>2011-04-17T05:52:08Z</time>
      </trkpt>
      <trkpt lat="47.152" lon="6.36818">
        <ele>683.63452148438</ele>
        <time>2011-04-17T05:52:10Z</time>
      </trkpt>
      <trkpt lat="47.15182" lon="6.36832">
        <ele>684.11547851562</ele>
        <time>2011-04-17T05:52:15Z</time>
      </trkpt>
      <trkpt lat="47.15163" lon="6.36844">
        <ele>683.63452148438</ele>
        <time>2011-04-17T05:52:20Z</time>
      </trkpt>
      <trkpt lat="47.15157" lon="6.36849">
        <ele>684.59619140625</ele>
        <time>2011-04-17T05:52:22Z</time>
      </trkpt>
      <trkpt lat="47.15153" lon="6.36851">
        <ele>684.59619140625</ele>
        <time>2011-04-17T05:52:23Z</time>
      </trkpt>
      <trkpt lat="47.15133" lon="6.36862">
        <ele>683.63452148438</ele>
        <time>2011-04-17T05:52:28Z</time>
      </trkpt>
      <trkpt lat="47.15112" lon="6.36878">
        <ele>683.63452148438</ele>
        <time>2011-04-17T05:52:33Z</time>
      </trkpt>
      <trkpt lat="47.15099" lon="6.36886">
        <ele>683.63452148438</ele>
        <time>2011-04-17T05:52:37Z</time>
      </trkpt>
      <trkpt lat="47.15081" lon="6.36881">
        <ele>683.15380859375</ele>
        <time>2011-04-17T05:52:42Z</time>
      </trkpt>
      <trkpt lat="47.15075" lon="6.36874">
        <ele>684.11547851562</ele>
        <time>2011-04-17T05:52:44Z</time>
      </trkpt>
      <trkpt lat="47.15073" lon="6.3687">
        <ele>683.63452148438</ele>
        <time>2011-04-17T05:52:46Z</time>
      </trkpt>
      <trkpt lat="47.15067" lon="6.36856">
        <ele>685.07690429688</ele>
        <time>2011-04-17T05:52:49Z</time>
      </trkpt>
      <trkpt lat="47.15057" lon="6.36849">
        <ele>686.51879882812</ele>
        <time>2011-04-17T05:52:54Z</time>
      </trkpt>
      <trkpt lat="47.15047" lon="6.36844">
        <ele>686.99926757812</ele>
        <time>2011-04-17T05:52:58Z</time>
      </trkpt>
      <trkpt lat="47.15045" lon="6.36841">
        <ele>687.47998046875</ele>
        <time>2011-04-17T05:52:59Z</time>
      </trkpt>
      <trkpt lat="47.1503" lon="6.36828">
        <ele>686.51879882812</ele>
        <time>2011-04-17T05:53:05Z</time>
      </trkpt>
      <trkpt lat="47.1502" lon="6.36811">
        <ele>687.47998046875</ele>
        <time>2011-04-17T05:53:10Z</time>
      </trkpt>
      <trkpt lat="47.15015" lon="6.36802">
        <ele>688.92211914062</ele>
        <time>2011-04-17T05:53:13Z</time>
      </trkpt>
      <trkpt lat="47.15012" lon="6.36798">
        <ele>689.40258789062</ele>
        <time>2011-04-17T05:53:15Z</time>
      </trkpt>
      <trkpt lat="47.15002" lon="6.36782">
        <ele>690.84448242188</ele>
        <time>2011-04-17T05:53:22Z</time>
      </trkpt>
      <trkpt lat="47.14997" lon="6.36777">
        <ele>692.76733398438</ele>
        <time>2011-04-17T05:53:27Z</time>
      </trkpt>
      <trkpt lat="47.14988" lon="6.36762">
        <ele>692.28662109375</ele>
        <time>2011-04-17T05:53:34Z</time>
      </trkpt>
      <trkpt lat="47.14983" lon="6.36755">
        <ele>692.76733398438</ele>
        <time>2011-04-17T05:53:37Z</time>
      </trkpt>
      <trkpt lat="47.14967" lon="6.36731">
        <ele>693.728515625</ele>
        <time>2011-04-17T05:53:45Z</time>
      </trkpt>
      <trkpt lat="47.14958" lon="6.36714">
        <ele>694.20922851562</ele>
        <time>2011-04-17T05:53:51Z</time>
      </trkpt>
      <trkpt lat="47.14952" lon="6.36706">
        <ele>693.728515625</ele>
        <time>2011-04-17T05:53:54Z</time>
      </trkpt>
      <trkpt lat="47.14951" lon="6.36704">
        <ele>693.728515625</ele>
        <time>2011-04-17T05:53:55Z</time>
      </trkpt>
      <trkpt lat="47.14941" lon="6.36687">
        <ele>694.68969726562</ele>
        <time>2011-04-17T05:54:00Z</time>
      </trkpt>
      <trkpt lat="47.14937" lon="6.36679">
        <ele>694.68969726562</ele>
        <time>2011-04-17T05:54:02Z</time>
      </trkpt>
      <trkpt lat="47.14928" lon="6.36665">
        <ele>694.20922851562</ele>
        <time>2011-04-17T05:54:06Z</time>
      </trkpt>
      <trkpt lat="47.14926" lon="6.36661">
        <ele>694.20922851562</ele>
        <time>2011-04-17T05:54:07Z</time>
      </trkpt>
      <trkpt lat="47.14922" lon="6.36656">
        <ele>694.20922851562</ele>
        <time>2011-04-17T05:54:09Z</time>
      </trkpt>
      <trkpt lat="47.1492" lon="6.36653">
        <ele>694.20922851562</ele>
        <time>2011-04-17T05:54:10Z</time>
      </trkpt>
      <trkpt lat="47.14907" lon="6.36631">
        <ele>693.24780273438</ele>
        <time>2011-04-17T05:54:16Z</time>
      </trkpt>
      <trkpt lat="47.14904" lon="6.36627">
        <ele>692.76733398438</ele>
        <time>2011-04-17T05:54:18Z</time>
      </trkpt>
      <trkpt lat="47.14897" lon="6.36616">
        <ele>692.76733398438</ele>
        <time>2011-04-17T05:54:21Z</time>
      </trkpt>
      <trkpt lat="47.14886" lon="6.36596">
        <ele>692.28662109375</ele>
        <time>2011-04-17T05:54:26Z</time>
      </trkpt>
      <trkpt lat="47.14877" lon="6.36583">
        <ele>692.28662109375</ele>
        <time>2011-04-17T05:54:29Z</time>
      </trkpt>
      <trkpt lat="47.14875" lon="6.3658">
        <ele>692.28662109375</ele>
        <time>2011-04-17T05:54:30Z</time>
      </trkpt>
      <trkpt lat="47.14866" lon="6.36565">
        <ele>691.80590820312</ele>
        <time>2011-04-17T05:54:33Z</time>
      </trkpt>
      <trkpt lat="47.14852" lon="6.36554">
        <ele>692.28662109375</ele>
        <time>2011-04-17T05:54:39Z</time>
      </trkpt>
      <trkpt lat="47.14849" lon="6.36552">
        <ele>692.28662109375</ele>
        <time>2011-04-17T05:54:40Z</time>
      </trkpt>
      <trkpt lat="47.14837" lon="6.3655">
        <ele>692.28662109375</ele>
        <time>2011-04-17T05:54:45Z</time>
      </trkpt>
      <trkpt lat="47.14817" lon="6.36569">
        <ele>692.76733398438</ele>
        <time>2011-04-17T05:54:52Z</time>
      </trkpt>
      <trkpt lat="47.14799" lon="6.36591">
        <ele>693.24780273438</ele>
        <time>2011-04-17T05:54:59Z</time>
      </trkpt>
      <trkpt lat="47.14778" lon="6.36635">
        <ele>694.20922851562</ele>
        <time>2011-04-17T05:55:10Z</time>
      </trkpt>
      <trkpt lat="47.14762" lon="6.36677">
        <ele>695.17041015625</ele>
        <time>2011-04-17T05:55:19Z</time>
      </trkpt>
      <trkpt lat="47.14752" lon="6.36715">
        <ele>695.65112304688</ele>
        <time>2011-04-17T05:55:26Z</time>
      </trkpt>
      <trkpt lat="47.14741" lon="6.3675">
        <ele>696.61254882812</ele>
        <time>2011-04-17T05:55:33Z</time>
      </trkpt>
      <trkpt lat="47.14727" lon="6.36796">
        <ele>697.09301757812</ele>
        <time>2011-04-17T05:55:42Z</time>
      </trkpt>
      <trkpt lat="47.14713" lon="6.36843">
        <ele>698.05444335938</ele>
        <time>2011-04-17T05:55:51Z</time>
      </trkpt>
      <trkpt lat="47.14695" lon="6.3689">
        <ele>700.4580078125</ele>
        <time>2011-04-17T05:56:01Z</time>
      </trkpt>
      <trkpt lat="47.14684" lon="6.36919">
        <ele>701.89990234375</ele>
        <time>2011-04-17T05:56:08Z</time>
      </trkpt>
      <trkpt lat="47.1467" lon="6.36961">
        <ele>703.341796875</ele>
        <time>2011-04-17T05:56:17Z</time>
      </trkpt>
      <trkpt lat="47.14665" lon="6.3698">
        <ele>703.341796875</ele>
        <time>2011-04-17T05:56:22Z</time>
      </trkpt>
      <trkpt lat="47.14663" lon="6.36991">
        <ele>703.341796875</ele>
        <time>2011-04-17T05:56:25Z</time>
      </trkpt>
      <trkpt lat="47.14669" lon="6.3701">
        <ele>703.82250976562</ele>
        <time>2011-04-17T05:56:29Z</time>
      </trkpt>
      <trkpt lat="47.14677" lon="6.37038">
        <ele>704.30322265625</ele>
        <time>2011-04-17T05:56:35Z</time>
      </trkpt>
      <trkpt lat="47.14682" lon="6.37062">
        <ele>704.78369140625</ele>
        <time>2011-04-17T05:56:41Z</time>
      </trkpt>
      <trkpt lat="47.14685" lon="6.37086">
        <ele>704.30322265625</ele>
        <time>2011-04-17T05:56:46Z</time>
      </trkpt>
      <trkpt lat="47.14688" lon="6.37108">
        <ele>704.30322265625</ele>
        <time>2011-04-17T05:56:51Z</time>
      </trkpt>
      <trkpt lat="47.1468" lon="6.37125">
        <ele>704.30322265625</ele>
        <time>2011-04-17T05:56:55Z</time>
      </trkpt>
      <trkpt lat="47.14674" lon="6.37142">
        <ele>703.82250976562</ele>
        <time>2011-04-17T05:56:59Z</time>
      </trkpt>
      <trkpt lat="47.1467" lon="6.37165">
        <ele>704.78369140625</ele>
        <time>2011-04-17T05:57:04Z</time>
      </trkpt>
      <trkpt lat="47.14664" lon="6.37189">
        <ele>705.7451171875</ele>
        <time>2011-04-17T05:57:10Z</time>
      </trkpt>
      <trkpt lat="47.14658" lon="6.37215">
        <ele>706.2255859375</ele>
        <time>2011-04-17T05:57:16Z</time>
      </trkpt>
      <trkpt lat="47.14656" lon="6.37223">
        <ele>706.2255859375</ele>
        <time>2011-04-17T05:57:18Z</time>
      </trkpt>
      <trkpt lat="47.14651" lon="6.37243">
        <ele>707.18701171875</ele>
        <time>2011-04-17T05:57:22Z</time>
      </trkpt>
      <trkpt lat="47.14651" lon="6.37269">
        <ele>707.18701171875</ele>
        <time>2011-04-17T05:57:28Z</time>
      </trkpt>
      <trkpt lat="47.14651" lon="6.37275">
        <ele>707.18701171875</ele>
        <time>2011-04-17T05:57:30Z</time>
      </trkpt>
      <trkpt lat="47.1466" lon="6.3729">
        <ele>707.18701171875</ele>
        <time>2011-04-17T05:57:35Z</time>
      </trkpt>
      <trkpt lat="47.14672" lon="6.37302">
        <ele>707.18701171875</ele>
        <time>2011-04-17T05:57:40Z</time>
      </trkpt>
      <trkpt lat="47.14677" lon="6.37309">
        <ele>706.2255859375</ele>
        <time>2011-04-17T05:57:42Z</time>
      </trkpt>
      <trkpt lat="47.1469" lon="6.37322">
        <ele>705.26440429688</ele>
        <time>2011-04-17T05:57:47Z</time>
      </trkpt>
      <trkpt lat="47.14701" lon="6.37334">
        <ele>704.78369140625</ele>
        <time>2011-04-17T05:57:51Z</time>
      </trkpt>
      <trkpt lat="47.14716" lon="6.37347">
        <ele>704.78369140625</ele>
        <time>2011-04-17T05:57:56Z</time>
      </trkpt>
      <trkpt lat="47.14729" lon="6.37362">
        <ele>704.78369140625</ele>
        <time>2011-04-17T05:58:00Z</time>
      </trkpt>
      <trkpt lat="47.14747" lon="6.37383">
        <ele>704.78369140625</ele>
        <time>2011-04-17T05:58:05Z</time>
      </trkpt>
      <trkpt lat="47.14751" lon="6.37388">
        <ele>703.82250976562</ele>
        <time>2011-04-17T05:58:06Z</time>
      </trkpt>
      <trkpt lat="47.1477" lon="6.37407">
        <ele>704.30322265625</ele>
        <time>2011-04-17T05:58:11Z</time>
      </trkpt>
      <trkpt lat="47.14774" lon="6.37427">
        <ele>703.82250976562</ele>
        <time>2011-04-17T05:58:15Z</time>
      </trkpt>
      <trkpt lat="47.1477" lon="6.37441">
        <ele>703.341796875</ele>
        <time>2011-04-17T05:58:18Z</time>
      </trkpt>
      <trkpt lat="47.1476" lon="6.3747">
        <ele>701.41918945312</ele>
        <time>2011-04-17T05:58:24Z</time>
      </trkpt>
      <trkpt lat="47.14745" lon="6.37505">
        <ele>698.53491210938</ele>
        <time>2011-04-17T05:58:29Z</time>
      </trkpt>
      <trkpt lat="47.14731" lon="6.37536">
        <ele>697.09301757812</ele>
        <time>2011-04-17T05:58:33Z</time>
      </trkpt>
      <trkpt lat="47.14727" lon="6.37543">
        <ele>695.65112304688</ele>
        <time>2011-04-17T05:58:34Z</time>
      </trkpt>
      <trkpt lat="47.1472" lon="6.37559">
        <ele>694.20922851562</ele>
        <time>2011-04-17T05:58:36Z</time>
      </trkpt>
      <trkpt lat="47.14719" lon="6.37592">
        <ele>693.728515625</ele>
        <time>2011-04-17T05:58:40Z</time>
      </trkpt>
      <trkpt lat="47.14722" lon="6.37605">
        <ele>693.24780273438</ele>
        <time>2011-04-17T05:58:44Z</time>
      </trkpt>
      <trkpt lat="47.14722" lon="6.37606">
        <ele>693.728515625</ele>
        <time>2011-04-17T05:58:47Z</time>
      </trkpt>
      <trkpt lat="47.14723" lon="6.37615">
        <ele>694.20922851562</ele>
        <time>2011-04-17T05:58:51Z</time>
      </trkpt>
      <trkpt lat="47.14724" lon="6.37619">
        <ele>693.24780273438</ele>
        <time>2011-04-17T05:58:56Z</time>
      </trkpt>
      <trkpt lat="47.14724" lon="6.37624">
        <ele>693.728515625</ele>
        <time>2011-04-17T05:58:59Z</time>
      </trkpt>
      <trkpt lat="47.14725" lon="6.37627">
        <ele>693.728515625</ele>
        <time>2011-04-17T05:59:01Z</time>
      </trkpt>
      <trkpt lat="47.14735" lon="6.37642">
        <ele>693.728515625</ele>
        <time>2011-04-17T05:59:05Z</time>
      </trkpt>
      <trkpt lat="47.14744" lon="6.3765">
        <ele>694.20922851562</ele>
        <time>2011-04-17T05:59:07Z</time>
      </trkpt>
      <trkpt lat="47.14757" lon="6.37659">
        <ele>693.24780273438</ele>
        <time>2011-04-17T05:59:12Z</time>
      </trkpt>
      <trkpt lat="47.14767" lon="6.37669">
        <ele>692.28662109375</ele>
        <time>2011-04-17T05:59:15Z</time>
      </trkpt>
      <trkpt lat="47.14788" lon="6.37669">
        <ele>692.28662109375</ele>
        <time>2011-04-17T05:59:20Z</time>
      </trkpt>
      <trkpt lat="47.14796" lon="6.37674">
        <ele>691.80590820312</ele>
        <time>2011-04-17T05:59:22Z</time>
      </trkpt>
      <trkpt lat="47.14811" lon="6.37695">
        <ele>693.24780273438</ele>
        <time>2011-04-17T05:59:26Z</time>
      </trkpt>
      <trkpt lat="47.14826" lon="6.3772">
        <ele>694.20922851562</ele>
        <time>2011-04-17T05:59:31Z</time>
      </trkpt>
      <trkpt lat="47.14829" lon="6.37726">
        <ele>694.20922851562</ele>
        <time>2011-04-17T05:59:32Z</time>
      </trkpt>
      <trkpt lat="47.1484" lon="6.37751">
        <ele>694.68969726562</ele>
        <time>2011-04-17T05:59:37Z</time>
      </trkpt>
      <trkpt lat="47.14836" lon="6.37761">
        <ele>694.20922851562</ele>
        <time>2011-04-17T05:59:39Z</time>
      </trkpt>
      <trkpt lat="47.14819" lon="6.37791">
        <ele>695.17041015625</ele>
        <time>2011-04-17T05:59:46Z</time>
      </trkpt>
      <trkpt lat="47.14799" lon="6.37824">
        <ele>696.61254882812</ele>
        <time>2011-04-17T05:59:54Z</time>
      </trkpt>
      <trkpt lat="47.14782" lon="6.37849">
        <ele>697.09301757812</ele>
        <time>2011-04-17T06:00:00Z</time>
      </trkpt>
      <trkpt lat="47.14767" lon="6.37859">
        <ele>697.09301757812</ele>
        <time>2011-04-17T06:00:04Z</time>
      </trkpt>
      <trkpt lat="47.14763" lon="6.37857">
        <ele>697.09301757812</ele>
        <time>2011-04-17T06:00:05Z</time>
      </trkpt>
      <trkpt lat="47.14723" lon="6.37826">
        <ele>695.65112304688</ele>
        <time>2011-04-17T06:00:14Z</time>
      </trkpt>
      <trkpt lat="47.14687" lon="6.37791">
        <ele>696.1318359375</ele>
        <time>2011-04-17T06:00:22Z</time>
      </trkpt>
      <trkpt lat="47.1465" lon="6.37749">
        <ele>696.1318359375</ele>
        <time>2011-04-17T06:00:31Z</time>
      </trkpt>
      <trkpt lat="47.14612" lon="6.37704">
        <ele>696.61254882812</ele>
        <time>2011-04-17T06:00:40Z</time>
      </trkpt>
      <trkpt lat="47.14572" lon="6.37665">
        <ele>697.09301757812</ele>
        <time>2011-04-17T06:00:49Z</time>
      </trkpt>
      <trkpt lat="47.14542" lon="6.37651">
        <ele>697.09301757812</ele>
        <time>2011-04-17T06:00:55Z</time>
      </trkpt>
      <trkpt lat="47.14511" lon="6.37651">
        <ele>698.53491210938</ele>
        <time>2011-04-17T06:01:01Z</time>
      </trkpt>
      <trkpt lat="47.14475" lon="6.37659">
        <ele>699.49633789062</ele>
        <time>2011-04-17T06:01:08Z</time>
      </trkpt>
      <trkpt lat="47.14442" lon="6.37659">
        <ele>701.41918945312</ele>
        <time>2011-04-17T06:01:15Z</time>
      </trkpt>
      <trkpt lat="47.1441" lon="6.37643">
        <ele>702.38037109375</ele>
        <time>2011-04-17T06:01:22Z</time>
      </trkpt>
      <trkpt lat="47.14374" lon="6.3761">
        <ele>703.341796875</ele>
        <time>2011-04-17T06:01:31Z</time>
      </trkpt>
      <trkpt lat="47.14345" lon="6.37582">
        <ele>703.82250976562</ele>
        <time>2011-04-17T06:01:38Z</time>
      </trkpt>
      <trkpt lat="47.14309" lon="6.37544">
        <ele>703.82250976562</ele>
        <time>2011-04-17T06:01:47Z</time>
      </trkpt>
      <trkpt lat="47.1428" lon="6.375">
        <ele>703.82250976562</ele>
        <time>2011-04-17T06:01:55Z</time>
      </trkpt>
      <trkpt lat="47.14257" lon="6.37458">
        <ele>704.78369140625</ele>
        <time>2011-04-17T06:02:02Z</time>
      </trkpt>
      <trkpt lat="47.14241" lon="6.37428">
        <ele>705.7451171875</ele>
        <time>2011-04-17T06:02:07Z</time>
      </trkpt>
      <trkpt lat="47.14238" lon="6.37422">
        <ele>706.2255859375</ele>
        <time>2011-04-17T06:02:08Z</time>
      </trkpt>
      <trkpt lat="47.14226" lon="6.37392">
        <ele>708.62890625</ele>
        <time>2011-04-17T06:02:13Z</time>
      </trkpt>
      <trkpt lat="47.14222" lon="6.3738">
        <ele>709.59033203125</ele>
        <time>2011-04-17T06:02:15Z</time>
      </trkpt>
      <trkpt lat="47.14219" lon="6.37354">
        <ele>709.59033203125</ele>
        <time>2011-04-17T06:02:19Z</time>
      </trkpt>
      <trkpt lat="47.14222" lon="6.37318">
        <ele>709.59033203125</ele>
        <time>2011-04-17T06:02:24Z</time>
      </trkpt>
      <trkpt lat="47.14216" lon="6.3728">
        <ele>709.59033203125</ele>
        <time>2011-04-17T06:02:29Z</time>
      </trkpt>
      <trkpt lat="47.1421" lon="6.37266">
        <ele>709.59033203125</ele>
        <time>2011-04-17T06:02:31Z</time>
      </trkpt>
      <trkpt lat="47.14194" lon="6.37237">
        <ele>710.07080078125</ele>
        <time>2011-04-17T06:02:36Z</time>
      </trkpt>
      <trkpt lat="47.14182" lon="6.37226">
        <ele>711.99365234375</ele>
        <time>2011-04-17T06:02:39Z</time>
      </trkpt>
      <trkpt lat="47.14165" lon="6.37233">
        <ele>712.47412109375</ele>
        <time>2011-04-17T06:02:43Z</time>
      </trkpt>
      <trkpt lat="47.14142" lon="6.37263">
        <ele>713.916015625</ele>
        <time>2011-04-17T06:02:51Z</time>
      </trkpt>
      <trkpt lat="47.14138" lon="6.3727">
        <ele>714.39672851562</ele>
        <time>2011-04-17T06:02:53Z</time>
      </trkpt>
      <trkpt lat="47.14126" lon="6.37266">
        <ele>714.39672851562</ele>
        <time>2011-04-17T06:02:57Z</time>
      </trkpt>
      <trkpt lat="47.14098" lon="6.37234">
        <ele>716.31958007812</ele>
        <time>2011-04-17T06:03:06Z</time>
      </trkpt>
      <trkpt lat="47.14064" lon="6.37204">
        <ele>718.72290039062</ele>
        <time>2011-04-17T06:03:17Z</time>
      </trkpt>
      <trkpt lat="47.1404" lon="6.37193">
        <ele>718.2421875</ele>
        <time>2011-04-17T06:03:24Z</time>
      </trkpt>
      <trkpt lat="47.14008" lon="6.37187">
        <ele>719.20361328125</ele>
        <time>2011-04-17T06:03:33Z</time>
      </trkpt>
      <trkpt lat="47.13972" lon="6.37171">
        <ele>718.2421875</ele>
        <time>2011-04-17T06:03:42Z</time>
      </trkpt>
      <trkpt lat="47.13934" lon="6.37153">
        <ele>717.76147460938</ele>
        <time>2011-04-17T06:03:50Z</time>
      </trkpt>
      <trkpt lat="47.13885" lon="6.37117">
        <ele>717.28100585938</ele>
        <time>2011-04-17T06:04:00Z</time>
      </trkpt>
      <trkpt lat="47.13848" lon="6.37094">
        <ele>718.2421875</ele>
        <time>2011-04-17T06:04:08Z</time>
      </trkpt>
      <trkpt lat="47.13839" lon="6.3709">
        <ele>718.2421875</ele>
        <time>2011-04-17T06:04:10Z</time>
      </trkpt>
      <trkpt lat="47.13821" lon="6.37085">
        <ele>718.72290039062</ele>
        <time>2011-04-17T06:04:14Z</time>
      </trkpt>
      <trkpt lat="47.13781" lon="6.37065">
        <ele>722.08740234375</ele>
        <time>2011-04-17T06:04:23Z</time>
      </trkpt>
      <trkpt lat="47.13773" lon="6.37061">
        <ele>722.56811523438</ele>
        <time>2011-04-17T06:04:25Z</time>
      </trkpt>
      <trkpt lat="47.13731" lon="6.37043">
        <ele>725.9326171875</ele>
        <time>2011-04-17T06:04:36Z</time>
      </trkpt>
      <trkpt lat="47.13702" lon="6.37033">
        <ele>726.89404296875</ele>
        <time>2011-04-17T06:04:45Z</time>
      </trkpt>
      <trkpt lat="47.13679" lon="6.37022">
        <ele>730.25854492188</ele>
        <time>2011-04-17T06:04:53Z</time>
      </trkpt>
      <trkpt lat="47.13651" lon="6.37002">
        <ele>732.662109375</ele>
        <time>2011-04-17T06:05:03Z</time>
      </trkpt>
      <trkpt lat="47.1362" lon="6.3699">
        <ele>734.10400390625</ele>
        <time>2011-04-17T06:05:13Z</time>
      </trkpt>
      <trkpt lat="47.13584" lon="6.36979">
        <ele>735.0654296875</ele>
        <time>2011-04-17T06:05:23Z</time>
      </trkpt>
      <trkpt lat="47.13554" lon="6.36968">
        <ele>735.0654296875</ele>
        <time>2011-04-17T06:05:31Z</time>
      </trkpt>
      <trkpt lat="47.13519" lon="6.36955">
        <ele>735.5458984375</ele>
        <time>2011-04-17T06:05:40Z</time>
      </trkpt>
      <trkpt lat="47.13472" lon="6.36939">
        <ele>736.02661132812</ele>
        <time>2011-04-17T06:05:51Z</time>
      </trkpt>
      <trkpt lat="47.13432" lon="6.36929">
        <ele>736.02661132812</ele>
        <time>2011-04-17T06:05:59Z</time>
      </trkpt>
      <trkpt lat="47.13393" lon="6.36925">
        <ele>735.5458984375</ele>
        <time>2011-04-17T06:06:06Z</time>
      </trkpt>
      <trkpt lat="47.13346" lon="6.36904">
        <ele>734.58471679688</ele>
        <time>2011-04-17T06:06:15Z</time>
      </trkpt>
      <trkpt lat="47.13323" lon="6.36882">
        <ele>736.02661132812</ele>
        <time>2011-04-17T06:06:21Z</time>
      </trkpt>
      <trkpt lat="47.13306" lon="6.36865">
        <ele>738.42993164062</ele>
        <time>2011-04-17T06:06:27Z</time>
      </trkpt>
      <trkpt lat="47.13289" lon="6.36852">
        <ele>740.3525390625</ele>
        <time>2011-04-17T06:06:34Z</time>
      </trkpt>
      <trkpt lat="47.13272" lon="6.36832">
        <ele>741.31372070312</ele>
        <time>2011-04-17T06:06:40Z</time>
      </trkpt>
      <trkpt lat="47.1325" lon="6.36807">
        <ele>744.19775390625</ele>
        <time>2011-04-17T06:06:48Z</time>
      </trkpt>
      <trkpt lat="47.13234" lon="6.36789">
        <ele>744.67822265625</ele>
        <time>2011-04-17T06:06:54Z</time>
      </trkpt>
      <trkpt lat="47.13208" lon="6.36765">
        <ele>745.15893554688</ele>
        <time>2011-04-17T06:07:03Z</time>
      </trkpt>
      <trkpt lat="47.13184" lon="6.36744">
        <ele>746.12036132812</ele>
        <time>2011-04-17T06:07:10Z</time>
      </trkpt>
      <trkpt lat="47.13177" lon="6.36737">
        <ele>745.6396484375</ele>
        <time>2011-04-17T06:07:12Z</time>
      </trkpt>
      <trkpt lat="47.13183" lon="6.36719">
        <ele>744.67822265625</ele>
        <time>2011-04-17T06:07:16Z</time>
      </trkpt>
      <trkpt lat="47.13198" lon="6.36694">
        <ele>743.236328125</ele>
        <time>2011-04-17T06:07:20Z</time>
      </trkpt>
      <trkpt lat="47.13209" lon="6.36659">
        <ele>739.39111328125</ele>
        <time>2011-04-17T06:07:24Z</time>
      </trkpt>
      <trkpt lat="47.13212" lon="6.36627">
        <ele>737.46850585938</ele>
        <time>2011-04-17T06:07:27Z</time>
      </trkpt>
      <trkpt lat="47.13214" lon="6.36587">
        <ele>733.62329101562</ele>
        <time>2011-04-17T06:07:30Z</time>
      </trkpt>
      <trkpt lat="47.13228" lon="6.3653">
        <ele>730.7392578125</ele>
        <time>2011-04-17T06:07:34Z</time>
      </trkpt>
      <trkpt lat="47.13234" lon="6.36517">
        <ele>728.81665039062</ele>
        <time>2011-04-17T06:07:35Z</time>
      </trkpt>
      <trkpt lat="47.13258" lon="6.36465">
        <ele>724.97143554688</ele>
        <time>2011-04-17T06:07:39Z</time>
      </trkpt>
      <trkpt lat="47.13265" lon="6.3642">
        <ele>719.68432617188</ele>
        <time>2011-04-17T06:07:42Z</time>
      </trkpt>
      <trkpt lat="47.13266" lon="6.36388">
        <ele>716.31958007812</ele>
        <time>2011-04-17T06:07:44Z</time>
      </trkpt>
      <trkpt lat="47.13267" lon="6.36374">
        <ele>715.8388671875</ele>
        <time>2011-04-17T06:07:45Z</time>
      </trkpt>
      <trkpt lat="47.13276" lon="6.36324">
        <ele>711.99365234375</ele>
        <time>2011-04-17T06:07:49Z</time>
      </trkpt>
      <trkpt lat="47.13284" lon="6.36287">
        <ele>709.59033203125</ele>
        <time>2011-04-17T06:07:52Z</time>
      </trkpt>
      <trkpt lat="47.13295" lon="6.36237">
        <ele>707.18701171875</ele>
        <time>2011-04-17T06:07:56Z</time>
      </trkpt>
      <trkpt lat="47.13302" lon="6.362">
        <ele>705.26440429688</ele>
        <time>2011-04-17T06:07:59Z</time>
      </trkpt>
      <trkpt lat="47.13314" lon="6.36142">
        <ele>702.86108398438</ele>
        <time>2011-04-17T06:08:04Z</time>
      </trkpt>
      <trkpt lat="47.13332" lon="6.36088">
        <ele>700.4580078125</ele>
        <time>2011-04-17T06:08:09Z</time>
      </trkpt>
      <trkpt lat="47.1334" lon="6.36067">
        <ele>699.97705078125</ele>
        <time>2011-04-17T06:08:11Z</time>
      </trkpt>
      <trkpt lat="47.13375" lon="6.36016">
        <ele>696.1318359375</ele>
        <time>2011-04-17T06:08:17Z</time>
      </trkpt>
      <trkpt lat="47.13402" lon="6.35978">
        <ele>693.24780273438</ele>
        <time>2011-04-17T06:08:22Z</time>
      </trkpt>
      <trkpt lat="47.13406" lon="6.3597">
        <ele>694.68969726562</ele>
        <time>2011-04-17T06:08:23Z</time>
      </trkpt>
      <trkpt lat="47.13419" lon="6.35937">
        <ele>692.76733398438</ele>
        <time>2011-04-17T06:08:27Z</time>
      </trkpt>
      <trkpt lat="47.13419" lon="6.35922">
        <ele>691.80590820312</ele>
        <time>2011-04-17T06:08:30Z</time>
      </trkpt>
      <trkpt lat="47.13411" lon="6.35921">
        <ele>692.28662109375</ele>
        <time>2011-04-17T06:08:32Z</time>
      </trkpt>
      <trkpt lat="47.13383" lon="6.35936">
        <ele>693.24780273438</ele>
        <time>2011-04-17T06:08:38Z</time>
      </trkpt>
      <trkpt lat="47.13369" lon="6.35928">
        <ele>693.728515625</ele>
        <time>2011-04-17T06:08:42Z</time>
      </trkpt>
      <trkpt lat="47.13369" lon="6.359">
        <ele>693.24780273438</ele>
        <time>2011-04-17T06:08:46Z</time>
      </trkpt>
      <trkpt lat="47.13359" lon="6.35864">
        <ele>692.28662109375</ele>
        <time>2011-04-17T06:08:51Z</time>
      </trkpt>
      <trkpt lat="47.13344" lon="6.35843">
        <ele>691.80590820312</ele>
        <time>2011-04-17T06:08:55Z</time>
      </trkpt>
      <trkpt lat="47.1334" lon="6.35839">
        <ele>692.76733398438</ele>
        <time>2011-04-17T06:08:56Z</time>
      </trkpt>
      <trkpt lat="47.13304" lon="6.35817">
        <ele>694.20922851562</ele>
        <time>2011-04-17T06:09:04Z</time>
      </trkpt>
      <trkpt lat="47.13274" lon="6.35807">
        <ele>695.17041015625</ele>
        <time>2011-04-17T06:09:11Z</time>
      </trkpt>
      <trkpt lat="47.13238" lon="6.35802">
        <ele>699.015625</ele>
        <time>2011-04-17T06:09:20Z</time>
      </trkpt>
      <trkpt lat="47.13223" lon="6.35803">
        <ele>699.49633789062</ele>
        <time>2011-04-17T06:09:24Z</time>
      </trkpt>
      <trkpt lat="47.13199" lon="6.35804">
        <ele>699.97705078125</ele>
        <time>2011-04-17T06:09:30Z</time>
      </trkpt>
      <trkpt lat="47.13175" lon="6.35809">
        <ele>701.89990234375</ele>
        <time>2011-04-17T06:09:36Z</time>
      </trkpt>
      <trkpt lat="47.13142" lon="6.35815">
        <ele>703.341796875</ele>
        <time>2011-04-17T06:09:44Z</time>
      </trkpt>
      <trkpt lat="47.13106" lon="6.35812">
        <ele>703.82250976562</ele>
        <time>2011-04-17T06:09:53Z</time>
      </trkpt>
      <trkpt lat="47.13063" lon="6.358">
        <ele>704.30322265625</ele>
        <time>2011-04-17T06:10:03Z</time>
      </trkpt>
      <trkpt lat="47.13037" lon="6.35793">
        <ele>704.30322265625</ele>
        <time>2011-04-17T06:10:09Z</time>
      </trkpt>
      <trkpt lat="47.13025" lon="6.35775">
        <ele>704.30322265625</ele>
        <time>2011-04-17T06:10:14Z</time>
      </trkpt>
      <trkpt lat="47.13026" lon="6.3577">
        <ele>704.30322265625</ele>
        <time>2011-04-17T06:10:15Z</time>
      </trkpt>
      <trkpt lat="47.13041" lon="6.35747">
        <ele>705.26440429688</ele>
        <time>2011-04-17T06:10:22Z</time>
      </trkpt>
      <trkpt lat="47.13055" lon="6.35734">
        <ele>707.66772460938</ele>
        <time>2011-04-17T06:10:29Z</time>
      </trkpt>
      <trkpt lat="47.1307" lon="6.35722">
        <ele>710.55151367188</ele>
        <time>2011-04-17T06:10:36Z</time>
      </trkpt>
      <trkpt lat="47.13085" lon="6.35706">
        <ele>712.47412109375</ele>
        <time>2011-04-17T06:10:44Z</time>
      </trkpt>
      <trkpt lat="47.131" lon="6.35688">
        <ele>712.95483398438</ele>
        <time>2011-04-17T06:10:52Z</time>
      </trkpt>
      <trkpt lat="47.13112" lon="6.35674">
        <ele>714.39672851562</ele>
        <time>2011-04-17T06:10:59Z</time>
      </trkpt>
      <trkpt lat="47.13122" lon="6.35664">
        <ele>714.87744140625</ele>
        <time>2011-04-17T06:11:05Z</time>
      </trkpt>
      <trkpt lat="47.13137" lon="6.35656">
        <ele>717.76147460938</ele>
        <time>2011-04-17T06:11:12Z</time>
      </trkpt>
      <trkpt lat="47.13146" lon="6.35648">
        <ele>718.72290039062</ele>
        <time>2011-04-17T06:11:17Z</time>
      </trkpt>
      <trkpt lat="47.1316" lon="6.35641">
        <ele>720.6455078125</ele>
        <time>2011-04-17T06:11:24Z</time>
      </trkpt>
      <trkpt lat="47.13162" lon="6.3564">
        <ele>721.12622070312</ele>
        <time>2011-04-17T06:11:25Z</time>
      </trkpt>
      <trkpt lat="47.13171" lon="6.35629">
        <ele>722.08740234375</ele>
        <time>2011-04-17T06:11:31Z</time>
      </trkpt>
      <trkpt lat="47.13171" lon="6.3562">
        <ele>722.08740234375</ele>
        <time>2011-04-17T06:11:34Z</time>
      </trkpt>
      <trkpt lat="47.13162" lon="6.35611">
        <ele>724.97143554688</ele>
        <time>2011-04-17T06:11:40Z</time>
      </trkpt>
      <trkpt lat="47.1316" lon="6.35611">
        <ele>724.97143554688</ele>
        <time>2011-04-17T06:11:41Z</time>
      </trkpt>
      <trkpt lat="47.13144" lon="6.3561">
        <ele>726.89404296875</ele>
        <time>2011-04-17T06:11:50Z</time>
      </trkpt>
      <trkpt lat="47.13138" lon="6.35608">
        <ele>726.89404296875</ele>
        <time>2011-04-17T06:11:54Z</time>
      </trkpt>
      <trkpt lat="47.13135" lon="6.356">
        <ele>726.89404296875</ele>
        <time>2011-04-17T06:11:58Z</time>
      </trkpt>
      <trkpt lat="47.13128" lon="6.35577">
        <ele>729.77783203125</ele>
        <time>2011-04-17T06:12:08Z</time>
      </trkpt>
      <trkpt lat="47.13123" lon="6.35559">
        <ele>731.21997070312</ele>
        <time>2011-04-17T06:12:15Z</time>
      </trkpt>
      <trkpt lat="47.13113" lon="6.35532">
        <ele>731.70043945312</ele>
        <time>2011-04-17T06:12:25Z</time>
      </trkpt>
      <trkpt lat="47.13105" lon="6.35507">
        <ele>733.62329101562</ele>
        <time>2011-04-17T06:12:34Z</time>
      </trkpt>
      <trkpt lat="47.13095" lon="6.35474">
        <ele>734.58471679688</ele>
        <time>2011-04-17T06:12:45Z</time>
      </trkpt>
      <trkpt lat="47.13084" lon="6.35439">
        <ele>735.5458984375</ele>
        <time>2011-04-17T06:12:56Z</time>
      </trkpt>
      <trkpt lat="47.13073" lon="6.35407">
        <ele>737.46850585938</ele>
        <time>2011-04-17T06:13:06Z</time>
      </trkpt>
      <trkpt lat="47.13064" lon="6.35381">
        <ele>739.39111328125</ele>
        <time>2011-04-17T06:13:14Z</time>
      </trkpt>
      <trkpt lat="47.13053" lon="6.35349">
        <ele>739.87182617188</ele>
        <time>2011-04-17T06:13:23Z</time>
      </trkpt>
      <trkpt lat="47.13041" lon="6.35313">
        <ele>739.87182617188</ele>
        <time>2011-04-17T06:13:32Z</time>
      </trkpt>
      <trkpt lat="47.13023" lon="6.35265">
        <ele>738.42993164062</ele>
        <time>2011-04-17T06:13:42Z</time>
      </trkpt>
      <trkpt lat="47.13006" lon="6.3522">
        <ele>736.50732421875</ele>
        <time>2011-04-17T06:13:50Z</time>
      </trkpt>
      <trkpt lat="47.12993" lon="6.3518">
        <ele>737.46850585938</ele>
        <time>2011-04-17T06:13:56Z</time>
      </trkpt>
      <trkpt lat="47.12991" lon="6.35175">
        <ele>737.46850585938</ele>
        <time>2011-04-17T06:13:57Z</time>
      </trkpt>
      <trkpt lat="47.12986" lon="6.35159">
        <ele>740.3525390625</ele>
        <time>2011-04-17T06:14:01Z</time>
      </trkpt>
      <trkpt lat="47.12985" lon="6.35155">
        <ele>739.87182617188</ele>
        <time>2011-04-17T06:14:02Z</time>
      </trkpt>
      <trkpt lat="47.12976" lon="6.35131">
        <ele>739.87182617188</ele>
        <time>2011-04-17T06:14:09Z</time>
      </trkpt>
      <trkpt lat="47.12964" lon="6.35095">
        <ele>740.8330078125</ele>
        <time>2011-04-17T06:14:18Z</time>
      </trkpt>
      <trkpt lat="47.12951" lon="6.35055">
        <ele>740.8330078125</ele>
        <time>2011-04-17T06:14:28Z</time>
      </trkpt>
      <trkpt lat="47.12947" lon="6.35032">
        <ele>742.27514648438</ele>
        <time>2011-04-17T06:14:34Z</time>
      </trkpt>
      <trkpt lat="47.12956" lon="6.34995">
        <ele>741.31372070312</ele>
        <time>2011-04-17T06:14:41Z</time>
      </trkpt>
      <trkpt lat="47.1297" lon="6.34942">
        <ele>738.91064453125</ele>
        <time>2011-04-17T06:14:50Z</time>
      </trkpt>
      <trkpt lat="47.12978" lon="6.34916">
        <ele>739.87182617188</ele>
        <time>2011-04-17T06:14:56Z</time>
      </trkpt>
      <trkpt lat="47.12986" lon="6.34894">
        <ele>742.27514648438</ele>
        <time>2011-04-17T06:15:03Z</time>
      </trkpt>
      <trkpt lat="47.12998" lon="6.34867">
        <ele>745.15893554688</ele>
        <time>2011-04-17T06:15:12Z</time>
      </trkpt>
      <trkpt lat="47.13013" lon="6.3485">
        <ele>746.12036132812</ele>
        <time>2011-04-17T06:15:20Z</time>
      </trkpt>
      <trkpt lat="47.13028" lon="6.34836">
        <ele>746.60107421875</ele>
        <time>2011-04-17T06:15:29Z</time>
      </trkpt>
      <trkpt lat="47.13041" lon="6.34824">
        <ele>748.04321289062</ele>
        <time>2011-04-17T06:15:36Z</time>
      </trkpt>
      <trkpt lat="47.13054" lon="6.3481">
        <ele>747.56225585938</ele>
        <time>2011-04-17T06:15:43Z</time>
      </trkpt>
      <trkpt lat="47.13066" lon="6.34796">
        <ele>749.00439453125</ele>
        <time>2011-04-17T06:15:50Z</time>
      </trkpt>
      <trkpt lat="47.13078" lon="6.34781">
        <ele>749.9658203125</ele>
        <time>2011-04-17T06:15:58Z</time>
      </trkpt>
      <trkpt lat="47.13083" lon="6.34774">
        <ele>750.44653320312</ele>
        <time>2011-04-17T06:16:01Z</time>
      </trkpt>
      <trkpt lat="47.13079" lon="6.34762">
        <ele>750.92700195312</ele>
        <time>2011-04-17T06:16:06Z</time>
      </trkpt>
      <trkpt lat="47.13078" lon="6.3476">
        <ele>749.9658203125</ele>
        <time>2011-04-17T06:16:07Z</time>
      </trkpt>
      <trkpt lat="47.13072" lon="6.34756">
        <ele>750.44653320312</ele>
        <time>2011-04-17T06:16:11Z</time>
      </trkpt>
      <trkpt lat="47.13068" lon="6.3475">
        <ele>750.92700195312</ele>
        <time>2011-04-17T06:16:15Z</time>
      </trkpt>
      <trkpt lat="47.13067" lon="6.3475">
        <ele>750.92700195312</ele>
        <time>2011-04-17T06:16:18Z</time>
      </trkpt>
      <trkpt lat="47.13067" lon="6.34751">
        <ele>749.9658203125</ele>
        <time>2011-04-17T06:16:19Z</time>
      </trkpt>
      <trkpt lat="47.13067" lon="6.34756">
        <ele>750.44653320312</ele>
        <time>2011-04-17T06:19:19Z</time>
      </trkpt>
      <trkpt lat="47.13067" lon="6.34756">
        <ele>750.92700195312</ele>
        <time>2011-04-17T06:19:20Z</time>
      </trkpt>
      <trkpt lat="47.13067" lon="6.34755">
        <ele>750.92700195312</ele>
        <time>2011-04-17T06:19:21Z</time>
      </trkpt>
      <trkpt lat="47.13066" lon="6.34755">
        <ele>750.44653320312</ele>
        <time>2011-04-17T06:19:31Z</time>
      </trkpt>
      <trkpt lat="47.13066" lon="6.34755">
        <ele>750.92700195312</ele>
        <time>2011-04-17T06:19:32Z</time>
      </trkpt>
      <trkpt lat="47.13068" lon="6.34761">
        <ele>749.48510742188</ele>
        <time>2011-04-17T06:20:03Z</time>
      </trkpt>
      <trkpt lat="47.13058" lon="6.34755">
        <ele>749.00439453125</ele>
        <time>2011-04-17T06:20:08Z</time>
      </trkpt>
      <trkpt lat="47.13044" lon="6.34743">
        <ele>749.00439453125</ele>
        <time>2011-04-17T06:20:15Z</time>
      </trkpt>
      <trkpt lat="47.13025" lon="6.34727">
        <ele>749.00439453125</ele>
        <time>2011-04-17T06:20:22Z</time>
      </trkpt>
      <trkpt lat="47.12999" lon="6.34708">
        <ele>749.48510742188</ele>
        <time>2011-04-17T06:20:30Z</time>
      </trkpt>
      <trkpt lat="47.12974" lon="6.34676">
        <ele>750.44653320312</ele>
        <time>2011-04-17T06:20:39Z</time>
      </trkpt>
      <trkpt lat="47.12955" lon="6.34656">
        <ele>751.88842773438</ele>
        <time>2011-04-17T06:20:46Z</time>
      </trkpt>
      <trkpt lat="47.12933" lon="6.34637">
        <ele>753.33032226562</ele>
        <time>2011-04-17T06:20:53Z</time>
      </trkpt>
      <trkpt lat="47.12916" lon="6.34623">
        <ele>753.81103515625</ele>
        <time>2011-04-17T06:20:58Z</time>
      </trkpt>
      <trkpt lat="47.12898" lon="6.34607">
        <ele>753.33032226562</ele>
        <time>2011-04-17T06:21:03Z</time>
      </trkpt>
      <trkpt lat="47.12875" lon="6.34584">
        <ele>754.77221679688</ele>
        <time>2011-04-17T06:21:10Z</time>
      </trkpt>
      <trkpt lat="47.12843" lon="6.34551">
        <ele>755.2529296875</ele>
        <time>2011-04-17T06:21:19Z</time>
      </trkpt>
      <trkpt lat="47.12807" lon="6.34515">
        <ele>754.29174804688</ele>
        <time>2011-04-17T06:21:29Z</time>
      </trkpt>
      <trkpt lat="47.12782" lon="6.34494">
        <ele>754.29174804688</ele>
        <time>2011-04-17T06:21:36Z</time>
      </trkpt>
      <trkpt lat="47.12774" lon="6.3449">
        <ele>754.77221679688</ele>
        <time>2011-04-17T06:21:38Z</time>
      </trkpt>
      <trkpt lat="47.12745" lon="6.3448">
        <ele>754.29174804688</ele>
        <time>2011-04-17T06:21:45Z</time>
      </trkpt>
      <trkpt lat="47.12725" lon="6.34477">
        <ele>754.29174804688</ele>
        <time>2011-04-17T06:21:50Z</time>
      </trkpt>
      <trkpt lat="47.12713" lon="6.34471">
        <ele>754.77221679688</ele>
        <time>2011-04-17T06:21:53Z</time>
      </trkpt>
      <trkpt lat="47.12675" lon="6.34442">
        <ele>752.36889648438</ele>
        <time>2011-04-17T06:22:02Z</time>
      </trkpt>
      <trkpt lat="47.12657" lon="6.34425">
        <ele>752.36889648438</ele>
        <time>2011-04-17T06:22:06Z</time>
      </trkpt>
      <trkpt lat="47.12627" lon="6.3438">
        <ele>750.44653320312</ele>
        <time>2011-04-17T06:22:13Z</time>
      </trkpt>
      <trkpt lat="47.12622" lon="6.34372">
        <ele>749.9658203125</ele>
        <time>2011-04-17T06:22:14Z</time>
      </trkpt>
      <trkpt lat="47.12605" lon="6.3435">
        <ele>748.04321289062</ele>
        <time>2011-04-17T06:22:17Z</time>
      </trkpt>
      <trkpt lat="47.12585" lon="6.34333">
        <ele>746.12036132812</ele>
        <time>2011-04-17T06:22:20Z</time>
      </trkpt>
      <trkpt lat="47.1255" lon="6.3431">
        <ele>744.67822265625</ele>
        <time>2011-04-17T06:22:25Z</time>
      </trkpt>
      <trkpt lat="47.12517" lon="6.34277">
        <ele>741.31372070312</ele>
        <time>2011-04-17T06:22:30Z</time>
      </trkpt>
      <trkpt lat="47.12492" lon="6.34243">
        <ele>740.8330078125</ele>
        <time>2011-04-17T06:22:34Z</time>
      </trkpt>
      <trkpt lat="47.12455" lon="6.34229">
        <ele>737.46850585938</ele>
        <time>2011-04-17T06:22:38Z</time>
      </trkpt>
      <trkpt lat="47.12446" lon="6.34233">
        <ele>736.98779296875</ele>
        <time>2011-04-17T06:22:39Z</time>
      </trkpt>
      <trkpt lat="47.12438" lon="6.34239">
        <ele>736.98779296875</ele>
        <time>2011-04-17T06:22:40Z</time>
      </trkpt>
      <trkpt lat="47.12412" lon="6.34259">
        <ele>733.62329101562</ele>
        <time>2011-04-17T06:22:43Z</time>
      </trkpt>
      <trkpt lat="47.12383" lon="6.34275">
        <ele>729.77783203125</ele>
        <time>2011-04-17T06:22:46Z</time>
      </trkpt>
      <trkpt lat="47.12349" lon="6.34262">
        <ele>725.9326171875</ele>
        <time>2011-04-17T06:22:50Z</time>
      </trkpt>
      <trkpt lat="47.12338" lon="6.34252">
        <ele>724.97143554688</ele>
        <time>2011-04-17T06:22:52Z</time>
      </trkpt>
      <trkpt lat="47.12318" lon="6.34248">
        <ele>721.12622070312</ele>
        <time>2011-04-17T06:22:55Z</time>
      </trkpt>
      <trkpt lat="47.12271" lon="6.34257">
        <ele>713.435546875</ele>
        <time>2011-04-17T06:23:00Z</time>
      </trkpt>
      <trkpt lat="47.1226" lon="6.34264">
        <ele>712.95483398438</ele>
        <time>2011-04-17T06:23:01Z</time>
      </trkpt>
      <trkpt lat="47.12225" lon="6.34305">
        <ele>716.31958007812</ele>
        <time>2011-04-17T06:23:06Z</time>
      </trkpt>
      <trkpt lat="47.12233" lon="6.34337">
        <ele>720.16479492188</ele>
        <time>2011-04-17T06:23:10Z</time>
      </trkpt>
      <trkpt lat="47.12233" lon="6.34349">
        <ele>721.60668945312</ele>
        <time>2011-04-17T06:23:12Z</time>
      </trkpt>
      <trkpt lat="47.12233" lon="6.34359">
        <ele>721.60668945312</ele>
        <time>2011-04-17T06:23:14Z</time>
      </trkpt>
      <trkpt lat="47.12234" lon="6.34365">
        <ele>722.56811523438</ele>
        <time>2011-04-17T06:23:15Z</time>
      </trkpt>
      <trkpt lat="47.12233" lon="6.34378">
        <ele>724.01000976562</ele>
        <time>2011-04-17T06:23:17Z</time>
      </trkpt>
      <trkpt lat="47.1223" lon="6.34393">
        <ele>725.45190429688</ele>
        <time>2011-04-17T06:23:20Z</time>
      </trkpt>
      <trkpt lat="47.12228" lon="6.34415">
        <ele>726.89404296875</ele>
        <time>2011-04-17T06:23:24Z</time>
      </trkpt>
      <trkpt lat="47.12227" lon="6.34447">
        <ele>729.29711914062</ele>
        <time>2011-04-17T06:23:30Z</time>
      </trkpt>
      <trkpt lat="47.12222" lon="6.34475">
        <ele>729.77783203125</ele>
        <time>2011-04-17T06:23:36Z</time>
      </trkpt>
      <trkpt lat="47.12215" lon="6.34506">
        <ele>730.7392578125</ele>
        <time>2011-04-17T06:23:43Z</time>
      </trkpt>
      <trkpt lat="47.12207" lon="6.34535">
        <ele>732.662109375</ele>
        <time>2011-04-17T06:23:50Z</time>
      </trkpt>
      <trkpt lat="47.12203" lon="6.3456">
        <ele>734.10400390625</ele>
        <time>2011-04-17T06:23:56Z</time>
      </trkpt>
      <trkpt lat="47.12194" lon="6.34571">
        <ele>735.0654296875</ele>
        <time>2011-04-17T06:24:00Z</time>
      </trkpt>
      <trkpt lat="47.1217" lon="6.34575">
        <ele>733.62329101562</ele>
        <time>2011-04-17T06:24:06Z</time>
      </trkpt>
      <trkpt lat="47.12165" lon="6.34576">
        <ele>734.10400390625</ele>
        <time>2011-04-17T06:24:07Z</time>
      </trkpt>
      <trkpt lat="47.12142" lon="6.34593">
        <ele>734.10400390625</ele>
        <time>2011-04-17T06:24:12Z</time>
      </trkpt>
      <trkpt lat="47.12127" lon="6.34605">
        <ele>734.10400390625</ele>
        <time>2011-04-17T06:24:16Z</time>
      </trkpt>
      <trkpt lat="47.12103" lon="6.34626">
        <ele>734.10400390625</ele>
        <time>2011-04-17T06:24:23Z</time>
      </trkpt>
      <trkpt lat="47.12075" lon="6.34651">
        <ele>731.70043945312</ele>
        <time>2011-04-17T06:24:30Z</time>
      </trkpt>
      <trkpt lat="47.1207" lon="6.34655">
        <ele>731.70043945312</ele>
        <time>2011-04-17T06:24:31Z</time>
      </trkpt>
      <trkpt lat="47.12051" lon="6.34671">
        <ele>729.77783203125</ele>
        <time>2011-04-17T06:24:34Z</time>
      </trkpt>
      <trkpt lat="47.12036" lon="6.34685">
        <ele>731.70043945312</ele>
        <time>2011-04-17T06:24:37Z</time>
      </trkpt>
      <trkpt lat="47.12027" lon="6.34693">
        <ele>734.58471679688</ele>
        <time>2011-04-17T06:24:40Z</time>
      </trkpt>
      <trkpt lat="47.12011" lon="6.34706">
        <ele>735.5458984375</ele>
        <time>2011-04-17T06:24:46Z</time>
      </trkpt>
      <trkpt lat="47.11988" lon="6.34728">
        <ele>736.98779296875</ele>
        <time>2011-04-17T06:24:55Z</time>
      </trkpt>
      <trkpt lat="47.11973" lon="6.34741">
        <ele>737.46850585938</ele>
        <time>2011-04-17T06:25:01Z</time>
      </trkpt>
      <trkpt lat="47.11947" lon="6.34764">
        <ele>738.42993164062</ele>
        <time>2011-04-17T06:25:10Z</time>
      </trkpt>
      <trkpt lat="47.11922" lon="6.34785">
        <ele>739.87182617188</ele>
        <time>2011-04-17T06:25:19Z</time>
      </trkpt>
      <trkpt lat="47.11901" lon="6.34804">
        <ele>740.3525390625</ele>
        <time>2011-04-17T06:25:26Z</time>
      </trkpt>
      <trkpt lat="47.11869" lon="6.34832">
        <ele>740.8330078125</ele>
        <time>2011-04-17T06:25:36Z</time>
      </trkpt>
      <trkpt lat="47.11845" lon="6.34854">
        <ele>740.8330078125</ele>
        <time>2011-04-17T06:25:44Z</time>
      </trkpt>
      <trkpt lat="47.11827" lon="6.34879">
        <ele>741.31372070312</ele>
        <time>2011-04-17T06:25:51Z</time>
      </trkpt>
      <trkpt lat="47.11807" lon="6.34907">
        <ele>740.8330078125</ele>
        <time>2011-04-17T06:25:58Z</time>
      </trkpt>
      <trkpt lat="47.11782" lon="6.34945">
        <ele>740.8330078125</ele>
        <time>2011-04-17T06:26:07Z</time>
      </trkpt>
      <trkpt lat="47.1176" lon="6.34979">
        <ele>742.27514648438</ele>
        <time>2011-04-17T06:26:16Z</time>
      </trkpt>
      <trkpt lat="47.11742" lon="6.35005">
        <ele>743.71704101562</ele>
        <time>2011-04-17T06:26:24Z</time>
      </trkpt>
      <trkpt lat="47.11723" lon="6.35033">
        <ele>744.67822265625</ele>
        <time>2011-04-17T06:26:33Z</time>
      </trkpt>
      <trkpt lat="47.11705" lon="6.35061">
        <ele>744.67822265625</ele>
        <time>2011-04-17T06:26:41Z</time>
      </trkpt>
      <trkpt lat="47.11683" lon="6.35095">
        <ele>746.60107421875</ele>
        <time>2011-04-17T06:26:50Z</time>
      </trkpt>
      <trkpt lat="47.11667" lon="6.35106">
        <ele>746.12036132812</ele>
        <time>2011-04-17T06:26:55Z</time>
      </trkpt>
      <trkpt lat="47.11649" lon="6.35124">
        <ele>746.12036132812</ele>
        <time>2011-04-17T06:27:01Z</time>
      </trkpt>
      <trkpt lat="47.11626" lon="6.35152">
        <ele>746.12036132812</ele>
        <time>2011-04-17T06:27:08Z</time>
      </trkpt>
      <trkpt lat="47.11622" lon="6.35156">
        <ele>746.12036132812</ele>
        <time>2011-04-17T06:27:09Z</time>
      </trkpt>
      <trkpt lat="47.11593" lon="6.35178">
        <ele>745.15893554688</ele>
        <time>2011-04-17T06:27:16Z</time>
      </trkpt>
      <trkpt lat="47.11574" lon="6.352">
        <ele>745.6396484375</ele>
        <time>2011-04-17T06:27:22Z</time>
      </trkpt>
      <trkpt lat="47.11557" lon="6.35222">
        <ele>746.60107421875</ele>
        <time>2011-04-17T06:27:29Z</time>
      </trkpt>
      <trkpt lat="47.11552" lon="6.35232">
        <ele>748.04321289062</ele>
        <time>2011-04-17T06:27:32Z</time>
      </trkpt>
      <trkpt lat="47.11537" lon="6.35249">
        <ele>748.04321289062</ele>
        <time>2011-04-17T06:27:37Z</time>
      </trkpt>
      <trkpt lat="47.1153" lon="6.35256">
        <ele>748.04321289062</ele>
        <time>2011-04-17T06:27:39Z</time>
      </trkpt>
      <trkpt lat="47.11512" lon="6.35281">
        <ele>748.52368164062</ele>
        <time>2011-04-17T06:27:45Z</time>
      </trkpt>
      <trkpt lat="47.11501" lon="6.35299">
        <ele>750.44653320312</ele>
        <time>2011-04-17T06:27:50Z</time>
      </trkpt>
      <trkpt lat="47.115" lon="6.35319">
        <ele>751.40771484375</ele>
        <time>2011-04-17T06:27:55Z</time>
      </trkpt>
      <trkpt lat="47.11495" lon="6.35346">
        <ele>751.88842773438</ele>
        <time>2011-04-17T06:28:03Z</time>
      </trkpt>
      <trkpt lat="47.11489" lon="6.35365">
        <ele>751.88842773438</ele>
        <time>2011-04-17T06:28:10Z</time>
      </trkpt>
      <trkpt lat="47.11488" lon="6.35368">
        <ele>752.36889648438</ele>
        <time>2011-04-17T06:28:11Z</time>
      </trkpt>
      <trkpt lat="47.11479" lon="6.35366">
        <ele>752.36889648438</ele>
        <time>2011-04-17T06:28:15Z</time>
      </trkpt>
      <trkpt lat="47.1147" lon="6.35355">
        <ele>752.849609375</ele>
        <time>2011-04-17T06:28:19Z</time>
      </trkpt>
      <trkpt lat="47.11445" lon="6.35342">
        <ele>753.33032226562</ele>
        <time>2011-04-17T06:28:27Z</time>
      </trkpt>
      <trkpt lat="47.11438" lon="6.35337">
        <ele>752.36889648438</ele>
        <time>2011-04-17T06:28:29Z</time>
      </trkpt>
      <trkpt lat="47.11398" lon="6.35312">
        <ele>752.849609375</ele>
        <time>2011-04-17T06:28:39Z</time>
      </trkpt>
      <trkpt lat="47.11363" lon="6.35291">
        <ele>750.44653320312</ele>
        <time>2011-04-17T06:28:46Z</time>
      </trkpt>
      <trkpt lat="47.11357" lon="6.35288">
        <ele>749.9658203125</ele>
        <time>2011-04-17T06:28:47Z</time>
      </trkpt>
      <trkpt lat="47.1132" lon="6.35266">
        <ele>747.56225585938</ele>
        <time>2011-04-17T06:28:53Z</time>
      </trkpt>
      <trkpt lat="47.11313" lon="6.35262">
        <ele>747.56225585938</ele>
        <time>2011-04-17T06:28:54Z</time>
      </trkpt>
      <trkpt lat="47.11291" lon="6.3525">
        <ele>744.19775390625</ele>
        <time>2011-04-17T06:28:57Z</time>
      </trkpt>
      <trkpt lat="47.11283" lon="6.35246">
        <ele>744.19775390625</ele>
        <time>2011-04-17T06:28:58Z</time>
      </trkpt>
      <trkpt lat="47.11235" lon="6.35219">
        <ele>741.79443359375</ele>
        <time>2011-04-17T06:29:04Z</time>
      </trkpt>
      <trkpt lat="47.11228" lon="6.35214">
        <ele>741.79443359375</ele>
        <time>2011-04-17T06:29:05Z</time>
      </trkpt>
      <trkpt lat="47.11193" lon="6.35182">
        <ele>742.27514648438</ele>
        <time>2011-04-17T06:29:11Z</time>
      </trkpt>
      <trkpt lat="47.11177" lon="6.35166">
        <ele>743.236328125</ele>
        <time>2011-04-17T06:29:15Z</time>
      </trkpt>
      <trkpt lat="47.11148" lon="6.35151">
        <ele>744.67822265625</ele>
        <time>2011-04-17T06:29:22Z</time>
      </trkpt>
      <trkpt lat="47.11137" lon="6.35147">
        <ele>744.67822265625</ele>
        <time>2011-04-17T06:29:27Z</time>
      </trkpt>
      <trkpt lat="47.11133" lon="6.35146">
        <ele>744.19775390625</ele>
        <time>2011-04-17T06:29:30Z</time>
      </trkpt>
      <trkpt lat="47.11125" lon="6.35147">
        <ele>744.67822265625</ele>
        <time>2011-04-17T06:29:37Z</time>
      </trkpt>
      <trkpt lat="47.11123" lon="6.35147">
        <ele>745.15893554688</ele>
        <time>2011-04-17T06:29:38Z</time>
      </trkpt>
      <trkpt lat="47.11115" lon="6.35143">
        <ele>745.6396484375</ele>
        <time>2011-04-17T06:29:43Z</time>
      </trkpt>
      <trkpt lat="47.11104" lon="6.35144">
        <ele>746.12036132812</ele>
        <time>2011-04-17T06:29:50Z</time>
      </trkpt>
      <trkpt lat="47.11097" lon="6.35143">
        <ele>746.12036132812</ele>
        <time>2011-04-17T06:29:56Z</time>
      </trkpt>
      <trkpt lat="47.11094" lon="6.35143">
        <ele>747.08154296875</ele>
        <time>2011-04-17T06:29:58Z</time>
      </trkpt>
      <trkpt lat="47.11076" lon="6.35143">
        <ele>746.60107421875</ele>
        <time>2011-04-17T06:30:07Z</time>
      </trkpt>
      <trkpt lat="47.11057" lon="6.35139">
        <ele>746.60107421875</ele>
        <time>2011-04-17T06:30:13Z</time>
      </trkpt>
      <trkpt lat="47.11021" lon="6.35135">
        <ele>746.60107421875</ele>
        <time>2011-04-17T06:30:23Z</time>
      </trkpt>
      <trkpt lat="47.1099" lon="6.35131">
        <ele>746.60107421875</ele>
        <time>2011-04-17T06:30:31Z</time>
      </trkpt>
      <trkpt lat="47.10956" lon="6.35124">
        <ele>745.15893554688</ele>
        <time>2011-04-17T06:30:39Z</time>
      </trkpt>
      <trkpt lat="47.10916" lon="6.35113">
        <ele>743.71704101562</ele>
        <time>2011-04-17T06:30:47Z</time>
      </trkpt>
      <trkpt lat="47.10885" lon="6.35102">
        <ele>742.755859375</ele>
        <time>2011-04-17T06:30:53Z</time>
      </trkpt>
      <trkpt lat="47.1085" lon="6.35078">
        <ele>739.87182617188</ele>
        <time>2011-04-17T06:30:59Z</time>
      </trkpt>
      <trkpt lat="47.10838" lon="6.35069">
        <ele>740.3525390625</ele>
        <time>2011-04-17T06:31:01Z</time>
      </trkpt>
      <trkpt lat="47.10804" lon="6.35026">
        <ele>738.42993164062</ele>
        <time>2011-04-17T06:31:08Z</time>
      </trkpt>
      <trkpt lat="47.10768" lon="6.34985">
        <ele>736.98779296875</ele>
        <time>2011-04-17T06:31:15Z</time>
      </trkpt>
      <trkpt lat="47.10733" lon="6.34953">
        <ele>734.10400390625</ele>
        <time>2011-04-17T06:31:20Z</time>
      </trkpt>
      <trkpt lat="47.10674" lon="6.34898">
        <ele>732.662109375</ele>
        <time>2011-04-17T06:31:28Z</time>
      </trkpt>
      <trkpt lat="47.10644" lon="6.34874">
        <ele>731.70043945312</ele>
        <time>2011-04-17T06:31:33Z</time>
      </trkpt>
      <trkpt lat="47.10609" lon="6.34853">
        <ele>730.7392578125</ele>
        <time>2011-04-17T06:31:39Z</time>
      </trkpt>
      <trkpt lat="47.10584" lon="6.3484">
        <ele>728.3359375</ele>
        <time>2011-04-17T06:31:43Z</time>
      </trkpt>
      <trkpt lat="47.10539" lon="6.34823">
        <ele>727.37475585938</ele>
        <time>2011-04-17T06:31:50Z</time>
      </trkpt>
      <trkpt lat="47.10479" lon="6.34811">
        <ele>726.41333007812</ele>
        <time>2011-04-17T06:31:59Z</time>
      </trkpt>
      <trkpt lat="47.10461" lon="6.34807">
        <ele>725.9326171875</ele>
        <time>2011-04-17T06:32:02Z</time>
      </trkpt>
      <trkpt lat="47.10444" lon="6.34818">
        <ele>726.41333007812</ele>
        <time>2011-04-17T06:32:06Z</time>
      </trkpt>
      <trkpt lat="47.10443" lon="6.34835">
        <ele>727.37475585938</ele>
        <time>2011-04-17T06:32:09Z</time>
      </trkpt>
      <trkpt lat="47.10447" lon="6.34881">
        <ele>729.29711914062</ele>
        <time>2011-04-17T06:32:17Z</time>
      </trkpt>
      <trkpt lat="47.10448" lon="6.34901">
        <ele>730.25854492188</ele>
        <time>2011-04-17T06:32:20Z</time>
      </trkpt>
      <trkpt lat="47.10449" lon="6.34914">
        <ele>730.25854492188</ele>
        <time>2011-04-17T06:32:22Z</time>
      </trkpt>
      <trkpt lat="47.10443" lon="6.34944">
        <ele>730.25854492188</ele>
        <time>2011-04-17T06:32:27Z</time>
      </trkpt>
      <trkpt lat="47.1044" lon="6.34949">
        <ele>729.77783203125</ele>
        <time>2011-04-17T06:32:28Z</time>
      </trkpt>
      <trkpt lat="47.10434" lon="6.34959">
        <ele>729.77783203125</ele>
        <time>2011-04-17T06:32:30Z</time>
      </trkpt>
      <trkpt lat="47.10402" lon="6.34992">
        <ele>729.29711914062</ele>
        <time>2011-04-17T06:32:37Z</time>
      </trkpt>
      <trkpt lat="47.10376" lon="6.35014">
        <ele>724.97143554688</ele>
        <time>2011-04-17T06:32:41Z</time>
      </trkpt>
      <trkpt lat="47.10368" lon="6.35021">
        <ele>724.49072265625</ele>
        <time>2011-04-17T06:32:42Z</time>
      </trkpt>
      <trkpt lat="47.10323" lon="6.35061">
        <ele>721.60668945312</ele>
        <time>2011-04-17T06:32:48Z</time>
      </trkpt>
      <trkpt lat="47.10308" lon="6.35075">
        <ele>720.6455078125</ele>
        <time>2011-04-17T06:32:50Z</time>
      </trkpt>
      <trkpt lat="47.10257" lon="6.35123">
        <ele>717.76147460938</ele>
        <time>2011-04-17T06:32:57Z</time>
      </trkpt>
      <trkpt lat="47.10231" lon="6.35146">
        <ele>715.8388671875</ele>
        <time>2011-04-17T06:33:00Z</time>
      </trkpt>
      <trkpt lat="47.10202" lon="6.3519">
        <ele>711.51293945312</ele>
        <time>2011-04-17T06:33:04Z</time>
      </trkpt>
      <trkpt lat="47.10175" lon="6.35235">
        <ele>711.0322265625</ele>
        <time>2011-04-17T06:33:09Z</time>
      </trkpt>
      <trkpt lat="47.10147" lon="6.35287">
        <ele>709.10961914062</ele>
        <time>2011-04-17T06:33:14Z</time>
      </trkpt>
      <trkpt lat="47.10123" lon="6.35364">
        <ele>707.66772460938</ele>
        <time>2011-04-17T06:33:20Z</time>
      </trkpt>
      <trkpt lat="47.10101" lon="6.35437">
        <ele>707.18701171875</ele>
        <time>2011-04-17T06:33:26Z</time>
      </trkpt>
      <trkpt lat="47.1008" lon="6.35493">
        <ele>708.1484375</ele>
        <time>2011-04-17T06:33:32Z</time>
      </trkpt>
      <trkpt lat="47.10056" lon="6.35547">
        <ele>710.55151367188</ele>
        <time>2011-04-17T06:33:39Z</time>
      </trkpt>
      <trkpt lat="47.10053" lon="6.35553">
        <ele>710.55151367188</ele>
        <time>2011-04-17T06:33:40Z</time>
      </trkpt>
      <trkpt lat="47.10027" lon="6.35601">
        <ele>711.51293945312</ele>
        <time>2011-04-17T06:33:48Z</time>
      </trkpt>
      <trkpt lat="47.10002" lon="6.3565">
        <ele>712.95483398438</ele>
        <time>2011-04-17T06:33:57Z</time>
      </trkpt>
      <trkpt lat="47.09983" lon="6.35688">
        <ele>713.916015625</ele>
        <time>2011-04-17T06:34:04Z</time>
      </trkpt>
      <trkpt lat="47.09974" lon="6.35702">
        <ele>714.87744140625</ele>
        <time>2011-04-17T06:34:07Z</time>
      </trkpt>
      <trkpt lat="47.0996" lon="6.35716">
        <ele>715.8388671875</ele>
        <time>2011-04-17T06:34:11Z</time>
      </trkpt>
      <trkpt lat="47.09936" lon="6.35734">
        <ele>716.80029296875</ele>
        <time>2011-04-17T06:34:18Z</time>
      </trkpt>
      <trkpt lat="47.0992" lon="6.35758">
        <ele>717.28100585938</ele>
        <time>2011-04-17T06:34:24Z</time>
      </trkpt>
      <trkpt lat="47.09905" lon="6.35788">
        <ele>718.2421875</ele>
        <time>2011-04-17T06:34:31Z</time>
      </trkpt>
      <trkpt lat="47.09897" lon="6.35803">
        <ele>719.20361328125</ele>
        <time>2011-04-17T06:34:35Z</time>
      </trkpt>
      <trkpt lat="47.09889" lon="6.3582">
        <ele>720.6455078125</ele>
        <time>2011-04-17T06:34:39Z</time>
      </trkpt>
      <trkpt lat="47.09875" lon="6.35852">
        <ele>722.08740234375</ele>
        <time>2011-04-17T06:34:46Z</time>
      </trkpt>
      <trkpt lat="47.09872" lon="6.35881">
        <ele>722.08740234375</ele>
        <time>2011-04-17T06:34:51Z</time>
      </trkpt>
      <trkpt lat="47.09872" lon="6.35894">
        <ele>721.60668945312</ele>
        <time>2011-04-17T06:34:53Z</time>
      </trkpt>
      <trkpt lat="47.09872" lon="6.35913">
        <ele>722.08740234375</ele>
        <time>2011-04-17T06:34:56Z</time>
      </trkpt>
      <trkpt lat="47.09867" lon="6.35957">
        <ele>722.56811523438</ele>
        <time>2011-04-17T06:35:03Z</time>
      </trkpt>
      <trkpt lat="47.09869" lon="6.35981">
        <ele>723.52954101562</ele>
        <time>2011-04-17T06:35:07Z</time>
      </trkpt>
      <trkpt lat="47.09875" lon="6.36019">
        <ele>724.97143554688</ele>
        <time>2011-04-17T06:35:14Z</time>
      </trkpt>
      <trkpt lat="47.09874" lon="6.36023">
        <ele>724.97143554688</ele>
        <time>2011-04-17T06:35:15Z</time>
      </trkpt>
      <trkpt lat="47.0986" lon="6.36055">
        <ele>724.97143554688</ele>
        <time>2011-04-17T06:35:22Z</time>
      </trkpt>
      <trkpt lat="47.09842" lon="6.36091">
        <ele>725.9326171875</ele>
        <time>2011-04-17T06:35:30Z</time>
      </trkpt>
      <trkpt lat="47.09826" lon="6.36111">
        <ele>725.9326171875</ele>
        <time>2011-04-17T06:35:36Z</time>
      </trkpt>
      <trkpt lat="47.09806" lon="6.36134">
        <ele>726.89404296875</ele>
        <time>2011-04-17T06:35:43Z</time>
      </trkpt>
      <trkpt lat="47.09793" lon="6.36151">
        <ele>727.37475585938</ele>
        <time>2011-04-17T06:35:50Z</time>
      </trkpt>
      <trkpt lat="47.09779" lon="6.36166">
        <ele>728.81665039062</ele>
        <time>2011-04-17T06:35:57Z</time>
      </trkpt>
      <trkpt lat="47.09769" lon="6.36176">
        <ele>730.25854492188</ele>
        <time>2011-04-17T06:36:02Z</time>
      </trkpt>
      <trkpt lat="47.09747" lon="6.36186">
        <ele>733.142578125</ele>
        <time>2011-04-17T06:36:10Z</time>
      </trkpt>
      <trkpt lat="47.09727" lon="6.36184">
        <ele>734.58471679688</ele>
        <time>2011-04-17T06:36:18Z</time>
      </trkpt>
      <trkpt lat="47.09711" lon="6.36173">
        <ele>736.50732421875</ele>
        <time>2011-04-17T06:36:25Z</time>
      </trkpt>
      <trkpt lat="47.09702" lon="6.36162">
        <ele>738.42993164062</ele>
        <time>2011-04-17T06:36:30Z</time>
      </trkpt>
      <trkpt lat="47.09682" lon="6.3614">
        <ele>739.39111328125</ele>
        <time>2011-04-17T06:36:40Z</time>
      </trkpt>
      <trkpt lat="47.09673" lon="6.36129">
        <ele>741.79443359375</ele>
        <time>2011-04-17T06:36:45Z</time>
      </trkpt>
      <trkpt lat="47.09652" lon="6.36106">
        <ele>743.71704101562</ele>
        <time>2011-04-17T06:36:56Z</time>
      </trkpt>
      <trkpt lat="47.09634" lon="6.36095">
        <ele>745.15893554688</ele>
        <time>2011-04-17T06:37:04Z</time>
      </trkpt>
      <trkpt lat="47.09609" lon="6.3609">
        <ele>748.04321289062</ele>
        <time>2011-04-17T06:37:15Z</time>
      </trkpt>
      <trkpt lat="47.09593" lon="6.36087">
        <ele>749.00439453125</ele>
        <time>2011-04-17T06:37:22Z</time>
      </trkpt>
      <trkpt lat="47.09575" lon="6.36084">
        <ele>750.92700195312</ele>
        <time>2011-04-17T06:37:31Z</time>
      </trkpt>
      <trkpt lat="47.09562" lon="6.36084">
        <ele>752.849609375</ele>
        <time>2011-04-17T06:37:38Z</time>
      </trkpt>
      <trkpt lat="47.0954" lon="6.36086">
        <ele>756.21411132812</ele>
        <time>2011-04-17T06:37:48Z</time>
      </trkpt>
      <trkpt lat="47.09529" lon="6.36088">
        <ele>756.69482421875</ele>
        <time>2011-04-17T06:37:54Z</time>
      </trkpt>
      <trkpt lat="47.09511" lon="6.36097">
        <ele>758.61743164062</ele>
        <time>2011-04-17T06:38:02Z</time>
      </trkpt>
      <trkpt lat="47.0949" lon="6.36105">
        <ele>759.57885742188</ele>
        <time>2011-04-17T06:38:09Z</time>
      </trkpt>
      <trkpt lat="47.09478" lon="6.36103">
        <ele>760.05932617188</ele>
        <time>2011-04-17T06:38:15Z</time>
      </trkpt>
      <trkpt lat="47.09467" lon="6.36098">
        <ele>760.5400390625</ele>
        <time>2011-04-17T06:38:19Z</time>
      </trkpt>
      <trkpt lat="47.09449" lon="6.3608">
        <ele>761.50146484375</ele>
        <time>2011-04-17T06:38:26Z</time>
      </trkpt>
      <trkpt lat="47.09436" lon="6.36054">
        <ele>763.42407226562</ele>
        <time>2011-04-17T06:38:34Z</time>
      </trkpt>
      <trkpt lat="47.0943" lon="6.36039">
        <ele>765.82763671875</ele>
        <time>2011-04-17T06:38:40Z</time>
      </trkpt>
      <trkpt lat="47.09423" lon="6.36027">
        <ele>767.26953125</ele>
        <time>2011-04-17T06:38:45Z</time>
      </trkpt>
      <trkpt lat="47.09414" lon="6.36008">
        <ele>768.23071289062</ele>
        <time>2011-04-17T06:38:52Z</time>
      </trkpt>
      <trkpt lat="47.09402" lon="6.35986">
        <ele>770.1533203125</ele>
        <time>2011-04-17T06:39:00Z</time>
      </trkpt>
      <trkpt lat="47.09397" lon="6.35979">
        <ele>771.59521484375</ele>
        <time>2011-04-17T06:39:03Z</time>
      </trkpt>
      <trkpt lat="47.09389" lon="6.3596">
        <ele>773.51806640625</ele>
        <time>2011-04-17T06:39:10Z</time>
      </trkpt>
      <trkpt lat="47.0938" lon="6.35931">
        <ele>774.9599609375</ele>
        <time>2011-04-17T06:39:19Z</time>
      </trkpt>
      <trkpt lat="47.09372" lon="6.35902">
        <ele>776.40185546875</ele>
        <time>2011-04-17T06:39:28Z</time>
      </trkpt>
      <trkpt lat="47.09371" lon="6.35886">
        <ele>779.76635742188</ele>
        <time>2011-04-17T06:39:34Z</time>
      </trkpt>
      <trkpt lat="47.09371" lon="6.3588">
        <ele>780.24731445312</ele>
        <time>2011-04-17T06:39:36Z</time>
      </trkpt>
      <trkpt lat="47.09369" lon="6.35869">
        <ele>783.61181640625</ele>
        <time>2011-04-17T06:39:40Z</time>
      </trkpt>
      <trkpt lat="47.09369" lon="6.35866">
        <ele>783.61181640625</ele>
        <time>2011-04-17T06:39:41Z</time>
      </trkpt>
      <trkpt lat="47.09365" lon="6.35847">
        <ele>783.61181640625</ele>
        <time>2011-04-17T06:39:48Z</time>
      </trkpt>
      <trkpt lat="47.09362" lon="6.3583">
        <ele>785.05395507812</ele>
        <time>2011-04-17T06:39:55Z</time>
      </trkpt>
      <trkpt lat="47.0936" lon="6.35806">
        <ele>786.01513671875</ele>
        <time>2011-04-17T06:40:03Z</time>
      </trkpt>
      <trkpt lat="47.09361" lon="6.35778">
        <ele>787.93774414062</ele>
        <time>2011-04-17T06:40:11Z</time>
      </trkpt>
      <trkpt lat="47.09359" lon="6.35758">
        <ele>790.34106445312</ele>
        <time>2011-04-17T06:40:20Z</time>
      </trkpt>
      <trkpt lat="47.09354" lon="6.3574">
        <ele>791.78295898438</ele>
        <time>2011-04-17T06:40:27Z</time>
      </trkpt>
      <trkpt lat="47.09346" lon="6.35716">
        <ele>791.78295898438</ele>
        <time>2011-04-17T06:40:35Z</time>
      </trkpt>
      <trkpt lat="47.09338" lon="6.35687">
        <ele>792.263671875</ele>
        <time>2011-04-17T06:40:44Z</time>
      </trkpt>
      <trkpt lat="47.09333" lon="6.35652">
        <ele>791.30224609375</ele>
        <time>2011-04-17T06:40:51Z</time>
      </trkpt>
      <trkpt lat="47.09331" lon="6.35646">
        <ele>791.78295898438</ele>
        <time>2011-04-17T06:40:52Z</time>
      </trkpt>
      <trkpt lat="47.09327" lon="6.3561">
        <ele>786.97631835938</ele>
        <time>2011-04-17T06:40:56Z</time>
      </trkpt>
      <trkpt lat="47.09325" lon="6.35601">
        <ele>786.49584960938</ele>
        <time>2011-04-17T06:40:57Z</time>
      </trkpt>
      <trkpt lat="47.09319" lon="6.35569">
        <ele>783.13110351562</ele>
        <time>2011-04-17T06:41:00Z</time>
      </trkpt>
      <trkpt lat="47.09314" lon="6.35542">
        <ele>779.28564453125</ele>
        <time>2011-04-17T06:41:02Z</time>
      </trkpt>
      <trkpt lat="47.09307" lon="6.35513">
        <ele>774.9599609375</ele>
        <time>2011-04-17T06:41:04Z</time>
      </trkpt>
      <trkpt lat="47.09295" lon="6.3547">
        <ele>770.63403320312</ele>
        <time>2011-04-17T06:41:07Z</time>
      </trkpt>
      <trkpt lat="47.09274" lon="6.35414">
        <ele>767.26953125</ele>
        <time>2011-04-17T06:41:11Z</time>
      </trkpt>
      <trkpt lat="47.09259" lon="6.35374">
        <ele>763.90454101562</ele>
        <time>2011-04-17T06:41:14Z</time>
      </trkpt>
      <trkpt lat="47.09248" lon="6.35351">
        <ele>761.98217773438</ele>
        <time>2011-04-17T06:41:16Z</time>
      </trkpt>
      <trkpt lat="47.0923" lon="6.35303">
        <ele>758.13696289062</ele>
        <time>2011-04-17T06:41:20Z</time>
      </trkpt>
      <trkpt lat="47.09227" lon="6.35289">
        <ele>757.17553710938</ele>
        <time>2011-04-17T06:41:21Z</time>
      </trkpt>
      <trkpt lat="47.09221" lon="6.35247">
        <ele>754.29174804688</ele>
        <time>2011-04-17T06:41:24Z</time>
      </trkpt>
      <trkpt lat="47.09217" lon="6.35227">
        <ele>752.849609375</ele>
        <time>2011-04-17T06:41:26Z</time>
      </trkpt>
      <trkpt lat="47.0921" lon="6.3521">
        <ele>749.00439453125</ele>
        <time>2011-04-17T06:41:28Z</time>
      </trkpt>
      <trkpt lat="47.09202" lon="6.35192">
        <ele>745.6396484375</ele>
        <time>2011-04-17T06:41:30Z</time>
      </trkpt>
      <trkpt lat="47.09193" lon="6.35172">
        <ele>741.79443359375</ele>
        <time>2011-04-17T06:41:32Z</time>
      </trkpt>
      <trkpt lat="47.09182" lon="6.3515">
        <ele>737.94921875</ele>
        <time>2011-04-17T06:41:34Z</time>
      </trkpt>
      <trkpt lat="47.09176" lon="6.35139">
        <ele>736.98779296875</ele>
        <time>2011-04-17T06:41:35Z</time>
      </trkpt>
      <trkpt lat="47.09146" lon="6.35112">
        <ele>733.142578125</ele>
        <time>2011-04-17T06:41:39Z</time>
      </trkpt>
      <trkpt lat="47.09131" lon="6.35109">
        <ele>732.662109375</ele>
        <time>2011-04-17T06:41:41Z</time>
      </trkpt>
      <trkpt lat="47.09124" lon="6.35109">
        <ele>732.662109375</ele>
        <time>2011-04-17T06:41:42Z</time>
      </trkpt>
      <trkpt lat="47.09102" lon="6.35111">
        <ele>731.21997070312</ele>
        <time>2011-04-17T06:41:45Z</time>
      </trkpt>
      <trkpt lat="47.09084" lon="6.35101">
        <ele>729.29711914062</ele>
        <time>2011-04-17T06:41:49Z</time>
      </trkpt>
      <trkpt lat="47.09082" lon="6.35094">
        <ele>728.81665039062</ele>
        <time>2011-04-17T06:41:50Z</time>
      </trkpt>
      <trkpt lat="47.09073" lon="6.35055">
        <ele>727.37475585938</ele>
        <time>2011-04-17T06:41:55Z</time>
      </trkpt>
      <trkpt lat="47.0907" lon="6.35049">
        <ele>726.89404296875</ele>
        <time>2011-04-17T06:41:56Z</time>
      </trkpt>
      <trkpt lat="47.09064" lon="6.35027">
        <ele>727.37475585938</ele>
        <time>2011-04-17T06:41:58Z</time>
      </trkpt>
      <trkpt lat="47.09066" lon="6.34993">
        <ele>726.89404296875</ele>
        <time>2011-04-17T06:42:02Z</time>
      </trkpt>
      <trkpt lat="47.09071" lon="6.34986">
        <ele>726.41333007812</ele>
        <time>2011-04-17T06:42:03Z</time>
      </trkpt>
      <trkpt lat="47.09085" lon="6.3495">
        <ele>726.89404296875</ele>
        <time>2011-04-17T06:42:08Z</time>
      </trkpt>
      <trkpt lat="47.0909" lon="6.34909">
        <ele>724.97143554688</ele>
        <time>2011-04-17T06:42:13Z</time>
      </trkpt>
      <trkpt lat="47.09097" lon="6.34875">
        <ele>724.97143554688</ele>
        <time>2011-04-17T06:42:17Z</time>
      </trkpt>
      <trkpt lat="47.09102" lon="6.34821">
        <ele>723.52954101562</ele>
        <time>2011-04-17T06:42:23Z</time>
      </trkpt>
      <trkpt lat="47.09104" lon="6.34763">
        <ele>721.60668945312</ele>
        <time>2011-04-17T06:42:29Z</time>
      </trkpt>
      <trkpt lat="47.09118" lon="6.34696">
        <ele>720.16479492188</ele>
        <time>2011-04-17T06:42:36Z</time>
      </trkpt>
      <trkpt lat="47.09131" lon="6.34616">
        <ele>717.76147460938</ele>
        <time>2011-04-17T06:42:44Z</time>
      </trkpt>
      <trkpt lat="47.09132" lon="6.34535">
        <ele>717.28100585938</ele>
        <time>2011-04-17T06:42:52Z</time>
      </trkpt>
      <trkpt lat="47.09127" lon="6.34511">
        <ele>717.28100585938</ele>
        <time>2011-04-17T06:42:55Z</time>
      </trkpt>
      <trkpt lat="47.09115" lon="6.34513">
        <ele>717.28100585938</ele>
        <time>2011-04-17T06:42:58Z</time>
      </trkpt>
      <trkpt lat="47.09097" lon="6.34543">
        <ele>717.28100585938</ele>
        <time>2011-04-17T06:43:05Z</time>
      </trkpt>
      <trkpt lat="47.09086" lon="6.34561">
        <ele>717.76147460938</ele>
        <time>2011-04-17T06:43:09Z</time>
      </trkpt>
      <trkpt lat="47.09063" lon="6.34579">
        <ele>718.72290039062</ele>
        <time>2011-04-17T06:43:15Z</time>
      </trkpt>
      <trkpt lat="47.09024" lon="6.34602">
        <ele>720.16479492188</ele>
        <time>2011-04-17T06:43:24Z</time>
      </trkpt>
      <trkpt lat="47.08992" lon="6.34618">
        <ele>719.68432617188</ele>
        <time>2011-04-17T06:43:31Z</time>
      </trkpt>
      <trkpt lat="47.08983" lon="6.34619">
        <ele>720.16479492188</ele>
        <time>2011-04-17T06:43:33Z</time>
      </trkpt>
      <trkpt lat="47.08967" lon="6.34612">
        <ele>720.6455078125</ele>
        <time>2011-04-17T06:43:37Z</time>
      </trkpt>
      <trkpt lat="47.08958" lon="6.34603">
        <ele>722.56811523438</ele>
        <time>2011-04-17T06:43:40Z</time>
      </trkpt>
      <trkpt lat="47.08947" lon="6.34589">
        <ele>723.048828125</ele>
        <time>2011-04-17T06:43:44Z</time>
      </trkpt>
      <trkpt lat="47.08936" lon="6.34577">
        <ele>724.49072265625</ele>
        <time>2011-04-17T06:43:48Z</time>
      </trkpt>
      <trkpt lat="47.08922" lon="6.34556">
        <ele>725.9326171875</ele>
        <time>2011-04-17T06:43:54Z</time>
      </trkpt>
      <trkpt lat="47.08908" lon="6.34526">
        <ele>727.37475585938</ele>
        <time>2011-04-17T06:44:02Z</time>
      </trkpt>
      <trkpt lat="47.08905" lon="6.34499">
        <ele>729.77783203125</ele>
        <time>2011-04-17T06:44:08Z</time>
      </trkpt>
      <trkpt lat="47.08907" lon="6.34469">
        <ele>731.70043945312</ele>
        <time>2011-04-17T06:44:15Z</time>
      </trkpt>
      <trkpt lat="47.08912" lon="6.34448">
        <ele>734.10400390625</ele>
        <time>2011-04-17T06:44:20Z</time>
      </trkpt>
      <trkpt lat="47.08922" lon="6.34403">
        <ele>733.62329101562</ele>
        <time>2011-04-17T06:44:30Z</time>
      </trkpt>
      <trkpt lat="47.08933" lon="6.34348">
        <ele>735.0654296875</ele>
        <time>2011-04-17T06:44:41Z</time>
      </trkpt>
      <trkpt lat="47.08937" lon="6.34306">
        <ele>735.5458984375</ele>
        <time>2011-04-17T06:44:50Z</time>
      </trkpt>
      <trkpt lat="47.0893" lon="6.34281">
        <ele>736.50732421875</ele>
        <time>2011-04-17T06:44:56Z</time>
      </trkpt>
      <trkpt lat="47.08914" lon="6.34242">
        <ele>738.91064453125</ele>
        <time>2011-04-17T06:45:06Z</time>
      </trkpt>
      <trkpt lat="47.08899" lon="6.34211">
        <ele>740.3525390625</ele>
        <time>2011-04-17T06:45:14Z</time>
      </trkpt>
      <trkpt lat="47.08879" lon="6.34178">
        <ele>741.79443359375</ele>
        <time>2011-04-17T06:45:23Z</time>
      </trkpt>
      <trkpt lat="47.08862" lon="6.34148">
        <ele>742.27514648438</ele>
        <time>2011-04-17T06:45:32Z</time>
      </trkpt>
      <trkpt lat="47.08851" lon="6.34128">
        <ele>744.19775390625</ele>
        <time>2011-04-17T06:45:38Z</time>
      </trkpt>
      <trkpt lat="47.08833" lon="6.341">
        <ele>744.19775390625</ele>
        <time>2011-04-17T06:45:46Z</time>
      </trkpt>
      <trkpt lat="47.08818" lon="6.34075">
        <ele>743.71704101562</ele>
        <time>2011-04-17T06:45:52Z</time>
      </trkpt>
      <trkpt lat="47.08798" lon="6.34044">
        <ele>743.236328125</ele>
        <time>2011-04-17T06:45:59Z</time>
      </trkpt>
      <trkpt lat="47.08792" lon="6.34035">
        <ele>743.236328125</ele>
        <time>2011-04-17T06:46:01Z</time>
      </trkpt>
      <trkpt lat="47.08773" lon="6.34005">
        <ele>742.755859375</ele>
        <time>2011-04-17T06:46:07Z</time>
      </trkpt>
      <trkpt lat="47.08754" lon="6.33977">
        <ele>740.3525390625</ele>
        <time>2011-04-17T06:46:12Z</time>
      </trkpt>
      <trkpt lat="47.0873" lon="6.33937">
        <ele>738.42993164062</ele>
        <time>2011-04-17T06:46:18Z</time>
      </trkpt>
      <trkpt lat="47.08716" lon="6.33917">
        <ele>738.42993164062</ele>
        <time>2011-04-17T06:46:21Z</time>
      </trkpt>
      <trkpt lat="47.0869" lon="6.33896">
        <ele>736.50732421875</ele>
        <time>2011-04-17T06:46:25Z</time>
      </trkpt>
      <trkpt lat="47.08657" lon="6.33866">
        <ele>737.46850585938</ele>
        <time>2011-04-17T06:46:31Z</time>
      </trkpt>
      <trkpt lat="47.08644" lon="6.33848">
        <ele>737.46850585938</ele>
        <time>2011-04-17T06:46:34Z</time>
      </trkpt>
      <trkpt lat="47.08619" lon="6.33829">
        <ele>738.42993164062</ele>
        <time>2011-04-17T06:46:39Z</time>
      </trkpt>
      <trkpt lat="47.08598" lon="6.33808">
        <ele>739.39111328125</ele>
        <time>2011-04-17T06:46:45Z</time>
      </trkpt>
      <trkpt lat="47.08585" lon="6.33798">
        <ele>740.8330078125</ele>
        <time>2011-04-17T06:46:50Z</time>
      </trkpt>
      <trkpt lat="47.08564" lon="6.33779">
        <ele>743.236328125</ele>
        <time>2011-04-17T06:46:58Z</time>
      </trkpt>
      <trkpt lat="47.08552" lon="6.33759">
        <ele>743.236328125</ele>
        <time>2011-04-17T06:47:04Z</time>
      </trkpt>
      <trkpt lat="47.08539" lon="6.33737">
        <ele>743.71704101562</ele>
        <time>2011-04-17T06:47:10Z</time>
      </trkpt>
      <trkpt lat="47.08526" lon="6.33723">
        <ele>744.67822265625</ele>
        <time>2011-04-17T06:47:15Z</time>
      </trkpt>
      <trkpt lat="47.08512" lon="6.33709">
        <ele>743.71704101562</ele>
        <time>2011-04-17T06:47:20Z</time>
      </trkpt>
      <trkpt lat="47.08498" lon="6.3369">
        <ele>744.19775390625</ele>
        <time>2011-04-17T06:47:26Z</time>
      </trkpt>
      <trkpt lat="47.08478" lon="6.3367">
        <ele>743.236328125</ele>
        <time>2011-04-17T06:47:32Z</time>
      </trkpt>
      <trkpt lat="47.08473" lon="6.33647">
        <ele>744.67822265625</ele>
        <time>2011-04-17T06:47:36Z</time>
      </trkpt>
      <trkpt lat="47.08482" lon="6.33627">
        <ele>745.15893554688</ele>
        <time>2011-04-17T06:47:41Z</time>
      </trkpt>
      <trkpt lat="47.08493" lon="6.33601">
        <ele>748.04321289062</ele>
        <time>2011-04-17T06:47:49Z</time>
      </trkpt>
      <trkpt lat="47.08498" lon="6.33576">
        <ele>750.44653320312</ele>
        <time>2011-04-17T06:47:56Z</time>
      </trkpt>
      <trkpt lat="47.08506" lon="6.33549">
        <ele>751.88842773438</ele>
        <time>2011-04-17T06:48:03Z</time>
      </trkpt>
      <trkpt lat="47.08512" lon="6.33518">
        <ele>752.36889648438</ele>
        <time>2011-04-17T06:48:09Z</time>
      </trkpt>
      <trkpt lat="47.08512" lon="6.33488">
        <ele>754.29174804688</ele>
        <time>2011-04-17T06:48:15Z</time>
      </trkpt>
      <trkpt lat="47.08508" lon="6.33453">
        <ele>755.2529296875</ele>
        <time>2011-04-17T06:48:22Z</time>
      </trkpt>
      <trkpt lat="47.08501" lon="6.33417">
        <ele>756.69482421875</ele>
        <time>2011-04-17T06:48:29Z</time>
      </trkpt>
      <trkpt lat="47.08494" lon="6.33377">
        <ele>756.21411132812</ele>
        <time>2011-04-17T06:48:37Z</time>
      </trkpt>
      <trkpt lat="47.08496" lon="6.33352">
        <ele>756.69482421875</ele>
        <time>2011-04-17T06:48:42Z</time>
      </trkpt>
      <trkpt lat="47.08508" lon="6.33324">
        <ele>756.69482421875</ele>
        <time>2011-04-17T06:48:48Z</time>
      </trkpt>
      <trkpt lat="47.08527" lon="6.33301">
        <ele>758.13696289062</ele>
        <time>2011-04-17T06:48:55Z</time>
      </trkpt>
      <trkpt lat="47.08535" lon="6.3328">
        <ele>758.13696289062</ele>
        <time>2011-04-17T06:49:01Z</time>
      </trkpt>
      <trkpt lat="47.08539" lon="6.33258">
        <ele>759.57885742188</ele>
        <time>2011-04-17T06:49:06Z</time>
      </trkpt>
      <trkpt lat="47.08546" lon="6.33236">
        <ele>760.5400390625</ele>
        <time>2011-04-17T06:49:13Z</time>
      </trkpt>
      <trkpt lat="47.08551" lon="6.33214">
        <ele>762.943359375</ele>
        <time>2011-04-17T06:49:21Z</time>
      </trkpt>
      <trkpt lat="47.08554" lon="6.33193">
        <ele>764.8662109375</ele>
        <time>2011-04-17T06:49:27Z</time>
      </trkpt>
      <trkpt lat="47.08557" lon="6.33175">
        <ele>766.30810546875</ele>
        <time>2011-04-17T06:49:33Z</time>
      </trkpt>
      <trkpt lat="47.08561" lon="6.33152">
        <ele>767.26953125</ele>
        <time>2011-04-17T06:49:39Z</time>
      </trkpt>
      <trkpt lat="47.08568" lon="6.33128">
        <ele>766.78881835938</ele>
        <time>2011-04-17T06:49:45Z</time>
      </trkpt>
      <trkpt lat="47.08574" lon="6.331">
        <ele>766.78881835938</ele>
        <time>2011-04-17T06:49:51Z</time>
      </trkpt>
      <trkpt lat="47.08575" lon="6.33093">
        <ele>766.30810546875</ele>
        <time>2011-04-17T06:49:52Z</time>
      </trkpt>
      <trkpt lat="47.08583" lon="6.33065">
        <ele>763.90454101562</ele>
        <time>2011-04-17T06:49:56Z</time>
      </trkpt>
      <trkpt lat="47.08585" lon="6.33057">
        <ele>763.42407226562</ele>
        <time>2011-04-17T06:49:57Z</time>
      </trkpt>
      <trkpt lat="47.08594" lon="6.32995">
        <ele>761.50146484375</ele>
        <time>2011-04-17T06:50:03Z</time>
      </trkpt>
      <trkpt lat="47.08597" lon="6.32976">
        <ele>762.46264648438</ele>
        <time>2011-04-17T06:50:06Z</time>
      </trkpt>
      <trkpt lat="47.08595" lon="6.32955">
        <ele>761.98217773438</ele>
        <time>2011-04-17T06:50:10Z</time>
      </trkpt>
      <trkpt lat="47.08596" lon="6.32938">
        <ele>763.90454101562</ele>
        <time>2011-04-17T06:50:13Z</time>
      </trkpt>
      <trkpt lat="47.08588" lon="6.32914">
        <ele>763.42407226562</ele>
        <time>2011-04-17T06:50:17Z</time>
      </trkpt>
      <trkpt lat="47.08585" lon="6.3291">
        <ele>763.90454101562</ele>
        <time>2011-04-17T06:50:18Z</time>
      </trkpt>
      <trkpt lat="47.08564" lon="6.32886">
        <ele>765.34692382812</ele>
        <time>2011-04-17T06:50:25Z</time>
      </trkpt>
      <trkpt lat="47.08544" lon="6.32873">
        <ele>766.78881835938</ele>
        <time>2011-04-17T06:50:30Z</time>
      </trkpt>
      <trkpt lat="47.08522" lon="6.32868">
        <ele>767.75</ele>
        <time>2011-04-17T06:50:36Z</time>
      </trkpt>
      <trkpt lat="47.08501" lon="6.32863">
        <ele>767.75</ele>
        <time>2011-04-17T06:50:41Z</time>
      </trkpt>
      <trkpt lat="47.08476" lon="6.32865">
        <ele>769.6728515625</ele>
        <time>2011-04-17T06:50:48Z</time>
      </trkpt>
      <trkpt lat="47.08456" lon="6.32865">
        <ele>771.59521484375</ele>
        <time>2011-04-17T06:50:55Z</time>
      </trkpt>
      <trkpt lat="47.08453" lon="6.32865">
        <ele>771.59521484375</ele>
        <time>2011-04-17T06:50:56Z</time>
      </trkpt>
      <trkpt lat="47.08441" lon="6.32865">
        <ele>772.07592773438</ele>
        <time>2011-04-17T06:51:01Z</time>
      </trkpt>
      <trkpt lat="47.08427" lon="6.32869">
        <ele>774.47924804688</ele>
        <time>2011-04-17T06:51:07Z</time>
      </trkpt>
      <trkpt lat="47.08409" lon="6.32878">
        <ele>775.4404296875</ele>
        <time>2011-04-17T06:51:13Z</time>
      </trkpt>
      <trkpt lat="47.08387" lon="6.32887">
        <ele>775.92114257812</ele>
        <time>2011-04-17T06:51:19Z</time>
      </trkpt>
      <trkpt lat="47.08364" lon="6.32902">
        <ele>774.47924804688</ele>
        <time>2011-04-17T06:51:25Z</time>
      </trkpt>
      <trkpt lat="47.08361" lon="6.32906">
        <ele>774.47924804688</ele>
        <time>2011-04-17T06:51:26Z</time>
      </trkpt>
      <trkpt lat="47.08346" lon="6.32936">
        <ele>771.11474609375</ele>
        <time>2011-04-17T06:51:31Z</time>
      </trkpt>
      <trkpt lat="47.08342" lon="6.32943">
        <ele>771.11474609375</ele>
        <time>2011-04-17T06:51:32Z</time>
      </trkpt>
      <trkpt lat="47.08334" lon="6.3296">
        <ele>769.19213867188</ele>
        <time>2011-04-17T06:51:34Z</time>
      </trkpt>
      <trkpt lat="47.08313" lon="6.32989">
        <ele>769.19213867188</ele>
        <time>2011-04-17T06:51:38Z</time>
      </trkpt>
      <trkpt lat="47.08294" lon="6.32993">
        <ele>769.19213867188</ele>
        <time>2011-04-17T06:51:41Z</time>
      </trkpt>
      <trkpt lat="47.08287" lon="6.32993">
        <ele>769.19213867188</ele>
        <time>2011-04-17T06:51:42Z</time>
      </trkpt>
      <trkpt lat="47.08246" lon="6.32986">
        <ele>769.6728515625</ele>
        <time>2011-04-17T06:51:49Z</time>
      </trkpt>
      <trkpt lat="47.08206" lon="6.32975">
        <ele>767.75</ele>
        <time>2011-04-17T06:51:55Z</time>
      </trkpt>
      <trkpt lat="47.08181" lon="6.32964">
        <ele>764.38549804688</ele>
        <time>2011-04-17T06:51:58Z</time>
      </trkpt>
      <trkpt lat="47.08172" lon="6.3296">
        <ele>764.38549804688</ele>
        <time>2011-04-17T06:51:59Z</time>
      </trkpt>
      <trkpt lat="47.08129" lon="6.32939">
        <ele>760.5400390625</ele>
        <time>2011-04-17T06:52:04Z</time>
      </trkpt>
      <trkpt lat="47.08111" lon="6.32931">
        <ele>759.57885742188</ele>
        <time>2011-04-17T06:52:06Z</time>
      </trkpt>
      <trkpt lat="47.08068" lon="6.32894">
        <ele>758.13696289062</ele>
        <time>2011-04-17T06:52:11Z</time>
      </trkpt>
      <trkpt lat="47.08045" lon="6.32875">
        <ele>757.65625</ele>
        <time>2011-04-17T06:52:14Z</time>
      </trkpt>
      <trkpt lat="47.08009" lon="6.32861">
        <ele>759.09814453125</ele>
        <time>2011-04-17T06:52:19Z</time>
      </trkpt>
      <trkpt lat="47.08003" lon="6.32859">
        <ele>759.57885742188</ele>
        <time>2011-04-17T06:52:20Z</time>
      </trkpt>
      <trkpt lat="47.07984" lon="6.32853">
        <ele>760.05932617188</ele>
        <time>2011-04-17T06:52:24Z</time>
      </trkpt>
      <trkpt lat="47.07973" lon="6.32849">
        <ele>760.05932617188</ele>
        <time>2011-04-17T06:52:26Z</time>
      </trkpt>
      <trkpt lat="47.07945" lon="6.32828">
        <ele>761.50146484375</ele>
        <time>2011-04-17T06:52:33Z</time>
      </trkpt>
      <trkpt lat="47.07925" lon="6.32813">
        <ele>762.46264648438</ele>
        <time>2011-04-17T06:52:39Z</time>
      </trkpt>
      <trkpt lat="47.07904" lon="6.32797">
        <ele>762.943359375</ele>
        <time>2011-04-17T06:52:45Z</time>
      </trkpt>
      <trkpt lat="47.07888" lon="6.32787">
        <ele>762.943359375</ele>
        <time>2011-04-17T06:52:50Z</time>
      </trkpt>
      <trkpt lat="47.07863" lon="6.32768">
        <ele>763.90454101562</ele>
        <time>2011-04-17T06:52:57Z</time>
      </trkpt>
      <trkpt lat="47.07847" lon="6.32757">
        <ele>763.90454101562</ele>
        <time>2011-04-17T06:53:01Z</time>
      </trkpt>
      <trkpt lat="47.07827" lon="6.32744">
        <ele>764.38549804688</ele>
        <time>2011-04-17T06:53:07Z</time>
      </trkpt>
      <trkpt lat="47.07821" lon="6.32739">
        <ele>765.34692382812</ele>
        <time>2011-04-17T06:53:09Z</time>
      </trkpt>
      <trkpt lat="47.07805" lon="6.32728">
        <ele>767.26953125</ele>
        <time>2011-04-17T06:53:15Z</time>
      </trkpt>
      <trkpt lat="47.07798" lon="6.32724">
        <ele>767.26953125</ele>
        <time>2011-04-17T06:53:18Z</time>
      </trkpt>
      <trkpt lat="47.07793" lon="6.3271">
        <ele>766.30810546875</ele>
        <time>2011-04-17T06:53:22Z</time>
      </trkpt>
      <trkpt lat="47.07786" lon="6.32696">
        <ele>765.82763671875</ele>
        <time>2011-04-17T06:53:26Z</time>
      </trkpt>
      <trkpt lat="47.07774" lon="6.32682">
        <ele>766.30810546875</ele>
        <time>2011-04-17T06:53:32Z</time>
      </trkpt>
      <trkpt lat="47.07762" lon="6.32673">
        <ele>767.26953125</ele>
        <time>2011-04-17T06:53:37Z</time>
      </trkpt>
      <trkpt lat="47.07752" lon="6.32665">
        <ele>766.30810546875</ele>
        <time>2011-04-17T06:53:42Z</time>
      </trkpt>
      <trkpt lat="47.07743" lon="6.32656">
        <ele>767.26953125</ele>
        <time>2011-04-17T06:53:47Z</time>
      </trkpt>
      <trkpt lat="47.07734" lon="6.3265">
        <ele>768.23071289062</ele>
        <time>2011-04-17T06:53:52Z</time>
      </trkpt>
      <trkpt lat="47.07719" lon="6.3264">
        <ele>768.23071289062</ele>
        <time>2011-04-17T06:53:58Z</time>
      </trkpt>
      <trkpt lat="47.07704" lon="6.32631">
        <ele>769.19213867188</ele>
        <time>2011-04-17T06:54:07Z</time>
      </trkpt>
      <trkpt lat="47.07693" lon="6.32624">
        <ele>771.11474609375</ele>
        <time>2011-04-17T06:54:13Z</time>
      </trkpt>
      <trkpt lat="47.0768" lon="6.32618">
        <ele>773.51806640625</ele>
        <time>2011-04-17T06:54:20Z</time>
      </trkpt>
      <trkpt lat="47.07672" lon="6.32612">
        <ele>774.47924804688</ele>
        <time>2011-04-17T06:54:25Z</time>
      </trkpt>
      <trkpt lat="47.07664" lon="6.32606">
        <ele>774.9599609375</ele>
        <time>2011-04-17T06:54:29Z</time>
      </trkpt>
      <trkpt lat="47.0765" lon="6.32596">
        <ele>775.92114257812</ele>
        <time>2011-04-17T06:54:39Z</time>
      </trkpt>
      <trkpt lat="47.0764" lon="6.32588">
        <ele>777.36328125</ele>
        <time>2011-04-17T06:54:45Z</time>
      </trkpt>
      <trkpt lat="47.07627" lon="6.32575">
        <ele>778.80517578125</ele>
        <time>2011-04-17T06:54:52Z</time>
      </trkpt>
      <trkpt lat="47.07616" lon="6.32563">
        <ele>779.76635742188</ele>
        <time>2011-04-17T06:54:58Z</time>
      </trkpt>
      <trkpt lat="47.07606" lon="6.32554">
        <ele>779.76635742188</ele>
        <time>2011-04-17T06:55:04Z</time>
      </trkpt>
      <trkpt lat="47.076" lon="6.32549">
        <ele>781.20874023438</ele>
        <time>2011-04-17T06:55:07Z</time>
      </trkpt>
      <trkpt lat="47.07588" lon="6.32541">
        <ele>781.20874023438</ele>
        <time>2011-04-17T06:55:13Z</time>
      </trkpt>
      <trkpt lat="47.07574" lon="6.32534">
        <ele>782.65063476562</ele>
        <time>2011-04-17T06:55:19Z</time>
      </trkpt>
      <trkpt lat="47.07563" lon="6.32525">
        <ele>783.13110351562</ele>
        <time>2011-04-17T06:55:26Z</time>
      </trkpt>
      <trkpt lat="47.07551" lon="6.32511">
        <ele>782.65063476562</ele>
        <time>2011-04-17T06:55:31Z</time>
      </trkpt>
      <trkpt lat="47.07541" lon="6.32489">
        <ele>781.68920898438</ele>
        <time>2011-04-17T06:55:36Z</time>
      </trkpt>
      <trkpt lat="47.07531" lon="6.3247">
        <ele>782.65063476562</ele>
        <time>2011-04-17T06:55:41Z</time>
      </trkpt>
      <trkpt lat="47.0752" lon="6.32458">
        <ele>780.72802734375</ele>
        <time>2011-04-17T06:55:46Z</time>
      </trkpt>
      <trkpt lat="47.07503" lon="6.32441">
        <ele>781.68920898438</ele>
        <time>2011-04-17T06:55:52Z</time>
      </trkpt>
      <trkpt lat="47.0749" lon="6.3243">
        <ele>782.169921875</ele>
        <time>2011-04-17T06:55:57Z</time>
      </trkpt>
      <trkpt lat="47.07478" lon="6.32411">
        <ele>784.09252929688</ele>
        <time>2011-04-17T06:56:04Z</time>
      </trkpt>
      <trkpt lat="47.07468" lon="6.32387">
        <ele>785.53442382812</ele>
        <time>2011-04-17T06:56:12Z</time>
      </trkpt>
      <trkpt lat="47.07457" lon="6.32377">
        <ele>785.53442382812</ele>
        <time>2011-04-17T06:56:17Z</time>
      </trkpt>
      <trkpt lat="47.07433" lon="6.32374">
        <ele>786.49584960938</ele>
        <time>2011-04-17T06:56:24Z</time>
      </trkpt>
      <trkpt lat="47.07421" lon="6.32367">
        <ele>785.05395507812</ele>
        <time>2011-04-17T06:56:27Z</time>
      </trkpt>
      <trkpt lat="47.07389" lon="6.32344">
        <ele>783.13110351562</ele>
        <time>2011-04-17T06:56:33Z</time>
      </trkpt>
      <trkpt lat="47.07376" lon="6.32335">
        <ele>782.65063476562</ele>
        <time>2011-04-17T06:56:35Z</time>
      </trkpt>
      <trkpt lat="47.07328" lon="6.32295">
        <ele>780.72802734375</ele>
        <time>2011-04-17T06:56:42Z</time>
      </trkpt>
      <trkpt lat="47.07285" lon="6.32258">
        <ele>778.80517578125</ele>
        <time>2011-04-17T06:56:49Z</time>
      </trkpt>
      <trkpt lat="47.07244" lon="6.32221">
        <ele>777.36328125</ele>
        <time>2011-04-17T06:56:56Z</time>
      </trkpt>
      <trkpt lat="47.07238" lon="6.32215">
        <ele>777.36328125</ele>
        <time>2011-04-17T06:56:57Z</time>
      </trkpt>
      <trkpt lat="47.07209" lon="6.32195">
        <ele>779.28564453125</ele>
        <time>2011-04-17T06:57:02Z</time>
      </trkpt>
      <trkpt lat="47.07204" lon="6.3219">
        <ele>779.28564453125</ele>
        <time>2011-04-17T06:57:03Z</time>
      </trkpt>
      <trkpt lat="47.07168" lon="6.32143">
        <ele>776.40185546875</ele>
        <time>2011-04-17T06:57:10Z</time>
      </trkpt>
      <trkpt lat="47.07135" lon="6.32094">
        <ele>777.36328125</ele>
        <time>2011-04-17T06:57:17Z</time>
      </trkpt>
      <trkpt lat="47.07122" lon="6.32076">
        <ele>776.88256835938</ele>
        <time>2011-04-17T06:57:20Z</time>
      </trkpt>
      <trkpt lat="47.07102" lon="6.3206">
        <ele>776.40185546875</ele>
        <time>2011-04-17T06:57:24Z</time>
      </trkpt>
      <trkpt lat="47.07089" lon="6.32041">
        <ele>776.88256835938</ele>
        <time>2011-04-17T06:57:28Z</time>
      </trkpt>
      <trkpt lat="47.07062" lon="6.32008">
        <ele>775.4404296875</ele>
        <time>2011-04-17T06:57:36Z</time>
      </trkpt>
      <trkpt lat="47.07043" lon="6.31984">
        <ele>775.4404296875</ele>
        <time>2011-04-17T06:57:43Z</time>
      </trkpt>
      <trkpt lat="47.07039" lon="6.31979">
        <ele>775.4404296875</ele>
        <time>2011-04-17T06:57:45Z</time>
      </trkpt>
      <trkpt lat="47.07033" lon="6.31953">
        <ele>773.03735351562</ele>
        <time>2011-04-17T06:57:49Z</time>
      </trkpt>
      <trkpt lat="47.07024" lon="6.31915">
        <ele>770.1533203125</ele>
        <time>2011-04-17T06:57:53Z</time>
      </trkpt>
      <trkpt lat="47.0702" lon="6.31884">
        <ele>768.23071289062</ele>
        <time>2011-04-17T06:57:56Z</time>
      </trkpt>
      <trkpt lat="47.07016" lon="6.31809">
        <ele>765.82763671875</ele>
        <time>2011-04-17T06:58:03Z</time>
      </trkpt>
      <trkpt lat="47.07016" lon="6.31781">
        <ele>764.38549804688</ele>
        <time>2011-04-17T06:58:06Z</time>
      </trkpt>
      <trkpt lat="47.07016" lon="6.31758">
        <ele>764.38549804688</ele>
        <time>2011-04-17T06:58:09Z</time>
      </trkpt>
      <trkpt lat="47.0701" lon="6.31694">
        <ele>764.38549804688</ele>
        <time>2011-04-17T06:58:18Z</time>
      </trkpt>
      <trkpt lat="47.06998" lon="6.31641">
        <ele>763.42407226562</ele>
        <time>2011-04-17T06:58:26Z</time>
      </trkpt>
      <trkpt lat="47.06985" lon="6.31607">
        <ele>762.46264648438</ele>
        <time>2011-04-17T06:58:32Z</time>
      </trkpt>
      <trkpt lat="47.06973" lon="6.31575">
        <ele>762.943359375</ele>
        <time>2011-04-17T06:58:38Z</time>
      </trkpt>
      <trkpt lat="47.06956" lon="6.31555">
        <ele>763.90454101562</ele>
        <time>2011-04-17T06:58:44Z</time>
      </trkpt>
      <trkpt lat="47.06945" lon="6.31548">
        <ele>763.42407226562</ele>
        <time>2011-04-17T06:58:47Z</time>
      </trkpt>
      <trkpt lat="47.06937" lon="6.31545">
        <ele>763.90454101562</ele>
        <time>2011-04-17T06:58:49Z</time>
      </trkpt>
      <trkpt lat="47.0691" lon="6.31543">
        <ele>762.46264648438</ele>
        <time>2011-04-17T06:58:54Z</time>
      </trkpt>
      <trkpt lat="47.06903" lon="6.31543">
        <ele>761.98217773438</ele>
        <time>2011-04-17T06:58:55Z</time>
      </trkpt>
      <trkpt lat="47.06863" lon="6.31541">
        <ele>761.98217773438</ele>
        <time>2011-04-17T06:59:01Z</time>
      </trkpt>
      <trkpt lat="47.06846" lon="6.31543">
        <ele>761.98217773438</ele>
        <time>2011-04-17T06:59:04Z</time>
      </trkpt>
      <trkpt lat="47.06827" lon="6.31541">
        <ele>762.46264648438</ele>
        <time>2011-04-17T06:59:08Z</time>
      </trkpt>
      <trkpt lat="47.06817" lon="6.31534">
        <ele>763.90454101562</ele>
        <time>2011-04-17T06:59:10Z</time>
      </trkpt>
      <trkpt lat="47.06786" lon="6.31509">
        <ele>763.90454101562</ele>
        <time>2011-04-17T06:59:16Z</time>
      </trkpt>
      <trkpt lat="47.06758" lon="6.31484">
        <ele>762.46264648438</ele>
        <time>2011-04-17T06:59:21Z</time>
      </trkpt>
      <trkpt lat="47.06747" lon="6.31473">
        <ele>761.98217773438</ele>
        <time>2011-04-17T06:59:23Z</time>
      </trkpt>
      <trkpt lat="47.06721" lon="6.31455">
        <ele>761.50146484375</ele>
        <time>2011-04-17T06:59:27Z</time>
      </trkpt>
      <trkpt lat="47.06703" lon="6.3143">
        <ele>762.46264648438</ele>
        <time>2011-04-17T06:59:31Z</time>
      </trkpt>
      <trkpt lat="47.067" lon="6.31416">
        <ele>762.943359375</ele>
        <time>2011-04-17T06:59:33Z</time>
      </trkpt>
      <trkpt lat="47.06693" lon="6.31386">
        <ele>766.30810546875</ele>
        <time>2011-04-17T06:59:38Z</time>
      </trkpt>
      <trkpt lat="47.06689" lon="6.31366">
        <ele>769.19213867188</ele>
        <time>2011-04-17T06:59:42Z</time>
      </trkpt>
      <trkpt lat="47.06684" lon="6.31351">
        <ele>768.23071289062</ele>
        <time>2011-04-17T06:59:45Z</time>
      </trkpt>
      <trkpt lat="47.06666" lon="6.31322">
        <ele>767.75</ele>
        <time>2011-04-17T06:59:51Z</time>
      </trkpt>
      <trkpt lat="47.06649" lon="6.31289">
        <ele>767.75</ele>
        <time>2011-04-17T06:59:57Z</time>
      </trkpt>
      <trkpt lat="47.06635" lon="6.31257">
        <ele>769.19213867188</ele>
        <time>2011-04-17T07:00:03Z</time>
      </trkpt>
      <trkpt lat="47.06627" lon="6.31219">
        <ele>772.07592773438</ele>
        <time>2011-04-17T07:00:10Z</time>
      </trkpt>
      <trkpt lat="47.06625" lon="6.31191">
        <ele>773.99853515625</ele>
        <time>2011-04-17T07:00:16Z</time>
      </trkpt>
      <trkpt lat="47.06626" lon="6.31169">
        <ele>775.92114257812</ele>
        <time>2011-04-17T07:00:20Z</time>
      </trkpt>
      <trkpt lat="47.06626" lon="6.31157">
        <ele>777.84375</ele>
        <time>2011-04-17T07:00:22Z</time>
      </trkpt>
      <trkpt lat="47.06627" lon="6.3114">
        <ele>779.28564453125</ele>
        <time>2011-04-17T07:00:25Z</time>
      </trkpt>
      <trkpt lat="47.06613" lon="6.31122">
        <ele>776.40185546875</ele>
        <time>2011-04-17T07:00:30Z</time>
      </trkpt>
      <trkpt lat="47.06598" lon="6.31113">
        <ele>772.556640625</ele>
        <time>2011-04-17T07:00:33Z</time>
      </trkpt>
      <trkpt lat="47.06561" lon="6.31081">
        <ele>768.23071289062</ele>
        <time>2011-04-17T07:00:39Z</time>
      </trkpt>
      <trkpt lat="47.06554" lon="6.31074">
        <ele>769.19213867188</ele>
        <time>2011-04-17T07:00:40Z</time>
      </trkpt>
      <trkpt lat="47.06547" lon="6.31066">
        <ele>768.23071289062</ele>
        <time>2011-04-17T07:00:41Z</time>
      </trkpt>
      <trkpt lat="47.0654" lon="6.31039">
        <ele>768.23071289062</ele>
        <time>2011-04-17T07:00:44Z</time>
      </trkpt>
      <trkpt lat="47.06534" lon="6.30995">
        <ele>767.75</ele>
        <time>2011-04-17T07:00:49Z</time>
      </trkpt>
      <trkpt lat="47.06527" lon="6.30963">
        <ele>764.38549804688</ele>
        <time>2011-04-17T07:00:52Z</time>
      </trkpt>
      <trkpt lat="47.06524" lon="6.30951">
        <ele>764.38549804688</ele>
        <time>2011-04-17T07:00:53Z</time>
      </trkpt>
      <trkpt lat="47.06507" lon="6.30884">
        <ele>762.46264648438</ele>
        <time>2011-04-17T07:00:59Z</time>
      </trkpt>
      <trkpt lat="47.06488" lon="6.30822">
        <ele>761.02075195312</ele>
        <time>2011-04-17T07:01:05Z</time>
      </trkpt>
      <trkpt lat="47.06484" lon="6.30812">
        <ele>761.02075195312</ele>
        <time>2011-04-17T07:01:06Z</time>
      </trkpt>
      <trkpt lat="47.06461" lon="6.3076">
        <ele>759.57885742188</ele>
        <time>2011-04-17T07:01:11Z</time>
      </trkpt>
      <trkpt lat="47.06427" lon="6.30675">
        <ele>757.65625</ele>
        <time>2011-04-17T07:01:19Z</time>
      </trkpt>
      <trkpt lat="47.06395" lon="6.30601">
        <ele>758.61743164062</ele>
        <time>2011-04-17T07:01:26Z</time>
      </trkpt>
      <trkpt lat="47.06374" lon="6.30554">
        <ele>756.69482421875</ele>
        <time>2011-04-17T07:01:31Z</time>
      </trkpt>
      <trkpt lat="47.06354" lon="6.30507">
        <ele>756.69482421875</ele>
        <time>2011-04-17T07:01:37Z</time>
      </trkpt>
      <trkpt lat="47.0634" lon="6.30472">
        <ele>757.17553710938</ele>
        <time>2011-04-17T07:01:42Z</time>
      </trkpt>
      <trkpt lat="47.06326" lon="6.30448">
        <ele>756.69482421875</ele>
        <time>2011-04-17T07:01:46Z</time>
      </trkpt>
      <trkpt lat="47.06305" lon="6.30424">
        <ele>757.17553710938</ele>
        <time>2011-04-17T07:01:51Z</time>
      </trkpt>
      <trkpt lat="47.06288" lon="6.30422">
        <ele>758.13696289062</ele>
        <time>2011-04-17T07:01:55Z</time>
      </trkpt>
      <trkpt lat="47.06279" lon="6.30428">
        <ele>758.61743164062</ele>
        <time>2011-04-17T07:01:58Z</time>
      </trkpt>
      <trkpt lat="47.06266" lon="6.30415">
        <ele>758.13696289062</ele>
        <time>2011-04-17T07:02:02Z</time>
      </trkpt>
      <trkpt lat="47.06258" lon="6.30401">
        <ele>758.13696289062</ele>
        <time>2011-04-17T07:02:05Z</time>
      </trkpt>
      <trkpt lat="47.06236" lon="6.30361">
        <ele>757.65625</ele>
        <time>2011-04-17T07:02:12Z</time>
      </trkpt>
      <trkpt lat="47.06221" lon="6.30334">
        <ele>756.21411132812</ele>
        <time>2011-04-17T07:02:16Z</time>
      </trkpt>
      <trkpt lat="47.0619" lon="6.30279">
        <ele>754.77221679688</ele>
        <time>2011-04-17T07:02:24Z</time>
      </trkpt>
      <trkpt lat="47.06179" lon="6.3026">
        <ele>755.73364257812</ele>
        <time>2011-04-17T07:02:27Z</time>
      </trkpt>
      <trkpt lat="47.0616" lon="6.30206">
        <ele>753.81103515625</ele>
        <time>2011-04-17T07:02:35Z</time>
      </trkpt>
      <trkpt lat="47.06157" lon="6.302">
        <ele>753.81103515625</ele>
        <time>2011-04-17T07:02:36Z</time>
      </trkpt>
      <trkpt lat="47.06129" lon="6.30155">
        <ele>753.33032226562</ele>
        <time>2011-04-17T07:02:44Z</time>
      </trkpt>
      <trkpt lat="47.06112" lon="6.30121">
        <ele>753.33032226562</ele>
        <time>2011-04-17T07:02:50Z</time>
      </trkpt>
      <trkpt lat="47.06087" lon="6.30087">
        <ele>753.81103515625</ele>
        <time>2011-04-17T07:02:57Z</time>
      </trkpt>
      <trkpt lat="47.06065" lon="6.30063">
        <ele>753.81103515625</ele>
        <time>2011-04-17T07:03:04Z</time>
      </trkpt>
      <trkpt lat="47.06042" lon="6.30036">
        <ele>754.77221679688</ele>
        <time>2011-04-17T07:03:12Z</time>
      </trkpt>
      <trkpt lat="47.06017" lon="6.3001">
        <ele>754.77221679688</ele>
        <time>2011-04-17T07:03:20Z</time>
      </trkpt>
      <trkpt lat="47.05991" lon="6.30001">
        <ele>756.69482421875</ele>
        <time>2011-04-17T07:03:27Z</time>
      </trkpt>
      <trkpt lat="47.05967" lon="6.29991">
        <ele>757.17553710938</ele>
        <time>2011-04-17T07:03:35Z</time>
      </trkpt>
      <trkpt lat="47.05941" lon="6.29981">
        <ele>757.65625</ele>
        <time>2011-04-17T07:03:44Z</time>
      </trkpt>
      <trkpt lat="47.05934" lon="6.29978">
        <ele>757.17553710938</ele>
        <time>2011-04-17T07:03:46Z</time>
      </trkpt>
      <trkpt lat="47.05907" lon="6.29975">
        <ele>757.17553710938</ele>
        <time>2011-04-17T07:03:53Z</time>
      </trkpt>
      <trkpt lat="47.05901" lon="6.29975">
        <ele>758.13696289062</ele>
        <time>2011-04-17T07:03:55Z</time>
      </trkpt>
      <trkpt lat="47.05891" lon="6.29973">
        <ele>760.5400390625</ele>
        <time>2011-04-17T07:03:58Z</time>
      </trkpt>
      <trkpt lat="47.05873" lon="6.29967">
        <ele>760.5400390625</ele>
        <time>2011-04-17T07:04:04Z</time>
      </trkpt>
      <trkpt lat="47.05851" lon="6.29964">
        <ele>761.02075195312</ele>
        <time>2011-04-17T07:04:10Z</time>
      </trkpt>
      <trkpt lat="47.05842" lon="6.29962">
        <ele>762.46264648438</ele>
        <time>2011-04-17T07:04:13Z</time>
      </trkpt>
      <trkpt lat="47.05825" lon="6.29957">
        <ele>763.42407226562</ele>
        <time>2011-04-17T07:04:20Z</time>
      </trkpt>
      <trkpt lat="47.05809" lon="6.29946">
        <ele>764.8662109375</ele>
        <time>2011-04-17T07:04:28Z</time>
      </trkpt>
      <trkpt lat="47.05803" lon="6.29932">
        <ele>767.26953125</ele>
        <time>2011-04-17T07:04:35Z</time>
      </trkpt>
      <trkpt lat="47.05801" lon="6.29923">
        <ele>768.71142578125</ele>
        <time>2011-04-17T07:04:39Z</time>
      </trkpt>
      <trkpt lat="47.05798" lon="6.29907">
        <ele>769.19213867188</ele>
        <time>2011-04-17T07:04:46Z</time>
      </trkpt>
      <trkpt lat="47.0579" lon="6.29897">
        <ele>770.1533203125</ele>
        <time>2011-04-17T07:04:53Z</time>
      </trkpt>
      <trkpt lat="47.05788" lon="6.29895">
        <ele>770.1533203125</ele>
        <time>2011-04-17T07:04:54Z</time>
      </trkpt>
      <trkpt lat="47.05774" lon="6.29894">
        <ele>772.556640625</ele>
        <time>2011-04-17T07:05:01Z</time>
      </trkpt>
      <trkpt lat="47.0577" lon="6.29895">
        <ele>773.51806640625</ele>
        <time>2011-04-17T07:05:03Z</time>
      </trkpt>
      <trkpt lat="47.05759" lon="6.29898">
        <ele>774.47924804688</ele>
        <time>2011-04-17T07:05:09Z</time>
      </trkpt>
      <trkpt lat="47.05745" lon="6.29908">
        <ele>776.40185546875</ele>
        <time>2011-04-17T07:05:17Z</time>
      </trkpt>
      <trkpt lat="47.05732" lon="6.2991">
        <ele>776.88256835938</ele>
        <time>2011-04-17T07:05:24Z</time>
      </trkpt>
      <trkpt lat="47.05714" lon="6.29898">
        <ele>777.36328125</ele>
        <time>2011-04-17T07:05:32Z</time>
      </trkpt>
      <trkpt lat="47.05691" lon="6.29879">
        <ele>778.32446289062</ele>
        <time>2011-04-17T07:05:41Z</time>
      </trkpt>
      <trkpt lat="47.05666" lon="6.29863">
        <ele>778.80517578125</ele>
        <time>2011-04-17T07:05:49Z</time>
      </trkpt>
      <trkpt lat="47.0565" lon="6.29858">
        <ele>779.76635742188</ele>
        <time>2011-04-17T07:05:55Z</time>
      </trkpt>
      <trkpt lat="47.05638" lon="6.29856">
        <ele>783.13110351562</ele>
        <time>2011-04-17T07:06:01Z</time>
      </trkpt>
      <trkpt lat="47.05621" lon="6.29851">
        <ele>784.09252929688</ele>
        <time>2011-04-17T07:06:09Z</time>
      </trkpt>
      <trkpt lat="47.05599" lon="6.29841">
        <ele>785.05395507812</ele>
        <time>2011-04-17T07:06:19Z</time>
      </trkpt>
      <trkpt lat="47.05577" lon="6.29831">
        <ele>787.45703125</ele>
        <time>2011-04-17T07:06:28Z</time>
      </trkpt>
      <trkpt lat="47.05559" lon="6.29821">
        <ele>788.41845703125</ele>
        <time>2011-04-17T07:06:36Z</time>
      </trkpt>
      <trkpt lat="47.05537" lon="6.29799">
        <ele>788.89916992188</ele>
        <time>2011-04-17T07:06:45Z</time>
      </trkpt>
      <trkpt lat="47.05526" lon="6.29775">
        <ele>788.89916992188</ele>
        <time>2011-04-17T07:06:51Z</time>
      </trkpt>
      <trkpt lat="47.05524" lon="6.29747">
        <ele>790.34106445312</ele>
        <time>2011-04-17T07:06:58Z</time>
      </trkpt>
      <trkpt lat="47.05518" lon="6.2973">
        <ele>792.263671875</ele>
        <time>2011-04-17T07:07:03Z</time>
      </trkpt>
      <trkpt lat="47.05503" lon="6.2971">
        <ele>792.263671875</ele>
        <time>2011-04-17T07:07:10Z</time>
      </trkpt>
      <trkpt lat="47.05481" lon="6.29689">
        <ele>794.18627929688</ele>
        <time>2011-04-17T07:07:19Z</time>
      </trkpt>
      <trkpt lat="47.05459" lon="6.29667">
        <ele>795.1474609375</ele>
        <time>2011-04-17T07:07:28Z</time>
      </trkpt>
      <trkpt lat="47.0544" lon="6.29643">
        <ele>797.0703125</ele>
        <time>2011-04-17T07:07:38Z</time>
      </trkpt>
      <trkpt lat="47.05423" lon="6.29617">
        <ele>798.99291992188</ele>
        <time>2011-04-17T07:07:48Z</time>
      </trkpt>
      <trkpt lat="47.0541" lon="6.29601">
        <ele>801.876953125</ele>
        <time>2011-04-17T07:07:55Z</time>
      </trkpt>
      <trkpt lat="47.05392" lon="6.29578">
        <ele>803.79956054688</ele>
        <time>2011-04-17T07:08:03Z</time>
      </trkpt>
      <trkpt lat="47.05372" lon="6.29552">
        <ele>802.83813476562</ele>
        <time>2011-04-17T07:08:10Z</time>
      </trkpt>
      <trkpt lat="47.05359" lon="6.29528">
        <ele>801.876953125</ele>
        <time>2011-04-17T07:08:14Z</time>
      </trkpt>
      <trkpt lat="47.05343" lon="6.295">
        <ele>800.43505859375</ele>
        <time>2011-04-17T07:08:18Z</time>
      </trkpt>
      <trkpt lat="47.05334" lon="6.29484">
        <ele>799.4736328125</ele>
        <time>2011-04-17T07:08:20Z</time>
      </trkpt>
      <trkpt lat="47.05305" lon="6.29447">
        <ele>795.62817382812</ele>
        <time>2011-04-17T07:08:25Z</time>
      </trkpt>
      <trkpt lat="47.05261" lon="6.29417">
        <ele>795.1474609375</ele>
        <time>2011-04-17T07:08:31Z</time>
      </trkpt>
      <trkpt lat="47.05218" lon="6.29402">
        <ele>795.62817382812</ele>
        <time>2011-04-17T07:08:37Z</time>
      </trkpt>
      <trkpt lat="47.05212" lon="6.294">
        <ele>795.62817382812</ele>
        <time>2011-04-17T07:08:38Z</time>
      </trkpt>
      <trkpt lat="47.05193" lon="6.29379">
        <ele>795.62817382812</ele>
        <time>2011-04-17T07:08:42Z</time>
      </trkpt>
      <trkpt lat="47.0517" lon="6.29325">
        <ele>795.62817382812</ele>
        <time>2011-04-17T07:08:49Z</time>
      </trkpt>
      <trkpt lat="47.05157" lon="6.29278">
        <ele>794.18627929688</ele>
        <time>2011-04-17T07:08:54Z</time>
      </trkpt>
      <trkpt lat="47.05155" lon="6.29269">
        <ele>794.18627929688</ele>
        <time>2011-04-17T07:08:55Z</time>
      </trkpt>
      <trkpt lat="47.05135" lon="6.29228">
        <ele>793.22485351562</ele>
        <time>2011-04-17T07:09:00Z</time>
      </trkpt>
      <trkpt lat="47.05116" lon="6.29219">
        <ele>793.22485351562</ele>
        <time>2011-04-17T07:09:03Z</time>
      </trkpt>
      <trkpt lat="47.05103" lon="6.29222">
        <ele>793.22485351562</ele>
        <time>2011-04-17T07:09:05Z</time>
      </trkpt>
      <trkpt lat="47.0508" lon="6.29233">
        <ele>794.18627929688</ele>
        <time>2011-04-17T07:09:09Z</time>
      </trkpt>
      <trkpt lat="47.05041" lon="6.29235">
        <ele>795.1474609375</ele>
        <time>2011-04-17T07:09:17Z</time>
      </trkpt>
      <trkpt lat="47.05008" lon="6.29228">
        <ele>798.03173828125</ele>
        <time>2011-04-17T07:09:25Z</time>
      </trkpt>
      <trkpt lat="47.04981" lon="6.29219">
        <ele>800.43505859375</ele>
        <time>2011-04-17T07:09:32Z</time>
      </trkpt>
      <trkpt lat="47.0496" lon="6.29208">
        <ele>801.39624023438</ele>
        <time>2011-04-17T07:09:38Z</time>
      </trkpt>
      <trkpt lat="47.04948" lon="6.29186">
        <ele>800.91552734375</ele>
        <time>2011-04-17T07:09:43Z</time>
      </trkpt>
      <trkpt lat="47.04945" lon="6.29157">
        <ele>800.91552734375</ele>
        <time>2011-04-17T07:09:48Z</time>
      </trkpt>
      <trkpt lat="47.04937" lon="6.2912">
        <ele>801.39624023438</ele>
        <time>2011-04-17T07:09:55Z</time>
      </trkpt>
      <trkpt lat="47.04934" lon="6.29113">
        <ele>801.876953125</ele>
        <time>2011-04-17T07:09:57Z</time>
      </trkpt>
      <trkpt lat="47.04925" lon="6.2911">
        <ele>802.357421875</ele>
        <time>2011-04-17T07:10:03Z</time>
      </trkpt>
      <trkpt lat="47.04916" lon="6.29117">
        <ele>800.43505859375</ele>
        <time>2011-04-17T07:10:09Z</time>
      </trkpt>
      <trkpt lat="47.04913" lon="6.29122">
        <ele>800.43505859375</ele>
        <time>2011-04-17T07:10:13Z</time>
      </trkpt>
      <trkpt lat="47.04912" lon="6.29122">
        <ele>799.95434570312</ele>
        <time>2011-04-17T07:10:16Z</time>
      </trkpt>
      <trkpt lat="47.04912" lon="6.29122">
        <ele>799.95434570312</ele>
        <time>2011-04-17T07:10:17Z</time>
      </trkpt>
      <trkpt lat="47.04911" lon="6.29125">
        <ele>800.43505859375</ele>
        <time>2011-04-17T07:10:18Z</time>
      </trkpt>
      <trkpt lat="47.04909" lon="6.29123">
        <ele>803.31884765625</ele>
        <time>2011-04-17T07:22:21Z</time>
      </trkpt>
      <trkpt lat="47.04909" lon="6.29122">
        <ele>802.83813476562</ele>
        <time>2011-04-17T07:22:22Z</time>
      </trkpt>
      <trkpt lat="47.0491" lon="6.2912">
        <ele>803.31884765625</ele>
        <time>2011-04-17T07:22:24Z</time>
      </trkpt>
      <trkpt lat="47.04911" lon="6.2912">
        <ele>803.31884765625</ele>
        <time>2011-04-17T07:22:36Z</time>
      </trkpt>
      <trkpt lat="47.04911" lon="6.29119">
        <ele>802.83813476562</ele>
        <time>2011-04-17T07:22:37Z</time>
      </trkpt>
      <trkpt lat="47.04911" lon="6.29117">
        <ele>802.83813476562</ele>
        <time>2011-04-17T07:22:38Z</time>
      </trkpt>
      <trkpt lat="47.04915" lon="6.29111">
        <ele>803.31884765625</ele>
        <time>2011-04-17T07:22:43Z</time>
      </trkpt>
      <trkpt lat="47.04921" lon="6.29107">
        <ele>803.79956054688</ele>
        <time>2011-04-17T07:22:46Z</time>
      </trkpt>
      <trkpt lat="47.04927" lon="6.29103">
        <ele>804.2802734375</ele>
        <time>2011-04-17T07:22:49Z</time>
      </trkpt>
      <trkpt lat="47.04927" lon="6.29092">
        <ele>805.24145507812</ele>
        <time>2011-04-17T07:22:54Z</time>
      </trkpt>
      <trkpt lat="47.04923" lon="6.29079">
        <ele>804.7607421875</ele>
        <time>2011-04-17T07:22:58Z</time>
      </trkpt>
      <trkpt lat="47.04912" lon="6.29043">
        <ele>805.24145507812</ele>
        <time>2011-04-17T07:23:06Z</time>
      </trkpt>
      <trkpt lat="47.04893" lon="6.28998">
        <ele>806.68334960938</ele>
        <time>2011-04-17T07:23:15Z</time>
      </trkpt>
      <trkpt lat="47.04881" lon="6.28954">
        <ele>807.1640625</ele>
        <time>2011-04-17T07:23:23Z</time>
      </trkpt>
      <trkpt lat="47.04873" lon="6.28914">
        <ele>807.1640625</ele>
        <time>2011-04-17T07:23:30Z</time>
      </trkpt>
      <trkpt lat="47.04861" lon="6.28853">
        <ele>808.60595703125</ele>
        <time>2011-04-17T07:23:40Z</time>
      </trkpt>
      <trkpt lat="47.04845" lon="6.28806">
        <ele>809.08666992188</ele>
        <time>2011-04-17T07:23:48Z</time>
      </trkpt>
      <trkpt lat="47.04824" lon="6.28748">
        <ele>809.5673828125</ele>
        <time>2011-04-17T07:23:57Z</time>
      </trkpt>
      <trkpt lat="47.04801" lon="6.28706">
        <ele>810.0478515625</ele>
        <time>2011-04-17T07:24:04Z</time>
      </trkpt>
      <trkpt lat="47.04787" lon="6.28658">
        <ele>810.0478515625</ele>
        <time>2011-04-17T07:24:11Z</time>
      </trkpt>
      <trkpt lat="47.04781" lon="6.28631">
        <ele>810.0478515625</ele>
        <time>2011-04-17T07:24:16Z</time>
      </trkpt>
      <trkpt lat="47.0478" lon="6.28627">
        <ele>809.08666992188</ele>
        <time>2011-04-17T07:24:17Z</time>
      </trkpt>
      <trkpt lat="47.04785" lon="6.28614">
        <ele>809.5673828125</ele>
        <time>2011-04-17T07:24:21Z</time>
      </trkpt>
      <trkpt lat="47.04787" lon="6.28613">
        <ele>810.0478515625</ele>
        <time>2011-04-17T07:24:22Z</time>
      </trkpt>
      <trkpt lat="47.04804" lon="6.28608">
        <ele>811.970703125</ele>
        <time>2011-04-17T07:24:30Z</time>
      </trkpt>
      <trkpt lat="47.04823" lon="6.28608">
        <ele>814.3740234375</ele>
        <time>2011-04-17T07:24:38Z</time>
      </trkpt>
      <trkpt lat="47.04836" lon="6.28617">
        <ele>816.29663085938</ele>
        <time>2011-04-17T07:24:45Z</time>
      </trkpt>
      <trkpt lat="47.04846" lon="6.28636">
        <ele>817.73852539062</ele>
        <time>2011-04-17T07:24:53Z</time>
      </trkpt>
      <trkpt lat="47.04855" lon="6.2863">
        <ele>819.1806640625</ele>
        <time>2011-04-17T07:24:59Z</time>
      </trkpt>
      <trkpt lat="47.04858" lon="6.28628">
        <ele>820.14184570312</ele>
        <time>2011-04-17T07:25:04Z</time>
      </trkpt>
      <trkpt lat="47.04857" lon="6.28626">
        <ele>820.62255859375</ele>
        <time>2011-04-17T07:25:15Z</time>
      </trkpt>
      <trkpt lat="47.04858" lon="6.28626">
        <ele>820.62255859375</ele>
        <time>2011-04-17T07:25:16Z</time>
      </trkpt>
      <trkpt lat="47.04862" lon="6.28627">
        <ele>820.62255859375</ele>
        <time>2011-04-17T07:25:22Z</time>
      </trkpt>
      <trkpt lat="47.04862" lon="6.28626">
        <ele>820.62255859375</ele>
        <time>2011-04-17T07:25:23Z</time>
      </trkpt>
      <trkpt lat="47.04862" lon="6.28626">
        <ele>820.62255859375</ele>
        <time>2011-04-17T07:25:26Z</time>
      </trkpt>
      <trkpt lat="47.04863" lon="6.28626">
        <ele>820.62255859375</ele>
        <time>2011-04-17T07:25:27Z</time>
      </trkpt>
      <trkpt lat="47.04863" lon="6.28627">
        <ele>821.10327148438</ele>
        <time>2011-04-17T07:25:30Z</time>
      </trkpt>
      <trkpt lat="47.0487" lon="6.28635">
        <ele>821.10327148438</ele>
        <time>2011-04-17T07:25:34Z</time>
      </trkpt>
      <trkpt lat="47.04878" lon="6.28642">
        <ele>823.98706054688</ele>
        <time>2011-04-17T07:25:40Z</time>
      </trkpt>
      <trkpt lat="47.0488" lon="6.28642">
        <ele>823.98706054688</ele>
        <time>2011-04-17T07:25:41Z</time>
      </trkpt>
      <trkpt lat="47.04886" lon="6.28641">
        <ele>825.42895507812</ele>
        <time>2011-04-17T07:25:47Z</time>
      </trkpt>
      <trkpt lat="47.04889" lon="6.28642">
        <ele>826.39038085938</ele>
        <time>2011-04-17T07:25:51Z</time>
      </trkpt>
      <trkpt lat="47.0489" lon="6.28643">
        <ele>826.87109375</ele>
        <time>2011-04-17T07:25:54Z</time>
      </trkpt>
      <trkpt lat="47.04894" lon="6.28647">
        <ele>827.83227539062</ele>
        <time>2011-04-17T07:25:55Z</time>
      </trkpt>
      <trkpt lat="47.04896" lon="6.28651">
        <ele>828.7939453125</ele>
        <time>2011-04-17T07:25:59Z</time>
      </trkpt>
      <trkpt lat="47.04902" lon="6.28654">
        <ele>830.71655273438</ele>
        <time>2011-04-17T07:26:06Z</time>
      </trkpt>
      <trkpt lat="47.04907" lon="6.28656">
        <ele>832.63916015625</ele>
        <time>2011-04-17T07:26:15Z</time>
      </trkpt>
      <trkpt lat="47.0491" lon="6.28657">
        <ele>833.11962890625</ele>
        <time>2011-04-17T07:26:19Z</time>
      </trkpt>
      <trkpt lat="47.04911" lon="6.28658">
        <ele>833.60034179688</ele>
        <time>2011-04-17T07:26:22Z</time>
      </trkpt>
      <trkpt lat="47.04916" lon="6.28659">
        <ele>835.04248046875</ele>
        <time>2011-04-17T07:26:26Z</time>
      </trkpt>
      <trkpt lat="47.04919" lon="6.2866">
        <ele>836.484375</ele>
        <time>2011-04-17T07:26:31Z</time>
      </trkpt>
      <trkpt lat="47.04926" lon="6.28662">
        <ele>837.44555664062</ele>
        <time>2011-04-17T07:26:40Z</time>
      </trkpt>
      <trkpt lat="47.04929" lon="6.2866">
        <ele>839.3681640625</ele>
        <time>2011-04-17T07:26:46Z</time>
      </trkpt>
      <trkpt lat="47.0493" lon="6.28655">
        <ele>840.32958984375</ele>
        <time>2011-04-17T07:26:53Z</time>
      </trkpt>
      <trkpt lat="47.0493" lon="6.28654">
        <ele>840.81005859375</ele>
        <time>2011-04-17T07:26:57Z</time>
      </trkpt>
      <trkpt lat="47.04931" lon="6.28645">
        <ele>842.25219726562</ele>
        <time>2011-04-17T07:27:05Z</time>
      </trkpt>
      <trkpt lat="47.0493" lon="6.28636">
        <ele>844.17504882812</ele>
        <time>2011-04-17T07:27:14Z</time>
      </trkpt>
      <trkpt lat="47.04931" lon="6.28629">
        <ele>844.65551757812</ele>
        <time>2011-04-17T07:27:22Z</time>
      </trkpt>
      <trkpt lat="47.04932" lon="6.28624">
        <ele>846.09765625</ele>
        <time>2011-04-17T07:27:29Z</time>
      </trkpt>
      <trkpt lat="47.04933" lon="6.28616">
        <ele>847.53955078125</ele>
        <time>2011-04-17T07:27:38Z</time>
      </trkpt>
      <trkpt lat="47.04934" lon="6.28607">
        <ele>849.46215820312</ele>
        <time>2011-04-17T07:27:48Z</time>
      </trkpt>
      <trkpt lat="47.04934" lon="6.28596">
        <ele>850.90405273438</ele>
        <time>2011-04-17T07:27:59Z</time>
      </trkpt>
      <trkpt lat="47.04933" lon="6.28586">
        <ele>851.86547851562</ele>
        <time>2011-04-17T07:28:08Z</time>
      </trkpt>
      <trkpt lat="47.04934" lon="6.28578">
        <ele>853.30737304688</ele>
        <time>2011-04-17T07:28:17Z</time>
      </trkpt>
      <trkpt lat="47.04935" lon="6.2857">
        <ele>855.22998046875</ele>
        <time>2011-04-17T07:28:26Z</time>
      </trkpt>
      <trkpt lat="47.04935" lon="6.28568">
        <ele>855.22998046875</ele>
        <time>2011-04-17T07:28:30Z</time>
      </trkpt>
      <trkpt lat="47.04934" lon="6.28567">
        <ele>855.22998046875</ele>
        <time>2011-04-17T07:28:33Z</time>
      </trkpt>
      <trkpt lat="47.04934" lon="6.28566">
        <ele>855.22998046875</ele>
        <time>2011-04-17T07:28:34Z</time>
      </trkpt>
      <trkpt lat="47.04935" lon="6.28563">
        <ele>855.71069335938</ele>
        <time>2011-04-17T07:28:49Z</time>
      </trkpt>
      <trkpt lat="47.04938" lon="6.28556">
        <ele>857.15258789062</ele>
        <time>2011-04-17T07:28:55Z</time>
      </trkpt>
      <trkpt lat="47.04941" lon="6.28548">
        <ele>858.11401367188</ele>
        <time>2011-04-17T07:29:04Z</time>
      </trkpt>
      <trkpt lat="47.04944" lon="6.28542">
        <ele>859.0751953125</ele>
        <time>2011-04-17T07:29:12Z</time>
      </trkpt>
      <trkpt lat="47.04946" lon="6.28537">
        <ele>847.53955078125</ele>
        <time>2011-04-17T07:29:16Z</time>
      </trkpt>
      <trkpt lat="47.04945" lon="6.28537">
        <ele>874.45629882812</ele>
        <time>2011-04-17T07:29:17Z</time>
      </trkpt>
      <trkpt lat="47.04945" lon="6.28537">
        <ele>859.55590820312</ele>
        <time>2011-04-17T07:29:18Z</time>
      </trkpt>
      <trkpt lat="47.04945" lon="6.28536">
        <ele>860.51733398438</ele>
        <time>2011-04-17T07:29:19Z</time>
      </trkpt>
      <trkpt lat="47.04944" lon="6.28519">
        <ele>862.92065429688</ele>
        <time>2011-04-17T07:29:30Z</time>
      </trkpt>
      <trkpt lat="47.04945" lon="6.28513">
        <ele>862.92065429688</ele>
        <time>2011-04-17T07:29:36Z</time>
      </trkpt>
      <trkpt lat="47.04948" lon="6.28506">
        <ele>864.84326171875</ele>
        <time>2011-04-17T07:29:44Z</time>
      </trkpt>
      <trkpt lat="47.04949" lon="6.28498">
        <ele>865.8046875</ele>
        <time>2011-04-17T07:29:52Z</time>
      </trkpt>
      <trkpt lat="47.04948" lon="6.28494">
        <ele>866.28515625</ele>
        <time>2011-04-17T07:29:56Z</time>
      </trkpt>
      <trkpt lat="47.04948" lon="6.28494">
        <ele>865.8046875</ele>
        <time>2011-04-17T07:29:59Z</time>
      </trkpt>
      <trkpt lat="47.04948" lon="6.2849">
        <ele>866.28515625</ele>
        <time>2011-04-17T07:30:00Z</time>
      </trkpt>
      <trkpt lat="47.04945" lon="6.28473">
        <ele>865.8046875</ele>
        <time>2011-04-17T07:30:05Z</time>
      </trkpt>
      <trkpt lat="47.0494" lon="6.28442">
        <ele>865.8046875</ele>
        <time>2011-04-17T07:30:13Z</time>
      </trkpt>
      <trkpt lat="47.04936" lon="6.2841">
        <ele>866.76586914062</ele>
        <time>2011-04-17T07:30:21Z</time>
      </trkpt>
      <trkpt lat="47.04935" lon="6.28389">
        <ele>868.20776367188</ele>
        <time>2011-04-17T07:30:28Z</time>
      </trkpt>
      <trkpt lat="47.0493" lon="6.28365">
        <ele>871.091796875</ele>
        <time>2011-04-17T07:30:37Z</time>
      </trkpt>
      <trkpt lat="47.04926" lon="6.28348">
        <ele>872.05297851562</ele>
        <time>2011-04-17T07:30:44Z</time>
      </trkpt>
      <trkpt lat="47.04924" lon="6.28332">
        <ele>873.01440429688</ele>
        <time>2011-04-17T07:30:51Z</time>
      </trkpt>
      <trkpt lat="47.04922" lon="6.28321">
        <ele>874.45629882812</ele>
        <time>2011-04-17T07:30:56Z</time>
      </trkpt>
      <trkpt lat="47.04924" lon="6.28307">
        <ele>875.41748046875</ele>
        <time>2011-04-17T07:31:03Z</time>
      </trkpt>
      <trkpt lat="47.0492" lon="6.28292">
        <ele>877.82104492188</ele>
        <time>2011-04-17T07:31:12Z</time>
      </trkpt>
      <trkpt lat="47.04921" lon="6.28277">
        <ele>877.82104492188</ele>
        <time>2011-04-17T07:31:20Z</time>
      </trkpt>
      <trkpt lat="47.04924" lon="6.28267">
        <ele>879.26293945312</ele>
        <time>2011-04-17T07:31:27Z</time>
      </trkpt>
      <trkpt lat="47.04925" lon="6.28258">
        <ele>879.26293945312</ele>
        <time>2011-04-17T07:31:33Z</time>
      </trkpt>
      <trkpt lat="47.04926" lon="6.28245">
        <ele>880.705078125</ele>
        <time>2011-04-17T07:31:39Z</time>
      </trkpt>
      <trkpt lat="47.04929" lon="6.28229">
        <ele>880.705078125</ele>
        <time>2011-04-17T07:31:46Z</time>
      </trkpt>
      <trkpt lat="47.04932" lon="6.28212">
        <ele>881.18579101562</ele>
        <time>2011-04-17T07:31:54Z</time>
      </trkpt>
      <trkpt lat="47.04928" lon="6.28199">
        <ele>882.62768554688</ele>
        <time>2011-04-17T07:32:01Z</time>
      </trkpt>
      <trkpt lat="47.04927" lon="6.28198">
        <ele>882.62768554688</ele>
        <time>2011-04-17T07:32:02Z</time>
      </trkpt>
      <trkpt lat="47.04926" lon="6.28194">
        <ele>883.5888671875</ele>
        <time>2011-04-17T07:32:06Z</time>
      </trkpt>
      <trkpt lat="47.04926" lon="6.28193">
        <ele>883.10815429688</ele>
        <time>2011-04-17T07:32:09Z</time>
      </trkpt>
      <trkpt lat="47.04926" lon="6.28193">
        <ele>882.62768554688</ele>
        <time>2011-04-17T07:32:10Z</time>
      </trkpt>
      <trkpt lat="47.04926" lon="6.28193">
        <ele>882.14697265625</ele>
        <time>2011-04-17T07:32:11Z</time>
      </trkpt>
      <trkpt lat="47.04926" lon="6.28198">
        <ele>883.5888671875</ele>
        <time>2011-04-17T07:36:59Z</time>
      </trkpt>
      <trkpt lat="47.04927" lon="6.28199">
        <ele>885.51147460938</ele>
        <time>2011-04-17T07:37:00Z</time>
      </trkpt>
      <trkpt lat="47.04927" lon="6.28199">
        <ele>885.03100585938</ele>
        <time>2011-04-17T07:37:02Z</time>
      </trkpt>
      <trkpt lat="47.04927" lon="6.28196">
        <ele>884.55029296875</ele>
        <time>2011-04-17T07:37:23Z</time>
      </trkpt>
      <trkpt lat="47.04928" lon="6.28196">
        <ele>885.03100585938</ele>
        <time>2011-04-17T07:37:24Z</time>
      </trkpt>
      <trkpt lat="47.04928" lon="6.28197">
        <ele>884.06958007812</ele>
        <time>2011-04-17T07:37:35Z</time>
      </trkpt>
      <trkpt lat="47.04932" lon="6.28199">
        <ele>884.06958007812</ele>
        <time>2011-04-17T07:37:40Z</time>
      </trkpt>
      <trkpt lat="47.04932" lon="6.28199">
        <ele>884.06958007812</ele>
        <time>2011-04-17T07:37:43Z</time>
      </trkpt>
      <trkpt lat="47.04933" lon="6.28198">
        <ele>884.06958007812</ele>
        <time>2011-04-17T07:37:44Z</time>
      </trkpt>
      <trkpt lat="47.04935" lon="6.2819">
        <ele>882.62768554688</ele>
        <time>2011-04-17T07:37:48Z</time>
      </trkpt>
      <trkpt lat="47.04936" lon="6.28189">
        <ele>882.14697265625</ele>
        <time>2011-04-17T07:37:49Z</time>
      </trkpt>
      <trkpt lat="47.04942" lon="6.28174">
        <ele>879.74365234375</ele>
        <time>2011-04-17T07:37:58Z</time>
      </trkpt>
      <trkpt lat="47.04944" lon="6.28167">
        <ele>878.78247070312</ele>
        <time>2011-04-17T07:38:01Z</time>
      </trkpt>
      <trkpt lat="47.04945" lon="6.28161">
        <ele>878.78247070312</ele>
        <time>2011-04-17T07:38:06Z</time>
      </trkpt>
      <trkpt lat="47.04945" lon="6.28157">
        <ele>879.26293945312</ele>
        <time>2011-04-17T07:38:10Z</time>
      </trkpt>
      <trkpt lat="47.04945" lon="6.28157">
        <ele>879.26293945312</ele>
        <time>2011-04-17T07:38:14Z</time>
      </trkpt>
      <trkpt lat="47.04945" lon="6.28155">
        <ele>879.74365234375</ele>
        <time>2011-04-17T07:38:15Z</time>
      </trkpt>
      <trkpt lat="47.04945" lon="6.28153">
        <ele>879.74365234375</ele>
        <time>2011-04-17T07:38:19Z</time>
      </trkpt>
      <trkpt lat="47.04945" lon="6.28153">
        <ele>879.26293945312</ele>
        <time>2011-04-17T07:38:22Z</time>
      </trkpt>
      <trkpt lat="47.04947" lon="6.28149">
        <ele>879.26293945312</ele>
        <time>2011-04-17T07:38:24Z</time>
      </trkpt>
      <trkpt lat="47.04951" lon="6.28132">
        <ele>876.85986328125</ele>
        <time>2011-04-17T07:38:30Z</time>
      </trkpt>
      <trkpt lat="47.04951" lon="6.28129">
        <ele>877.34057617188</ele>
        <time>2011-04-17T07:38:31Z</time>
      </trkpt>
      <trkpt lat="47.04955" lon="6.28116">
        <ele>875.89819335938</ele>
        <time>2011-04-17T07:38:34Z</time>
      </trkpt>
      <trkpt lat="47.04958" lon="6.28093">
        <ele>871.572265625</ele>
        <time>2011-04-17T07:38:37Z</time>
      </trkpt>
      <trkpt lat="47.04965" lon="6.28058">
        <ele>872.53369140625</ele>
        <time>2011-04-17T07:38:41Z</time>
      </trkpt>
      <trkpt lat="47.04966" lon="6.28039">
        <ele>873.4951171875</ele>
        <time>2011-04-17T07:38:47Z</time>
      </trkpt>
      <trkpt lat="47.04967" lon="6.28017">
        <ele>872.05297851562</ele>
        <time>2011-04-17T07:38:53Z</time>
      </trkpt>
      <trkpt lat="47.04965" lon="6.27993">
        <ele>871.572265625</ele>
        <time>2011-04-17T07:38:59Z</time>
      </trkpt>
      <trkpt lat="47.04963" lon="6.27979">
        <ele>872.05297851562</ele>
        <time>2011-04-17T07:39:04Z</time>
      </trkpt>
      <trkpt lat="47.04963" lon="6.27965">
        <ele>869.16918945312</ele>
        <time>2011-04-17T07:39:11Z</time>
      </trkpt>
      <trkpt lat="47.04965" lon="6.2796">
        <ele>869.16918945312</ele>
        <time>2011-04-17T07:39:13Z</time>
      </trkpt>
      <trkpt lat="47.04979" lon="6.27952">
        <ele>865.8046875</ele>
        <time>2011-04-17T07:39:17Z</time>
      </trkpt>
      <trkpt lat="47.0499" lon="6.27941">
        <ele>863.4013671875</ele>
        <time>2011-04-17T07:39:21Z</time>
      </trkpt>
      <trkpt lat="47.04995" lon="6.27935">
        <ele>860.998046875</ele>
        <time>2011-04-17T07:39:23Z</time>
      </trkpt>
      <trkpt lat="47.05008" lon="6.27914">
        <ele>858.11401367188</ele>
        <time>2011-04-17T07:39:27Z</time>
      </trkpt>
      <trkpt lat="47.05016" lon="6.27903">
        <ele>856.19116210938</ele>
        <time>2011-04-17T07:39:29Z</time>
      </trkpt>
      <trkpt lat="47.05032" lon="6.27886">
        <ele>850.42358398438</ele>
        <time>2011-04-17T07:39:33Z</time>
      </trkpt>
      <trkpt lat="47.05035" lon="6.27883">
        <ele>850.90405273438</ele>
        <time>2011-04-17T07:39:34Z</time>
      </trkpt>
      <trkpt lat="47.05047" lon="6.27868">
        <ele>848.9814453125</ele>
        <time>2011-04-17T07:39:37Z</time>
      </trkpt>
      <trkpt lat="47.05061" lon="6.27857">
        <ele>843.21337890625</ele>
        <time>2011-04-17T07:39:40Z</time>
      </trkpt>
      <trkpt lat="47.05075" lon="6.27853">
        <ele>840.32958984375</ele>
        <time>2011-04-17T07:39:43Z</time>
      </trkpt>
      <trkpt lat="47.05087" lon="6.27853">
        <ele>837.92626953125</ele>
        <time>2011-04-17T07:39:45Z</time>
      </trkpt>
      <trkpt lat="47.05116" lon="6.27839">
        <ele>835.04248046875</ele>
        <time>2011-04-17T07:39:50Z</time>
      </trkpt>
      <trkpt lat="47.05122" lon="6.27825">
        <ele>833.60034179688</ele>
        <time>2011-04-17T07:39:52Z</time>
      </trkpt>
      <trkpt lat="47.05132" lon="6.27799">
        <ele>833.11962890625</ele>
        <time>2011-04-17T07:39:56Z</time>
      </trkpt>
      <trkpt lat="47.05151" lon="6.27776">
        <ele>831.677734375</ele>
        <time>2011-04-17T07:40:01Z</time>
      </trkpt>
      <trkpt lat="47.05162" lon="6.27761">
        <ele>827.35180664062</ele>
        <time>2011-04-17T07:40:04Z</time>
      </trkpt>
      <trkpt lat="47.05167" lon="6.27756">
        <ele>827.35180664062</ele>
        <time>2011-04-17T07:40:05Z</time>
      </trkpt>
      <trkpt lat="47.05185" lon="6.2774">
        <ele>827.35180664062</ele>
        <time>2011-04-17T07:40:09Z</time>
      </trkpt>
      <trkpt lat="47.05201" lon="6.27714">
        <ele>825.90966796875</ele>
        <time>2011-04-17T07:40:13Z</time>
      </trkpt>
      <trkpt lat="47.05206" lon="6.27701">
        <ele>826.87109375</ele>
        <time>2011-04-17T07:40:15Z</time>
      </trkpt>
      <trkpt lat="47.05224" lon="6.27701">
        <ele>824.94848632812</ele>
        <time>2011-04-17T07:40:20Z</time>
      </trkpt>
      <trkpt lat="47.0523" lon="6.27697">
        <ele>823.02587890625</ele>
        <time>2011-04-17T07:40:23Z</time>
      </trkpt>
      <trkpt lat="47.05235" lon="6.27692">
        <ele>820.62255859375</ele>
        <time>2011-04-17T07:40:25Z</time>
      </trkpt>
      <trkpt lat="47.05241" lon="6.27687">
        <ele>819.66137695312</ele>
        <time>2011-04-17T07:40:27Z</time>
      </trkpt>
      <trkpt lat="47.05259" lon="6.27672">
        <ele>816.77734375</ele>
        <time>2011-04-17T07:40:32Z</time>
      </trkpt>
      <trkpt lat="47.05272" lon="6.27663">
        <ele>814.85473632812</ele>
        <time>2011-04-17T07:40:36Z</time>
      </trkpt>
      <trkpt lat="47.05278" lon="6.27654">
        <ele>811.970703125</ele>
        <time>2011-04-17T07:40:39Z</time>
      </trkpt>
      <trkpt lat="47.05279" lon="6.27645">
        <ele>809.08666992188</ele>
        <time>2011-04-17T07:40:44Z</time>
      </trkpt>
      <trkpt lat="47.05281" lon="6.2764">
        <ele>806.68334960938</ele>
        <time>2011-04-17T07:40:49Z</time>
      </trkpt>
      <trkpt lat="47.05287" lon="6.27637">
        <ele>804.7607421875</ele>
        <time>2011-04-17T07:41:19Z</time>
      </trkpt>
      <trkpt lat="47.05287" lon="6.27636">
        <ele>803.79956054688</ele>
        <time>2011-04-17T07:41:20Z</time>
      </trkpt>
      <trkpt lat="47.05288" lon="6.27635">
        <ele>803.79956054688</ele>
        <time>2011-04-17T07:41:21Z</time>
      </trkpt>
      <trkpt lat="47.0529" lon="6.27635">
        <ele>803.79956054688</ele>
        <time>2011-04-17T07:41:23Z</time>
      </trkpt>
      <trkpt lat="47.05291" lon="6.27633">
        <ele>803.79956054688</ele>
        <time>2011-04-17T07:41:27Z</time>
      </trkpt>
      <trkpt lat="47.05297" lon="6.27627">
        <ele>799.95434570312</ele>
        <time>2011-04-17T07:41:31Z</time>
      </trkpt>
      <trkpt lat="47.053" lon="6.27621">
        <ele>798.03173828125</ele>
        <time>2011-04-17T07:41:34Z</time>
      </trkpt>
      <trkpt lat="47.05301" lon="6.27618">
        <ele>796.58984375</ele>
        <time>2011-04-17T07:41:35Z</time>
      </trkpt>
      <trkpt lat="47.05302" lon="6.27615">
        <ele>796.10913085938</ele>
        <time>2011-04-17T07:41:36Z</time>
      </trkpt>
      <trkpt lat="47.05304" lon="6.27611">
        <ele>794.66674804688</ele>
        <time>2011-04-17T07:41:38Z</time>
      </trkpt>
      <trkpt lat="47.05307" lon="6.276">
        <ele>790.82153320312</ele>
        <time>2011-04-17T07:41:42Z</time>
      </trkpt>
      <trkpt lat="47.05306" lon="6.27593">
        <ele>790.34106445312</ele>
        <time>2011-04-17T07:41:45Z</time>
      </trkpt>
      <trkpt lat="47.05308" lon="6.27588">
        <ele>789.37963867188</ele>
        <time>2011-04-17T07:41:47Z</time>
      </trkpt>
      <trkpt lat="47.05311" lon="6.27578">
        <ele>788.41845703125</ele>
        <time>2011-04-17T07:41:49Z</time>
      </trkpt>
      <trkpt lat="47.05321" lon="6.27573">
        <ele>787.45703125</ele>
        <time>2011-04-17T07:41:53Z</time>
      </trkpt>
      <trkpt lat="47.05334" lon="6.27572">
        <ele>785.53442382812</ele>
        <time>2011-04-17T07:41:58Z</time>
      </trkpt>
      <trkpt lat="47.05343" lon="6.27572">
        <ele>784.5732421875</ele>
        <time>2011-04-17T07:42:02Z</time>
      </trkpt>
      <trkpt lat="47.05348" lon="6.27563">
        <ele>781.68920898438</ele>
        <time>2011-04-17T07:42:07Z</time>
      </trkpt>
      <trkpt lat="47.05349" lon="6.2756">
        <ele>781.68920898438</ele>
        <time>2011-04-17T07:42:08Z</time>
      </trkpt>
      <trkpt lat="47.0535" lon="6.2755">
        <ele>776.88256835938</ele>
        <time>2011-04-17T07:42:11Z</time>
      </trkpt>
      <trkpt lat="47.05351" lon="6.27538">
        <ele>773.99853515625</ele>
        <time>2011-04-17T07:42:14Z</time>
      </trkpt>
      <trkpt lat="47.05351" lon="6.27529">
        <ele>770.1533203125</ele>
        <time>2011-04-17T07:42:16Z</time>
      </trkpt>
      <trkpt lat="47.0535" lon="6.27521">
        <ele>769.19213867188</ele>
        <time>2011-04-17T07:42:18Z</time>
      </trkpt>
      <trkpt lat="47.05348" lon="6.27515">
        <ele>769.19213867188</ele>
        <time>2011-04-17T07:42:20Z</time>
      </trkpt>
      <trkpt lat="47.05347" lon="6.27508">
        <ele>767.75</ele>
        <time>2011-04-17T07:42:23Z</time>
      </trkpt>
      <trkpt lat="47.05347" lon="6.27506">
        <ele>767.26953125</ele>
        <time>2011-04-17T07:42:24Z</time>
      </trkpt>
      <trkpt lat="47.0535" lon="6.27497">
        <ele>764.38549804688</ele>
        <time>2011-04-17T07:42:28Z</time>
      </trkpt>
      <trkpt lat="47.05349" lon="6.27494">
        <ele>762.943359375</ele>
        <time>2011-04-17T07:42:29Z</time>
      </trkpt>
      <trkpt lat="47.05349" lon="6.27484">
        <ele>759.57885742188</ele>
        <time>2011-04-17T07:42:34Z</time>
      </trkpt>
      <trkpt lat="47.0535" lon="6.27477">
        <ele>757.65625</ele>
        <time>2011-04-17T07:42:38Z</time>
      </trkpt>
      <trkpt lat="47.0535" lon="6.27474">
        <ele>757.17553710938</ele>
        <time>2011-04-17T07:42:41Z</time>
      </trkpt>
      <trkpt lat="47.0535" lon="6.27471">
        <ele>755.73364257812</ele>
        <time>2011-04-17T07:42:42Z</time>
      </trkpt>
      <trkpt lat="47.05348" lon="6.27461">
        <ele>751.40771484375</ele>
        <time>2011-04-17T07:42:47Z</time>
      </trkpt>
      <trkpt lat="47.05347" lon="6.2745">
        <ele>748.52368164062</ele>
        <time>2011-04-17T07:42:51Z</time>
      </trkpt>
      <trkpt lat="47.05346" lon="6.27447">
        <ele>748.52368164062</ele>
        <time>2011-04-17T07:42:52Z</time>
      </trkpt>
      <trkpt lat="47.05343" lon="6.27432">
        <ele>746.12036132812</ele>
        <time>2011-04-17T07:42:57Z</time>
      </trkpt>
      <trkpt lat="47.05342" lon="6.27426">
        <ele>745.15893554688</ele>
        <time>2011-04-17T07:42:59Z</time>
      </trkpt>
      <trkpt lat="47.05342" lon="6.2742">
        <ele>742.27514648438</ele>
        <time>2011-04-17T07:43:04Z</time>
      </trkpt>
      <trkpt lat="47.05342" lon="6.27417">
        <ele>742.755859375</ele>
        <time>2011-04-17T07:43:08Z</time>
      </trkpt>
      <trkpt lat="47.05345" lon="6.27414">
        <ele>740.3525390625</ele>
        <time>2011-04-17T07:43:11Z</time>
      </trkpt>
      <trkpt lat="47.05347" lon="6.27415">
        <ele>740.8330078125</ele>
        <time>2011-04-17T07:43:15Z</time>
      </trkpt>
      <trkpt lat="47.0535" lon="6.27416">
        <ele>739.39111328125</ele>
        <time>2011-04-17T07:43:17Z</time>
      </trkpt>
      <trkpt lat="47.05354" lon="6.27418">
        <ele>738.42993164062</ele>
        <time>2011-04-17T07:43:22Z</time>
      </trkpt>
      <trkpt lat="47.05355" lon="6.27424">
        <ele>739.87182617188</ele>
        <time>2011-04-17T07:43:29Z</time>
      </trkpt>
      <trkpt lat="47.05357" lon="6.27426">
        <ele>739.39111328125</ele>
        <time>2011-04-17T07:43:30Z</time>
      </trkpt>
      <trkpt lat="47.0536" lon="6.27434">
        <ele>741.31372070312</ele>
        <time>2011-04-17T07:43:38Z</time>
      </trkpt>
      <trkpt lat="47.0536" lon="6.27435">
        <ele>741.31372070312</ele>
        <time>2011-04-17T07:43:41Z</time>
      </trkpt>
      <trkpt lat="47.05361" lon="6.27437">
        <ele>741.31372070312</ele>
        <time>2011-04-17T07:43:46Z</time>
      </trkpt>
      <trkpt lat="47.05362" lon="6.27439">
        <ele>741.79443359375</ele>
        <time>2011-04-17T07:43:47Z</time>
      </trkpt>
      <trkpt lat="47.05363" lon="6.27441">
        <ele>742.27514648438</ele>
        <time>2011-04-17T07:43:50Z</time>
      </trkpt>
      <trkpt lat="47.05365" lon="6.27444">
        <ele>742.755859375</ele>
        <time>2011-04-17T07:43:51Z</time>
      </trkpt>
      <trkpt lat="47.05368" lon="6.2745">
        <ele>744.19775390625</ele>
        <time>2011-04-17T07:43:56Z</time>
      </trkpt>
      <trkpt lat="47.05372" lon="6.27452">
        <ele>744.19775390625</ele>
        <time>2011-04-17T07:44:00Z</time>
      </trkpt>
      <trkpt lat="47.05375" lon="6.27455">
        <ele>744.19775390625</ele>
        <time>2011-04-17T07:44:33Z</time>
      </trkpt>
      <trkpt lat="47.05375" lon="6.27456">
        <ele>744.19775390625</ele>
        <time>2011-04-17T07:44:35Z</time>
      </trkpt>
      <trkpt lat="47.05376" lon="6.27457">
        <ele>744.19775390625</ele>
        <time>2011-04-17T07:44:40Z</time>
      </trkpt>
      <trkpt lat="47.0538" lon="6.27459">
        <ele>745.15893554688</ele>
        <time>2011-04-17T07:44:44Z</time>
      </trkpt>
      <trkpt lat="47.05383" lon="6.27459">
        <ele>745.6396484375</ele>
        <time>2011-04-17T07:44:47Z</time>
      </trkpt>
      <trkpt lat="47.05384" lon="6.27459">
        <ele>745.6396484375</ele>
        <time>2011-04-17T07:44:50Z</time>
      </trkpt>
      <trkpt lat="47.05385" lon="6.27461">
        <ele>745.15893554688</ele>
        <time>2011-04-17T07:44:54Z</time>
      </trkpt>
      <trkpt lat="47.05385" lon="6.27465">
        <ele>745.6396484375</ele>
        <time>2011-04-17T07:44:55Z</time>
      </trkpt>
      <trkpt lat="47.05386" lon="6.27479">
        <ele>748.04321289062</ele>
        <time>2011-04-17T07:45:01Z</time>
      </trkpt>
      <trkpt lat="47.05389" lon="6.27494">
        <ele>749.48510742188</ele>
        <time>2011-04-17T07:45:07Z</time>
      </trkpt>
      <trkpt lat="47.054" lon="6.27513">
        <ele>749.9658203125</ele>
        <time>2011-04-17T07:45:14Z</time>
      </trkpt>
      <trkpt lat="47.054" lon="6.27516">
        <ele>749.9658203125</ele>
        <time>2011-04-17T07:45:15Z</time>
      </trkpt>
      <trkpt lat="47.0541" lon="6.27529">
        <ele>749.48510742188</ele>
        <time>2011-04-17T07:45:20Z</time>
      </trkpt>
      <trkpt lat="47.05423" lon="6.27546">
        <ele>747.08154296875</ele>
        <time>2011-04-17T07:45:26Z</time>
      </trkpt>
      <trkpt lat="47.05432" lon="6.27561">
        <ele>746.12036132812</ele>
        <time>2011-04-17T07:45:30Z</time>
      </trkpt>
      <trkpt lat="47.05447" lon="6.2758">
        <ele>743.236328125</ele>
        <time>2011-04-17T07:45:35Z</time>
      </trkpt>
      <trkpt lat="47.05461" lon="6.27593">
        <ele>739.39111328125</ele>
        <time>2011-04-17T07:45:38Z</time>
      </trkpt>
      <trkpt lat="47.05468" lon="6.27602">
        <ele>738.91064453125</ele>
        <time>2011-04-17T07:45:40Z</time>
      </trkpt>
      <trkpt lat="47.05477" lon="6.2761">
        <ele>736.98779296875</ele>
        <time>2011-04-17T07:45:42Z</time>
      </trkpt>
      <trkpt lat="47.05487" lon="6.27617">
        <ele>735.5458984375</ele>
        <time>2011-04-17T07:45:44Z</time>
      </trkpt>
      <trkpt lat="47.05493" lon="6.27621">
        <ele>733.62329101562</ele>
        <time>2011-04-17T07:45:45Z</time>
      </trkpt>
      <trkpt lat="47.0551" lon="6.27636">
        <ele>732.18139648438</ele>
        <time>2011-04-17T07:45:48Z</time>
      </trkpt>
      <trkpt lat="47.05527" lon="6.27653">
        <ele>730.25854492188</ele>
        <time>2011-04-17T07:45:52Z</time>
      </trkpt>
      <trkpt lat="47.05538" lon="6.27666">
        <ele>730.25854492188</ele>
        <time>2011-04-17T07:45:56Z</time>
      </trkpt>
      <trkpt lat="47.0554" lon="6.27669">
        <ele>730.25854492188</ele>
        <time>2011-04-17T07:45:57Z</time>
      </trkpt>
      <trkpt lat="47.05546" lon="6.2768">
        <ele>730.25854492188</ele>
        <time>2011-04-17T07:46:01Z</time>
      </trkpt>
      <trkpt lat="47.05561" lon="6.27701">
        <ele>728.81665039062</ele>
        <time>2011-04-17T07:46:08Z</time>
      </trkpt>
      <trkpt lat="47.05573" lon="6.27717">
        <ele>726.89404296875</ele>
        <time>2011-04-17T07:46:12Z</time>
      </trkpt>
      <trkpt lat="47.05577" lon="6.2773">
        <ele>729.29711914062</ele>
        <time>2011-04-17T07:46:17Z</time>
      </trkpt>
      <trkpt lat="47.05581" lon="6.27735">
        <ele>729.29711914062</ele>
        <time>2011-04-17T07:46:19Z</time>
      </trkpt>
      <trkpt lat="47.05591" lon="6.27747">
        <ele>729.29711914062</ele>
        <time>2011-04-17T07:46:24Z</time>
      </trkpt>
      <trkpt lat="47.05602" lon="6.2776">
        <ele>727.85522460938</ele>
        <time>2011-04-17T07:46:29Z</time>
      </trkpt>
      <trkpt lat="47.05618" lon="6.27775">
        <ele>727.85522460938</ele>
        <time>2011-04-17T07:46:34Z</time>
      </trkpt>
      <trkpt lat="47.05637" lon="6.27787">
        <ele>725.9326171875</ele>
        <time>2011-04-17T07:46:39Z</time>
      </trkpt>
      <trkpt lat="47.05643" lon="6.27789">
        <ele>725.45190429688</ele>
        <time>2011-04-17T07:46:40Z</time>
      </trkpt>
      <trkpt lat="47.05662" lon="6.27801">
        <ele>722.08740234375</ele>
        <time>2011-04-17T07:46:44Z</time>
      </trkpt>
      <trkpt lat="47.05679" lon="6.27817">
        <ele>722.56811523438</ele>
        <time>2011-04-17T07:46:48Z</time>
      </trkpt>
      <trkpt lat="47.05688" lon="6.27829">
        <ele>722.56811523438</ele>
        <time>2011-04-17T07:46:53Z</time>
      </trkpt>
      <trkpt lat="47.05699" lon="6.27841">
        <ele>722.08740234375</ele>
        <time>2011-04-17T07:46:57Z</time>
      </trkpt>
      <trkpt lat="47.05712" lon="6.27852">
        <ele>722.56811523438</ele>
        <time>2011-04-17T07:47:01Z</time>
      </trkpt>
      <trkpt lat="47.05726" lon="6.27868">
        <ele>724.01000976562</ele>
        <time>2011-04-17T07:47:07Z</time>
      </trkpt>
      <trkpt lat="47.05745" lon="6.27885">
        <ele>720.6455078125</ele>
        <time>2011-04-17T07:47:13Z</time>
      </trkpt>
      <trkpt lat="47.05753" lon="6.27889">
        <ele>719.20361328125</ele>
        <time>2011-04-17T07:47:15Z</time>
      </trkpt>
      <trkpt lat="47.05772" lon="6.27904">
        <ele>716.80029296875</ele>
        <time>2011-04-17T07:47:20Z</time>
      </trkpt>
      <trkpt lat="47.05782" lon="6.27911">
        <ele>713.916015625</ele>
        <time>2011-04-17T07:47:24Z</time>
      </trkpt>
      <trkpt lat="47.05783" lon="6.27913">
        <ele>713.435546875</ele>
        <time>2011-04-17T07:47:25Z</time>
      </trkpt>
      <trkpt lat="47.05792" lon="6.27918">
        <ele>711.51293945312</ele>
        <time>2011-04-17T07:47:31Z</time>
      </trkpt>
      <trkpt lat="47.05793" lon="6.27917">
        <ele>711.51293945312</ele>
        <time>2011-04-17T07:47:34Z</time>
      </trkpt>
      <trkpt lat="47.05795" lon="6.27919">
        <ele>711.99365234375</ele>
        <time>2011-04-17T07:47:36Z</time>
      </trkpt>
      <trkpt lat="47.058" lon="6.27922">
        <ele>711.51293945312</ele>
        <time>2011-04-17T07:47:44Z</time>
      </trkpt>
      <trkpt lat="47.05799" lon="6.27923">
        <ele>711.51293945312</ele>
        <time>2011-04-17T07:47:45Z</time>
      </trkpt>
      <trkpt lat="47.05801" lon="6.27923">
        <ele>710.55151367188</ele>
        <time>2011-04-17T07:47:48Z</time>
      </trkpt>
      <trkpt lat="47.05804" lon="6.27926">
        <ele>710.07080078125</ele>
        <time>2011-04-17T07:47:49Z</time>
      </trkpt>
      <trkpt lat="47.05811" lon="6.27931">
        <ele>708.62890625</ele>
        <time>2011-04-17T07:47:53Z</time>
      </trkpt>
      <trkpt lat="47.05816" lon="6.2793">
        <ele>707.66772460938</ele>
        <time>2011-04-17T07:47:56Z</time>
      </trkpt>
      <trkpt lat="47.05815" lon="6.27923">
        <ele>704.78369140625</ele>
        <time>2011-04-17T07:47:59Z</time>
      </trkpt>
      <trkpt lat="47.05809" lon="6.27915">
        <ele>703.341796875</ele>
        <time>2011-04-17T07:48:01Z</time>
      </trkpt>
      <trkpt lat="47.05795" lon="6.27891">
        <ele>700.9384765625</ele>
        <time>2011-04-17T07:48:04Z</time>
      </trkpt>
      <trkpt lat="47.05781" lon="6.27871">
        <ele>699.015625</ele>
        <time>2011-04-17T07:48:06Z</time>
      </trkpt>
      <trkpt lat="47.05759" lon="6.27842">
        <ele>696.1318359375</ele>
        <time>2011-04-17T07:48:09Z</time>
      </trkpt>
      <trkpt lat="47.05752" lon="6.27833">
        <ele>695.65112304688</ele>
        <time>2011-04-17T07:48:10Z</time>
      </trkpt>
      <trkpt lat="47.05734" lon="6.27808">
        <ele>693.24780273438</ele>
        <time>2011-04-17T07:48:13Z</time>
      </trkpt>
      <trkpt lat="47.05702" lon="6.27768">
        <ele>692.28662109375</ele>
        <time>2011-04-17T07:48:19Z</time>
      </trkpt>
      <trkpt lat="47.05692" lon="6.27754">
        <ele>691.3251953125</ele>
        <time>2011-04-17T07:48:21Z</time>
      </trkpt>
      <trkpt lat="47.05661" lon="6.27719">
        <ele>688.92211914062</ele>
        <time>2011-04-17T07:48:27Z</time>
      </trkpt>
      <trkpt lat="47.05639" lon="6.27682">
        <ele>684.11547851562</ele>
        <time>2011-04-17T07:48:31Z</time>
      </trkpt>
      <trkpt lat="47.05595" lon="6.27626">
        <ele>683.63452148438</ele>
        <time>2011-04-17T07:48:37Z</time>
      </trkpt>
      <trkpt lat="47.05572" lon="6.27595">
        <ele>685.55737304688</ele>
        <time>2011-04-17T07:48:41Z</time>
      </trkpt>
      <trkpt lat="47.0556" lon="6.27579">
        <ele>686.51879882812</ele>
        <time>2011-04-17T07:48:44Z</time>
      </trkpt>
      <trkpt lat="47.05541" lon="6.2756">
        <ele>687.96069335938</ele>
        <time>2011-04-17T07:48:50Z</time>
      </trkpt>
      <trkpt lat="47.05518" lon="6.27533">
        <ele>689.40258789062</ele>
        <time>2011-04-17T07:48:58Z</time>
      </trkpt>
      <trkpt lat="47.05506" lon="6.27506">
        <ele>689.88330078125</ele>
        <time>2011-04-17T07:49:04Z</time>
      </trkpt>
      <trkpt lat="47.05494" lon="6.27473">
        <ele>690.36401367188</ele>
        <time>2011-04-17T07:49:10Z</time>
      </trkpt>
      <trkpt lat="47.05497" lon="6.2745">
        <ele>689.40258789062</ele>
        <time>2011-04-17T07:49:16Z</time>
      </trkpt>
      <trkpt lat="47.05493" lon="6.2744">
        <ele>689.40258789062</ele>
        <time>2011-04-17T07:49:21Z</time>
      </trkpt>
      <trkpt lat="47.05493" lon="6.2744">
        <ele>689.40258789062</ele>
        <time>2011-04-17T07:49:22Z</time>
      </trkpt>
      <trkpt lat="47.05494" lon="6.27439">
        <ele>689.88330078125</ele>
        <time>2011-04-17T07:50:09Z</time>
      </trkpt>
      <trkpt lat="47.05493" lon="6.27439">
        <ele>688.92211914062</ele>
        <time>2011-04-17T07:50:10Z</time>
      </trkpt>
      <trkpt lat="47.05492" lon="6.27438">
        <ele>689.88330078125</ele>
        <time>2011-04-17T07:50:11Z</time>
      </trkpt>
      <trkpt lat="47.0548" lon="6.27422">
        <ele>687.47998046875</ele>
        <time>2011-04-17T07:50:17Z</time>
      </trkpt>
      <trkpt lat="47.05465" lon="6.27398">
        <ele>686.99926757812</ele>
        <time>2011-04-17T07:50:22Z</time>
      </trkpt>
      <trkpt lat="47.05443" lon="6.27361">
        <ele>685.55737304688</ele>
        <time>2011-04-17T07:50:28Z</time>
      </trkpt>
      <trkpt lat="47.05418" lon="6.27312">
        <ele>683.15380859375</ele>
        <time>2011-04-17T07:50:34Z</time>
      </trkpt>
      <trkpt lat="47.05398" lon="6.27279">
        <ele>681.2314453125</ele>
        <time>2011-04-17T07:50:38Z</time>
      </trkpt>
      <trkpt lat="47.05351" lon="6.27217">
        <ele>677.86669921875</ele>
        <time>2011-04-17T07:50:46Z</time>
      </trkpt>
      <trkpt lat="47.05298" lon="6.27163">
        <ele>675.46337890625</ele>
        <time>2011-04-17T07:50:54Z</time>
      </trkpt>
      <trkpt lat="47.05245" lon="6.27126">
        <ele>673.06030273438</ele>
        <time>2011-04-17T07:51:01Z</time>
      </trkpt>
      <trkpt lat="47.05229" lon="6.27115">
        <ele>671.1376953125</ele>
        <time>2011-04-17T07:51:03Z</time>
      </trkpt>
      <trkpt lat="47.05196" lon="6.27111">
        <ele>669.69580078125</ele>
        <time>2011-04-17T07:51:07Z</time>
      </trkpt>
      <trkpt lat="47.05181" lon="6.27127">
        <ele>668.25366210938</ele>
        <time>2011-04-17T07:51:09Z</time>
      </trkpt>
      <trkpt lat="47.05144" lon="6.27153">
        <ele>666.33081054688</ele>
        <time>2011-04-17T07:51:14Z</time>
      </trkpt>
      <trkpt lat="47.05136" lon="6.2715">
        <ele>667.29223632812</ele>
        <time>2011-04-17T07:51:16Z</time>
      </trkpt>
      <trkpt lat="47.05138" lon="6.27136">
        <ele>665.85034179688</ele>
        <time>2011-04-17T07:51:19Z</time>
      </trkpt>
      <trkpt lat="47.05145" lon="6.27122">
        <ele>664.408203125</ele>
        <time>2011-04-17T07:51:22Z</time>
      </trkpt>
      <trkpt lat="47.05152" lon="6.27102">
        <ele>662.96630859375</ele>
        <time>2011-04-17T07:51:26Z</time>
      </trkpt>
      <trkpt lat="47.0516" lon="6.27058">
        <ele>661.04370117188</ele>
        <time>2011-04-17T07:51:33Z</time>
      </trkpt>
      <trkpt lat="47.05166" lon="6.27024">
        <ele>657.67919921875</ele>
        <time>2011-04-17T07:51:38Z</time>
      </trkpt>
      <trkpt lat="47.05172" lon="6.26993">
        <ele>654.31469726562</ele>
        <time>2011-04-17T07:51:41Z</time>
      </trkpt>
      <trkpt lat="47.05174" lon="6.2698">
        <ele>652.87255859375</ele>
        <time>2011-04-17T07:51:42Z</time>
      </trkpt>
      <trkpt lat="47.05173" lon="6.26915">
        <ele>646.6240234375</ele>
        <time>2011-04-17T07:51:46Z</time>
      </trkpt>
      <trkpt lat="47.05167" lon="6.26882">
        <ele>645.18188476562</ele>
        <time>2011-04-17T07:51:48Z</time>
      </trkpt>
      <trkpt lat="47.05162" lon="6.26854">
        <ele>642.77880859375</ele>
        <time>2011-04-17T07:51:50Z</time>
      </trkpt>
      <trkpt lat="47.05152" lon="6.26814">
        <ele>638.45288085938</ele>
        <time>2011-04-17T07:51:53Z</time>
      </trkpt>
      <trkpt lat="47.05148" lon="6.26802">
        <ele>637.0107421875</ele>
        <time>2011-04-17T07:51:54Z</time>
      </trkpt>
      <trkpt lat="47.05144" lon="6.26765">
        <ele>629.32006835938</ele>
        <time>2011-04-17T07:51:57Z</time>
      </trkpt>
      <trkpt lat="47.05146" lon="6.26749">
        <ele>627.87817382812</ele>
        <time>2011-04-17T07:51:58Z</time>
      </trkpt>
      <trkpt lat="47.05155" lon="6.26681">
        <ele>618.74560546875</ele>
        <time>2011-04-17T07:52:02Z</time>
      </trkpt>
      <trkpt lat="47.05156" lon="6.26662">
        <ele>615.38110351562</ele>
        <time>2011-04-17T07:52:03Z</time>
      </trkpt>
      <trkpt lat="47.05156" lon="6.26626">
        <ele>610.57446289062</ele>
        <time>2011-04-17T07:52:05Z</time>
      </trkpt>
      <trkpt lat="47.05156" lon="6.26611">
        <ele>610.09375</ele>
        <time>2011-04-17T07:52:06Z</time>
      </trkpt>
      <trkpt lat="47.05161" lon="6.26589">
        <ele>610.57446289062</ele>
        <time>2011-04-17T07:52:10Z</time>
      </trkpt>
      <trkpt lat="47.05168" lon="6.26592">
        <ele>610.09375</ele>
        <time>2011-04-17T07:52:15Z</time>
      </trkpt>
      <trkpt lat="47.05168" lon="6.26596">
        <ele>610.09375</ele>
        <time>2011-04-17T07:52:19Z</time>
      </trkpt>
      <trkpt lat="47.05167" lon="6.26598">
        <ele>610.09375</ele>
        <time>2011-04-17T07:52:23Z</time>
      </trkpt>
      <trkpt lat="47.05162" lon="6.26605">
        <ele>609.61328125</ele>
        <time>2011-04-17T07:52:27Z</time>
      </trkpt>
      <trkpt lat="47.05166" lon="6.2662">
        <ele>609.61328125</ele>
        <time>2011-04-17T07:52:31Z</time>
      </trkpt>
      <trkpt lat="47.05172" lon="6.26626">
        <ele>610.09375</ele>
        <time>2011-04-17T07:52:33Z</time>
      </trkpt>
      <trkpt lat="47.0518" lon="6.26631">
        <ele>611.05517578125</ele>
        <time>2011-04-17T07:52:35Z</time>
      </trkpt>
      <trkpt lat="47.05197" lon="6.2665">
        <ele>612.97778320312</ele>
        <time>2011-04-17T07:52:39Z</time>
      </trkpt>
      <trkpt lat="47.05215" lon="6.26672">
        <ele>613.93896484375</ele>
        <time>2011-04-17T07:52:44Z</time>
      </trkpt>
      <trkpt lat="47.05221" lon="6.26679">
        <ele>614.41967773438</ele>
        <time>2011-04-17T07:52:46Z</time>
      </trkpt>
      <trkpt lat="47.05234" lon="6.2669">
        <ele>615.86181640625</ele>
        <time>2011-04-17T07:52:51Z</time>
      </trkpt>
      <trkpt lat="47.05242" lon="6.26696">
        <ele>617.7841796875</ele>
        <time>2011-04-17T07:52:54Z</time>
      </trkpt>
      <trkpt lat="47.05256" lon="6.26709">
        <ele>618.26489257812</ele>
        <time>2011-04-17T07:53:00Z</time>
      </trkpt>
      <trkpt lat="47.05275" lon="6.26729">
        <ele>617.7841796875</ele>
        <time>2011-04-17T07:53:08Z</time>
      </trkpt>
      <trkpt lat="47.05293" lon="6.26746">
        <ele>619.22631835938</ele>
        <time>2011-04-17T07:53:16Z</time>
      </trkpt>
      <trkpt lat="47.05304" lon="6.26759">
        <ele>621.62963867188</ele>
        <time>2011-04-17T07:53:21Z</time>
      </trkpt>
      <trkpt lat="47.05321" lon="6.26779">
        <ele>623.55249023438</ele>
        <time>2011-04-17T07:53:29Z</time>
      </trkpt>
      <trkpt lat="47.05341" lon="6.26805">
        <ele>623.07177734375</ele>
        <time>2011-04-17T07:53:39Z</time>
      </trkpt>
      <trkpt lat="47.05357" lon="6.26828">
        <ele>625.95556640625</ele>
        <time>2011-04-17T07:53:47Z</time>
      </trkpt>
      <trkpt lat="47.05371" lon="6.26852">
        <ele>626.9169921875</ele>
        <time>2011-04-17T07:53:54Z</time>
      </trkpt>
      <trkpt lat="47.05386" lon="6.26878">
        <ele>626.43627929688</ele>
        <time>2011-04-17T07:54:01Z</time>
      </trkpt>
      <trkpt lat="47.05403" lon="6.26909">
        <ele>626.9169921875</ele>
        <time>2011-04-17T07:54:09Z</time>
      </trkpt>
      <trkpt lat="47.05411" lon="6.26927">
        <ele>626.43627929688</ele>
        <time>2011-04-17T07:54:13Z</time>
      </trkpt>
      <trkpt lat="47.05416" lon="6.26922">
        <ele>625.95556640625</ele>
        <time>2011-04-17T07:54:17Z</time>
      </trkpt>
      <trkpt lat="47.0541" lon="6.26877">
        <ele>619.22631835938</ele>
        <time>2011-04-17T07:54:22Z</time>
      </trkpt>
      <trkpt lat="47.05408" lon="6.26866">
        <ele>619.70703125</ele>
        <time>2011-04-17T07:54:23Z</time>
      </trkpt>
      <trkpt lat="47.05405" lon="6.26843">
        <ele>616.34228515625</ele>
        <time>2011-04-17T07:54:25Z</time>
      </trkpt>
      <trkpt lat="47.05402" lon="6.26832">
        <ele>616.34228515625</ele>
        <time>2011-04-17T07:54:26Z</time>
      </trkpt>
      <trkpt lat="47.05396" lon="6.26793">
        <ele>611.53588867188</ele>
        <time>2011-04-17T07:54:29Z</time>
      </trkpt>
      <trkpt lat="47.05393" lon="6.26765">
        <ele>607.69067382812</ele>
        <time>2011-04-17T07:54:31Z</time>
      </trkpt>
      <trkpt lat="47.05391" lon="6.26736">
        <ele>603.84521484375</ele>
        <time>2011-04-17T07:54:33Z</time>
      </trkpt>
      <trkpt lat="47.05386" lon="6.26708">
        <ele>602.8837890625</ele>
        <time>2011-04-17T07:54:35Z</time>
      </trkpt>
      <trkpt lat="47.05375" lon="6.26666">
        <ele>598.55786132812</ele>
        <time>2011-04-17T07:54:38Z</time>
      </trkpt>
      <trkpt lat="47.05366" lon="6.26637">
        <ele>595.193359375</ele>
        <time>2011-04-17T07:54:40Z</time>
      </trkpt>
      <trkpt lat="47.05357" lon="6.26612">
        <ele>591.82885742188</ele>
        <time>2011-04-17T07:54:42Z</time>
      </trkpt>
      <trkpt lat="47.0535" lon="6.26594">
        <ele>589.90625</ele>
        <time>2011-04-17T07:54:44Z</time>
      </trkpt>
      <trkpt lat="47.0534" lon="6.26575">
        <ele>586.06079101562</ele>
        <time>2011-04-17T07:54:48Z</time>
      </trkpt>
      <trkpt lat="47.05348" lon="6.26577">
        <ele>584.13818359375</ele>
        <time>2011-04-17T07:54:51Z</time>
      </trkpt>
      <trkpt lat="47.05359" lon="6.26585">
        <ele>584.13818359375</ele>
        <time>2011-04-17T07:54:54Z</time>
      </trkpt>
      <trkpt lat="47.05384" lon="6.26598">
        <ele>577.8896484375</ele>
        <time>2011-04-17T07:54:59Z</time>
      </trkpt>
      <trkpt lat="47.054" lon="6.26609">
        <ele>575.005859375</ele>
        <time>2011-04-17T07:55:01Z</time>
      </trkpt>
      <trkpt lat="47.05424" lon="6.26632">
        <ele>570.6796875</ele>
        <time>2011-04-17T07:55:04Z</time>
      </trkpt>
      <trkpt lat="47.05445" lon="6.26652">
        <ele>566.35375976562</ele>
        <time>2011-04-17T07:55:07Z</time>
      </trkpt>
      <trkpt lat="47.05461" lon="6.26664">
        <ele>561.06665039062</ele>
        <time>2011-04-17T07:55:09Z</time>
      </trkpt>
      <trkpt lat="47.05485" lon="6.26688">
        <ele>553.85668945312</ele>
        <time>2011-04-17T07:55:12Z</time>
      </trkpt>
      <trkpt lat="47.055" lon="6.26702">
        <ele>549.05004882812</ele>
        <time>2011-04-17T07:55:14Z</time>
      </trkpt>
      <trkpt lat="47.05515" lon="6.26714">
        <ele>545.685546875</ele>
        <time>2011-04-17T07:55:16Z</time>
      </trkpt>
      <trkpt lat="47.05523" lon="6.26721">
        <ele>544.24365234375</ele>
        <time>2011-04-17T07:55:17Z</time>
      </trkpt>
      <trkpt lat="47.05548" lon="6.26754">
        <ele>534.63037109375</ele>
        <time>2011-04-17T07:55:21Z</time>
      </trkpt>
      <trkpt lat="47.05555" lon="6.26762">
        <ele>534.14965820312</ele>
        <time>2011-04-17T07:55:22Z</time>
      </trkpt>
      <trkpt lat="47.05576" lon="6.26786">
        <ele>528.86254882812</ele>
        <time>2011-04-17T07:55:25Z</time>
      </trkpt>
      <trkpt lat="47.05584" lon="6.26794">
        <ele>527.90100097656</ele>
        <time>2011-04-17T07:55:26Z</time>
      </trkpt>
      <trkpt lat="47.05618" lon="6.26835">
        <ele>521.17199707031</ele>
        <time>2011-04-17T07:55:30Z</time>
      </trkpt>
      <trkpt lat="47.0564" lon="6.26867">
        <ele>518.28784179688</ele>
        <time>2011-04-17T07:55:33Z</time>
      </trkpt>
      <trkpt lat="47.05654" lon="6.26888">
        <ele>516.365234375</ele>
        <time>2011-04-17T07:55:35Z</time>
      </trkpt>
      <trkpt lat="47.0566" lon="6.26909">
        <ele>516.365234375</ele>
        <time>2011-04-17T07:55:38Z</time>
      </trkpt>
      <trkpt lat="47.05659" lon="6.2691">
        <ele>516.365234375</ele>
        <time>2011-04-17T07:55:41Z</time>
      </trkpt>
      <trkpt lat="47.05659" lon="6.26908">
        <ele>516.365234375</ele>
        <time>2011-04-17T07:55:44Z</time>
      </trkpt>
      <trkpt lat="47.05658" lon="6.26905">
        <ele>515.88464355469</ele>
        <time>2011-04-17T07:55:46Z</time>
      </trkpt>
      <trkpt lat="47.05651" lon="6.26885">
        <ele>516.365234375</ele>
        <time>2011-04-17T07:55:52Z</time>
      </trkpt>
      <trkpt lat="47.05648" lon="6.26873">
        <ele>516.365234375</ele>
        <time>2011-04-17T07:55:54Z</time>
      </trkpt>
      <trkpt lat="47.05635" lon="6.26831">
        <ele>514.92333984375</ele>
        <time>2011-04-17T07:56:00Z</time>
      </trkpt>
      <trkpt lat="47.05622" lon="6.26791">
        <ele>513.00073242188</ele>
        <time>2011-04-17T07:56:05Z</time>
      </trkpt>
      <trkpt lat="47.05613" lon="6.26745">
        <ele>512.03942871094</ele>
        <time>2011-04-17T07:56:10Z</time>
      </trkpt>
      <trkpt lat="47.05611" lon="6.26734">
        <ele>510.11669921875</ele>
        <time>2011-04-17T07:56:11Z</time>
      </trkpt>
      <trkpt lat="47.05608" lon="6.26712">
        <ele>509.15539550781</ele>
        <time>2011-04-17T07:56:13Z</time>
      </trkpt>
      <trkpt lat="47.05597" lon="6.26657">
        <ele>506.271484375</ele>
        <time>2011-04-17T07:56:18Z</time>
      </trkpt>
      <trkpt lat="47.05594" lon="6.26647">
        <ele>505.31018066406</ele>
        <time>2011-04-17T07:56:19Z</time>
      </trkpt>
      <trkpt lat="47.05589" lon="6.26605">
        <ele>500.98413085938</ele>
        <time>2011-04-17T07:56:23Z</time>
      </trkpt>
      <trkpt lat="47.05585" lon="6.26584">
        <ele>497.13891601562</ele>
        <time>2011-04-17T07:56:25Z</time>
      </trkpt>
      <trkpt lat="47.05579" lon="6.26548">
        <ele>492.33239746094</ele>
        <time>2011-04-17T07:56:28Z</time>
      </trkpt>
      <trkpt lat="47.05564" lon="6.26513">
        <ele>490.40979003906</ele>
        <time>2011-04-17T07:56:31Z</time>
      </trkpt>
      <trkpt lat="47.05535" lon="6.2646">
        <ele>488.48718261719</ele>
        <time>2011-04-17T07:56:36Z</time>
      </trkpt>
      <trkpt lat="47.05515" lon="6.26427">
        <ele>488.9677734375</ele>
        <time>2011-04-17T07:56:40Z</time>
      </trkpt>
      <trkpt lat="47.05502" lon="6.26386">
        <ele>486.564453125</ele>
        <time>2011-04-17T07:56:45Z</time>
      </trkpt>
      <trkpt lat="47.05493" lon="6.26356">
        <ele>485.12243652344</ele>
        <time>2011-04-17T07:56:48Z</time>
      </trkpt>
      <trkpt lat="47.05484" lon="6.2634">
        <ele>484.1611328125</ele>
        <time>2011-04-17T07:56:50Z</time>
      </trkpt>
      <trkpt lat="47.05476" lon="6.26323">
        <ele>481.7578125</ele>
        <time>2011-04-17T07:56:52Z</time>
      </trkpt>
      <trkpt lat="47.05473" lon="6.26289">
        <ele>476.95129394531</ele>
        <time>2011-04-17T07:56:56Z</time>
      </trkpt>
      <trkpt lat="47.05482" lon="6.26282">
        <ele>474.54797363281</ele>
        <time>2011-04-17T07:56:58Z</time>
      </trkpt>
      <trkpt lat="47.05488" lon="6.26284">
        <ele>474.54797363281</ele>
        <time>2011-04-17T07:56:59Z</time>
      </trkpt>
      <trkpt lat="47.05504" lon="6.2629">
        <ele>472.14465332031</ele>
        <time>2011-04-17T07:57:02Z</time>
      </trkpt>
      <trkpt lat="47.0551" lon="6.26287">
        <ele>468.78002929688</ele>
        <time>2011-04-17T07:57:03Z</time>
      </trkpt>
      <trkpt lat="47.05515" lon="6.26281">
        <ele>468.78002929688</ele>
        <time>2011-04-17T07:57:04Z</time>
      </trkpt>
      <trkpt lat="47.0553" lon="6.26253">
        <ele>467.81872558594</ele>
        <time>2011-04-17T07:57:07Z</time>
      </trkpt>
      <trkpt lat="47.05547" lon="6.26241">
        <ele>466.37670898438</ele>
        <time>2011-04-17T07:57:10Z</time>
      </trkpt>
      <trkpt lat="47.05557" lon="6.26234">
        <ele>466.857421875</ele>
        <time>2011-04-17T07:57:13Z</time>
      </trkpt>
      <trkpt lat="47.05556" lon="6.26218">
        <ele>467.81872558594</ele>
        <time>2011-04-17T07:57:17Z</time>
      </trkpt>
      <trkpt lat="47.05556" lon="6.26214">
        <ele>467.33813476562</ele>
        <time>2011-04-17T07:57:18Z</time>
      </trkpt>
      <trkpt lat="47.05553" lon="6.26205">
        <ele>469.2607421875</ele>
        <time>2011-04-17T07:57:21Z</time>
      </trkpt>
      <trkpt lat="47.05552" lon="6.26201">
        <ele>469.2607421875</ele>
        <time>2011-04-17T07:57:23Z</time>
      </trkpt>
      <trkpt lat="47.05555" lon="6.262">
        <ele>469.2607421875</ele>
        <time>2011-04-17T07:57:28Z</time>
      </trkpt>
      <trkpt lat="47.05557" lon="6.2621">
        <ele>469.2607421875</ele>
        <time>2011-04-17T07:57:34Z</time>
      </trkpt>
      <trkpt lat="47.0556" lon="6.26217">
        <ele>470.22192382812</ele>
        <time>2011-04-17T07:57:37Z</time>
      </trkpt>
      <trkpt lat="47.0557" lon="6.26238">
        <ele>470.70263671875</ele>
        <time>2011-04-17T07:57:45Z</time>
      </trkpt>
      <trkpt lat="47.05577" lon="6.26256">
        <ele>470.70263671875</ele>
        <time>2011-04-17T07:57:50Z</time>
      </trkpt>
      <trkpt lat="47.0559" lon="6.26285">
        <ele>471.18334960938</ele>
        <time>2011-04-17T07:57:57Z</time>
      </trkpt>
      <trkpt lat="47.05599" lon="6.26304">
        <ele>471.18334960938</ele>
        <time>2011-04-17T07:58:01Z</time>
      </trkpt>
      <trkpt lat="47.05619" lon="6.26351">
        <ele>472.14465332031</ele>
        <time>2011-04-17T07:58:10Z</time>
      </trkpt>
      <trkpt lat="47.05635" lon="6.26386">
        <ele>472.62536621094</ele>
        <time>2011-04-17T07:58:17Z</time>
      </trkpt>
      <trkpt lat="47.05656" lon="6.26432">
        <ele>474.06726074219</ele>
        <time>2011-04-17T07:58:26Z</time>
      </trkpt>
      <trkpt lat="47.05679" lon="6.26485">
        <ele>475.50927734375</ele>
        <time>2011-04-17T07:58:36Z</time>
      </trkpt>
      <trkpt lat="47.05692" lon="6.26514">
        <ele>475.98986816406</ele>
        <time>2011-04-17T07:58:42Z</time>
      </trkpt>
      <trkpt lat="47.05709" lon="6.26553">
        <ele>477.43188476562</ele>
        <time>2011-04-17T07:58:50Z</time>
      </trkpt>
      <trkpt lat="47.05723" lon="6.26588">
        <ele>478.87390136719</ele>
        <time>2011-04-17T07:58:57Z</time>
      </trkpt>
      <trkpt lat="47.05738" lon="6.26635">
        <ele>479.83508300781</ele>
        <time>2011-04-17T07:59:06Z</time>
      </trkpt>
      <trkpt lat="47.05757" lon="6.26693">
        <ele>481.27722167969</ele>
        <time>2011-04-17T07:59:17Z</time>
      </trkpt>
      <trkpt lat="47.05775" lon="6.26729">
        <ele>482.23852539062</ele>
        <time>2011-04-17T07:59:25Z</time>
      </trkpt>
      <trkpt lat="47.05791" lon="6.2676">
        <ele>484.1611328125</ele>
        <time>2011-04-17T07:59:32Z</time>
      </trkpt>
      <trkpt lat="47.05804" lon="6.26788">
        <ele>484.64184570312</ele>
        <time>2011-04-17T07:59:39Z</time>
      </trkpt>
      <trkpt lat="47.05815" lon="6.26807">
        <ele>485.60302734375</ele>
        <time>2011-04-17T07:59:45Z</time>
      </trkpt>
      <trkpt lat="47.05828" lon="6.26819">
        <ele>486.08374023438</ele>
        <time>2011-04-17T07:59:51Z</time>
      </trkpt>
      <trkpt lat="47.05838" lon="6.26833">
        <ele>488.48718261719</ele>
        <time>2011-04-17T07:59:58Z</time>
      </trkpt>
      <trkpt lat="47.05841" lon="6.26836">
        <ele>489.44836425781</ele>
        <time>2011-04-17T08:00:00Z</time>
      </trkpt>
      <trkpt lat="47.05852" lon="6.2685">
        <ele>491.37097167969</ele>
        <time>2011-04-17T08:00:10Z</time>
      </trkpt>
      <trkpt lat="47.05858" lon="6.26862">
        <ele>493.29357910156</ele>
        <time>2011-04-17T08:00:16Z</time>
      </trkpt>
      <trkpt lat="47.05865" lon="6.26876">
        <ele>494.73559570312</ele>
        <time>2011-04-17T08:00:23Z</time>
      </trkpt>
      <trkpt lat="47.05873" lon="6.26889">
        <ele>495.69689941406</ele>
        <time>2011-04-17T08:00:30Z</time>
      </trkpt>
      <trkpt lat="47.05878" lon="6.26903">
        <ele>496.65832519531</ele>
        <time>2011-04-17T08:00:36Z</time>
      </trkpt>
      <trkpt lat="47.05887" lon="6.2692">
        <ele>498.58093261719</ele>
        <time>2011-04-17T08:00:44Z</time>
      </trkpt>
      <trkpt lat="47.05895" lon="6.26933">
        <ele>500.02294921875</ele>
        <time>2011-04-17T08:00:51Z</time>
      </trkpt>
      <trkpt lat="47.05902" lon="6.26945">
        <ele>500.98413085938</ele>
        <time>2011-04-17T08:00:58Z</time>
      </trkpt>
      <trkpt lat="47.05904" lon="6.26948">
        <ele>501.94555664062</ele>
        <time>2011-04-17T08:01:00Z</time>
      </trkpt>
      <trkpt lat="47.0591" lon="6.26953">
        <ele>502.42614746094</ele>
        <time>2011-04-17T08:01:05Z</time>
      </trkpt>
      <trkpt lat="47.05916" lon="6.26964">
        <ele>503.38745117188</ele>
        <time>2011-04-17T08:01:11Z</time>
      </trkpt>
      <trkpt lat="47.05924" lon="6.26978">
        <ele>504.82946777344</ele>
        <time>2011-04-17T08:01:17Z</time>
      </trkpt>
      <trkpt lat="47.05927" lon="6.26981">
        <ele>504.34887695312</ele>
        <time>2011-04-17T08:01:19Z</time>
      </trkpt>
      <trkpt lat="47.05931" lon="6.26989">
        <ele>505.31018066406</ele>
        <time>2011-04-17T08:01:23Z</time>
      </trkpt>
      <trkpt lat="47.05939" lon="6.26999">
        <ele>507.23278808594</ele>
        <time>2011-04-17T08:01:30Z</time>
      </trkpt>
      <trkpt lat="47.0594" lon="6.27001">
        <ele>507.71350097656</ele>
        <time>2011-04-17T08:01:31Z</time>
      </trkpt>
      <trkpt lat="47.05948" lon="6.27013">
        <ele>509.63610839844</ele>
        <time>2011-04-17T08:01:39Z</time>
      </trkpt>
      <trkpt lat="47.05955" lon="6.27023">
        <ele>510.59729003906</ele>
        <time>2011-04-17T08:01:46Z</time>
      </trkpt>
      <trkpt lat="47.05961" lon="6.27029">
        <ele>512.03942871094</ele>
        <time>2011-04-17T08:01:52Z</time>
      </trkpt>
      <trkpt lat="47.05969" lon="6.27038">
        <ele>513.4814453125</ele>
        <time>2011-04-17T08:01:59Z</time>
      </trkpt>
      <trkpt lat="47.05978" lon="6.27048">
        <ele>515.40405273438</ele>
        <time>2011-04-17T08:02:07Z</time>
      </trkpt>
      <trkpt lat="47.05988" lon="6.27055">
        <ele>515.88464355469</ele>
        <time>2011-04-17T08:02:15Z</time>
      </trkpt>
      <trkpt lat="47.05995" lon="6.2706">
        <ele>516.365234375</ele>
        <time>2011-04-17T08:02:21Z</time>
      </trkpt>
      <trkpt lat="47.06001" lon="6.27066">
        <ele>519.24926757812</ele>
        <time>2011-04-17T08:02:27Z</time>
      </trkpt>
      <trkpt lat="47.06005" lon="6.2707">
        <ele>521.65258789062</ele>
        <time>2011-04-17T08:02:31Z</time>
      </trkpt>
      <trkpt lat="47.06012" lon="6.27077">
        <ele>523.5751953125</ele>
        <time>2011-04-17T08:02:38Z</time>
      </trkpt>
      <trkpt lat="47.06017" lon="6.27085">
        <ele>524.05578613281</ele>
        <time>2011-04-17T08:02:44Z</time>
      </trkpt>
      <trkpt lat="47.06027" lon="6.27098">
        <ele>524.53649902344</ele>
        <time>2011-04-17T08:02:51Z</time>
      </trkpt>
      <trkpt lat="47.06033" lon="6.27111">
        <ele>525.49780273438</ele>
        <time>2011-04-17T08:02:58Z</time>
      </trkpt>
      <trkpt lat="47.06041" lon="6.27119">
        <ele>526.45910644531</ele>
        <time>2011-04-17T08:03:05Z</time>
      </trkpt>
      <trkpt lat="47.06045" lon="6.27124">
        <ele>528.3818359375</ele>
        <time>2011-04-17T08:03:10Z</time>
      </trkpt>
      <trkpt lat="47.06052" lon="6.27134">
        <ele>528.86254882812</ele>
        <time>2011-04-17T08:03:18Z</time>
      </trkpt>
      <trkpt lat="47.06058" lon="6.27154">
        <ele>530.30444335938</ele>
        <time>2011-04-17T08:03:26Z</time>
      </trkpt>
      <trkpt lat="47.06062" lon="6.27162">
        <ele>530.78515625</ele>
        <time>2011-04-17T08:03:31Z</time>
      </trkpt>
      <trkpt lat="47.06068" lon="6.27173">
        <ele>531.74633789062</ele>
        <time>2011-04-17T08:03:38Z</time>
      </trkpt>
      <trkpt lat="47.06076" lon="6.27183">
        <ele>533.6689453125</ele>
        <time>2011-04-17T08:03:46Z</time>
      </trkpt>
      <trkpt lat="47.06083" lon="6.27192">
        <ele>534.63037109375</ele>
        <time>2011-04-17T08:03:53Z</time>
      </trkpt>
      <trkpt lat="47.06091" lon="6.27201">
        <ele>536.07238769531</ele>
        <time>2011-04-17T08:04:00Z</time>
      </trkpt>
      <trkpt lat="47.06102" lon="6.27213">
        <ele>537.03369140625</ele>
        <time>2011-04-17T08:04:08Z</time>
      </trkpt>
      <trkpt lat="47.06111" lon="6.27223">
        <ele>538.95629882812</ele>
        <time>2011-04-17T08:04:15Z</time>
      </trkpt>
      <trkpt lat="47.06116" lon="6.27229">
        <ele>539.43688964844</ele>
        <time>2011-04-17T08:04:20Z</time>
      </trkpt>
      <trkpt lat="47.06124" lon="6.27245">
        <ele>540.87890625</ele>
        <time>2011-04-17T08:04:28Z</time>
      </trkpt>
      <trkpt lat="47.06128" lon="6.27254">
        <ele>542.80151367188</ele>
        <time>2011-04-17T08:04:34Z</time>
      </trkpt>
      <trkpt lat="47.06132" lon="6.27263">
        <ele>542.80151367188</ele>
        <time>2011-04-17T08:04:41Z</time>
      </trkpt>
      <trkpt lat="47.06138" lon="6.27262">
        <ele>544.72424316406</ele>
        <time>2011-04-17T08:04:47Z</time>
      </trkpt>
      <trkpt lat="47.06138" lon="6.27261">
        <ele>544.72424316406</ele>
        <time>2011-04-17T08:04:49Z</time>
      </trkpt>
      <trkpt lat="47.06138" lon="6.2726">
        <ele>544.72424316406</ele>
        <time>2011-04-17T08:04:53Z</time>
      </trkpt>
      <trkpt lat="47.06137" lon="6.27258">
        <ele>545.20483398438</ele>
        <time>2011-04-17T08:04:54Z</time>
      </trkpt>
      <trkpt lat="47.06134" lon="6.27255">
        <ele>546.16625976562</ele>
        <time>2011-04-17T08:04:58Z</time>
      </trkpt>
      <trkpt lat="47.06131" lon="6.27248">
        <ele>547.12744140625</ele>
        <time>2011-04-17T08:05:06Z</time>
      </trkpt>
      <trkpt lat="47.0613" lon="6.27241">
        <ele>547.60815429688</ele>
        <time>2011-04-17T08:05:13Z</time>
      </trkpt>
      <trkpt lat="47.06126" lon="6.27233">
        <ele>549.05004882812</ele>
        <time>2011-04-17T08:05:22Z</time>
      </trkpt>
      <trkpt lat="47.06124" lon="6.27225">
        <ele>550.01147460938</ele>
        <time>2011-04-17T08:05:29Z</time>
      </trkpt>
      <trkpt lat="47.06122" lon="6.27218">
        <ele>550.97265625</ele>
        <time>2011-04-17T08:05:35Z</time>
      </trkpt>
      <trkpt lat="47.06118" lon="6.27206">
        <ele>551.45336914062</ele>
        <time>2011-04-17T08:05:44Z</time>
      </trkpt>
      <trkpt lat="47.06116" lon="6.27198">
        <ele>553.85668945312</ele>
        <time>2011-04-17T08:05:51Z</time>
      </trkpt>
      <trkpt lat="47.06113" lon="6.27192">
        <ele>555.29858398438</ele>
        <time>2011-04-17T08:05:59Z</time>
      </trkpt>
      <trkpt lat="47.06113" lon="6.2719">
        <ele>555.29858398438</ele>
        <time>2011-04-17T08:06:04Z</time>
      </trkpt>
      <trkpt lat="47.06107" lon="6.27182">
        <ele>554.81787109375</ele>
        <time>2011-04-17T08:06:10Z</time>
      </trkpt>
      <trkpt lat="47.06099" lon="6.27167">
        <ele>555.29858398438</ele>
        <time>2011-04-17T08:06:17Z</time>
      </trkpt>
      <trkpt lat="47.06096" lon="6.27161">
        <ele>556.74072265625</ele>
        <time>2011-04-17T08:06:20Z</time>
      </trkpt>
      <trkpt lat="47.06091" lon="6.27151">
        <ele>556.74072265625</ele>
        <time>2011-04-17T08:06:26Z</time>
      </trkpt>
      <trkpt lat="47.06085" lon="6.27135">
        <ele>556.74072265625</ele>
        <time>2011-04-17T08:06:33Z</time>
      </trkpt>
      <trkpt lat="47.06083" lon="6.27129">
        <ele>558.66333007812</ele>
        <time>2011-04-17T08:06:36Z</time>
      </trkpt>
      <trkpt lat="47.06082" lon="6.27126">
        <ele>559.62475585938</ele>
        <time>2011-04-17T08:06:38Z</time>
      </trkpt>
      <trkpt lat="47.0608" lon="6.27113">
        <ele>560.10522460938</ele>
        <time>2011-04-17T08:06:45Z</time>
      </trkpt>
      <trkpt lat="47.06078" lon="6.271">
        <ele>563.46997070312</ele>
        <time>2011-04-17T08:06:52Z</time>
      </trkpt>
      <trkpt lat="47.06074" lon="6.27091">
        <ele>565.87329101562</ele>
        <time>2011-04-17T08:06:58Z</time>
      </trkpt>
      <trkpt lat="47.06071" lon="6.27087">
        <ele>565.87329101562</ele>
        <time>2011-04-17T08:07:01Z</time>
      </trkpt>
      <trkpt lat="47.06065" lon="6.27072">
        <ele>565.392578125</ele>
        <time>2011-04-17T08:07:10Z</time>
      </trkpt>
      <trkpt lat="47.0606" lon="6.27056">
        <ele>566.35375976562</ele>
        <time>2011-04-17T08:07:18Z</time>
      </trkpt>
      <trkpt lat="47.06056" lon="6.27042">
        <ele>568.2763671875</ele>
        <time>2011-04-17T08:07:26Z</time>
      </trkpt>
      <trkpt lat="47.06052" lon="6.27029">
        <ele>570.6796875</ele>
        <time>2011-04-17T08:07:34Z</time>
      </trkpt>
      <trkpt lat="47.0605" lon="6.27024">
        <ele>571.16040039062</ele>
        <time>2011-04-17T08:07:37Z</time>
      </trkpt>
      <trkpt lat="47.06044" lon="6.27012">
        <ele>572.12182617188</ele>
        <time>2011-04-17T08:07:44Z</time>
      </trkpt>
      <trkpt lat="47.06036" lon="6.26994">
        <ele>572.12182617188</ele>
        <time>2011-04-17T08:07:54Z</time>
      </trkpt>
      <trkpt lat="47.06035" lon="6.26993">
        <ele>572.6025390625</ele>
        <time>2011-04-17T08:07:55Z</time>
      </trkpt>
      <trkpt lat="47.06031" lon="6.2698">
        <ele>576.44775390625</ele>
        <time>2011-04-17T08:08:03Z</time>
      </trkpt>
      <trkpt lat="47.0603" lon="6.26978">
        <ele>576.44775390625</ele>
        <time>2011-04-17T08:08:04Z</time>
      </trkpt>
      <trkpt lat="47.06028" lon="6.26969">
        <ele>576.92846679688</ele>
        <time>2011-04-17T08:08:09Z</time>
      </trkpt>
      <trkpt lat="47.06025" lon="6.26955">
        <ele>577.8896484375</ele>
        <time>2011-04-17T08:08:17Z</time>
      </trkpt>
      <trkpt lat="47.06022" lon="6.2694">
        <ele>579.33154296875</ele>
        <time>2011-04-17T08:08:25Z</time>
      </trkpt>
      <trkpt lat="47.0602" lon="6.26931">
        <ele>579.81225585938</ele>
        <time>2011-04-17T08:08:31Z</time>
      </trkpt>
      <trkpt lat="47.06021" lon="6.26923">
        <ele>581.25439453125</ele>
        <time>2011-04-17T08:08:34Z</time>
      </trkpt>
      <trkpt lat="47.06018" lon="6.26912">
        <ele>583.1767578125</ele>
        <time>2011-04-17T08:08:40Z</time>
      </trkpt>
      <trkpt lat="47.06018" lon="6.26897">
        <ele>583.65747070312</ele>
        <time>2011-04-17T08:08:48Z</time>
      </trkpt>
      <trkpt lat="47.06014" lon="6.26886">
        <ele>584.61889648438</ele>
        <time>2011-04-17T08:08:54Z</time>
      </trkpt>
      <trkpt lat="47.06008" lon="6.26868">
        <ele>584.61889648438</ele>
        <time>2011-04-17T08:09:02Z</time>
      </trkpt>
      <trkpt lat="47.06006" lon="6.26852">
        <ele>585.580078125</ele>
        <time>2011-04-17T08:09:09Z</time>
      </trkpt>
      <trkpt lat="47.06004" lon="6.26842">
        <ele>587.50268554688</ele>
        <time>2011-04-17T08:09:14Z</time>
      </trkpt>
      <trkpt lat="47.06002" lon="6.26839">
        <ele>587.02197265625</ele>
        <time>2011-04-17T08:09:16Z</time>
      </trkpt>
      <trkpt lat="47.06" lon="6.26824">
        <ele>589.90625</ele>
        <time>2011-04-17T08:09:23Z</time>
      </trkpt>
      <trkpt lat="47.05999" lon="6.26822">
        <ele>589.90625</ele>
        <time>2011-04-17T08:09:24Z</time>
      </trkpt>
      <trkpt lat="47.05994" lon="6.26807">
        <ele>591.34814453125</ele>
        <time>2011-04-17T08:09:32Z</time>
      </trkpt>
      <trkpt lat="47.05993" lon="6.26786">
        <ele>593.75146484375</ele>
        <time>2011-04-17T08:09:41Z</time>
      </trkpt>
      <trkpt lat="47.05994" lon="6.26771">
        <ele>594.71264648438</ele>
        <time>2011-04-17T08:09:48Z</time>
      </trkpt>
      <trkpt lat="47.05994" lon="6.26758">
        <ele>595.67407226562</ele>
        <time>2011-04-17T08:09:55Z</time>
      </trkpt>
      <trkpt lat="47.05994" lon="6.26744">
        <ele>597.5966796875</ele>
        <time>2011-04-17T08:10:02Z</time>
      </trkpt>
      <trkpt lat="47.05993" lon="6.26732">
        <ele>600</ele>
        <time>2011-04-17T08:10:08Z</time>
      </trkpt>
      <trkpt lat="47.05989" lon="6.26721">
        <ele>601.92260742188</ele>
        <time>2011-04-17T08:10:14Z</time>
      </trkpt>
      <trkpt lat="47.05985" lon="6.26709">
        <ele>602.8837890625</ele>
        <time>2011-04-17T08:10:21Z</time>
      </trkpt>
      <trkpt lat="47.0598" lon="6.2669">
        <ele>604.806640625</ele>
        <time>2011-04-17T08:10:31Z</time>
      </trkpt>
      <trkpt lat="47.05979" lon="6.26687">
        <ele>605.28735351562</ele>
        <time>2011-04-17T08:10:33Z</time>
      </trkpt>
      <trkpt lat="47.05972" lon="6.26672">
        <ele>606.24853515625</ele>
        <time>2011-04-17T08:10:42Z</time>
      </trkpt>
      <trkpt lat="47.05967" lon="6.26663">
        <ele>607.69067382812</ele>
        <time>2011-04-17T08:10:48Z</time>
      </trkpt>
      <trkpt lat="47.05963" lon="6.26646">
        <ele>608.65185546875</ele>
        <time>2011-04-17T08:10:55Z</time>
      </trkpt>
      <trkpt lat="47.05956" lon="6.26625">
        <ele>610.09375</ele>
        <time>2011-04-17T08:11:05Z</time>
      </trkpt>
      <trkpt lat="47.05954" lon="6.26605">
        <ele>612.0166015625</ele>
        <time>2011-04-17T08:11:14Z</time>
      </trkpt>
      <trkpt lat="47.05955" lon="6.26587">
        <ele>612.97778320312</ele>
        <time>2011-04-17T08:11:22Z</time>
      </trkpt>
      <trkpt lat="47.05952" lon="6.26572">
        <ele>615.38110351562</ele>
        <time>2011-04-17T08:11:29Z</time>
      </trkpt>
      <trkpt lat="47.05951" lon="6.26556">
        <ele>616.34228515625</ele>
        <time>2011-04-17T08:11:37Z</time>
      </trkpt>
      <trkpt lat="47.05951" lon="6.2655">
        <ele>617.3037109375</ele>
        <time>2011-04-17T08:11:40Z</time>
      </trkpt>
      <trkpt lat="47.05946" lon="6.26532">
        <ele>618.74560546875</ele>
        <time>2011-04-17T08:11:49Z</time>
      </trkpt>
      <trkpt lat="47.05944" lon="6.26519">
        <ele>619.70703125</ele>
        <time>2011-04-17T08:11:56Z</time>
      </trkpt>
      <trkpt lat="47.05944" lon="6.26502">
        <ele>620.18774414062</ele>
        <time>2011-04-17T08:12:05Z</time>
      </trkpt>
      <trkpt lat="47.05943" lon="6.26484">
        <ele>623.55249023438</ele>
        <time>2011-04-17T08:12:14Z</time>
      </trkpt>
      <trkpt lat="47.05938" lon="6.26471">
        <ele>624.03295898438</ele>
        <time>2011-04-17T08:12:21Z</time>
      </trkpt>
      <trkpt lat="47.05934" lon="6.26458">
        <ele>625.95556640625</ele>
        <time>2011-04-17T08:12:28Z</time>
      </trkpt>
      <trkpt lat="47.05931" lon="6.26439">
        <ele>625.95556640625</ele>
        <time>2011-04-17T08:12:37Z</time>
      </trkpt>
      <trkpt lat="47.0593" lon="6.26419">
        <ele>627.39770507812</ele>
        <time>2011-04-17T08:12:45Z</time>
      </trkpt>
      <trkpt lat="47.0593" lon="6.26405">
        <ele>628.35888671875</ele>
        <time>2011-04-17T08:12:52Z</time>
      </trkpt>
      <trkpt lat="47.05924" lon="6.26387">
        <ele>630.28149414062</ele>
        <time>2011-04-17T08:13:02Z</time>
      </trkpt>
      <trkpt lat="47.05923" lon="6.26376">
        <ele>631.24291992188</ele>
        <time>2011-04-17T08:13:08Z</time>
      </trkpt>
      <trkpt lat="47.05921" lon="6.26361">
        <ele>632.2041015625</ele>
        <time>2011-04-17T08:13:15Z</time>
      </trkpt>
      <trkpt lat="47.0592" lon="6.26357">
        <ele>633.16528320312</ele>
        <time>2011-04-17T08:13:17Z</time>
      </trkpt>
      <trkpt lat="47.0592" lon="6.26347">
        <ele>635.08813476562</ele>
        <time>2011-04-17T08:13:22Z</time>
      </trkpt>
      <trkpt lat="47.05923" lon="6.2633">
        <ele>637.0107421875</ele>
        <time>2011-04-17T08:13:30Z</time>
      </trkpt>
      <trkpt lat="47.05921" lon="6.26316">
        <ele>637.49145507812</ele>
        <time>2011-04-17T08:13:37Z</time>
      </trkpt>
      <trkpt lat="47.0592" lon="6.26314">
        <ele>637.0107421875</ele>
        <time>2011-04-17T08:13:38Z</time>
      </trkpt>
      <trkpt lat="47.05915" lon="6.26302">
        <ele>637.0107421875</ele>
        <time>2011-04-17T08:13:44Z</time>
      </trkpt>
      <trkpt lat="47.0591" lon="6.26287">
        <ele>637.49145507812</ele>
        <time>2011-04-17T08:13:51Z</time>
      </trkpt>
      <trkpt lat="47.05901" lon="6.26272">
        <ele>639.4140625</ele>
        <time>2011-04-17T08:13:59Z</time>
      </trkpt>
      <trkpt lat="47.05896" lon="6.26267">
        <ele>640.37548828125</ele>
        <time>2011-04-17T08:14:03Z</time>
      </trkpt>
      <trkpt lat="47.05892" lon="6.26255">
        <ele>642.29809570312</ele>
        <time>2011-04-17T08:14:10Z</time>
      </trkpt>
      <trkpt lat="47.0589" lon="6.26248">
        <ele>642.77880859375</ele>
        <time>2011-04-17T08:14:14Z</time>
      </trkpt>
      <trkpt lat="47.0589" lon="6.26245">
        <ele>643.25927734375</ele>
        <time>2011-04-17T08:14:16Z</time>
      </trkpt>
      <trkpt lat="47.05886" lon="6.26228">
        <ele>644.701171875</ele>
        <time>2011-04-17T08:14:24Z</time>
      </trkpt>
      <trkpt lat="47.05885" lon="6.26213">
        <ele>644.701171875</ele>
        <time>2011-04-17T08:14:30Z</time>
      </trkpt>
      <trkpt lat="47.05886" lon="6.2621">
        <ele>644.701171875</ele>
        <time>2011-04-17T08:14:33Z</time>
      </trkpt>
      <trkpt lat="47.05887" lon="6.26208">
        <ele>645.18188476562</ele>
        <time>2011-04-17T08:14:36Z</time>
      </trkpt>
      <trkpt lat="47.05886" lon="6.26202">
        <ele>649.5078125</ele>
        <time>2011-04-17T08:25:02Z</time>
      </trkpt>
      <trkpt lat="47.05886" lon="6.26201">
        <ele>649.5078125</ele>
        <time>2011-04-17T08:25:03Z</time>
      </trkpt>
      <trkpt lat="47.05886" lon="6.26198">
        <ele>649.98852539062</ele>
        <time>2011-04-17T08:25:04Z</time>
      </trkpt>
      <trkpt lat="47.05886" lon="6.26186">
        <ele>650.94970703125</ele>
        <time>2011-04-17T08:25:10Z</time>
      </trkpt>
      <trkpt lat="47.05886" lon="6.26175">
        <ele>651.43041992188</ele>
        <time>2011-04-17T08:25:15Z</time>
      </trkpt>
      <trkpt lat="47.05884" lon="6.2616">
        <ele>652.87255859375</ele>
        <time>2011-04-17T08:25:21Z</time>
      </trkpt>
      <trkpt lat="47.05884" lon="6.26156">
        <ele>653.833984375</ele>
        <time>2011-04-17T08:25:23Z</time>
      </trkpt>
      <trkpt lat="47.05883" lon="6.26144">
        <ele>656.23706054688</ele>
        <time>2011-04-17T08:25:29Z</time>
      </trkpt>
      <trkpt lat="47.05881" lon="6.26133">
        <ele>656.23706054688</ele>
        <time>2011-04-17T08:25:34Z</time>
      </trkpt>
      <trkpt lat="47.0588" lon="6.26128">
        <ele>656.7177734375</ele>
        <time>2011-04-17T08:25:36Z</time>
      </trkpt>
      <trkpt lat="47.05875" lon="6.26118">
        <ele>657.19848632812</ele>
        <time>2011-04-17T08:25:40Z</time>
      </trkpt>
      <trkpt lat="47.05873" lon="6.26102">
        <ele>658.15991210938</ele>
        <time>2011-04-17T08:25:47Z</time>
      </trkpt>
      <trkpt lat="47.05873" lon="6.261">
        <ele>658.15991210938</ele>
        <time>2011-04-17T08:25:48Z</time>
      </trkpt>
      <trkpt lat="47.05873" lon="6.26082">
        <ele>660.08227539062</ele>
        <time>2011-04-17T08:25:57Z</time>
      </trkpt>
      <trkpt lat="47.05875" lon="6.26064">
        <ele>662.48559570312</ele>
        <time>2011-04-17T08:26:07Z</time>
      </trkpt>
      <trkpt lat="47.05876" lon="6.26057">
        <ele>663.44702148438</ele>
        <time>2011-04-17T08:26:11Z</time>
      </trkpt>
      <trkpt lat="47.05876" lon="6.26046">
        <ele>664.88891601562</ele>
        <time>2011-04-17T08:26:18Z</time>
      </trkpt>
      <trkpt lat="47.05875" lon="6.26037">
        <ele>665.36962890625</ele>
        <time>2011-04-17T08:26:23Z</time>
      </trkpt>
      <trkpt lat="47.0587" lon="6.26015">
        <ele>666.8115234375</ele>
        <time>2011-04-17T08:26:33Z</time>
      </trkpt>
      <trkpt lat="47.05869" lon="6.26001">
        <ele>668.25366210938</ele>
        <time>2011-04-17T08:26:39Z</time>
      </trkpt>
      <trkpt lat="47.05869" lon="6.25987">
        <ele>670.17626953125</ele>
        <time>2011-04-17T08:26:46Z</time>
      </trkpt>
      <trkpt lat="47.05871" lon="6.25972">
        <ele>670.65698242188</ele>
        <time>2011-04-17T08:26:53Z</time>
      </trkpt>
      <trkpt lat="47.05871" lon="6.25957">
        <ele>672.09887695312</ele>
        <time>2011-04-17T08:27:00Z</time>
      </trkpt>
      <trkpt lat="47.0587" lon="6.25952">
        <ele>673.541015625</ele>
        <time>2011-04-17T08:27:03Z</time>
      </trkpt>
      <trkpt lat="47.05867" lon="6.25942">
        <ele>674.50219726562</ele>
        <time>2011-04-17T08:27:09Z</time>
      </trkpt>
      <trkpt lat="47.05861" lon="6.25932">
        <ele>675.46337890625</ele>
        <time>2011-04-17T08:27:15Z</time>
      </trkpt>
      <trkpt lat="47.05856" lon="6.2592">
        <ele>676.4248046875</ele>
        <time>2011-04-17T08:27:22Z</time>
      </trkpt>
      <trkpt lat="47.05849" lon="6.25909">
        <ele>677.38623046875</ele>
        <time>2011-04-17T08:27:28Z</time>
      </trkpt>
      <trkpt lat="47.05843" lon="6.25896">
        <ele>677.86669921875</ele>
        <time>2011-04-17T08:27:34Z</time>
      </trkpt>
      <trkpt lat="47.05837" lon="6.25884">
        <ele>678.34741210938</ele>
        <time>2011-04-17T08:27:41Z</time>
      </trkpt>
      <trkpt lat="47.0583" lon="6.25872">
        <ele>679.78930664062</ele>
        <time>2011-04-17T08:27:49Z</time>
      </trkpt>
      <trkpt lat="47.05826" lon="6.25864">
        <ele>681.2314453125</ele>
        <time>2011-04-17T08:27:55Z</time>
      </trkpt>
      <trkpt lat="47.05825" lon="6.25859">
        <ele>682.67333984375</ele>
        <time>2011-04-17T08:27:57Z</time>
      </trkpt>
      <trkpt lat="47.05822" lon="6.25848">
        <ele>685.55737304688</ele>
        <time>2011-04-17T08:28:04Z</time>
      </trkpt>
      <trkpt lat="47.05809" lon="6.25832">
        <ele>687.47998046875</ele>
        <time>2011-04-17T08:28:12Z</time>
      </trkpt>
      <trkpt lat="47.05807" lon="6.2583">
        <ele>687.96069335938</ele>
        <time>2011-04-17T08:28:13Z</time>
      </trkpt>
      <trkpt lat="47.05792" lon="6.25811">
        <ele>686.99926757812</ele>
        <time>2011-04-17T08:28:20Z</time>
      </trkpt>
      <trkpt lat="47.05778" lon="6.25789">
        <ele>686.99926757812</ele>
        <time>2011-04-17T08:28:27Z</time>
      </trkpt>
      <trkpt lat="47.0577" lon="6.25775">
        <ele>687.47998046875</ele>
        <time>2011-04-17T08:28:32Z</time>
      </trkpt>
      <trkpt lat="47.05761" lon="6.2576">
        <ele>688.92211914062</ele>
        <time>2011-04-17T08:28:38Z</time>
      </trkpt>
      <trkpt lat="47.05754" lon="6.25738">
        <ele>689.40258789062</ele>
        <time>2011-04-17T08:28:44Z</time>
      </trkpt>
      <trkpt lat="47.05754" lon="6.25716">
        <ele>691.80590820312</ele>
        <time>2011-04-17T08:28:50Z</time>
      </trkpt>
      <trkpt lat="47.05751" lon="6.25704">
        <ele>692.28662109375</ele>
        <time>2011-04-17T08:28:55Z</time>
      </trkpt>
      <trkpt lat="47.05746" lon="6.25686">
        <ele>693.24780273438</ele>
        <time>2011-04-17T08:29:01Z</time>
      </trkpt>
      <trkpt lat="47.0574" lon="6.2565">
        <ele>694.68969726562</ele>
        <time>2011-04-17T08:29:13Z</time>
      </trkpt>
      <trkpt lat="47.05734" lon="6.25622">
        <ele>696.61254882812</ele>
        <time>2011-04-17T08:29:23Z</time>
      </trkpt>
      <trkpt lat="47.05727" lon="6.25604">
        <ele>696.61254882812</ele>
        <time>2011-04-17T08:29:30Z</time>
      </trkpt>
      <trkpt lat="47.05719" lon="6.25592">
        <ele>696.61254882812</ele>
        <time>2011-04-17T08:29:36Z</time>
      </trkpt>
      <trkpt lat="47.05715" lon="6.25577">
        <ele>697.57373046875</ele>
        <time>2011-04-17T08:29:42Z</time>
      </trkpt>
      <trkpt lat="47.05711" lon="6.25558">
        <ele>699.49633789062</ele>
        <time>2011-04-17T08:29:50Z</time>
      </trkpt>
      <trkpt lat="47.0571" lon="6.25541">
        <ele>700.9384765625</ele>
        <time>2011-04-17T08:29:58Z</time>
      </trkpt>
      <trkpt lat="47.05708" lon="6.25524">
        <ele>702.38037109375</ele>
        <time>2011-04-17T08:30:05Z</time>
      </trkpt>
      <trkpt lat="47.05706" lon="6.25505">
        <ele>702.86108398438</ele>
        <time>2011-04-17T08:30:11Z</time>
      </trkpt>
      <trkpt lat="47.05703" lon="6.25486">
        <ele>703.82250976562</ele>
        <time>2011-04-17T08:30:18Z</time>
      </trkpt>
      <trkpt lat="47.057" lon="6.25468">
        <ele>706.2255859375</ele>
        <time>2011-04-17T08:30:26Z</time>
      </trkpt>
      <trkpt lat="47.05699" lon="6.25446">
        <ele>707.18701171875</ele>
        <time>2011-04-17T08:30:34Z</time>
      </trkpt>
      <trkpt lat="47.05695" lon="6.2542">
        <ele>708.62890625</ele>
        <time>2011-04-17T08:30:44Z</time>
      </trkpt>
      <trkpt lat="47.05691" lon="6.25398">
        <ele>709.59033203125</ele>
        <time>2011-04-17T08:30:52Z</time>
      </trkpt>
      <trkpt lat="47.05687" lon="6.25376">
        <ele>711.0322265625</ele>
        <time>2011-04-17T08:31:00Z</time>
      </trkpt>
      <trkpt lat="47.05682" lon="6.25356">
        <ele>711.99365234375</ele>
        <time>2011-04-17T08:31:08Z</time>
      </trkpt>
      <trkpt lat="47.0568" lon="6.25339">
        <ele>713.916015625</ele>
        <time>2011-04-17T08:31:14Z</time>
      </trkpt>
      <trkpt lat="47.05685" lon="6.25318">
        <ele>712.95483398438</ele>
        <time>2011-04-17T08:31:19Z</time>
      </trkpt>
      <trkpt lat="47.05685" lon="6.25283">
        <ele>710.55151367188</ele>
        <time>2011-04-17T08:31:24Z</time>
      </trkpt>
      <trkpt lat="47.05685" lon="6.25264">
        <ele>709.10961914062</ele>
        <time>2011-04-17T08:31:26Z</time>
      </trkpt>
      <trkpt lat="47.05684" lon="6.25219">
        <ele>707.18701171875</ele>
        <time>2011-04-17T08:31:31Z</time>
      </trkpt>
      <trkpt lat="47.05679" lon="6.25214">
        <ele>706.70629882812</ele>
        <time>2011-04-17T08:31:32Z</time>
      </trkpt>
      <trkpt lat="47.05669" lon="6.25207">
        <ele>707.18701171875</ele>
        <time>2011-04-17T08:31:34Z</time>
      </trkpt>
      <trkpt lat="47.05646" lon="6.25181">
        <ele>708.62890625</ele>
        <time>2011-04-17T08:31:40Z</time>
      </trkpt>
      <trkpt lat="47.05637" lon="6.25171">
        <ele>711.0322265625</ele>
        <time>2011-04-17T08:31:43Z</time>
      </trkpt>
      <trkpt lat="47.0562" lon="6.25162">
        <ele>712.95483398438</ele>
        <time>2011-04-17T08:31:48Z</time>
      </trkpt>
      <trkpt lat="47.05605" lon="6.25151">
        <ele>714.39672851562</ele>
        <time>2011-04-17T08:31:53Z</time>
      </trkpt>
      <trkpt lat="47.05593" lon="6.25144">
        <ele>715.35815429688</ele>
        <time>2011-04-17T08:31:58Z</time>
      </trkpt>
      <trkpt lat="47.05582" lon="6.25121">
        <ele>716.31958007812</ele>
        <time>2011-04-17T08:32:06Z</time>
      </trkpt>
      <trkpt lat="47.05572" lon="6.25085">
        <ele>717.28100585938</ele>
        <time>2011-04-17T08:32:17Z</time>
      </trkpt>
      <trkpt lat="47.0557" lon="6.25068">
        <ele>718.2421875</ele>
        <time>2011-04-17T08:32:22Z</time>
      </trkpt>
      <trkpt lat="47.05568" lon="6.25046">
        <ele>718.2421875</ele>
        <time>2011-04-17T08:32:28Z</time>
      </trkpt>
      <trkpt lat="47.05571" lon="6.25019">
        <ele>718.72290039062</ele>
        <time>2011-04-17T08:32:35Z</time>
      </trkpt>
      <trkpt lat="47.05582" lon="6.24991">
        <ele>720.6455078125</ele>
        <time>2011-04-17T08:32:43Z</time>
      </trkpt>
      <trkpt lat="47.0559" lon="6.24965">
        <ele>723.048828125</ele>
        <time>2011-04-17T08:32:51Z</time>
      </trkpt>
      <trkpt lat="47.05587" lon="6.2494">
        <ele>723.52954101562</ele>
        <time>2011-04-17T08:32:58Z</time>
      </trkpt>
      <trkpt lat="47.05576" lon="6.24909">
        <ele>724.49072265625</ele>
        <time>2011-04-17T08:33:06Z</time>
      </trkpt>
      <trkpt lat="47.05567" lon="6.24879">
        <ele>724.97143554688</ele>
        <time>2011-04-17T08:33:13Z</time>
      </trkpt>
      <trkpt lat="47.05564" lon="6.24845">
        <ele>724.97143554688</ele>
        <time>2011-04-17T08:33:20Z</time>
      </trkpt>
      <trkpt lat="47.05565" lon="6.24811">
        <ele>726.89404296875</ele>
        <time>2011-04-17T08:33:28Z</time>
      </trkpt>
      <trkpt lat="47.05569" lon="6.24762">
        <ele>727.85522460938</ele>
        <time>2011-04-17T08:33:41Z</time>
      </trkpt>
      <trkpt lat="47.05571" lon="6.24718">
        <ele>728.3359375</ele>
        <time>2011-04-17T08:33:51Z</time>
      </trkpt>
      <trkpt lat="47.0557" lon="6.24686">
        <ele>729.29711914062</ele>
        <time>2011-04-17T08:33:58Z</time>
      </trkpt>
      <trkpt lat="47.05564" lon="6.24651">
        <ele>729.29711914062</ele>
        <time>2011-04-17T08:34:05Z</time>
      </trkpt>
      <trkpt lat="47.0556" lon="6.24632">
        <ele>728.81665039062</ele>
        <time>2011-04-17T08:34:09Z</time>
      </trkpt>
      <trkpt lat="47.05545" lon="6.24595">
        <ele>727.37475585938</ele>
        <time>2011-04-17T08:34:16Z</time>
      </trkpt>
      <trkpt lat="47.05537" lon="6.24578">
        <ele>727.85522460938</ele>
        <time>2011-04-17T08:34:19Z</time>
      </trkpt>
      <trkpt lat="47.05523" lon="6.24561">
        <ele>726.89404296875</ele>
        <time>2011-04-17T08:34:23Z</time>
      </trkpt>
      <trkpt lat="47.05513" lon="6.24554">
        <ele>725.9326171875</ele>
        <time>2011-04-17T08:34:25Z</time>
      </trkpt>
      <trkpt lat="47.05491" lon="6.24545">
        <ele>722.08740234375</ele>
        <time>2011-04-17T08:34:29Z</time>
      </trkpt>
      <trkpt lat="47.05479" lon="6.2454">
        <ele>721.12622070312</ele>
        <time>2011-04-17T08:34:31Z</time>
      </trkpt>
      <trkpt lat="47.05468" lon="6.24535">
        <ele>720.16479492188</ele>
        <time>2011-04-17T08:34:33Z</time>
      </trkpt>
      <trkpt lat="47.05449" lon="6.24526">
        <ele>718.72290039062</ele>
        <time>2011-04-17T08:34:36Z</time>
      </trkpt>
      <trkpt lat="47.05436" lon="6.24507">
        <ele>718.2421875</ele>
        <time>2011-04-17T08:34:40Z</time>
      </trkpt>
      <trkpt lat="47.05442" lon="6.24478">
        <ele>718.72290039062</ele>
        <time>2011-04-17T08:34:45Z</time>
      </trkpt>
      <trkpt lat="47.05446" lon="6.24451">
        <ele>719.68432617188</ele>
        <time>2011-04-17T08:34:50Z</time>
      </trkpt>
      <trkpt lat="47.05449" lon="6.24429">
        <ele>719.68432617188</ele>
        <time>2011-04-17T08:34:54Z</time>
      </trkpt>
      <trkpt lat="47.05457" lon="6.24393">
        <ele>719.20361328125</ele>
        <time>2011-04-17T08:35:00Z</time>
      </trkpt>
      <trkpt lat="47.05458" lon="6.2438">
        <ele>719.20361328125</ele>
        <time>2011-04-17T08:35:02Z</time>
      </trkpt>
      <trkpt lat="47.05467" lon="6.24352">
        <ele>720.16479492188</ele>
        <time>2011-04-17T08:35:07Z</time>
      </trkpt>
      <trkpt lat="47.05484" lon="6.24346">
        <ele>721.60668945312</ele>
        <time>2011-04-17T08:35:12Z</time>
      </trkpt>
      <trkpt lat="47.05486" lon="6.24346">
        <ele>721.60668945312</ele>
        <time>2011-04-17T08:35:13Z</time>
      </trkpt>
      <trkpt lat="47.05503" lon="6.24341">
        <ele>723.52954101562</ele>
        <time>2011-04-17T08:35:19Z</time>
      </trkpt>
      <trkpt lat="47.05518" lon="6.24332">
        <ele>723.048828125</ele>
        <time>2011-04-17T08:35:24Z</time>
      </trkpt>
      <trkpt lat="47.05539" lon="6.24316">
        <ele>722.56811523438</ele>
        <time>2011-04-17T08:35:30Z</time>
      </trkpt>
      <trkpt lat="47.05547" lon="6.24312">
        <ele>720.6455078125</ele>
        <time>2011-04-17T08:35:32Z</time>
      </trkpt>
      <trkpt lat="47.05564" lon="6.24295">
        <ele>719.68432617188</ele>
        <time>2011-04-17T08:35:36Z</time>
      </trkpt>
      <trkpt lat="47.05574" lon="6.24285">
        <ele>719.20361328125</ele>
        <time>2011-04-17T08:35:38Z</time>
      </trkpt>
      <trkpt lat="47.05584" lon="6.24265">
        <ele>718.72290039062</ele>
        <time>2011-04-17T08:35:42Z</time>
      </trkpt>
      <trkpt lat="47.05584" lon="6.24255">
        <ele>718.2421875</ele>
        <time>2011-04-17T08:35:44Z</time>
      </trkpt>
      <trkpt lat="47.05576" lon="6.24236">
        <ele>716.80029296875</ele>
        <time>2011-04-17T08:35:47Z</time>
      </trkpt>
      <trkpt lat="47.05573" lon="6.24218">
        <ele>716.31958007812</ele>
        <time>2011-04-17T08:35:49Z</time>
      </trkpt>
      <trkpt lat="47.05571" lon="6.24202">
        <ele>713.916015625</ele>
        <time>2011-04-17T08:35:51Z</time>
      </trkpt>
      <trkpt lat="47.05585" lon="6.2418">
        <ele>710.55151367188</ele>
        <time>2011-04-17T08:35:55Z</time>
      </trkpt>
      <trkpt lat="47.05594" lon="6.24171">
        <ele>709.59033203125</ele>
        <time>2011-04-17T08:35:57Z</time>
      </trkpt>
      <trkpt lat="47.05598" lon="6.24148">
        <ele>706.70629882812</ele>
        <time>2011-04-17T08:36:01Z</time>
      </trkpt>
      <trkpt lat="47.05596" lon="6.24143">
        <ele>706.2255859375</ele>
        <time>2011-04-17T08:36:02Z</time>
      </trkpt>
      <trkpt lat="47.05589" lon="6.24128">
        <ele>702.38037109375</ele>
        <time>2011-04-17T08:36:05Z</time>
      </trkpt>
      <trkpt lat="47.05589" lon="6.24095">
        <ele>696.1318359375</ele>
        <time>2011-04-17T08:36:10Z</time>
      </trkpt>
      <trkpt lat="47.05587" lon="6.24077">
        <ele>692.76733398438</ele>
        <time>2011-04-17T08:36:13Z</time>
      </trkpt>
      <trkpt lat="47.05585" lon="6.24058">
        <ele>689.88330078125</ele>
        <time>2011-04-17T08:36:17Z</time>
      </trkpt>
      <trkpt lat="47.05591" lon="6.24048">
        <ele>691.3251953125</ele>
        <time>2011-04-17T08:36:21Z</time>
      </trkpt>
      <trkpt lat="47.05592" lon="6.24048">
        <ele>691.3251953125</ele>
        <time>2011-04-17T08:36:22Z</time>
      </trkpt>
      <trkpt lat="47.05593" lon="6.24048">
        <ele>691.3251953125</ele>
        <time>2011-04-17T08:36:25Z</time>
      </trkpt>
      <trkpt lat="47.05598" lon="6.24043">
        <ele>692.76733398438</ele>
        <time>2011-04-17T08:36:27Z</time>
      </trkpt>
      <trkpt lat="47.05599" lon="6.24041">
        <ele>693.24780273438</ele>
        <time>2011-04-17T08:36:29Z</time>
      </trkpt>
      <trkpt lat="47.05609" lon="6.24033">
        <ele>694.68969726562</ele>
        <time>2011-04-17T08:36:37Z</time>
      </trkpt>
      <trkpt lat="47.05615" lon="6.24029">
        <ele>696.1318359375</ele>
        <time>2011-04-17T08:36:43Z</time>
      </trkpt>
      <trkpt lat="47.05616" lon="6.24027">
        <ele>696.1318359375</ele>
        <time>2011-04-17T08:36:47Z</time>
      </trkpt>
      <trkpt lat="47.05624" lon="6.2402">
        <ele>696.61254882812</ele>
        <time>2011-04-17T08:36:52Z</time>
      </trkpt>
      <trkpt lat="47.05635" lon="6.24013">
        <ele>696.61254882812</ele>
        <time>2011-04-17T08:36:58Z</time>
      </trkpt>
      <trkpt lat="47.05651" lon="6.24001">
        <ele>697.09301757812</ele>
        <time>2011-04-17T08:37:03Z</time>
      </trkpt>
      <trkpt lat="47.05671" lon="6.23987">
        <ele>696.61254882812</ele>
        <time>2011-04-17T08:37:08Z</time>
      </trkpt>
      <trkpt lat="47.0569" lon="6.23974">
        <ele>696.1318359375</ele>
        <time>2011-04-17T08:37:13Z</time>
      </trkpt>
      <trkpt lat="47.05711" lon="6.23959">
        <ele>696.1318359375</ele>
        <time>2011-04-17T08:37:19Z</time>
      </trkpt>
      <trkpt lat="47.05728" lon="6.23946">
        <ele>694.68969726562</ele>
        <time>2011-04-17T08:37:24Z</time>
      </trkpt>
      <trkpt lat="47.05749" lon="6.23932">
        <ele>690.84448242188</ele>
        <time>2011-04-17T08:37:28Z</time>
      </trkpt>
      <trkpt lat="47.05773" lon="6.23917">
        <ele>692.76733398438</ele>
        <time>2011-04-17T08:37:32Z</time>
      </trkpt>
      <trkpt lat="47.0578" lon="6.23912">
        <ele>693.728515625</ele>
        <time>2011-04-17T08:37:34Z</time>
      </trkpt>
      <trkpt lat="47.05785" lon="6.2391">
        <ele>693.728515625</ele>
        <time>2011-04-17T08:37:37Z</time>
      </trkpt>
      <trkpt lat="47.05786" lon="6.2391">
        <ele>693.728515625</ele>
        <time>2011-04-17T08:37:38Z</time>
      </trkpt>
      <trkpt lat="47.05787" lon="6.2391">
        <ele>693.728515625</ele>
        <time>2011-04-17T08:37:41Z</time>
      </trkpt>
      <trkpt lat="47.05787" lon="6.2391">
        <ele>694.20922851562</ele>
        <time>2011-04-17T08:37:42Z</time>
      </trkpt>
      <trkpt lat="47.05793" lon="6.23907">
        <ele>695.65112304688</ele>
        <time>2011-04-17T08:37:51Z</time>
      </trkpt>
      <trkpt lat="47.05798" lon="6.23903">
        <ele>698.05444335938</ele>
        <time>2011-04-17T08:37:58Z</time>
      </trkpt>
      <trkpt lat="47.05802" lon="6.239">
        <ele>698.53491210938</ele>
        <time>2011-04-17T08:38:04Z</time>
      </trkpt>
      <trkpt lat="47.05808" lon="6.23896">
        <ele>699.97705078125</ele>
        <time>2011-04-17T08:38:11Z</time>
      </trkpt>
      <trkpt lat="47.0581" lon="6.23895">
        <ele>699.97705078125</ele>
        <time>2011-04-17T08:38:13Z</time>
      </trkpt>
      <trkpt lat="47.0581" lon="6.23894">
        <ele>700.4580078125</ele>
        <time>2011-04-17T08:38:16Z</time>
      </trkpt>
      <trkpt lat="47.05812" lon="6.23894">
        <ele>700.4580078125</ele>
        <time>2011-04-17T08:38:17Z</time>
      </trkpt>
      <trkpt lat="47.05812" lon="6.23894">
        <ele>700.4580078125</ele>
        <time>2011-04-17T08:38:20Z</time>
      </trkpt>
      <trkpt lat="47.05813" lon="6.23893">
        <ele>700.4580078125</ele>
        <time>2011-04-17T08:38:21Z</time>
      </trkpt>
      <trkpt lat="47.05823" lon="6.23887">
        <ele>701.89990234375</ele>
        <time>2011-04-17T08:38:26Z</time>
      </trkpt>
      <trkpt lat="47.05835" lon="6.23878">
        <ele>703.341796875</ele>
        <time>2011-04-17T08:38:33Z</time>
      </trkpt>
      <trkpt lat="47.05844" lon="6.23872">
        <ele>703.82250976562</ele>
        <time>2011-04-17T08:38:38Z</time>
      </trkpt>
      <trkpt lat="47.05856" lon="6.23863">
        <ele>704.30322265625</ele>
        <time>2011-04-17T08:38:44Z</time>
      </trkpt>
      <trkpt lat="47.05871" lon="6.23851">
        <ele>703.82250976562</ele>
        <time>2011-04-17T08:38:51Z</time>
      </trkpt>
      <trkpt lat="47.05887" lon="6.23841">
        <ele>704.30322265625</ele>
        <time>2011-04-17T08:38:56Z</time>
      </trkpt>
      <trkpt lat="47.05912" lon="6.23828">
        <ele>702.86108398438</ele>
        <time>2011-04-17T08:39:03Z</time>
      </trkpt>
      <trkpt lat="47.05932" lon="6.23821">
        <ele>701.41918945312</ele>
        <time>2011-04-17T08:39:07Z</time>
      </trkpt>
      <trkpt lat="47.0596" lon="6.2381">
        <ele>699.49633789062</ele>
        <time>2011-04-17T08:39:13Z</time>
      </trkpt>
      <trkpt lat="47.05964" lon="6.2381">
        <ele>699.49633789062</ele>
        <time>2011-04-17T08:39:14Z</time>
      </trkpt>
      <trkpt lat="47.05978" lon="6.23804">
        <ele>699.49633789062</ele>
        <time>2011-04-17T08:39:18Z</time>
      </trkpt>
      <trkpt lat="47.05994" lon="6.23796">
        <ele>699.49633789062</ele>
        <time>2011-04-17T08:39:23Z</time>
      </trkpt>
      <trkpt lat="47.06005" lon="6.23792">
        <ele>698.53491210938</ele>
        <time>2011-04-17T08:39:27Z</time>
      </trkpt>
      <trkpt lat="47.06024" lon="6.23784">
        <ele>697.09301757812</ele>
        <time>2011-04-17T08:39:31Z</time>
      </trkpt>
      <trkpt lat="47.06034" lon="6.2378">
        <ele>696.61254882812</ele>
        <time>2011-04-17T08:39:33Z</time>
      </trkpt>
      <trkpt lat="47.06065" lon="6.23762">
        <ele>695.17041015625</ele>
        <time>2011-04-17T08:39:38Z</time>
      </trkpt>
      <trkpt lat="47.06079" lon="6.23757">
        <ele>692.28662109375</ele>
        <time>2011-04-17T08:39:40Z</time>
      </trkpt>
      <trkpt lat="47.06115" lon="6.2374">
        <ele>687.96069335938</ele>
        <time>2011-04-17T08:39:44Z</time>
      </trkpt>
      <trkpt lat="47.06133" lon="6.23733">
        <ele>684.59619140625</ele>
        <time>2011-04-17T08:39:46Z</time>
      </trkpt>
      <trkpt lat="47.06154" lon="6.23725">
        <ele>682.19262695312</ele>
        <time>2011-04-17T08:39:49Z</time>
      </trkpt>
      <trkpt lat="47.06171" lon="6.23718">
        <ele>680.75073242188</ele>
        <time>2011-04-17T08:39:53Z</time>
      </trkpt>
      <trkpt lat="47.06179" lon="6.23726">
        <ele>680.27001953125</ele>
        <time>2011-04-17T08:39:57Z</time>
      </trkpt>
      <trkpt lat="47.06182" lon="6.23734">
        <ele>680.27001953125</ele>
        <time>2011-04-17T08:39:59Z</time>
      </trkpt>
      <trkpt lat="47.06193" lon="6.2377">
        <ele>678.34741210938</ele>
        <time>2011-04-17T08:40:05Z</time>
      </trkpt>
      <trkpt lat="47.06203" lon="6.23796">
        <ele>677.86669921875</ele>
        <time>2011-04-17T08:40:09Z</time>
      </trkpt>
      <trkpt lat="47.06224" lon="6.23835">
        <ele>678.34741210938</ele>
        <time>2011-04-17T08:40:15Z</time>
      </trkpt>
      <trkpt lat="47.06246" lon="6.23882">
        <ele>678.828125</ele>
        <time>2011-04-17T08:40:22Z</time>
      </trkpt>
      <trkpt lat="47.06249" lon="6.23889">
        <ele>678.828125</ele>
        <time>2011-04-17T08:40:23Z</time>
      </trkpt>
      <trkpt lat="47.06256" lon="6.2391">
        <ele>678.34741210938</ele>
        <time>2011-04-17T08:40:26Z</time>
      </trkpt>
      <trkpt lat="47.0627" lon="6.2393">
        <ele>678.34741210938</ele>
        <time>2011-04-17T08:40:31Z</time>
      </trkpt>
      <trkpt lat="47.06279" lon="6.23927">
        <ele>677.86669921875</ele>
        <time>2011-04-17T08:40:34Z</time>
      </trkpt>
      <trkpt lat="47.06298" lon="6.23938">
        <ele>678.828125</ele>
        <time>2011-04-17T08:40:39Z</time>
      </trkpt>
      <trkpt lat="47.06322" lon="6.23975">
        <ele>680.27001953125</ele>
        <time>2011-04-17T08:40:48Z</time>
      </trkpt>
      <trkpt lat="47.0635" lon="6.24012">
        <ele>680.75073242188</ele>
        <time>2011-04-17T08:40:57Z</time>
      </trkpt>
      <trkpt lat="47.06378" lon="6.24047">
        <ele>681.2314453125</ele>
        <time>2011-04-17T08:41:05Z</time>
      </trkpt>
      <trkpt lat="47.064" lon="6.24073">
        <ele>681.2314453125</ele>
        <time>2011-04-17T08:41:11Z</time>
      </trkpt>
      <trkpt lat="47.06435" lon="6.24113">
        <ele>682.19262695312</ele>
        <time>2011-04-17T08:41:20Z</time>
      </trkpt>
      <trkpt lat="47.06461" lon="6.24144">
        <ele>681.2314453125</ele>
        <time>2011-04-17T08:41:27Z</time>
      </trkpt>
      <trkpt lat="47.06487" lon="6.24176">
        <ele>682.19262695312</ele>
        <time>2011-04-17T08:41:34Z</time>
      </trkpt>
      <trkpt lat="47.06507" lon="6.24181">
        <ele>684.11547851562</ele>
        <time>2011-04-17T08:41:39Z</time>
      </trkpt>
      <trkpt lat="47.06539" lon="6.24149">
        <ele>685.07690429688</ele>
        <time>2011-04-17T08:41:48Z</time>
      </trkpt>
      <trkpt lat="47.06578" lon="6.24114">
        <ele>686.99926757812</ele>
        <time>2011-04-17T08:41:59Z</time>
      </trkpt>
      <trkpt lat="47.0661" lon="6.24091">
        <ele>689.88330078125</ele>
        <time>2011-04-17T08:42:08Z</time>
      </trkpt>
      <trkpt lat="47.06643" lon="6.24074">
        <ele>689.88330078125</ele>
        <time>2011-04-17T08:42:17Z</time>
      </trkpt>
      <trkpt lat="47.06668" lon="6.24065">
        <ele>692.28662109375</ele>
        <time>2011-04-17T08:42:24Z</time>
      </trkpt>
      <trkpt lat="47.06704" lon="6.24056">
        <ele>691.3251953125</ele>
        <time>2011-04-17T08:42:34Z</time>
      </trkpt>
      <trkpt lat="47.06738" lon="6.24049">
        <ele>694.20922851562</ele>
        <time>2011-04-17T08:42:44Z</time>
      </trkpt>
      <trkpt lat="47.06773" lon="6.24039">
        <ele>696.1318359375</ele>
        <time>2011-04-17T08:42:54Z</time>
      </trkpt>
      <trkpt lat="47.06805" lon="6.24033">
        <ele>697.57373046875</ele>
        <time>2011-04-17T08:43:03Z</time>
      </trkpt>
      <trkpt lat="47.06835" lon="6.24016">
        <ele>700.9384765625</ele>
        <time>2011-04-17T08:43:12Z</time>
      </trkpt>
      <trkpt lat="47.06865" lon="6.23996">
        <ele>701.41918945312</ele>
        <time>2011-04-17T08:43:21Z</time>
      </trkpt>
      <trkpt lat="47.06902" lon="6.23972">
        <ele>701.41918945312</ele>
        <time>2011-04-17T08:43:30Z</time>
      </trkpt>
      <trkpt lat="47.06939" lon="6.23953">
        <ele>700.4580078125</ele>
        <time>2011-04-17T08:43:38Z</time>
      </trkpt>
      <trkpt lat="47.0697" lon="6.23938">
        <ele>699.97705078125</ele>
        <time>2011-04-17T08:43:44Z</time>
      </trkpt>
      <trkpt lat="47.0698" lon="6.23932">
        <ele>699.49633789062</ele>
        <time>2011-04-17T08:43:46Z</time>
      </trkpt>
      <trkpt lat="47.07002" lon="6.23903">
        <ele>698.53491210938</ele>
        <time>2011-04-17T08:43:51Z</time>
      </trkpt>
      <trkpt lat="47.07032" lon="6.23842">
        <ele>694.68969726562</ele>
        <time>2011-04-17T08:43:58Z</time>
      </trkpt>
      <trkpt lat="47.07048" lon="6.23812">
        <ele>692.28662109375</ele>
        <time>2011-04-17T08:44:01Z</time>
      </trkpt>
      <trkpt lat="47.07077" lon="6.23753">
        <ele>690.36401367188</ele>
        <time>2011-04-17T08:44:06Z</time>
      </trkpt>
      <trkpt lat="47.0709" lon="6.23726">
        <ele>688.92211914062</ele>
        <time>2011-04-17T08:44:08Z</time>
      </trkpt>
      <trkpt lat="47.07111" lon="6.23685">
        <ele>686.51879882812</ele>
        <time>2011-04-17T08:44:11Z</time>
      </trkpt>
      <trkpt lat="47.0714" lon="6.23631">
        <ele>683.15380859375</ele>
        <time>2011-04-17T08:44:15Z</time>
      </trkpt>
      <trkpt lat="47.07178" lon="6.23565">
        <ele>680.27001953125</ele>
        <time>2011-04-17T08:44:20Z</time>
      </trkpt>
      <trkpt lat="47.07217" lon="6.23529">
        <ele>677.38623046875</ele>
        <time>2011-04-17T08:44:24Z</time>
      </trkpt>
      <trkpt lat="47.07248" lon="6.23504">
        <ele>674.50219726562</ele>
        <time>2011-04-17T08:44:27Z</time>
      </trkpt>
      <trkpt lat="47.0728" lon="6.23457">
        <ele>670.65698242188</ele>
        <time>2011-04-17T08:44:31Z</time>
      </trkpt>
      <trkpt lat="47.07294" lon="6.2341">
        <ele>667.77270507812</ele>
        <time>2011-04-17T08:44:34Z</time>
      </trkpt>
      <trkpt lat="47.07304" lon="6.23361">
        <ele>665.85034179688</ele>
        <time>2011-04-17T08:44:38Z</time>
      </trkpt>
      <trkpt lat="47.07314" lon="6.2332">
        <ele>662.48559570312</ele>
        <time>2011-04-17T08:44:42Z</time>
      </trkpt>
      <trkpt lat="47.07324" lon="6.23265">
        <ele>661.04370117188</ele>
        <time>2011-04-17T08:44:47Z</time>
      </trkpt>
      <trkpt lat="47.07341" lon="6.23221">
        <ele>659.60180664062</ele>
        <time>2011-04-17T08:44:51Z</time>
      </trkpt>
      <trkpt lat="47.07375" lon="6.23166">
        <ele>655.75659179688</ele>
        <time>2011-04-17T08:44:56Z</time>
      </trkpt>
      <trkpt lat="47.07407" lon="6.23107">
        <ele>653.35327148438</ele>
        <time>2011-04-17T08:45:01Z</time>
      </trkpt>
      <trkpt lat="47.07416" lon="6.23078">
        <ele>652.87255859375</ele>
        <time>2011-04-17T08:45:04Z</time>
      </trkpt>
      <trkpt lat="47.07411" lon="6.23065">
        <ele>652.87255859375</ele>
        <time>2011-04-17T08:45:06Z</time>
      </trkpt>
      <trkpt lat="47.07404" lon="6.23058">
        <ele>653.35327148438</ele>
        <time>2011-04-17T08:45:09Z</time>
      </trkpt>
      <trkpt lat="47.07408" lon="6.23046">
        <ele>652.87255859375</ele>
        <time>2011-04-17T08:45:13Z</time>
      </trkpt>
      <trkpt lat="47.07408" lon="6.23036">
        <ele>652.87255859375</ele>
        <time>2011-04-17T08:45:15Z</time>
      </trkpt>
      <trkpt lat="47.07409" lon="6.23026">
        <ele>652.39184570312</ele>
        <time>2011-04-17T08:45:17Z</time>
      </trkpt>
      <trkpt lat="47.07421" lon="6.22988">
        <ele>650.94970703125</ele>
        <time>2011-04-17T08:45:23Z</time>
      </trkpt>
      <trkpt lat="47.07425" lon="6.22981">
        <ele>650.46923828125</ele>
        <time>2011-04-17T08:45:24Z</time>
      </trkpt>
      <trkpt lat="47.07436" lon="6.22961">
        <ele>650.94970703125</ele>
        <time>2011-04-17T08:45:27Z</time>
      </trkpt>
      <trkpt lat="47.07443" lon="6.22941">
        <ele>649.98852539062</ele>
        <time>2011-04-17T08:45:30Z</time>
      </trkpt>
      <trkpt lat="47.07463" lon="6.22914">
        <ele>648.54638671875</ele>
        <time>2011-04-17T08:45:34Z</time>
      </trkpt>
      <trkpt lat="47.07469" lon="6.2291">
        <ele>648.54638671875</ele>
        <time>2011-04-17T08:45:35Z</time>
      </trkpt>
      <trkpt lat="47.07483" lon="6.22905">
        <ele>647.58520507812</ele>
        <time>2011-04-17T08:45:37Z</time>
      </trkpt>
      <trkpt lat="47.07516" lon="6.22881">
        <ele>646.6240234375</ele>
        <time>2011-04-17T08:45:42Z</time>
      </trkpt>
      <trkpt lat="47.07541" lon="6.22881">
        <ele>647.1044921875</ele>
        <time>2011-04-17T08:45:46Z</time>
      </trkpt>
      <trkpt lat="47.07563" lon="6.22903">
        <ele>646.14331054688</ele>
        <time>2011-04-17T08:45:50Z</time>
      </trkpt>
      <trkpt lat="47.07575" lon="6.22914">
        <ele>645.66259765625</ele>
        <time>2011-04-17T08:45:52Z</time>
      </trkpt>
      <trkpt lat="47.07592" lon="6.22913">
        <ele>645.18188476562</ele>
        <time>2011-04-17T08:45:55Z</time>
      </trkpt>
      <trkpt lat="47.076" lon="6.22899">
        <ele>645.18188476562</ele>
        <time>2011-04-17T08:45:57Z</time>
      </trkpt>
      <trkpt lat="47.07629" lon="6.22844">
        <ele>641.33666992188</ele>
        <time>2011-04-17T08:46:03Z</time>
      </trkpt>
      <trkpt lat="47.0764" lon="6.22823">
        <ele>639.4140625</ele>
        <time>2011-04-17T08:46:05Z</time>
      </trkpt>
      <trkpt lat="47.07664" lon="6.22772">
        <ele>637.97216796875</ele>
        <time>2011-04-17T08:46:10Z</time>
      </trkpt>
      <trkpt lat="47.07687" lon="6.22707">
        <ele>637.97216796875</ele>
        <time>2011-04-17T08:46:16Z</time>
      </trkpt>
      <trkpt lat="47.07705" lon="6.22633">
        <ele>635.08813476562</ele>
        <time>2011-04-17T08:46:22Z</time>
      </trkpt>
      <trkpt lat="47.07718" lon="6.22556">
        <ele>635.08813476562</ele>
        <time>2011-04-17T08:46:28Z</time>
      </trkpt>
      <trkpt lat="47.0772" lon="6.22544">
        <ele>635.08813476562</ele>
        <time>2011-04-17T08:46:29Z</time>
      </trkpt>
      <trkpt lat="47.07717" lon="6.225">
        <ele>635.08813476562</ele>
        <time>2011-04-17T08:46:33Z</time>
      </trkpt>
      <trkpt lat="47.0771" lon="6.22483">
        <ele>635.56860351562</ele>
        <time>2011-04-17T08:46:35Z</time>
      </trkpt>
      <trkpt lat="47.07692" lon="6.22452">
        <ele>636.5302734375</ele>
        <time>2011-04-17T08:46:40Z</time>
      </trkpt>
      <trkpt lat="47.07677" lon="6.22418">
        <ele>638.45288085938</ele>
        <time>2011-04-17T08:46:47Z</time>
      </trkpt>
      <trkpt lat="47.07669" lon="6.2239">
        <ele>639.4140625</ele>
        <time>2011-04-17T08:46:53Z</time>
      </trkpt>
      <trkpt lat="47.07659" lon="6.22367">
        <ele>638.93359375</ele>
        <time>2011-04-17T08:46:58Z</time>
      </trkpt>
      <trkpt lat="47.0764" lon="6.22353">
        <ele>639.89477539062</ele>
        <time>2011-04-17T08:47:03Z</time>
      </trkpt>
      <trkpt lat="47.07636" lon="6.22351">
        <ele>639.4140625</ele>
        <time>2011-04-17T08:47:04Z</time>
      </trkpt>
      <trkpt lat="47.07624" lon="6.2234">
        <ele>639.4140625</ele>
        <time>2011-04-17T08:47:07Z</time>
      </trkpt>
      <trkpt lat="47.07602" lon="6.22326">
        <ele>638.45288085938</ele>
        <time>2011-04-17T08:47:12Z</time>
      </trkpt>
      <trkpt lat="47.07588" lon="6.22302">
        <ele>638.93359375</ele>
        <time>2011-04-17T08:47:16Z</time>
      </trkpt>
      <trkpt lat="47.07581" lon="6.22267">
        <ele>638.93359375</ele>
        <time>2011-04-17T08:47:21Z</time>
      </trkpt>
      <trkpt lat="47.07577" lon="6.22224">
        <ele>640.37548828125</ele>
        <time>2011-04-17T08:47:28Z</time>
      </trkpt>
      <trkpt lat="47.07565" lon="6.22183">
        <ele>640.37548828125</ele>
        <time>2011-04-17T08:47:34Z</time>
      </trkpt>
      <trkpt lat="47.07559" lon="6.22149">
        <ele>640.37548828125</ele>
        <time>2011-04-17T08:47:39Z</time>
      </trkpt>
      <trkpt lat="47.07558" lon="6.22126">
        <ele>639.89477539062</ele>
        <time>2011-04-17T08:47:42Z</time>
      </trkpt>
      <trkpt lat="47.0755" lon="6.22074">
        <ele>639.89477539062</ele>
        <time>2011-04-17T08:47:49Z</time>
      </trkpt>
      <trkpt lat="47.07541" lon="6.22033">
        <ele>639.89477539062</ele>
        <time>2011-04-17T08:47:55Z</time>
      </trkpt>
      <trkpt lat="47.0754" lon="6.22026">
        <ele>639.89477539062</ele>
        <time>2011-04-17T08:47:56Z</time>
      </trkpt>
      <trkpt lat="47.0753" lon="6.21996">
        <ele>638.45288085938</ele>
        <time>2011-04-17T08:48:00Z</time>
      </trkpt>
      <trkpt lat="47.07521" lon="6.21967">
        <ele>637.0107421875</ele>
        <time>2011-04-17T08:48:05Z</time>
      </trkpt>
      <trkpt lat="47.07521" lon="6.21965">
        <ele>637.0107421875</ele>
        <time>2011-04-17T08:48:07Z</time>
      </trkpt>
      <trkpt lat="47.07522" lon="6.21967">
        <ele>636.5302734375</ele>
        <time>2011-04-17T08:48:10Z</time>
      </trkpt>
      <trkpt lat="47.07522" lon="6.21967">
        <ele>637.0107421875</ele>
        <time>2011-04-17T08:48:14Z</time>
      </trkpt>
      <trkpt lat="47.07523" lon="6.21968">
        <ele>637.0107421875</ele>
        <time>2011-04-17T08:48:15Z</time>
      </trkpt>
      <trkpt lat="47.07525" lon="6.21978">
        <ele>637.97216796875</ele>
        <time>2011-04-17T08:48:19Z</time>
      </trkpt>
      <trkpt lat="47.07524" lon="6.21979">
        <ele>638.45288085938</ele>
        <time>2011-04-17T08:48:20Z</time>
      </trkpt>
      <trkpt lat="47.07515" lon="6.21981">
        <ele>637.97216796875</ele>
        <time>2011-04-17T08:48:25Z</time>
      </trkpt>
      <trkpt lat="47.07508" lon="6.21971">
        <ele>636.5302734375</ele>
        <time>2011-04-17T08:48:30Z</time>
      </trkpt>
      <trkpt lat="47.07502" lon="6.21952">
        <ele>635.56860351562</ele>
        <time>2011-04-17T08:48:37Z</time>
      </trkpt>
      <trkpt lat="47.07493" lon="6.2194">
        <ele>636.04956054688</ele>
        <time>2011-04-17T08:48:42Z</time>
      </trkpt>
      <trkpt lat="47.0749" lon="6.21937">
        <ele>636.5302734375</ele>
        <time>2011-04-17T08:48:46Z</time>
      </trkpt>
      <trkpt lat="47.07485" lon="6.21934">
        <ele>636.5302734375</ele>
        <time>2011-04-17T08:48:50Z</time>
      </trkpt>
      <trkpt lat="47.07481" lon="6.21925">
        <ele>636.04956054688</ele>
        <time>2011-04-17T08:48:54Z</time>
      </trkpt>
      <trkpt lat="47.07472" lon="6.21914">
        <ele>636.5302734375</ele>
        <time>2011-04-17T08:48:59Z</time>
      </trkpt>
      <trkpt lat="47.07465" lon="6.21904">
        <ele>636.04956054688</ele>
        <time>2011-04-17T08:49:04Z</time>
      </trkpt>
      <trkpt lat="47.07459" lon="6.21892">
        <ele>635.56860351562</ele>
        <time>2011-04-17T08:49:09Z</time>
      </trkpt>
      <trkpt lat="47.07455" lon="6.21886">
        <ele>635.56860351562</ele>
        <time>2011-04-17T08:49:11Z</time>
      </trkpt>
      <trkpt lat="47.07452" lon="6.21881">
        <ele>635.08813476562</ele>
        <time>2011-04-17T08:49:15Z</time>
      </trkpt>
      <trkpt lat="47.07445" lon="6.21867">
        <ele>634.12670898438</ele>
        <time>2011-04-17T08:49:21Z</time>
      </trkpt>
      <trkpt lat="47.07435" lon="6.21862">
        <ele>634.12670898438</ele>
        <time>2011-04-17T08:49:25Z</time>
      </trkpt>
      <trkpt lat="47.07429" lon="6.21858">
        <ele>633.64599609375</ele>
        <time>2011-04-17T08:49:28Z</time>
      </trkpt>
      <trkpt lat="47.07417" lon="6.21845">
        <ele>636.04956054688</ele>
        <time>2011-04-17T08:49:34Z</time>
      </trkpt>
      <trkpt lat="47.07407" lon="6.21832">
        <ele>636.5302734375</ele>
        <time>2011-04-17T08:49:39Z</time>
      </trkpt>
      <trkpt lat="47.07396" lon="6.21817">
        <ele>636.04956054688</ele>
        <time>2011-04-17T08:49:43Z</time>
      </trkpt>
      <trkpt lat="47.07383" lon="6.21807">
        <ele>636.5302734375</ele>
        <time>2011-04-17T08:49:48Z</time>
      </trkpt>
      <trkpt lat="47.07375" lon="6.218">
        <ele>635.08813476562</ele>
        <time>2011-04-17T08:49:51Z</time>
      </trkpt>
      <trkpt lat="47.07368" lon="6.21787">
        <ele>636.04956054688</ele>
        <time>2011-04-17T08:49:57Z</time>
      </trkpt>
      <trkpt lat="47.07359" lon="6.21774">
        <ele>634.607421875</ele>
        <time>2011-04-17T08:50:02Z</time>
      </trkpt>
      <trkpt lat="47.07358" lon="6.21769">
        <ele>634.12670898438</ele>
        <time>2011-04-17T08:50:04Z</time>
      </trkpt>
      <trkpt lat="47.07349" lon="6.21756">
        <ele>633.64599609375</ele>
        <time>2011-04-17T08:50:09Z</time>
      </trkpt>
      <trkpt lat="47.07347" lon="6.21753">
        <ele>633.16528320312</ele>
        <time>2011-04-17T08:50:10Z</time>
      </trkpt>
      <trkpt lat="47.07333" lon="6.21731">
        <ele>632.68481445312</ele>
        <time>2011-04-17T08:50:16Z</time>
      </trkpt>
      <trkpt lat="47.07324" lon="6.2172">
        <ele>630.76220703125</ele>
        <time>2011-04-17T08:50:19Z</time>
      </trkpt>
      <trkpt lat="47.07308" lon="6.21703">
        <ele>629.80078125</ele>
        <time>2011-04-17T08:50:24Z</time>
      </trkpt>
      <trkpt lat="47.07299" lon="6.21687">
        <ele>629.80078125</ele>
        <time>2011-04-17T08:50:28Z</time>
      </trkpt>
      <trkpt lat="47.07291" lon="6.21675">
        <ele>628.83959960938</ele>
        <time>2011-04-17T08:50:32Z</time>
      </trkpt>
      <trkpt lat="47.07285" lon="6.21666">
        <ele>627.39770507812</ele>
        <time>2011-04-17T08:50:36Z</time>
      </trkpt>
      <trkpt lat="47.07277" lon="6.21656">
        <ele>626.9169921875</ele>
        <time>2011-04-17T08:50:40Z</time>
      </trkpt>
      <trkpt lat="47.07271" lon="6.21643">
        <ele>626.9169921875</ele>
        <time>2011-04-17T08:50:44Z</time>
      </trkpt>
      <trkpt lat="47.07269" lon="6.2164">
        <ele>627.87817382812</ele>
        <time>2011-04-17T08:50:45Z</time>
      </trkpt>
      <trkpt lat="47.07257" lon="6.21623">
        <ele>626.43627929688</ele>
        <time>2011-04-17T08:50:50Z</time>
      </trkpt>
      <trkpt lat="47.07253" lon="6.21612">
        <ele>626.43627929688</ele>
        <time>2011-04-17T08:50:53Z</time>
      </trkpt>
      <trkpt lat="47.07255" lon="6.21604">
        <ele>624.99438476562</ele>
        <time>2011-04-17T08:50:57Z</time>
      </trkpt>
      <trkpt lat="47.07266" lon="6.21592">
        <ele>623.55249023438</ele>
        <time>2011-04-17T08:51:03Z</time>
      </trkpt>
      <trkpt lat="47.0727" lon="6.21589">
        <ele>622.1103515625</ele>
        <time>2011-04-17T08:51:06Z</time>
      </trkpt>
      <trkpt lat="47.07278" lon="6.21586">
        <ele>622.1103515625</ele>
        <time>2011-04-17T08:51:11Z</time>
      </trkpt>
      <trkpt lat="47.07281" lon="6.21588">
        <ele>623.55249023438</ele>
        <time>2011-04-17T08:51:13Z</time>
      </trkpt>
      <trkpt lat="47.07287" lon="6.21589">
        <ele>624.513671875</ele>
        <time>2011-04-17T08:51:17Z</time>
      </trkpt>
      <trkpt lat="47.07298" lon="6.21583">
        <ele>624.03295898438</ele>
        <time>2011-04-17T08:51:22Z</time>
      </trkpt>
      <trkpt lat="47.07308" lon="6.21576">
        <ele>623.55249023438</ele>
        <time>2011-04-17T08:51:26Z</time>
      </trkpt>
      <trkpt lat="47.07318" lon="6.21571">
        <ele>623.55249023438</ele>
        <time>2011-04-17T08:51:33Z</time>
      </trkpt>
      <trkpt lat="47.07319" lon="6.2157">
        <ele>623.55249023438</ele>
        <time>2011-04-17T08:51:34Z</time>
      </trkpt>
      <trkpt lat="47.07325" lon="6.21564">
        <ele>621.14916992188</ele>
        <time>2011-04-17T08:51:38Z</time>
      </trkpt>
      <trkpt lat="47.0733" lon="6.21559">
        <ele>619.22631835938</ele>
        <time>2011-04-17T08:51:43Z</time>
      </trkpt>
      <trkpt lat="47.07335" lon="6.21558">
        <ele>619.22631835938</ele>
        <time>2011-04-17T08:51:45Z</time>
      </trkpt>
      <trkpt lat="47.07337" lon="6.21558">
        <ele>619.70703125</ele>
        <time>2011-04-17T08:51:47Z</time>
      </trkpt>
      <trkpt lat="47.07345" lon="6.21556">
        <ele>621.14916992188</ele>
        <time>2011-04-17T08:51:54Z</time>
      </trkpt>
      <trkpt lat="47.07345" lon="6.21556">
        <ele>621.14916992188</ele>
        <time>2011-04-17T08:51:55Z</time>
      </trkpt>
      <trkpt lat="47.07346" lon="6.21555">
        <ele>621.14916992188</ele>
        <time>2011-04-17T08:51:58Z</time>
      </trkpt>
      <trkpt lat="47.07348" lon="6.21555">
        <ele>621.62963867188</ele>
        <time>2011-04-17T08:51:59Z</time>
      </trkpt>
      <trkpt lat="47.07354" lon="6.21552">
        <ele>621.14916992188</ele>
        <time>2011-04-17T08:52:05Z</time>
      </trkpt>
      <trkpt lat="47.07356" lon="6.21551">
        <ele>620.66845703125</ele>
        <time>2011-04-17T08:52:06Z</time>
      </trkpt>
      <trkpt lat="47.07365" lon="6.21551">
        <ele>621.14916992188</ele>
        <time>2011-04-17T08:52:11Z</time>
      </trkpt>
      <trkpt lat="47.07367" lon="6.2155">
        <ele>621.62963867188</ele>
        <time>2011-04-17T08:52:13Z</time>
      </trkpt>
      <trkpt lat="47.07368" lon="6.2155">
        <ele>621.62963867188</ele>
        <time>2011-04-17T08:52:16Z</time>
      </trkpt>
      <trkpt lat="47.07372" lon="6.21547">
        <ele>622.1103515625</ele>
        <time>2011-04-17T08:52:18Z</time>
      </trkpt>
      <trkpt lat="47.07374" lon="6.21546">
        <ele>620.66845703125</ele>
        <time>2011-04-17T08:52:19Z</time>
      </trkpt>
      <trkpt lat="47.07389" lon="6.2154">
        <ele>621.62963867188</ele>
        <time>2011-04-17T08:52:26Z</time>
      </trkpt>
      <trkpt lat="47.074" lon="6.21532">
        <ele>620.18774414062</ele>
        <time>2011-04-17T08:52:31Z</time>
      </trkpt>
      <trkpt lat="47.0741" lon="6.21521">
        <ele>619.22631835938</ele>
        <time>2011-04-17T08:52:36Z</time>
      </trkpt>
      <trkpt lat="47.07422" lon="6.21508">
        <ele>618.74560546875</ele>
        <time>2011-04-17T08:52:42Z</time>
      </trkpt>
      <trkpt lat="47.07433" lon="6.21502">
        <ele>619.22631835938</ele>
        <time>2011-04-17T08:52:47Z</time>
      </trkpt>
      <trkpt lat="47.07441" lon="6.21498">
        <ele>619.22631835938</ele>
        <time>2011-04-17T08:52:53Z</time>
      </trkpt>
      <trkpt lat="47.07446" lon="6.21495">
        <ele>618.74560546875</ele>
        <time>2011-04-17T08:52:57Z</time>
      </trkpt>
      <trkpt lat="47.07453" lon="6.21484">
        <ele>618.26489257812</ele>
        <time>2011-04-17T08:53:04Z</time>
      </trkpt>
      <trkpt lat="47.07467" lon="6.21473">
        <ele>616.82299804688</ele>
        <time>2011-04-17T08:53:13Z</time>
      </trkpt>
      <trkpt lat="47.07475" lon="6.21466">
        <ele>616.34228515625</ele>
        <time>2011-04-17T08:53:19Z</time>
      </trkpt>
      <trkpt lat="47.07484" lon="6.21454">
        <ele>615.38110351562</ele>
        <time>2011-04-17T08:53:23Z</time>
      </trkpt>
      <trkpt lat="47.07491" lon="6.21444">
        <ele>615.38110351562</ele>
        <time>2011-04-17T08:53:27Z</time>
      </trkpt>
      <trkpt lat="47.075" lon="6.21434">
        <ele>615.38110351562</ele>
        <time>2011-04-17T08:53:33Z</time>
      </trkpt>
      <trkpt lat="47.07503" lon="6.2143">
        <ele>615.38110351562</ele>
        <time>2011-04-17T08:53:35Z</time>
      </trkpt>
      <trkpt lat="47.07511" lon="6.21417">
        <ele>615.38110351562</ele>
        <time>2011-04-17T08:53:41Z</time>
      </trkpt>
      <trkpt lat="47.07519" lon="6.21413">
        <ele>616.82299804688</ele>
        <time>2011-04-17T08:53:45Z</time>
      </trkpt>
      <trkpt lat="47.07529" lon="6.21407">
        <ele>617.7841796875</ele>
        <time>2011-04-17T08:53:51Z</time>
      </trkpt>
      <trkpt lat="47.07542" lon="6.21403">
        <ele>617.7841796875</ele>
        <time>2011-04-17T08:53:57Z</time>
      </trkpt>
      <trkpt lat="47.07553" lon="6.21399">
        <ele>618.74560546875</ele>
        <time>2011-04-17T08:54:02Z</time>
      </trkpt>
      <trkpt lat="47.07568" lon="6.21396">
        <ele>618.74560546875</ele>
        <time>2011-04-17T08:54:10Z</time>
      </trkpt>
      <trkpt lat="47.07579" lon="6.21391">
        <ele>620.18774414062</ele>
        <time>2011-04-17T08:54:16Z</time>
      </trkpt>
      <trkpt lat="47.07596" lon="6.21386">
        <ele>620.18774414062</ele>
        <time>2011-04-17T08:54:24Z</time>
      </trkpt>
      <trkpt lat="47.07612" lon="6.21383">
        <ele>620.66845703125</ele>
        <time>2011-04-17T08:54:31Z</time>
      </trkpt>
      <trkpt lat="47.07624" lon="6.21377">
        <ele>621.14916992188</ele>
        <time>2011-04-17T08:54:36Z</time>
      </trkpt>
      <trkpt lat="47.0764" lon="6.21372">
        <ele>620.66845703125</ele>
        <time>2011-04-17T08:54:42Z</time>
      </trkpt>
      <trkpt lat="47.07664" lon="6.21366">
        <ele>620.18774414062</ele>
        <time>2011-04-17T08:54:50Z</time>
      </trkpt>
      <trkpt lat="47.07684" lon="6.21359">
        <ele>620.66845703125</ele>
        <time>2011-04-17T08:54:56Z</time>
      </trkpt>
      <trkpt lat="47.07706" lon="6.21356">
        <ele>621.62963867188</ele>
        <time>2011-04-17T08:55:03Z</time>
      </trkpt>
      <trkpt lat="47.07713" lon="6.21349">
        <ele>623.07177734375</ele>
        <time>2011-04-17T08:55:06Z</time>
      </trkpt>
      <trkpt lat="47.07718" lon="6.21322">
        <ele>622.1103515625</ele>
        <time>2011-04-17T08:55:12Z</time>
      </trkpt>
      <trkpt lat="47.07721" lon="6.21287">
        <ele>621.62963867188</ele>
        <time>2011-04-17T08:55:18Z</time>
      </trkpt>
      <trkpt lat="47.07723" lon="6.2125">
        <ele>618.26489257812</ele>
        <time>2011-04-17T08:55:23Z</time>
      </trkpt>
      <trkpt lat="47.07725" lon="6.21213">
        <ele>617.3037109375</ele>
        <time>2011-04-17T08:55:27Z</time>
      </trkpt>
      <trkpt lat="47.07717" lon="6.21157">
        <ele>613.93896484375</ele>
        <time>2011-04-17T08:55:32Z</time>
      </trkpt>
      <trkpt lat="47.07707" lon="6.21123">
        <ele>612.4970703125</ele>
        <time>2011-04-17T08:55:35Z</time>
      </trkpt>
      <trkpt lat="47.07686" lon="6.21056">
        <ele>611.05517578125</ele>
        <time>2011-04-17T08:55:41Z</time>
      </trkpt>
      <trkpt lat="47.0767" lon="6.20999">
        <ele>610.09375</ele>
        <time>2011-04-17T08:55:46Z</time>
      </trkpt>
      <trkpt lat="47.07664" lon="6.20953">
        <ele>609.61328125</ele>
        <time>2011-04-17T08:55:50Z</time>
      </trkpt>
      <trkpt lat="47.07669" lon="6.20929">
        <ele>607.69067382812</ele>
        <time>2011-04-17T08:55:52Z</time>
      </trkpt>
      <trkpt lat="47.07689" lon="6.20858">
        <ele>605.28735351562</ele>
        <time>2011-04-17T08:55:57Z</time>
      </trkpt>
      <trkpt lat="47.07698" lon="6.20815">
        <ele>603.36450195312</ele>
        <time>2011-04-17T08:56:00Z</time>
      </trkpt>
      <trkpt lat="47.07697" lon="6.20758">
        <ele>600.48071289062</ele>
        <time>2011-04-17T08:56:04Z</time>
      </trkpt>
      <trkpt lat="47.07685" lon="6.20698">
        <ele>595.193359375</ele>
        <time>2011-04-17T08:56:08Z</time>
      </trkpt>
      <trkpt lat="47.07677" lon="6.20649">
        <ele>592.79028320312</ele>
        <time>2011-04-17T08:56:11Z</time>
      </trkpt>
      <trkpt lat="47.07673" lon="6.20625">
        <ele>590.86743164062</ele>
        <time>2011-04-17T08:56:13Z</time>
      </trkpt>
      <trkpt lat="47.07679" lon="6.20601">
        <ele>588.46435546875</ele>
        <time>2011-04-17T08:56:17Z</time>
      </trkpt>
      <trkpt lat="47.07683" lon="6.206">
        <ele>588.46435546875</ele>
        <time>2011-04-17T08:56:18Z</time>
      </trkpt>
      <trkpt lat="47.07695" lon="6.20603">
        <ele>585.099609375</ele>
        <time>2011-04-17T08:56:21Z</time>
      </trkpt>
      <trkpt lat="47.07705" lon="6.20612">
        <ele>582.21557617188</ele>
        <time>2011-04-17T08:56:24Z</time>
      </trkpt>
      <trkpt lat="47.07719" lon="6.20624">
        <ele>579.81225585938</ele>
        <time>2011-04-17T08:56:27Z</time>
      </trkpt>
      <trkpt lat="47.07724" lon="6.20629">
        <ele>579.81225585938</ele>
        <time>2011-04-17T08:56:28Z</time>
      </trkpt>
      <trkpt lat="47.07742" lon="6.20646">
        <ele>575.96704101562</ele>
        <time>2011-04-17T08:56:32Z</time>
      </trkpt>
      <trkpt lat="47.07756" lon="6.20666">
        <ele>574.04443359375</ele>
        <time>2011-04-17T08:56:35Z</time>
      </trkpt>
      <trkpt lat="47.07772" lon="6.20692">
        <ele>570.6796875</ele>
        <time>2011-04-17T08:56:38Z</time>
      </trkpt>
      <trkpt lat="47.07782" lon="6.20714">
        <ele>567.31518554688</ele>
        <time>2011-04-17T08:56:40Z</time>
      </trkpt>
      <trkpt lat="47.0779" lon="6.20736">
        <ele>562.9892578125</ele>
        <time>2011-04-17T08:56:42Z</time>
      </trkpt>
      <trkpt lat="47.07793" lon="6.20747">
        <ele>562.02807617188</ele>
        <time>2011-04-17T08:56:43Z</time>
      </trkpt>
      <trkpt lat="47.07798" lon="6.20771">
        <ele>559.14404296875</ele>
        <time>2011-04-17T08:56:45Z</time>
      </trkpt>
      <trkpt lat="47.07799" lon="6.20819">
        <ele>555.29858398438</ele>
        <time>2011-04-17T08:56:48Z</time>
      </trkpt>
      <trkpt lat="47.07799" lon="6.20835">
        <ele>555.779296875</ele>
        <time>2011-04-17T08:56:49Z</time>
      </trkpt>
      <trkpt lat="47.07798" lon="6.20873">
        <ele>554.33740234375</ele>
        <time>2011-04-17T08:56:52Z</time>
      </trkpt>
      <trkpt lat="47.07802" lon="6.20895">
        <ele>550.4921875</ele>
        <time>2011-04-17T08:56:55Z</time>
      </trkpt>
      <trkpt lat="47.07804" lon="6.20903">
        <ele>549.53076171875</ele>
        <time>2011-04-17T08:56:56Z</time>
      </trkpt>
      <trkpt lat="47.07811" lon="6.20921">
        <ele>548.0888671875</ele>
        <time>2011-04-17T08:56:58Z</time>
      </trkpt>
      <trkpt lat="47.07819" lon="6.20936">
        <ele>547.12744140625</ele>
        <time>2011-04-17T08:57:00Z</time>
      </trkpt>
      <trkpt lat="47.07825" lon="6.20947">
        <ele>544.72424316406</ele>
        <time>2011-04-17T08:57:01Z</time>
      </trkpt>
      <trkpt lat="47.07842" lon="6.20997">
        <ele>538.95629882812</ele>
        <time>2011-04-17T08:57:05Z</time>
      </trkpt>
      <trkpt lat="47.07856" lon="6.21037">
        <ele>534.63037109375</ele>
        <time>2011-04-17T08:57:08Z</time>
      </trkpt>
      <trkpt lat="47.07862" lon="6.21049">
        <ele>533.6689453125</ele>
        <time>2011-04-17T08:57:09Z</time>
      </trkpt>
      <trkpt lat="47.0787" lon="6.2107">
        <ele>532.22705078125</ele>
        <time>2011-04-17T08:57:12Z</time>
      </trkpt>
      <trkpt lat="47.07878" lon="6.21048">
        <ele>528.86254882812</ele>
        <time>2011-04-17T08:57:16Z</time>
      </trkpt>
      <trkpt lat="47.07878" lon="6.21013">
        <ele>524.53649902344</ele>
        <time>2011-04-17T08:57:19Z</time>
      </trkpt>
      <trkpt lat="47.07877" lon="6.20986">
        <ele>520.69128417969</ele>
        <time>2011-04-17T08:57:21Z</time>
      </trkpt>
      <trkpt lat="47.07875" lon="6.20972">
        <ele>517.80725097656</ele>
        <time>2011-04-17T08:57:22Z</time>
      </trkpt>
      <trkpt lat="47.07867" lon="6.2094">
        <ele>514.92333984375</ele>
        <time>2011-04-17T08:57:24Z</time>
      </trkpt>
      <trkpt lat="47.07858" lon="6.2087">
        <ele>514.44262695312</ele>
        <time>2011-04-17T08:57:29Z</time>
      </trkpt>
      <trkpt lat="47.07862" lon="6.20807">
        <ele>513.96203613281</ele>
        <time>2011-04-17T08:57:34Z</time>
      </trkpt>
      <trkpt lat="47.07874" lon="6.20746">
        <ele>508.67468261719</ele>
        <time>2011-04-17T08:57:39Z</time>
      </trkpt>
      <trkpt lat="47.07879" lon="6.20722">
        <ele>504.82946777344</ele>
        <time>2011-04-17T08:57:41Z</time>
      </trkpt>
      <trkpt lat="47.07888" lon="6.20693">
        <ele>501.46484375</ele>
        <time>2011-04-17T08:57:43Z</time>
      </trkpt>
      <trkpt lat="47.07898" lon="6.20653">
        <ele>499.54223632812</ele>
        <time>2011-04-17T08:57:46Z</time>
      </trkpt>
      <trkpt lat="47.07903" lon="6.20628">
        <ele>498.10034179688</ele>
        <time>2011-04-17T08:57:48Z</time>
      </trkpt>
      <trkpt lat="47.07903" lon="6.20593">
        <ele>498.10034179688</ele>
        <time>2011-04-17T08:57:51Z</time>
      </trkpt>
      <trkpt lat="47.07891" lon="6.20532">
        <ele>497.61962890625</ele>
        <time>2011-04-17T08:57:57Z</time>
      </trkpt>
      <trkpt lat="47.07889" lon="6.20521">
        <ele>498.10034179688</ele>
        <time>2011-04-17T08:57:58Z</time>
      </trkpt>
      <trkpt lat="47.0788" lon="6.20483">
        <ele>498.10034179688</ele>
        <time>2011-04-17T08:58:02Z</time>
      </trkpt>
      <trkpt lat="47.07879" lon="6.20472">
        <ele>498.10034179688</ele>
        <time>2011-04-17T08:58:03Z</time>
      </trkpt>
      <trkpt lat="47.07878" lon="6.20447">
        <ele>496.65832519531</ele>
        <time>2011-04-17T08:58:05Z</time>
      </trkpt>
      <trkpt lat="47.07881" lon="6.204">
        <ele>496.177734375</ele>
        <time>2011-04-17T08:58:09Z</time>
      </trkpt>
      <trkpt lat="47.07883" lon="6.2037">
        <ele>495.69689941406</ele>
        <time>2011-04-17T08:58:12Z</time>
      </trkpt>
      <trkpt lat="47.07884" lon="6.20306">
        <ele>493.29357910156</ele>
        <time>2011-04-17T08:58:17Z</time>
      </trkpt>
      <trkpt lat="47.07885" lon="6.20278">
        <ele>488.48718261719</ele>
        <time>2011-04-17T08:58:19Z</time>
      </trkpt>
      <trkpt lat="47.07887" lon="6.20262">
        <ele>487.04504394531</ele>
        <time>2011-04-17T08:58:20Z</time>
      </trkpt>
      <trkpt lat="47.07894" lon="6.20214">
        <ele>479.83508300781</ele>
        <time>2011-04-17T08:58:23Z</time>
      </trkpt>
      <trkpt lat="47.07899" lon="6.20188">
        <ele>476.47058105469</ele>
        <time>2011-04-17T08:58:25Z</time>
      </trkpt>
      <trkpt lat="47.07903" lon="6.20168">
        <ele>472.14465332031</ele>
        <time>2011-04-17T08:58:27Z</time>
      </trkpt>
      <trkpt lat="47.07904" lon="6.20159">
        <ele>472.14465332031</ele>
        <time>2011-04-17T08:58:28Z</time>
      </trkpt>
      <trkpt lat="47.07904" lon="6.20117">
        <ele>464.93481445312</ele>
        <time>2011-04-17T08:58:31Z</time>
      </trkpt>
      <trkpt lat="47.07907" lon="6.20068">
        <ele>458.68615722656</ele>
        <time>2011-04-17T08:58:34Z</time>
      </trkpt>
      <trkpt lat="47.07908" lon="6.20039">
        <ele>454.8408203125</ele>
        <time>2011-04-17T08:58:36Z</time>
      </trkpt>
      <trkpt lat="47.07909" lon="6.20009">
        <ele>451.47631835938</ele>
        <time>2011-04-17T08:58:38Z</time>
      </trkpt>
      <trkpt lat="47.0791" lon="6.1998">
        <ele>446.66967773438</ele>
        <time>2011-04-17T08:58:40Z</time>
      </trkpt>
      <trkpt lat="47.07912" lon="6.19955">
        <ele>443.30505371094</ele>
        <time>2011-04-17T08:58:42Z</time>
      </trkpt>
      <trkpt lat="47.0792" lon="6.19925">
        <ele>440.42126464844</ele>
        <time>2011-04-17T08:58:45Z</time>
      </trkpt>
      <trkpt lat="47.07933" lon="6.19911">
        <ele>436.09521484375</ele>
        <time>2011-04-17T08:58:48Z</time>
      </trkpt>
      <trkpt lat="47.07957" lon="6.19901">
        <ele>432.73071289062</ele>
        <time>2011-04-17T08:58:52Z</time>
      </trkpt>
      <trkpt lat="47.07964" lon="6.19898">
        <ele>427.92395019531</ele>
        <time>2011-04-17T08:58:53Z</time>
      </trkpt>
      <trkpt lat="47.07972" lon="6.19898">
        <ele>427.443359375</ele>
        <time>2011-04-17T08:58:54Z</time>
      </trkpt>
      <trkpt lat="47.07994" lon="6.19897">
        <ele>424.07873535156</ele>
        <time>2011-04-17T08:58:56Z</time>
      </trkpt>
      <trkpt lat="47.08023" lon="6.19889">
        <ele>419.27221679688</ele>
        <time>2011-04-17T08:58:59Z</time>
      </trkpt>
      <trkpt lat="47.08036" lon="6.19879">
        <ele>417.349609375</ele>
        <time>2011-04-17T08:59:01Z</time>
      </trkpt>
      <trkpt lat="47.08043" lon="6.1986">
        <ele>413.98486328125</ele>
        <time>2011-04-17T08:59:04Z</time>
      </trkpt>
      <trkpt lat="47.08041" lon="6.19847">
        <ele>411.58166503906</ele>
        <time>2011-04-17T08:59:05Z</time>
      </trkpt>
      <trkpt lat="47.0804" lon="6.19822">
        <ele>409.17834472656</ele>
        <time>2011-04-17T08:59:07Z</time>
      </trkpt>
      <trkpt lat="47.0804" lon="6.19785">
        <ele>403.89111328125</ele>
        <time>2011-04-17T08:59:10Z</time>
      </trkpt>
      <trkpt lat="47.08039" lon="6.19777">
        <ele>402.9296875</ele>
        <time>2011-04-17T08:59:11Z</time>
      </trkpt>
      <trkpt lat="47.08037" lon="6.19755">
        <ele>399.08435058594</ele>
        <time>2011-04-17T08:59:14Z</time>
      </trkpt>
      <trkpt lat="47.08034" lon="6.19747">
        <ele>397.64245605469</ele>
        <time>2011-04-17T08:59:15Z</time>
      </trkpt>
      <trkpt lat="47.08024" lon="6.19721">
        <ele>392.35534667969</ele>
        <time>2011-04-17T08:59:18Z</time>
      </trkpt>
      <trkpt lat="47.08018" lon="6.19699">
        <ele>388.029296875</ele>
        <time>2011-04-17T08:59:20Z</time>
      </trkpt>
      <trkpt lat="47.08006" lon="6.19671">
        <ele>382.74206542969</ele>
        <time>2011-04-17T08:59:23Z</time>
      </trkpt>
      <trkpt lat="47.07993" lon="6.19648">
        <ele>380.33874511719</ele>
        <time>2011-04-17T08:59:26Z</time>
      </trkpt>
      <trkpt lat="47.07978" lon="6.19617">
        <ele>374.09008789062</ele>
        <time>2011-04-17T08:59:29Z</time>
      </trkpt>
      <trkpt lat="47.07974" lon="6.19605">
        <ele>373.60949707031</ele>
        <time>2011-04-17T08:59:30Z</time>
      </trkpt>
      <trkpt lat="47.07964" lon="6.19585">
        <ele>371.20629882812</ele>
        <time>2011-04-17T08:59:32Z</time>
      </trkpt>
      <trkpt lat="47.07954" lon="6.19538">
        <ele>366.88024902344</ele>
        <time>2011-04-17T08:59:36Z</time>
      </trkpt>
      <trkpt lat="47.07947" lon="6.19491">
        <ele>361.59313964844</ele>
        <time>2011-04-17T08:59:39Z</time>
      </trkpt>
      <trkpt lat="47.07942" lon="6.1946">
        <ele>357.26708984375</ele>
        <time>2011-04-17T08:59:41Z</time>
      </trkpt>
      <trkpt lat="47.07942" lon="6.19409">
        <ele>351.49914550781</ele>
        <time>2011-04-17T08:59:45Z</time>
      </trkpt>
      <trkpt lat="47.07944" lon="6.19398">
        <ele>351.49914550781</ele>
        <time>2011-04-17T08:59:46Z</time>
      </trkpt>
      <trkpt lat="47.07949" lon="6.19346">
        <ele>350.53784179688</ele>
        <time>2011-04-17T08:59:51Z</time>
      </trkpt>
      <trkpt lat="47.07946" lon="6.19316">
        <ele>349.09582519531</ele>
        <time>2011-04-17T08:59:54Z</time>
      </trkpt>
      <trkpt lat="47.07943" lon="6.19284">
        <ele>349.09582519531</ele>
        <time>2011-04-17T08:59:57Z</time>
      </trkpt>
      <trkpt lat="47.07947" lon="6.19251">
        <ele>347.17321777344</ele>
        <time>2011-04-17T09:00:00Z</time>
      </trkpt>
      <trkpt lat="47.07949" lon="6.19229">
        <ele>346.69262695312</ele>
        <time>2011-04-17T09:00:02Z</time>
      </trkpt>
      <trkpt lat="47.07952" lon="6.19164">
        <ele>346.21203613281</ele>
        <time>2011-04-17T09:00:08Z</time>
      </trkpt>
      <trkpt lat="47.07969" lon="6.19133">
        <ele>345.25061035156</ele>
        <time>2011-04-17T09:00:12Z</time>
      </trkpt>
      <trkpt lat="47.07982" lon="6.19125">
        <ele>345.25061035156</ele>
        <time>2011-04-17T09:00:14Z</time>
      </trkpt>
      <trkpt lat="47.07995" lon="6.19117">
        <ele>345.25061035156</ele>
        <time>2011-04-17T09:00:16Z</time>
      </trkpt>
      <trkpt lat="47.08017" lon="6.19082">
        <ele>346.21203613281</ele>
        <time>2011-04-17T09:00:21Z</time>
      </trkpt>
      <trkpt lat="47.08046" lon="6.19038">
        <ele>345.25061035156</ele>
        <time>2011-04-17T09:00:27Z</time>
      </trkpt>
      <trkpt lat="47.08051" lon="6.1903">
        <ele>345.25061035156</ele>
        <time>2011-04-17T09:00:28Z</time>
      </trkpt>
      <trkpt lat="47.08087" lon="6.19015">
        <ele>340.44409179688</ele>
        <time>2011-04-17T09:00:33Z</time>
      </trkpt>
      <trkpt lat="47.08124" lon="6.19016">
        <ele>339.48266601562</ele>
        <time>2011-04-17T09:00:38Z</time>
      </trkpt>
      <trkpt lat="47.08141" lon="6.19017">
        <ele>339.48266601562</ele>
        <time>2011-04-17T09:00:42Z</time>
      </trkpt>
      <trkpt lat="47.0815" lon="6.19003">
        <ele>339.00207519531</ele>
        <time>2011-04-17T09:00:48Z</time>
      </trkpt>
      <trkpt lat="47.08148" lon="6.18996">
        <ele>339.00207519531</ele>
        <time>2011-04-17T09:00:51Z</time>
      </trkpt>
      <trkpt lat="47.08146" lon="6.18981">
        <ele>339.48266601562</ele>
        <time>2011-04-17T09:00:58Z</time>
      </trkpt>
      <trkpt lat="47.08144" lon="6.18982">
        <ele>339.48266601562</ele>
        <time>2011-04-17T09:01:00Z</time>
      </trkpt>
      <trkpt lat="47.08145" lon="6.18999">
        <ele>339.48266601562</ele>
        <time>2011-04-17T09:01:08Z</time>
      </trkpt>
      <trkpt lat="47.08145" lon="6.19004">
        <ele>339.96337890625</ele>
        <time>2011-04-17T09:01:10Z</time>
      </trkpt>
      <trkpt lat="47.08144" lon="6.19008">
        <ele>339.96337890625</ele>
        <time>2011-04-17T09:01:14Z</time>
      </trkpt>
      <trkpt lat="47.08147" lon="6.19012">
        <ele>341.88598632812</ele>
        <time>2011-04-17T09:11:58Z</time>
      </trkpt>
      <trkpt lat="47.08147" lon="6.19012">
        <ele>342.36669921875</ele>
        <time>2011-04-17T09:11:59Z</time>
      </trkpt>
      <trkpt lat="47.08147" lon="6.19012">
        <ele>341.88598632812</ele>
        <time>2011-04-17T09:12:00Z</time>
      </trkpt>
      <trkpt lat="47.08148" lon="6.19012">
        <ele>341.4052734375</ele>
        <time>2011-04-17T09:12:03Z</time>
      </trkpt>
      <trkpt lat="47.08148" lon="6.19011">
        <ele>342.36669921875</ele>
        <time>2011-04-17T09:12:04Z</time>
      </trkpt>
      <trkpt lat="47.08146" lon="6.19008">
        <ele>343.32788085938</ele>
        <time>2011-04-17T09:13:00Z</time>
      </trkpt>
      <trkpt lat="47.0815" lon="6.19011">
        <ele>343.32788085938</ele>
        <time>2011-04-17T09:13:04Z</time>
      </trkpt>
      <trkpt lat="47.08158" lon="6.19017">
        <ele>342.84729003906</ele>
        <time>2011-04-17T09:13:09Z</time>
      </trkpt>
      <trkpt lat="47.08173" lon="6.19022">
        <ele>342.36669921875</ele>
        <time>2011-04-17T09:13:15Z</time>
      </trkpt>
      <trkpt lat="47.0819" lon="6.19024">
        <ele>343.32788085938</ele>
        <time>2011-04-17T09:13:21Z</time>
      </trkpt>
      <trkpt lat="47.08206" lon="6.19025">
        <ele>343.32788085938</ele>
        <time>2011-04-17T09:13:27Z</time>
      </trkpt>
      <trkpt lat="47.08232" lon="6.19027">
        <ele>343.32788085938</ele>
        <time>2011-04-17T09:13:34Z</time>
      </trkpt>
      <trkpt lat="47.08261" lon="6.19026">
        <ele>343.32788085938</ele>
        <time>2011-04-17T09:13:41Z</time>
      </trkpt>
      <trkpt lat="47.08278" lon="6.19023">
        <ele>343.32788085938</ele>
        <time>2011-04-17T09:13:45Z</time>
      </trkpt>
      <trkpt lat="47.08304" lon="6.19018">
        <ele>343.80859375</ele>
        <time>2011-04-17T09:13:51Z</time>
      </trkpt>
      <trkpt lat="47.08317" lon="6.19019">
        <ele>343.80859375</ele>
        <time>2011-04-17T09:13:54Z</time>
      </trkpt>
      <trkpt lat="47.08349" lon="6.19036">
        <ele>345.25061035156</ele>
        <time>2011-04-17T09:14:02Z</time>
      </trkpt>
      <trkpt lat="47.08362" lon="6.19041">
        <ele>345.73132324219</ele>
        <time>2011-04-17T09:14:05Z</time>
      </trkpt>
      <trkpt lat="47.08381" lon="6.19038">
        <ele>345.73132324219</ele>
        <time>2011-04-17T09:14:09Z</time>
      </trkpt>
      <trkpt lat="47.08394" lon="6.19035">
        <ele>346.21203613281</ele>
        <time>2011-04-17T09:14:12Z</time>
      </trkpt>
      <trkpt lat="47.08418" lon="6.19019">
        <ele>347.65393066406</ele>
        <time>2011-04-17T09:14:18Z</time>
      </trkpt>
      <trkpt lat="47.0844" lon="6.19006">
        <ele>349.09582519531</ele>
        <time>2011-04-17T09:14:25Z</time>
      </trkpt>
      <trkpt lat="47.08463" lon="6.18985">
        <ele>350.05725097656</ele>
        <time>2011-04-17T09:14:34Z</time>
      </trkpt>
      <trkpt lat="47.08481" lon="6.18967">
        <ele>351.49914550781</ele>
        <time>2011-04-17T09:14:42Z</time>
      </trkpt>
      <trkpt lat="47.08499" lon="6.18952">
        <ele>353.421875</ele>
        <time>2011-04-17T09:14:50Z</time>
      </trkpt>
      <trkpt lat="47.08523" lon="6.18939">
        <ele>354.86376953125</ele>
        <time>2011-04-17T09:15:00Z</time>
      </trkpt>
      <trkpt lat="47.08541" lon="6.1893">
        <ele>356.30578613281</ele>
        <time>2011-04-17T09:15:08Z</time>
      </trkpt>
      <trkpt lat="47.08558" lon="6.18919">
        <ele>357.74780273438</ele>
        <time>2011-04-17T09:15:16Z</time>
      </trkpt>
      <trkpt lat="47.08572" lon="6.18908">
        <ele>358.708984375</ele>
        <time>2011-04-17T09:15:23Z</time>
      </trkpt>
      <trkpt lat="47.08591" lon="6.18892">
        <ele>359.67041015625</ele>
        <time>2011-04-17T09:15:32Z</time>
      </trkpt>
      <trkpt lat="47.08611" lon="6.18876">
        <ele>361.59313964844</ele>
        <time>2011-04-17T09:15:41Z</time>
      </trkpt>
      <trkpt lat="47.0863" lon="6.18861">
        <ele>362.55432128906</ele>
        <time>2011-04-17T09:15:50Z</time>
      </trkpt>
      <trkpt lat="47.08653" lon="6.18846">
        <ele>363.99633789062</ele>
        <time>2011-04-17T09:16:00Z</time>
      </trkpt>
      <trkpt lat="47.08675" lon="6.18835">
        <ele>365.9189453125</ele>
        <time>2011-04-17T09:16:09Z</time>
      </trkpt>
      <trkpt lat="47.087" lon="6.18826">
        <ele>367.36096191406</ele>
        <time>2011-04-17T09:16:19Z</time>
      </trkpt>
      <trkpt lat="47.08725" lon="6.18819">
        <ele>369.76428222656</ele>
        <time>2011-04-17T09:16:29Z</time>
      </trkpt>
      <trkpt lat="47.0875" lon="6.18815">
        <ele>370.7255859375</ele>
        <time>2011-04-17T09:16:39Z</time>
      </trkpt>
      <trkpt lat="47.08781" lon="6.18818">
        <ele>372.64819335938</ele>
        <time>2011-04-17T09:16:51Z</time>
      </trkpt>
      <trkpt lat="47.08801" lon="6.18823">
        <ele>373.60949707031</ele>
        <time>2011-04-17T09:16:59Z</time>
      </trkpt>
      <trkpt lat="47.08822" lon="6.18832">
        <ele>375.53210449219</ele>
        <time>2011-04-17T09:17:08Z</time>
      </trkpt>
      <trkpt lat="47.08847" lon="6.18843">
        <ele>377.45483398438</ele>
        <time>2011-04-17T09:17:18Z</time>
      </trkpt>
      <trkpt lat="47.08867" lon="6.18853">
        <ele>376.97424316406</ele>
        <time>2011-04-17T09:17:25Z</time>
      </trkpt>
      <trkpt lat="47.08891" lon="6.18871">
        <ele>375.53210449219</ele>
        <time>2011-04-17T09:17:31Z</time>
      </trkpt>
      <trkpt lat="47.08918" lon="6.18902">
        <ele>375.05151367188</ele>
        <time>2011-04-17T09:17:38Z</time>
      </trkpt>
      <trkpt lat="47.08933" lon="6.18921">
        <ele>375.05151367188</ele>
        <time>2011-04-17T09:17:42Z</time>
      </trkpt>
      <trkpt lat="47.08958" lon="6.18968">
        <ele>375.53210449219</ele>
        <time>2011-04-17T09:17:50Z</time>
      </trkpt>
      <trkpt lat="47.0898" lon="6.19012">
        <ele>375.53210449219</ele>
        <time>2011-04-17T09:17:57Z</time>
      </trkpt>
      <trkpt lat="47.09004" lon="6.1906">
        <ele>374.09008789062</ele>
        <time>2011-04-17T09:18:04Z</time>
      </trkpt>
      <trkpt lat="47.09039" lon="6.19115">
        <ele>373.60949707031</ele>
        <time>2011-04-17T09:18:12Z</time>
      </trkpt>
      <trkpt lat="47.09059" lon="6.19142">
        <ele>373.12890625</ele>
        <time>2011-04-17T09:18:16Z</time>
      </trkpt>
      <trkpt lat="47.09072" lon="6.19165">
        <ele>371.68688964844</ele>
        <time>2011-04-17T09:18:19Z</time>
      </trkpt>
      <trkpt lat="47.09097" lon="6.19227">
        <ele>371.68688964844</ele>
        <time>2011-04-17T09:18:26Z</time>
      </trkpt>
      <trkpt lat="47.09122" lon="6.1929">
        <ele>370.24487304688</ele>
        <time>2011-04-17T09:18:33Z</time>
      </trkpt>
      <trkpt lat="47.09135" lon="6.19317">
        <ele>370.24487304688</ele>
        <time>2011-04-17T09:18:36Z</time>
      </trkpt>
      <trkpt lat="47.09171" lon="6.19373">
        <ele>369.28369140625</ele>
        <time>2011-04-17T09:18:43Z</time>
      </trkpt>
      <trkpt lat="47.09187" lon="6.19396">
        <ele>368.80297851562</ele>
        <time>2011-04-17T09:18:46Z</time>
      </trkpt>
      <trkpt lat="47.0922" lon="6.19442">
        <ele>370.24487304688</ele>
        <time>2011-04-17T09:18:53Z</time>
      </trkpt>
      <trkpt lat="47.09243" lon="6.19469">
        <ele>370.7255859375</ele>
        <time>2011-04-17T09:18:59Z</time>
      </trkpt>
      <trkpt lat="47.09261" lon="6.19488">
        <ele>371.68688964844</ele>
        <time>2011-04-17T09:19:05Z</time>
      </trkpt>
      <trkpt lat="47.09277" lon="6.195">
        <ele>373.60949707031</ele>
        <time>2011-04-17T09:19:11Z</time>
      </trkpt>
      <trkpt lat="47.09306" lon="6.19511">
        <ele>375.53210449219</ele>
        <time>2011-04-17T09:19:21Z</time>
      </trkpt>
      <trkpt lat="47.09328" lon="6.19517">
        <ele>376.49353027344</ele>
        <time>2011-04-17T09:19:29Z</time>
      </trkpt>
      <trkpt lat="47.09349" lon="6.19525">
        <ele>377.93542480469</ele>
        <time>2011-04-17T09:19:36Z</time>
      </trkpt>
      <trkpt lat="47.0937" lon="6.19535">
        <ele>378.89685058594</ele>
        <time>2011-04-17T09:19:43Z</time>
      </trkpt>
      <trkpt lat="47.09394" lon="6.19543">
        <ele>380.33874511719</ele>
        <time>2011-04-17T09:19:51Z</time>
      </trkpt>
      <trkpt lat="47.09414" lon="6.19549">
        <ele>380.81945800781</ele>
        <time>2011-04-17T09:19:58Z</time>
      </trkpt>
      <trkpt lat="47.09433" lon="6.19556">
        <ele>382.26135253906</ele>
        <time>2011-04-17T09:20:04Z</time>
      </trkpt>
      <trkpt lat="47.09457" lon="6.19563">
        <ele>381.78063964844</ele>
        <time>2011-04-17T09:20:12Z</time>
      </trkpt>
      <trkpt lat="47.09475" lon="6.19568">
        <ele>381.30004882812</ele>
        <time>2011-04-17T09:20:17Z</time>
      </trkpt>
      <trkpt lat="47.09501" lon="6.19574">
        <ele>380.81945800781</ele>
        <time>2011-04-17T09:20:23Z</time>
      </trkpt>
      <trkpt lat="47.09511" lon="6.19577">
        <ele>381.78063964844</ele>
        <time>2011-04-17T09:20:25Z</time>
      </trkpt>
      <trkpt lat="47.09542" lon="6.19581">
        <ele>381.30004882812</ele>
        <time>2011-04-17T09:20:32Z</time>
      </trkpt>
      <trkpt lat="47.09557" lon="6.1957">
        <ele>381.78063964844</ele>
        <time>2011-04-17T09:20:36Z</time>
      </trkpt>
      <trkpt lat="47.09576" lon="6.19548">
        <ele>384.66479492188</ele>
        <time>2011-04-17T09:20:42Z</time>
      </trkpt>
      <trkpt lat="47.09581" lon="6.19549">
        <ele>385.6259765625</ele>
        <time>2011-04-17T09:20:44Z</time>
      </trkpt>
      <trkpt lat="47.09595" lon="6.19552">
        <ele>386.58740234375</ele>
        <time>2011-04-17T09:20:50Z</time>
      </trkpt>
      <trkpt lat="47.09608" lon="6.19552">
        <ele>387.54858398438</ele>
        <time>2011-04-17T09:20:56Z</time>
      </trkpt>
      <trkpt lat="47.09619" lon="6.19553">
        <ele>387.06799316406</ele>
        <time>2011-04-17T09:21:01Z</time>
      </trkpt>
      <trkpt lat="47.09627" lon="6.19554">
        <ele>388.029296875</ele>
        <time>2011-04-17T09:21:06Z</time>
      </trkpt>
      <trkpt lat="47.0964" lon="6.19558">
        <ele>389.95190429688</ele>
        <time>2011-04-17T09:21:13Z</time>
      </trkpt>
      <trkpt lat="47.09656" lon="6.19562">
        <ele>390.4326171875</ele>
        <time>2011-04-17T09:21:19Z</time>
      </trkpt>
      <trkpt lat="47.09676" lon="6.19568">
        <ele>391.39379882812</ele>
        <time>2011-04-17T09:21:27Z</time>
      </trkpt>
      <trkpt lat="47.09693" lon="6.19571">
        <ele>391.87451171875</ele>
        <time>2011-04-17T09:21:34Z</time>
      </trkpt>
      <trkpt lat="47.09703" lon="6.19575">
        <ele>392.35534667969</ele>
        <time>2011-04-17T09:21:39Z</time>
      </trkpt>
      <trkpt lat="47.09723" lon="6.19585">
        <ele>394.27795410156</ele>
        <time>2011-04-17T09:21:47Z</time>
      </trkpt>
      <trkpt lat="47.09744" lon="6.196">
        <ele>395.71984863281</ele>
        <time>2011-04-17T09:21:55Z</time>
      </trkpt>
      <trkpt lat="47.09765" lon="6.19615">
        <ele>396.68115234375</ele>
        <time>2011-04-17T09:22:04Z</time>
      </trkpt>
      <trkpt lat="47.09783" lon="6.19628">
        <ele>398.12316894531</ele>
        <time>2011-04-17T09:22:13Z</time>
      </trkpt>
      <trkpt lat="47.09798" lon="6.19633">
        <ele>399.56506347656</ele>
        <time>2011-04-17T09:22:19Z</time>
      </trkpt>
      <trkpt lat="47.09811" lon="6.19636">
        <ele>401.00708007812</ele>
        <time>2011-04-17T09:22:25Z</time>
      </trkpt>
      <trkpt lat="47.09829" lon="6.1964">
        <ele>401.48779296875</ele>
        <time>2011-04-17T09:22:32Z</time>
      </trkpt>
      <trkpt lat="47.09843" lon="6.19643">
        <ele>402.44909667969</ele>
        <time>2011-04-17T09:22:38Z</time>
      </trkpt>
      <trkpt lat="47.09859" lon="6.19647">
        <ele>403.89111328125</ele>
        <time>2011-04-17T09:22:45Z</time>
      </trkpt>
      <trkpt lat="47.09876" lon="6.19648">
        <ele>405.3330078125</ele>
        <time>2011-04-17T09:22:52Z</time>
      </trkpt>
      <trkpt lat="47.09886" lon="6.19651">
        <ele>405.81372070312</ele>
        <time>2011-04-17T09:22:57Z</time>
      </trkpt>
      <trkpt lat="47.09897" lon="6.19651">
        <ele>407.25561523438</ele>
        <time>2011-04-17T09:23:02Z</time>
      </trkpt>
      <trkpt lat="47.09911" lon="6.19652">
        <ele>407.736328125</ele>
        <time>2011-04-17T09:23:08Z</time>
      </trkpt>
      <trkpt lat="47.09921" lon="6.19655">
        <ele>408.69763183594</ele>
        <time>2011-04-17T09:23:13Z</time>
      </trkpt>
      <trkpt lat="47.09933" lon="6.19656">
        <ele>409.65905761719</ele>
        <time>2011-04-17T09:23:18Z</time>
      </trkpt>
      <trkpt lat="47.09935" lon="6.19656">
        <ele>410.1396484375</ele>
        <time>2011-04-17T09:23:19Z</time>
      </trkpt>
      <trkpt lat="47.09952" lon="6.19659">
        <ele>411.10095214844</ele>
        <time>2011-04-17T09:23:26Z</time>
      </trkpt>
      <trkpt lat="47.09966" lon="6.19658">
        <ele>411.10095214844</ele>
        <time>2011-04-17T09:23:32Z</time>
      </trkpt>
      <trkpt lat="47.0998" lon="6.1965">
        <ele>412.54284667969</ele>
        <time>2011-04-17T09:23:38Z</time>
      </trkpt>
      <trkpt lat="47.09993" lon="6.19635">
        <ele>413.50427246094</ele>
        <time>2011-04-17T09:23:45Z</time>
      </trkpt>
      <trkpt lat="47.10004" lon="6.19624">
        <ele>414.46545410156</ele>
        <time>2011-04-17T09:23:51Z</time>
      </trkpt>
      <trkpt lat="47.10017" lon="6.19612">
        <ele>414.94616699219</ele>
        <time>2011-04-17T09:23:57Z</time>
      </trkpt>
      <trkpt lat="47.10028" lon="6.19606">
        <ele>414.94616699219</ele>
        <time>2011-04-17T09:24:02Z</time>
      </trkpt>
      <trkpt lat="47.10036" lon="6.19603">
        <ele>415.42687988281</ele>
        <time>2011-04-17T09:24:06Z</time>
      </trkpt>
      <trkpt lat="47.10052" lon="6.19602">
        <ele>417.83020019531</ele>
        <time>2011-04-17T09:24:13Z</time>
      </trkpt>
      <trkpt lat="47.10067" lon="6.19599">
        <ele>419.27221679688</ele>
        <time>2011-04-17T09:24:20Z</time>
      </trkpt>
      <trkpt lat="47.10072" lon="6.19594">
        <ele>419.75280761719</ele>
        <time>2011-04-17T09:24:23Z</time>
      </trkpt>
      <trkpt lat="47.10072" lon="6.19584">
        <ele>420.71411132812</ele>
        <time>2011-04-17T09:24:26Z</time>
      </trkpt>
      <trkpt lat="47.10063" lon="6.19576">
        <ele>420.2333984375</ele>
        <time>2011-04-17T09:24:31Z</time>
      </trkpt>
      <trkpt lat="47.1006" lon="6.19576">
        <ele>420.2333984375</ele>
        <time>2011-04-17T09:24:32Z</time>
      </trkpt>
      <trkpt lat="47.10041" lon="6.19581">
        <ele>420.71411132812</ele>
        <time>2011-04-17T09:24:39Z</time>
      </trkpt>
      <trkpt lat="47.10026" lon="6.19588">
        <ele>421.19482421875</ele>
        <time>2011-04-17T09:24:45Z</time>
      </trkpt>
      <trkpt lat="47.10015" lon="6.19595">
        <ele>422.15600585938</ele>
        <time>2011-04-17T09:24:52Z</time>
      </trkpt>
      <trkpt lat="47.10001" lon="6.19603">
        <ele>422.15600585938</ele>
        <time>2011-04-17T09:24:57Z</time>
      </trkpt>
      <trkpt lat="47.09986" lon="6.19614">
        <ele>423.11743164062</ele>
        <time>2011-04-17T09:25:03Z</time>
      </trkpt>
      <trkpt lat="47.09973" lon="6.19612">
        <ele>424.07873535156</ele>
        <time>2011-04-17T09:25:09Z</time>
      </trkpt>
      <trkpt lat="47.09959" lon="6.19603">
        <ele>426.00134277344</ele>
        <time>2011-04-17T09:25:16Z</time>
      </trkpt>
      <trkpt lat="47.09945" lon="6.19595">
        <ele>426.96276855469</ele>
        <time>2011-04-17T09:25:23Z</time>
      </trkpt>
      <trkpt lat="47.0993" lon="6.19586">
        <ele>427.92395019531</ele>
        <time>2011-04-17T09:25:30Z</time>
      </trkpt>
      <trkpt lat="47.09916" lon="6.1958">
        <ele>428.40466308594</ele>
        <time>2011-04-17T09:25:37Z</time>
      </trkpt>
      <trkpt lat="47.09905" lon="6.19575">
        <ele>429.84655761719</ele>
        <time>2011-04-17T09:25:43Z</time>
      </trkpt>
      <trkpt lat="47.0989" lon="6.1957">
        <ele>430.32727050781</ele>
        <time>2011-04-17T09:25:50Z</time>
      </trkpt>
      <trkpt lat="47.09878" lon="6.19565">
        <ele>431.76916503906</ele>
        <time>2011-04-17T09:25:56Z</time>
      </trkpt>
      <trkpt lat="47.09862" lon="6.19558">
        <ele>432.25</ele>
        <time>2011-04-17T09:26:04Z</time>
      </trkpt>
      <trkpt lat="47.09847" lon="6.19554">
        <ele>433.21130371094</ele>
        <time>2011-04-17T09:26:11Z</time>
      </trkpt>
      <trkpt lat="47.09833" lon="6.19546">
        <ele>434.6533203125</ele>
        <time>2011-04-17T09:26:18Z</time>
      </trkpt>
      <trkpt lat="47.09818" lon="6.19534">
        <ele>436.57592773438</ele>
        <time>2011-04-17T09:26:26Z</time>
      </trkpt>
      <trkpt lat="47.09805" lon="6.19516">
        <ele>437.05651855469</ele>
        <time>2011-04-17T09:26:34Z</time>
      </trkpt>
      <trkpt lat="47.09791" lon="6.19498">
        <ele>438.01782226562</ele>
        <time>2011-04-17T09:26:41Z</time>
      </trkpt>
      <trkpt lat="47.09786" lon="6.19466">
        <ele>438.97912597656</ele>
        <time>2011-04-17T09:26:50Z</time>
      </trkpt>
      <trkpt lat="47.09786" lon="6.19441">
        <ele>439.45971679688</ele>
        <time>2011-04-17T09:26:57Z</time>
      </trkpt>
      <trkpt lat="47.09784" lon="6.19417">
        <ele>440.42126464844</ele>
        <time>2011-04-17T09:27:04Z</time>
      </trkpt>
      <trkpt lat="47.09785" lon="6.19397">
        <ele>441.38244628906</ele>
        <time>2011-04-17T09:27:10Z</time>
      </trkpt>
      <trkpt lat="47.09786" lon="6.19367">
        <ele>443.30505371094</ele>
        <time>2011-04-17T09:27:19Z</time>
      </trkpt>
      <trkpt lat="47.09789" lon="6.19349">
        <ele>444.26647949219</ele>
        <time>2011-04-17T09:27:25Z</time>
      </trkpt>
      <trkpt lat="47.09792" lon="6.19331">
        <ele>445.70837402344</ele>
        <time>2011-04-17T09:27:31Z</time>
      </trkpt>
      <trkpt lat="47.09796" lon="6.19313">
        <ele>445.70837402344</ele>
        <time>2011-04-17T09:27:37Z</time>
      </trkpt>
      <trkpt lat="47.09803" lon="6.19291">
        <ele>447.15026855469</ele>
        <time>2011-04-17T09:27:44Z</time>
      </trkpt>
      <trkpt lat="47.09809" lon="6.19275">
        <ele>447.63098144531</ele>
        <time>2011-04-17T09:27:49Z</time>
      </trkpt>
      <trkpt lat="47.09813" lon="6.1926">
        <ele>448.59240722656</ele>
        <time>2011-04-17T09:27:54Z</time>
      </trkpt>
      <trkpt lat="47.09818" lon="6.19239">
        <ele>449.5537109375</ele>
        <time>2011-04-17T09:28:00Z</time>
      </trkpt>
      <trkpt lat="47.09825" lon="6.1922">
        <ele>450.51501464844</ele>
        <time>2011-04-17T09:28:06Z</time>
      </trkpt>
      <trkpt lat="47.09821" lon="6.19202">
        <ele>451.47631835938</ele>
        <time>2011-04-17T09:28:12Z</time>
      </trkpt>
      <trkpt lat="47.0982" lon="6.19201">
        <ele>450.51501464844</ele>
        <time>2011-04-17T09:28:13Z</time>
      </trkpt>
      <trkpt lat="47.0981" lon="6.192">
        <ele>451.95703125</ele>
        <time>2011-04-17T09:28:18Z</time>
      </trkpt>
      <trkpt lat="47.09795" lon="6.19209">
        <ele>452.91821289062</ele>
        <time>2011-04-17T09:28:27Z</time>
      </trkpt>
      <trkpt lat="47.09778" lon="6.19218">
        <ele>453.87963867188</ele>
        <time>2011-04-17T09:28:35Z</time>
      </trkpt>
      <trkpt lat="47.0976" lon="6.19229">
        <ele>455.32153320312</ele>
        <time>2011-04-17T09:28:42Z</time>
      </trkpt>
      <trkpt lat="47.09744" lon="6.19241">
        <ele>456.28295898438</ele>
        <time>2011-04-17T09:28:49Z</time>
      </trkpt>
      <trkpt lat="47.09732" lon="6.1925">
        <ele>456.76354980469</ele>
        <time>2011-04-17T09:28:55Z</time>
      </trkpt>
      <trkpt lat="47.09718" lon="6.19258">
        <ele>458.20556640625</ele>
        <time>2011-04-17T09:29:01Z</time>
      </trkpt>
      <trkpt lat="47.09702" lon="6.1927">
        <ele>459.64758300781</ele>
        <time>2011-04-17T09:29:09Z</time>
      </trkpt>
      <trkpt lat="47.09689" lon="6.19282">
        <ele>461.08947753906</ele>
        <time>2011-04-17T09:29:16Z</time>
      </trkpt>
      <trkpt lat="47.09679" lon="6.19291">
        <ele>462.05078125</ele>
        <time>2011-04-17T09:29:22Z</time>
      </trkpt>
      <trkpt lat="47.09668" lon="6.19301">
        <ele>463.01208496094</ele>
        <time>2011-04-17T09:29:28Z</time>
      </trkpt>
      <trkpt lat="47.09661" lon="6.19308">
        <ele>463.01208496094</ele>
        <time>2011-04-17T09:29:33Z</time>
      </trkpt>
      <trkpt lat="47.09652" lon="6.1932">
        <ele>463.97338867188</ele>
        <time>2011-04-17T09:29:39Z</time>
      </trkpt>
      <trkpt lat="47.09642" lon="6.19339">
        <ele>464.93481445312</ele>
        <time>2011-04-17T09:29:46Z</time>
      </trkpt>
      <trkpt lat="47.09633" lon="6.1935">
        <ele>466.857421875</ele>
        <time>2011-04-17T09:29:52Z</time>
      </trkpt>
      <trkpt lat="47.09617" lon="6.19358">
        <ele>468.29931640625</ele>
        <time>2011-04-17T09:30:00Z</time>
      </trkpt>
      <trkpt lat="47.09599" lon="6.1936">
        <ele>469.2607421875</ele>
        <time>2011-04-17T09:30:09Z</time>
      </trkpt>
      <trkpt lat="47.09586" lon="6.19354">
        <ele>470.22192382812</ele>
        <time>2011-04-17T09:30:16Z</time>
      </trkpt>
      <trkpt lat="47.09573" lon="6.19346">
        <ele>472.14465332031</ele>
        <time>2011-04-17T09:30:23Z</time>
      </trkpt>
      <trkpt lat="47.09557" lon="6.19335">
        <ele>474.06726074219</ele>
        <time>2011-04-17T09:30:32Z</time>
      </trkpt>
      <trkpt lat="47.09544" lon="6.19325">
        <ele>475.02868652344</ele>
        <time>2011-04-17T09:30:40Z</time>
      </trkpt>
      <trkpt lat="47.09533" lon="6.19311">
        <ele>475.50927734375</ele>
        <time>2011-04-17T09:30:47Z</time>
      </trkpt>
      <trkpt lat="47.09519" lon="6.19294">
        <ele>475.50927734375</ele>
        <time>2011-04-17T09:30:55Z</time>
      </trkpt>
      <trkpt lat="47.09504" lon="6.19278">
        <ele>476.95129394531</ele>
        <time>2011-04-17T09:31:03Z</time>
      </trkpt>
      <trkpt lat="47.09486" lon="6.19257">
        <ele>477.91247558594</ele>
        <time>2011-04-17T09:31:12Z</time>
      </trkpt>
      <trkpt lat="47.09465" lon="6.19231">
        <ele>477.91247558594</ele>
        <time>2011-04-17T09:31:21Z</time>
      </trkpt>
      <trkpt lat="47.09444" lon="6.19196">
        <ele>477.43188476562</ele>
        <time>2011-04-17T09:31:30Z</time>
      </trkpt>
      <trkpt lat="47.09427" lon="6.19153">
        <ele>478.39318847656</ele>
        <time>2011-04-17T09:31:39Z</time>
      </trkpt>
      <trkpt lat="47.09419" lon="6.19127">
        <ele>478.39318847656</ele>
        <time>2011-04-17T09:31:44Z</time>
      </trkpt>
      <trkpt lat="47.09412" lon="6.19096">
        <ele>478.87390136719</ele>
        <time>2011-04-17T09:31:50Z</time>
      </trkpt>
      <trkpt lat="47.09407" lon="6.19064">
        <ele>478.39318847656</ele>
        <time>2011-04-17T09:31:55Z</time>
      </trkpt>
      <trkpt lat="47.09405" lon="6.19033">
        <ele>477.91247558594</ele>
        <time>2011-04-17T09:32:00Z</time>
      </trkpt>
      <trkpt lat="47.09402" lon="6.18997">
        <ele>478.39318847656</ele>
        <time>2011-04-17T09:32:06Z</time>
      </trkpt>
      <trkpt lat="47.09396" lon="6.18972">
        <ele>479.83508300781</ele>
        <time>2011-04-17T09:32:11Z</time>
      </trkpt>
      <trkpt lat="47.0938" lon="6.1894">
        <ele>481.27722167969</ele>
        <time>2011-04-17T09:32:19Z</time>
      </trkpt>
      <trkpt lat="47.09369" lon="6.18911">
        <ele>482.23852539062</ele>
        <time>2011-04-17T09:32:26Z</time>
      </trkpt>
      <trkpt lat="47.09361" lon="6.18888">
        <ele>482.71923828125</ele>
        <time>2011-04-17T09:32:31Z</time>
      </trkpt>
      <trkpt lat="47.09355" lon="6.18865">
        <ele>483.19982910156</ele>
        <time>2011-04-17T09:32:36Z</time>
      </trkpt>
      <trkpt lat="47.09349" lon="6.1884">
        <ele>483.68041992188</ele>
        <time>2011-04-17T09:32:41Z</time>
      </trkpt>
      <trkpt lat="47.09342" lon="6.18804">
        <ele>484.1611328125</ele>
        <time>2011-04-17T09:32:48Z</time>
      </trkpt>
      <trkpt lat="47.09337" lon="6.18765">
        <ele>484.1611328125</ele>
        <time>2011-04-17T09:32:55Z</time>
      </trkpt>
      <trkpt lat="47.09336" lon="6.18736">
        <ele>484.64184570312</ele>
        <time>2011-04-17T09:33:00Z</time>
      </trkpt>
      <trkpt lat="47.09338" lon="6.18705">
        <ele>483.19982910156</ele>
        <time>2011-04-17T09:33:05Z</time>
      </trkpt>
      <trkpt lat="47.09338" lon="6.18698">
        <ele>482.71923828125</ele>
        <time>2011-04-17T09:33:06Z</time>
      </trkpt>
      <trkpt lat="47.09339" lon="6.18691">
        <ele>482.71923828125</ele>
        <time>2011-04-17T09:33:07Z</time>
      </trkpt>
      <trkpt lat="47.09345" lon="6.18661">
        <ele>482.23852539062</ele>
        <time>2011-04-17T09:33:11Z</time>
      </trkpt>
      <trkpt lat="47.09362" lon="6.18609">
        <ele>480.31591796875</ele>
        <time>2011-04-17T09:33:18Z</time>
      </trkpt>
      <trkpt lat="47.09369" lon="6.18594">
        <ele>480.31591796875</ele>
        <time>2011-04-17T09:33:20Z</time>
      </trkpt>
      <trkpt lat="47.09385" lon="6.18566">
        <ele>478.87390136719</ele>
        <time>2011-04-17T09:33:24Z</time>
      </trkpt>
      <trkpt lat="47.0941" lon="6.18523">
        <ele>477.91247558594</ele>
        <time>2011-04-17T09:33:30Z</time>
      </trkpt>
      <trkpt lat="47.09433" lon="6.18503">
        <ele>477.43188476562</ele>
        <time>2011-04-17T09:33:34Z</time>
      </trkpt>
      <trkpt lat="47.09451" lon="6.18496">
        <ele>476.95129394531</ele>
        <time>2011-04-17T09:33:37Z</time>
      </trkpt>
      <trkpt lat="47.09465" lon="6.18495">
        <ele>475.50927734375</ele>
        <time>2011-04-17T09:33:39Z</time>
      </trkpt>
      <trkpt lat="47.09516" lon="6.18504">
        <ele>472.14465332031</ele>
        <time>2011-04-17T09:33:46Z</time>
      </trkpt>
      <trkpt lat="47.09562" lon="6.18511">
        <ele>469.74133300781</ele>
        <time>2011-04-17T09:33:52Z</time>
      </trkpt>
      <trkpt lat="47.09589" lon="6.18512">
        <ele>465.41552734375</ele>
        <time>2011-04-17T09:33:55Z</time>
      </trkpt>
      <trkpt lat="47.09607" lon="6.18512">
        <ele>464.4541015625</ele>
        <time>2011-04-17T09:33:57Z</time>
      </trkpt>
      <trkpt lat="47.09634" lon="6.18516">
        <ele>460.12817382812</ele>
        <time>2011-04-17T09:34:00Z</time>
      </trkpt>
      <trkpt lat="47.09643" lon="6.18515">
        <ele>458.20556640625</ele>
        <time>2011-04-17T09:34:01Z</time>
      </trkpt>
      <trkpt lat="47.09668" lon="6.18512">
        <ele>456.28295898438</ele>
        <time>2011-04-17T09:34:04Z</time>
      </trkpt>
      <trkpt lat="47.09694" lon="6.18505">
        <ele>453.39892578125</ele>
        <time>2011-04-17T09:34:07Z</time>
      </trkpt>
      <trkpt lat="47.09711" lon="6.18498">
        <ele>451.95703125</ele>
        <time>2011-04-17T09:34:09Z</time>
      </trkpt>
      <trkpt lat="47.09736" lon="6.18487">
        <ele>448.59240722656</ele>
        <time>2011-04-17T09:34:12Z</time>
      </trkpt>
      <trkpt lat="47.09754" lon="6.18477">
        <ele>447.15026855469</ele>
        <time>2011-04-17T09:34:14Z</time>
      </trkpt>
      <trkpt lat="47.09781" lon="6.18458">
        <ele>443.78576660156</ele>
        <time>2011-04-17T09:34:17Z</time>
      </trkpt>
      <trkpt lat="47.09798" lon="6.18444">
        <ele>440.42126464844</ele>
        <time>2011-04-17T09:34:19Z</time>
      </trkpt>
      <trkpt lat="47.09828" lon="6.18413">
        <ele>436.57592773438</ele>
        <time>2011-04-17T09:34:23Z</time>
      </trkpt>
      <trkpt lat="47.09836" lon="6.18405">
        <ele>435.13391113281</ele>
        <time>2011-04-17T09:34:24Z</time>
      </trkpt>
      <trkpt lat="47.09853" lon="6.18391">
        <ele>431.76916503906</ele>
        <time>2011-04-17T09:34:26Z</time>
      </trkpt>
      <trkpt lat="47.09861" lon="6.18385">
        <ele>431.76916503906</ele>
        <time>2011-04-17T09:34:27Z</time>
      </trkpt>
      <trkpt lat="47.09869" lon="6.1838">
        <ele>431.28857421875</ele>
        <time>2011-04-17T09:34:28Z</time>
      </trkpt>
      <trkpt lat="47.09884" lon="6.18375">
        <ele>430.32727050781</ele>
        <time>2011-04-17T09:34:30Z</time>
      </trkpt>
      <trkpt lat="47.099" lon="6.18374">
        <ele>427.92395019531</ele>
        <time>2011-04-17T09:34:33Z</time>
      </trkpt>
      <trkpt lat="47.09904" lon="6.18372">
        <ele>427.92395019531</ele>
        <time>2011-04-17T09:34:34Z</time>
      </trkpt>
      <trkpt lat="47.09904" lon="6.18362">
        <ele>426.48205566406</ele>
        <time>2011-04-17T09:34:37Z</time>
      </trkpt>
      <trkpt lat="47.09894" lon="6.1836">
        <ele>424.55944824219</ele>
        <time>2011-04-17T09:34:40Z</time>
      </trkpt>
      <trkpt lat="47.09864" lon="6.18361">
        <ele>421.67541503906</ele>
        <time>2011-04-17T09:34:44Z</time>
      </trkpt>
      <trkpt lat="47.09829" lon="6.18359">
        <ele>419.27221679688</ele>
        <time>2011-04-17T09:34:48Z</time>
      </trkpt>
      <trkpt lat="47.09801" lon="6.18362">
        <ele>415.42687988281</ele>
        <time>2011-04-17T09:34:51Z</time>
      </trkpt>
      <trkpt lat="47.09771" lon="6.18361">
        <ele>410.62023925781</ele>
        <time>2011-04-17T09:34:54Z</time>
      </trkpt>
      <trkpt lat="47.0974" lon="6.1836">
        <ele>407.25561523438</ele>
        <time>2011-04-17T09:34:57Z</time>
      </trkpt>
      <trkpt lat="47.09719" lon="6.1836">
        <ele>405.3330078125</ele>
        <time>2011-04-17T09:34:59Z</time>
      </trkpt>
      <trkpt lat="47.0969" lon="6.18356">
        <ele>403.41040039062</ele>
        <time>2011-04-17T09:35:02Z</time>
      </trkpt>
      <trkpt lat="47.09673" lon="6.18349">
        <ele>400.0458984375</ele>
        <time>2011-04-17T09:35:04Z</time>
      </trkpt>
      <trkpt lat="47.09644" lon="6.18334">
        <ele>395.71984863281</ele>
        <time>2011-04-17T09:35:07Z</time>
      </trkpt>
      <trkpt lat="47.09607" lon="6.18309">
        <ele>391.87451171875</ele>
        <time>2011-04-17T09:35:11Z</time>
      </trkpt>
      <trkpt lat="47.09578" lon="6.18291">
        <ele>388.51000976562</ele>
        <time>2011-04-17T09:35:14Z</time>
      </trkpt>
      <trkpt lat="47.09552" lon="6.18268">
        <ele>386.10668945312</ele>
        <time>2011-04-17T09:35:17Z</time>
      </trkpt>
      <trkpt lat="47.09537" lon="6.18258">
        <ele>384.66479492188</ele>
        <time>2011-04-17T09:35:19Z</time>
      </trkpt>
      <trkpt lat="47.09516" lon="6.18253">
        <ele>381.30004882812</ele>
        <time>2011-04-17T09:35:22Z</time>
      </trkpt>
      <trkpt lat="47.09497" lon="6.18241">
        <ele>376.49353027344</ele>
        <time>2011-04-17T09:35:25Z</time>
      </trkpt>
      <trkpt lat="47.09489" lon="6.18236">
        <ele>376.49353027344</ele>
        <time>2011-04-17T09:35:26Z</time>
      </trkpt>
      <trkpt lat="47.09483" lon="6.18231">
        <ele>374.09008789062</ele>
        <time>2011-04-17T09:35:27Z</time>
      </trkpt>
      <trkpt lat="47.09456" lon="6.1822">
        <ele>371.68688964844</ele>
        <time>2011-04-17T09:35:31Z</time>
      </trkpt>
      <trkpt lat="47.09444" lon="6.18219">
        <ele>371.20629882812</ele>
        <time>2011-04-17T09:35:33Z</time>
      </trkpt>
      <trkpt lat="47.09431" lon="6.18221">
        <ele>369.28369140625</ele>
        <time>2011-04-17T09:35:36Z</time>
      </trkpt>
      <trkpt lat="47.09419" lon="6.18227">
        <ele>368.322265625</ele>
        <time>2011-04-17T09:35:39Z</time>
      </trkpt>
      <trkpt lat="47.09402" lon="6.1824">
        <ele>367.84155273438</ele>
        <time>2011-04-17T09:35:44Z</time>
      </trkpt>
      <trkpt lat="47.09392" lon="6.18249">
        <ele>367.84155273438</ele>
        <time>2011-04-17T09:35:49Z</time>
      </trkpt>
      <trkpt lat="47.09389" lon="6.18252">
        <ele>366.88024902344</ele>
        <time>2011-04-17T09:35:53Z</time>
      </trkpt>
      <trkpt lat="47.09388" lon="6.18253">
        <ele>367.36096191406</ele>
        <time>2011-04-17T09:35:59Z</time>
      </trkpt>
      <trkpt lat="47.09389" lon="6.18252">
        <ele>367.36096191406</ele>
        <time>2011-04-17T09:36:00Z</time>
      </trkpt>
      <trkpt lat="47.09389" lon="6.18249">
        <ele>367.36096191406</ele>
        <time>2011-04-17T09:36:03Z</time>
      </trkpt>
      <trkpt lat="47.09395" lon="6.18244">
        <ele>367.84155273438</ele>
        <time>2011-04-17T09:36:06Z</time>
      </trkpt>
      <trkpt lat="47.09414" lon="6.1823">
        <ele>368.322265625</ele>
        <time>2011-04-17T09:36:13Z</time>
      </trkpt>
      <trkpt lat="47.09437" lon="6.1822">
        <ele>370.7255859375</ele>
        <time>2011-04-17T09:36:20Z</time>
      </trkpt>
      <trkpt lat="47.09446" lon="6.18219">
        <ele>372.16748046875</ele>
        <time>2011-04-17T09:36:25Z</time>
      </trkpt>
      <trkpt lat="47.09454" lon="6.1822">
        <ele>372.16748046875</ele>
        <time>2011-04-17T09:36:28Z</time>
      </trkpt>
      <trkpt lat="47.09465" lon="6.18222">
        <ele>374.09008789062</ele>
        <time>2011-04-17T09:36:32Z</time>
      </trkpt>
      <trkpt lat="47.09474" lon="6.18224">
        <ele>374.09008789062</ele>
        <time>2011-04-17T09:36:36Z</time>
      </trkpt>
      <trkpt lat="47.09484" lon="6.18224">
        <ele>374.57080078125</ele>
        <time>2011-04-17T09:36:39Z</time>
      </trkpt>
      <trkpt lat="47.09494" lon="6.18221">
        <ele>374.09008789062</ele>
        <time>2011-04-17T09:36:41Z</time>
      </trkpt>
      <trkpt lat="47.09538" lon="6.18215">
        <ele>373.12890625</ele>
        <time>2011-04-17T09:36:49Z</time>
      </trkpt>
      <trkpt lat="47.0958" lon="6.18213">
        <ele>373.60949707031</ele>
        <time>2011-04-17T09:36:57Z</time>
      </trkpt>
      <trkpt lat="47.09605" lon="6.18202">
        <ele>370.7255859375</ele>
        <time>2011-04-17T09:37:01Z</time>
      </trkpt>
      <trkpt lat="47.09639" lon="6.18182">
        <ele>367.84155273438</ele>
        <time>2011-04-17T09:37:05Z</time>
      </trkpt>
      <trkpt lat="47.09687" lon="6.18152">
        <ele>367.84155273438</ele>
        <time>2011-04-17T09:37:11Z</time>
      </trkpt>
      <trkpt lat="47.09724" lon="6.18146">
        <ele>366.88024902344</ele>
        <time>2011-04-17T09:37:16Z</time>
      </trkpt>
      <trkpt lat="47.0978" lon="6.18146">
        <ele>364.95764160156</ele>
        <time>2011-04-17T09:37:23Z</time>
      </trkpt>
      <trkpt lat="47.09835" lon="6.1815">
        <ele>364.95764160156</ele>
        <time>2011-04-17T09:37:30Z</time>
      </trkpt>
      <trkpt lat="47.09883" lon="6.18154">
        <ele>365.43835449219</ele>
        <time>2011-04-17T09:37:37Z</time>
      </trkpt>
      <trkpt lat="47.09945" lon="6.18167">
        <ele>365.43835449219</ele>
        <time>2011-04-17T09:37:46Z</time>
      </trkpt>
      <trkpt lat="47.09997" lon="6.18174">
        <ele>364.47692871094</ele>
        <time>2011-04-17T09:37:53Z</time>
      </trkpt>
      <trkpt lat="47.10032" lon="6.18178">
        <ele>361.59313964844</ele>
        <time>2011-04-17T09:37:57Z</time>
      </trkpt>
      <trkpt lat="47.10083" lon="6.18202">
        <ele>359.67041015625</ele>
        <time>2011-04-17T09:38:03Z</time>
      </trkpt>
      <trkpt lat="47.10121" lon="6.18225">
        <ele>360.15112304688</ele>
        <time>2011-04-17T09:38:08Z</time>
      </trkpt>
      <trkpt lat="47.10161" lon="6.18252">
        <ele>361.11242675781</ele>
        <time>2011-04-17T09:38:14Z</time>
      </trkpt>
      <trkpt lat="47.10186" lon="6.1828">
        <ele>362.07373046875</ele>
        <time>2011-04-17T09:38:19Z</time>
      </trkpt>
      <trkpt lat="47.10218" lon="6.1831">
        <ele>363.03503417969</ele>
        <time>2011-04-17T09:38:27Z</time>
      </trkpt>
      <trkpt lat="47.10237" lon="6.18332">
        <ele>364.47692871094</ele>
        <time>2011-04-17T09:38:33Z</time>
      </trkpt>
      <trkpt lat="47.10258" lon="6.18352">
        <ele>365.43835449219</ele>
        <time>2011-04-17T09:38:40Z</time>
      </trkpt>
      <trkpt lat="47.10283" lon="6.18368">
        <ele>365.9189453125</ele>
        <time>2011-04-17T09:38:47Z</time>
      </trkpt>
      <trkpt lat="47.1031" lon="6.18386">
        <ele>363.99633789062</ele>
        <time>2011-04-17T09:38:53Z</time>
      </trkpt>
      <trkpt lat="47.10344" lon="6.18408">
        <ele>364.95764160156</ele>
        <time>2011-04-17T09:39:00Z</time>
      </trkpt>
      <trkpt lat="47.10368" lon="6.18427">
        <ele>364.95764160156</ele>
        <time>2011-04-17T09:39:06Z</time>
      </trkpt>
      <trkpt lat="47.10386" lon="6.1844">
        <ele>363.99633789062</ele>
        <time>2011-04-17T09:39:10Z</time>
      </trkpt>
      <trkpt lat="47.10418" lon="6.1846">
        <ele>363.99633789062</ele>
        <time>2011-04-17T09:39:16Z</time>
      </trkpt>
      <trkpt lat="47.10447" lon="6.18476">
        <ele>364.47692871094</ele>
        <time>2011-04-17T09:39:22Z</time>
      </trkpt>
      <trkpt lat="47.1046" lon="6.18482">
        <ele>364.47692871094</ele>
        <time>2011-04-17T09:39:25Z</time>
      </trkpt>
      <trkpt lat="47.10474" lon="6.18492">
        <ele>363.99633789062</ele>
        <time>2011-04-17T09:39:28Z</time>
      </trkpt>
      <trkpt lat="47.10503" lon="6.18509">
        <ele>365.43835449219</ele>
        <time>2011-04-17T09:39:34Z</time>
      </trkpt>
      <trkpt lat="47.10518" lon="6.18517">
        <ele>365.43835449219</ele>
        <time>2011-04-17T09:39:37Z</time>
      </trkpt>
      <trkpt lat="47.10527" lon="6.18524">
        <ele>365.9189453125</ele>
        <time>2011-04-17T09:39:39Z</time>
      </trkpt>
      <trkpt lat="47.10548" lon="6.18533">
        <ele>365.9189453125</ele>
        <time>2011-04-17T09:39:44Z</time>
      </trkpt>
      <trkpt lat="47.10563" lon="6.18538">
        <ele>365.9189453125</ele>
        <time>2011-04-17T09:39:47Z</time>
      </trkpt>
      <trkpt lat="47.10589" lon="6.18549">
        <ele>364.47692871094</ele>
        <time>2011-04-17T09:39:52Z</time>
      </trkpt>
      <trkpt lat="47.10599" lon="6.18554">
        <ele>364.95764160156</ele>
        <time>2011-04-17T09:39:54Z</time>
      </trkpt>
      <trkpt lat="47.10613" lon="6.18548">
        <ele>363.99633789062</ele>
        <time>2011-04-17T09:39:57Z</time>
      </trkpt>
      <trkpt lat="47.10616" lon="6.18543">
        <ele>363.03503417969</ele>
        <time>2011-04-17T09:39:58Z</time>
      </trkpt>
      <trkpt lat="47.10619" lon="6.18528">
        <ele>359.67041015625</ele>
        <time>2011-04-17T09:40:03Z</time>
      </trkpt>
      <trkpt lat="47.10619" lon="6.18511">
        <ele>360.63171386719</ele>
        <time>2011-04-17T09:40:08Z</time>
      </trkpt>
      <trkpt lat="47.10617" lon="6.18504">
        <ele>360.15112304688</ele>
        <time>2011-04-17T09:40:10Z</time>
      </trkpt>
      <trkpt lat="47.106" lon="6.18498">
        <ele>360.63171386719</ele>
        <time>2011-04-17T09:40:14Z</time>
      </trkpt>
      <trkpt lat="47.10591" lon="6.18494">
        <ele>360.63171386719</ele>
        <time>2011-04-17T09:40:16Z</time>
      </trkpt>
      <trkpt lat="47.10564" lon="6.18479">
        <ele>359.67041015625</ele>
        <time>2011-04-17T09:40:22Z</time>
      </trkpt>
      <trkpt lat="47.1055" lon="6.18471">
        <ele>358.708984375</ele>
        <time>2011-04-17T09:40:25Z</time>
      </trkpt>
      <trkpt lat="47.10522" lon="6.18458">
        <ele>358.22839355469</ele>
        <time>2011-04-17T09:40:30Z</time>
      </trkpt>
      <trkpt lat="47.10487" lon="6.18436">
        <ele>357.26708984375</ele>
        <time>2011-04-17T09:40:36Z</time>
      </trkpt>
      <trkpt lat="47.10449" lon="6.18409">
        <ele>357.74780273438</ele>
        <time>2011-04-17T09:40:43Z</time>
      </trkpt>
      <trkpt lat="47.10416" lon="6.18381">
        <ele>357.74780273438</ele>
        <time>2011-04-17T09:40:49Z</time>
      </trkpt>
      <trkpt lat="47.10386" lon="6.18347">
        <ele>356.78637695312</ele>
        <time>2011-04-17T09:40:55Z</time>
      </trkpt>
      <trkpt lat="47.1036" lon="6.18321">
        <ele>356.78637695312</ele>
        <time>2011-04-17T09:41:01Z</time>
      </trkpt>
      <trkpt lat="47.10345" lon="6.1831">
        <ele>355.8251953125</ele>
        <time>2011-04-17T09:41:04Z</time>
      </trkpt>
      <trkpt lat="47.10314" lon="6.18279">
        <ele>353.90258789062</ele>
        <time>2011-04-17T09:41:10Z</time>
      </trkpt>
      <trkpt lat="47.10304" lon="6.18268">
        <ele>353.90258789062</ele>
        <time>2011-04-17T09:41:12Z</time>
      </trkpt>
      <trkpt lat="47.10296" lon="6.18257">
        <ele>354.86376953125</ele>
        <time>2011-04-17T09:41:14Z</time>
      </trkpt>
      <trkpt lat="47.10281" lon="6.18234">
        <ele>355.8251953125</ele>
        <time>2011-04-17T09:41:18Z</time>
      </trkpt>
      <trkpt lat="47.10261" lon="6.18208">
        <ele>357.26708984375</ele>
        <time>2011-04-17T09:41:24Z</time>
      </trkpt>
      <trkpt lat="47.10234" lon="6.18177">
        <ele>354.86376953125</ele>
        <time>2011-04-17T09:41:30Z</time>
      </trkpt>
      <trkpt lat="47.10215" lon="6.18159">
        <ele>357.26708984375</ele>
        <time>2011-04-17T09:41:34Z</time>
      </trkpt>
      <trkpt lat="47.10191" lon="6.18129">
        <ele>355.34448242188</ele>
        <time>2011-04-17T09:41:40Z</time>
      </trkpt>
      <trkpt lat="47.10171" lon="6.18104">
        <ele>353.90258789062</ele>
        <time>2011-04-17T09:41:44Z</time>
      </trkpt>
      <trkpt lat="47.10155" lon="6.18085">
        <ele>353.421875</ele>
        <time>2011-04-17T09:41:47Z</time>
      </trkpt>
      <trkpt lat="47.10113" lon="6.18052">
        <ele>351.01843261719</ele>
        <time>2011-04-17T09:41:54Z</time>
      </trkpt>
      <trkpt lat="47.10094" lon="6.18039">
        <ele>351.97985839844</ele>
        <time>2011-04-17T09:41:57Z</time>
      </trkpt>
      <trkpt lat="47.10058" lon="6.18">
        <ele>352.94116210938</ele>
        <time>2011-04-17T09:42:04Z</time>
      </trkpt>
      <trkpt lat="47.10048" lon="6.1799">
        <ele>352.94116210938</ele>
        <time>2011-04-17T09:42:06Z</time>
      </trkpt>
      <trkpt lat="47.10022" lon="6.17979">
        <ele>351.49914550781</ele>
        <time>2011-04-17T09:42:10Z</time>
      </trkpt>
      <trkpt lat="47.09972" lon="6.17965">
        <ele>350.05725097656</ele>
        <time>2011-04-17T09:42:17Z</time>
      </trkpt>
      <trkpt lat="47.09943" lon="6.1794">
        <ele>349.57653808594</ele>
        <time>2011-04-17T09:42:22Z</time>
      </trkpt>
      <trkpt lat="47.09937" lon="6.17935">
        <ele>349.09582519531</ele>
        <time>2011-04-17T09:42:23Z</time>
      </trkpt>
      <trkpt lat="47.09903" lon="6.1792">
        <ele>347.65393066406</ele>
        <time>2011-04-17T09:42:28Z</time>
      </trkpt>
      <trkpt lat="47.09867" lon="6.17904">
        <ele>345.25061035156</ele>
        <time>2011-04-17T09:42:33Z</time>
      </trkpt>
      <trkpt lat="47.09813" lon="6.1787">
        <ele>344.77001953125</ele>
        <time>2011-04-17T09:42:41Z</time>
      </trkpt>
      <trkpt lat="47.09794" lon="6.17859">
        <ele>343.80859375</ele>
        <time>2011-04-17T09:42:44Z</time>
      </trkpt>
      <trkpt lat="47.09766" lon="6.17856">
        <ele>342.84729003906</ele>
        <time>2011-04-17T09:42:48Z</time>
      </trkpt>
      <trkpt lat="47.09751" lon="6.17862">
        <ele>341.88598632812</ele>
        <time>2011-04-17T09:42:50Z</time>
      </trkpt>
      <trkpt lat="47.09715" lon="6.17862">
        <ele>340.92468261719</ele>
        <time>2011-04-17T09:42:55Z</time>
      </trkpt>
      <trkpt lat="47.09708" lon="6.17861">
        <ele>341.88598632812</ele>
        <time>2011-04-17T09:42:56Z</time>
      </trkpt>
      <trkpt lat="47.09686" lon="6.17844">
        <ele>340.92468261719</ele>
        <time>2011-04-17T09:43:00Z</time>
      </trkpt>
      <trkpt lat="47.09666" lon="6.17816">
        <ele>339.96337890625</ele>
        <time>2011-04-17T09:43:04Z</time>
      </trkpt>
      <trkpt lat="47.09645" lon="6.17764">
        <ele>339.48266601562</ele>
        <time>2011-04-17T09:43:10Z</time>
      </trkpt>
      <trkpt lat="47.09628" lon="6.17703">
        <ele>339.96337890625</ele>
        <time>2011-04-17T09:43:17Z</time>
      </trkpt>
      <trkpt lat="47.09616" lon="6.17647">
        <ele>340.92468261719</ele>
        <time>2011-04-17T09:43:24Z</time>
      </trkpt>
      <trkpt lat="47.09615" lon="6.17639">
        <ele>340.44409179688</ele>
        <time>2011-04-17T09:43:25Z</time>
      </trkpt>
      <trkpt lat="47.09608" lon="6.17621">
        <ele>340.44409179688</ele>
        <time>2011-04-17T09:43:28Z</time>
      </trkpt>
      <trkpt lat="47.09596" lon="6.17603">
        <ele>339.48266601562</ele>
        <time>2011-04-17T09:43:32Z</time>
      </trkpt>
      <trkpt lat="47.09599" lon="6.1758">
        <ele>340.92468261719</ele>
        <time>2011-04-17T09:43:36Z</time>
      </trkpt>
      <trkpt lat="47.09601" lon="6.17573">
        <ele>341.4052734375</ele>
        <time>2011-04-17T09:43:37Z</time>
      </trkpt>
      <trkpt lat="47.09608" lon="6.17554">
        <ele>341.4052734375</ele>
        <time>2011-04-17T09:43:40Z</time>
      </trkpt>
      <trkpt lat="47.09615" lon="6.17536">
        <ele>340.44409179688</ele>
        <time>2011-04-17T09:43:43Z</time>
      </trkpt>
      <trkpt lat="47.09631" lon="6.17481">
        <ele>341.4052734375</ele>
        <time>2011-04-17T09:43:51Z</time>
      </trkpt>
      <trkpt lat="47.09642" lon="6.17435">
        <ele>341.4052734375</ele>
        <time>2011-04-17T09:43:56Z</time>
      </trkpt>
      <trkpt lat="47.09653" lon="6.17384">
        <ele>341.88598632812</ele>
        <time>2011-04-17T09:44:01Z</time>
      </trkpt>
      <trkpt lat="47.09665" lon="6.17317">
        <ele>342.36669921875</ele>
        <time>2011-04-17T09:44:07Z</time>
      </trkpt>
      <trkpt lat="47.09678" lon="6.17254">
        <ele>343.80859375</ele>
        <time>2011-04-17T09:44:13Z</time>
      </trkpt>
      <trkpt lat="47.09698" lon="6.17181">
        <ele>342.84729003906</ele>
        <time>2011-04-17T09:44:20Z</time>
      </trkpt>
      <trkpt lat="47.09702" lon="6.17172">
        <ele>342.36669921875</ele>
        <time>2011-04-17T09:44:21Z</time>
      </trkpt>
      <trkpt lat="47.09717" lon="6.17148">
        <ele>343.32788085938</ele>
        <time>2011-04-17T09:44:24Z</time>
      </trkpt>
      <trkpt lat="47.09725" lon="6.17135">
        <ele>344.28942871094</ele>
        <time>2011-04-17T09:44:26Z</time>
      </trkpt>
      <trkpt lat="47.09746" lon="6.17093">
        <ele>345.73132324219</ele>
        <time>2011-04-17T09:44:35Z</time>
      </trkpt>
      <trkpt lat="47.0976" lon="6.17069">
        <ele>347.65393066406</ele>
        <time>2011-04-17T09:44:42Z</time>
      </trkpt>
      <trkpt lat="47.09772" lon="6.17046">
        <ele>348.13464355469</ele>
        <time>2011-04-17T09:44:49Z</time>
      </trkpt>
      <trkpt lat="47.09789" lon="6.17014">
        <ele>348.615234375</ele>
        <time>2011-04-17T09:44:57Z</time>
      </trkpt>
      <trkpt lat="47.09807" lon="6.16974">
        <ele>348.615234375</ele>
        <time>2011-04-17T09:45:06Z</time>
      </trkpt>
      <trkpt lat="47.09829" lon="6.16927">
        <ele>350.53784179688</ele>
        <time>2011-04-17T09:45:16Z</time>
      </trkpt>
      <trkpt lat="47.09852" lon="6.16884">
        <ele>349.57653808594</ele>
        <time>2011-04-17T09:45:25Z</time>
      </trkpt>
      <trkpt lat="47.0988" lon="6.16843">
        <ele>350.05725097656</ele>
        <time>2011-04-17T09:45:33Z</time>
      </trkpt>
      <trkpt lat="47.09913" lon="6.16803">
        <ele>349.09582519531</ele>
        <time>2011-04-17T09:45:42Z</time>
      </trkpt>
      <trkpt lat="47.09921" lon="6.16797">
        <ele>349.57653808594</ele>
        <time>2011-04-17T09:45:44Z</time>
      </trkpt>
      <trkpt lat="47.0996" lon="6.16774">
        <ele>349.57653808594</ele>
        <time>2011-04-17T09:45:53Z</time>
      </trkpt>
      <trkpt lat="47.09979" lon="6.16759">
        <ele>348.13464355469</ele>
        <time>2011-04-17T09:45:57Z</time>
      </trkpt>
      <trkpt lat="47.10023" lon="6.16725">
        <ele>346.21203613281</ele>
        <time>2011-04-17T09:46:05Z</time>
      </trkpt>
      <trkpt lat="47.1008" lon="6.16675">
        <ele>345.25061035156</ele>
        <time>2011-04-17T09:46:15Z</time>
      </trkpt>
      <trkpt lat="47.10119" lon="6.16646">
        <ele>343.80859375</ele>
        <time>2011-04-17T09:46:22Z</time>
      </trkpt>
      <trkpt lat="47.10123" lon="6.16642">
        <ele>344.77001953125</ele>
        <time>2011-04-17T09:46:23Z</time>
      </trkpt>
      <trkpt lat="47.10136" lon="6.16645">
        <ele>345.73132324219</ele>
        <time>2011-04-17T09:46:27Z</time>
      </trkpt>
      <trkpt lat="47.10136" lon="6.1665">
        <ele>346.21203613281</ele>
        <time>2011-04-17T09:46:28Z</time>
      </trkpt>
      <trkpt lat="47.10142" lon="6.16679">
        <ele>347.65393066406</ele>
        <time>2011-04-17T09:46:35Z</time>
      </trkpt>
      <trkpt lat="47.10145" lon="6.16686">
        <ele>348.615234375</ele>
        <time>2011-04-17T09:46:37Z</time>
      </trkpt>
      <trkpt lat="47.10154" lon="6.16709">
        <ele>351.01843261719</ele>
        <time>2011-04-17T09:46:44Z</time>
      </trkpt>
      <trkpt lat="47.10162" lon="6.16735">
        <ele>352.94116210938</ele>
        <time>2011-04-17T09:46:53Z</time>
      </trkpt>
      <trkpt lat="47.10167" lon="6.16749">
        <ele>354.38317871094</ele>
        <time>2011-04-17T09:46:59Z</time>
      </trkpt>
      <trkpt lat="47.10167" lon="6.16751">
        <ele>354.86376953125</ele>
        <time>2011-04-17T09:47:00Z</time>
      </trkpt>
      <trkpt lat="47.10176" lon="6.16753">
        <ele>355.34448242188</ele>
        <time>2011-04-17T09:47:05Z</time>
      </trkpt>
      <trkpt lat="47.10197" lon="6.1674">
        <ele>356.30578613281</ele>
        <time>2011-04-17T09:47:13Z</time>
      </trkpt>
      <trkpt lat="47.10222" lon="6.16726">
        <ele>356.30578613281</ele>
        <time>2011-04-17T09:47:21Z</time>
      </trkpt>
      <trkpt lat="47.10258" lon="6.16705">
        <ele>356.30578613281</ele>
        <time>2011-04-17T09:47:32Z</time>
      </trkpt>
      <trkpt lat="47.10268" lon="6.16699">
        <ele>356.30578613281</ele>
        <time>2011-04-17T09:47:35Z</time>
      </trkpt>
      <trkpt lat="47.1028" lon="6.1668">
        <ele>355.8251953125</ele>
        <time>2011-04-17T09:47:39Z</time>
      </trkpt>
      <trkpt lat="47.10302" lon="6.16639">
        <ele>353.90258789062</ele>
        <time>2011-04-17T09:47:45Z</time>
      </trkpt>
      <trkpt lat="47.10329" lon="6.16591">
        <ele>352.46057128906</ele>
        <time>2011-04-17T09:47:52Z</time>
      </trkpt>
      <trkpt lat="47.1036" lon="6.16544">
        <ele>352.46057128906</ele>
        <time>2011-04-17T09:47:59Z</time>
      </trkpt>
      <trkpt lat="47.10376" lon="6.16511">
        <ele>350.05725097656</ele>
        <time>2011-04-17T09:48:03Z</time>
      </trkpt>
      <trkpt lat="47.10386" lon="6.16488">
        <ele>346.69262695312</ele>
        <time>2011-04-17T09:48:05Z</time>
      </trkpt>
      <trkpt lat="47.104" lon="6.1645">
        <ele>343.32788085938</ele>
        <time>2011-04-17T09:48:08Z</time>
      </trkpt>
      <trkpt lat="47.10428" lon="6.16371">
        <ele>339.96337890625</ele>
        <time>2011-04-17T09:48:14Z</time>
      </trkpt>
      <trkpt lat="47.10432" lon="6.16356">
        <ele>339.00207519531</ele>
        <time>2011-04-17T09:48:15Z</time>
      </trkpt>
      <trkpt lat="47.10437" lon="6.16297">
        <ele>337.07946777344</ele>
        <time>2011-04-17T09:48:19Z</time>
      </trkpt>
      <trkpt lat="47.10443" lon="6.16227">
        <ele>336.1181640625</ele>
        <time>2011-04-17T09:48:24Z</time>
      </trkpt>
      <trkpt lat="47.10458" lon="6.16158">
        <ele>336.1181640625</ele>
        <time>2011-04-17T09:48:30Z</time>
      </trkpt>
      <trkpt lat="47.10469" lon="6.16106">
        <ele>335.63732910156</ele>
        <time>2011-04-17T09:48:35Z</time>
      </trkpt>
      <trkpt lat="47.10486" lon="6.16018">
        <ele>335.15673828125</ele>
        <time>2011-04-17T09:48:44Z</time>
      </trkpt>
      <trkpt lat="47.10498" lon="6.15952">
        <ele>335.63732910156</ele>
        <time>2011-04-17T09:48:51Z</time>
      </trkpt>
      <trkpt lat="47.10501" lon="6.15933">
        <ele>335.63732910156</ele>
        <time>2011-04-17T09:48:53Z</time>
      </trkpt>
      <trkpt lat="47.10503" lon="6.15905">
        <ele>335.63732910156</ele>
        <time>2011-04-17T09:48:56Z</time>
      </trkpt>
      <trkpt lat="47.10503" lon="6.15856">
        <ele>336.59887695312</ele>
        <time>2011-04-17T09:49:02Z</time>
      </trkpt>
      <trkpt lat="47.10504" lon="6.15835">
        <ele>336.1181640625</ele>
        <time>2011-04-17T09:49:06Z</time>
      </trkpt>
      <trkpt lat="47.10495" lon="6.15816">
        <ele>336.1181640625</ele>
        <time>2011-04-17T09:49:11Z</time>
      </trkpt>
      <trkpt lat="47.10487" lon="6.15801">
        <ele>336.1181640625</ele>
        <time>2011-04-17T09:49:16Z</time>
      </trkpt>
      <trkpt lat="47.10477" lon="6.15783">
        <ele>336.59887695312</ele>
        <time>2011-04-17T09:49:22Z</time>
      </trkpt>
      <trkpt lat="47.10462" lon="6.15755">
        <ele>336.1181640625</ele>
        <time>2011-04-17T09:49:29Z</time>
      </trkpt>
      <trkpt lat="47.1046" lon="6.15733">
        <ele>336.1181640625</ele>
        <time>2011-04-17T09:49:34Z</time>
      </trkpt>
      <trkpt lat="47.10459" lon="6.15715">
        <ele>338.521484375</ele>
        <time>2011-04-17T09:49:39Z</time>
      </trkpt>
      <trkpt lat="47.10457" lon="6.15703">
        <ele>338.521484375</ele>
        <time>2011-04-17T09:49:42Z</time>
      </trkpt>
      <trkpt lat="47.10454" lon="6.15682">
        <ele>340.92468261719</ele>
        <time>2011-04-17T09:49:47Z</time>
      </trkpt>
      <trkpt lat="47.10452" lon="6.15674">
        <ele>341.88598632812</ele>
        <time>2011-04-17T09:49:49Z</time>
      </trkpt>
      <trkpt lat="47.10446" lon="6.15659">
        <ele>342.84729003906</ele>
        <time>2011-04-17T09:49:53Z</time>
      </trkpt>
      <trkpt lat="47.10434" lon="6.15641">
        <ele>342.84729003906</ele>
        <time>2011-04-17T09:49:59Z</time>
      </trkpt>
      <trkpt lat="47.1043" lon="6.15623">
        <ele>344.77001953125</ele>
        <time>2011-04-17T09:50:03Z</time>
      </trkpt>
      <trkpt lat="47.10434" lon="6.15587">
        <ele>344.28942871094</ele>
        <time>2011-04-17T09:50:09Z</time>
      </trkpt>
      <trkpt lat="47.10444" lon="6.1552">
        <ele>343.80859375</ele>
        <time>2011-04-17T09:50:19Z</time>
      </trkpt>
      <trkpt lat="47.1045" lon="6.15472">
        <ele>344.77001953125</ele>
        <time>2011-04-17T09:50:27Z</time>
      </trkpt>
      <trkpt lat="47.10459" lon="6.1545">
        <ele>346.69262695312</ele>
        <time>2011-04-17T09:50:32Z</time>
      </trkpt>
      <trkpt lat="47.10477" lon="6.15433">
        <ele>346.69262695312</ele>
        <time>2011-04-17T09:50:39Z</time>
      </trkpt>
      <trkpt lat="47.10489" lon="6.15435">
        <ele>347.17321777344</ele>
        <time>2011-04-17T09:50:43Z</time>
      </trkpt>
      <trkpt lat="47.10512" lon="6.15448">
        <ele>349.09582519531</ele>
        <time>2011-04-17T09:50:49Z</time>
      </trkpt>
      <trkpt lat="47.10551" lon="6.15471">
        <ele>351.01843261719</ele>
        <time>2011-04-17T09:50:59Z</time>
      </trkpt>
      <trkpt lat="47.10582" lon="6.15494">
        <ele>351.97985839844</ele>
        <time>2011-04-17T09:51:08Z</time>
      </trkpt>
      <trkpt lat="47.10608" lon="6.15518">
        <ele>353.90258789062</ele>
        <time>2011-04-17T09:51:17Z</time>
      </trkpt>
      <trkpt lat="47.10634" lon="6.15541">
        <ele>354.86376953125</ele>
        <time>2011-04-17T09:51:26Z</time>
      </trkpt>
      <trkpt lat="47.10658" lon="6.15562">
        <ele>357.26708984375</ele>
        <time>2011-04-17T09:51:35Z</time>
      </trkpt>
      <trkpt lat="47.10687" lon="6.15583">
        <ele>360.15112304688</ele>
        <time>2011-04-17T09:51:46Z</time>
      </trkpt>
      <trkpt lat="47.10706" lon="6.15597">
        <ele>362.55432128906</ele>
        <time>2011-04-17T09:51:54Z</time>
      </trkpt>
      <trkpt lat="47.10723" lon="6.15613">
        <ele>364.47692871094</ele>
        <time>2011-04-17T09:52:02Z</time>
      </trkpt>
      <trkpt lat="47.10741" lon="6.1563">
        <ele>365.43835449219</ele>
        <time>2011-04-17T09:52:10Z</time>
      </trkpt>
      <trkpt lat="47.10761" lon="6.15641">
        <ele>367.36096191406</ele>
        <time>2011-04-17T09:52:18Z</time>
      </trkpt>
      <trkpt lat="47.10777" lon="6.15652">
        <ele>368.322265625</ele>
        <time>2011-04-17T09:52:25Z</time>
      </trkpt>
      <trkpt lat="47.10798" lon="6.15666">
        <ele>369.28369140625</ele>
        <time>2011-04-17T09:52:34Z</time>
      </trkpt>
      <trkpt lat="47.10823" lon="6.15683">
        <ele>371.20629882812</ele>
        <time>2011-04-17T09:52:44Z</time>
      </trkpt>
      <trkpt lat="47.10827" lon="6.15686">
        <ele>372.16748046875</ele>
        <time>2011-04-17T09:52:46Z</time>
      </trkpt>
      <trkpt lat="47.10843" lon="6.157">
        <ele>373.12890625</ele>
        <time>2011-04-17T09:52:54Z</time>
      </trkpt>
      <trkpt lat="47.10862" lon="6.15711">
        <ele>374.09008789062</ele>
        <time>2011-04-17T09:53:03Z</time>
      </trkpt>
      <trkpt lat="47.10881" lon="6.15725">
        <ele>377.45483398438</ele>
        <time>2011-04-17T09:53:13Z</time>
      </trkpt>
      <trkpt lat="47.10892" lon="6.15735">
        <ele>379.37744140625</ele>
        <time>2011-04-17T09:53:19Z</time>
      </trkpt>
      <trkpt lat="47.10907" lon="6.15746">
        <ele>380.33874511719</ele>
        <time>2011-04-17T09:53:26Z</time>
      </trkpt>
      <trkpt lat="47.10925" lon="6.15761">
        <ele>382.26135253906</ele>
        <time>2011-04-17T09:53:35Z</time>
      </trkpt>
      <trkpt lat="47.10944" lon="6.15778">
        <ele>382.74206542969</ele>
        <time>2011-04-17T09:53:45Z</time>
      </trkpt>
      <trkpt lat="47.10969" lon="6.158">
        <ele>385.6259765625</ele>
        <time>2011-04-17T09:53:57Z</time>
      </trkpt>
      <trkpt lat="47.10988" lon="6.15819">
        <ele>386.10668945312</ele>
        <time>2011-04-17T09:54:05Z</time>
      </trkpt>
      <trkpt lat="47.11011" lon="6.15841">
        <ele>387.06799316406</ele>
        <time>2011-04-17T09:54:13Z</time>
      </trkpt>
      <trkpt lat="47.11036" lon="6.1586">
        <ele>388.029296875</ele>
        <time>2011-04-17T09:54:21Z</time>
      </trkpt>
      <trkpt lat="47.11061" lon="6.15881">
        <ele>390.4326171875</ele>
        <time>2011-04-17T09:54:29Z</time>
      </trkpt>
      <trkpt lat="47.11084" lon="6.15902">
        <ele>391.87451171875</ele>
        <time>2011-04-17T09:54:37Z</time>
      </trkpt>
      <trkpt lat="47.111" lon="6.15921">
        <ele>392.8359375</ele>
        <time>2011-04-17T09:54:43Z</time>
      </trkpt>
      <trkpt lat="47.11115" lon="6.1594">
        <ele>392.8359375</ele>
        <time>2011-04-17T09:54:49Z</time>
      </trkpt>
      <trkpt lat="47.11129" lon="6.1596">
        <ele>394.75854492188</ele>
        <time>2011-04-17T09:54:56Z</time>
      </trkpt>
      <trkpt lat="47.11142" lon="6.15977">
        <ele>396.68115234375</ele>
        <time>2011-04-17T09:55:03Z</time>
      </trkpt>
      <trkpt lat="47.11157" lon="6.1599">
        <ele>397.64245605469</ele>
        <time>2011-04-17T09:55:10Z</time>
      </trkpt>
      <trkpt lat="47.1117" lon="6.16002">
        <ele>399.56506347656</ele>
        <time>2011-04-17T09:55:17Z</time>
      </trkpt>
      <trkpt lat="47.11187" lon="6.1601">
        <ele>401.48779296875</ele>
        <time>2011-04-17T09:55:25Z</time>
      </trkpt>
      <trkpt lat="47.11191" lon="6.16014">
        <ele>402.9296875</ele>
        <time>2011-04-17T09:55:28Z</time>
      </trkpt>
      <trkpt lat="47.112" lon="6.16025">
        <ele>404.37170410156</ele>
        <time>2011-04-17T09:55:34Z</time>
      </trkpt>
      <trkpt lat="47.11207" lon="6.16035">
        <ele>406.29431152344</ele>
        <time>2011-04-17T09:55:39Z</time>
      </trkpt>
      <trkpt lat="47.1122" lon="6.16052">
        <ele>406.29431152344</ele>
        <time>2011-04-17T09:55:48Z</time>
      </trkpt>
      <trkpt lat="47.11232" lon="6.16072">
        <ele>408.69763183594</ele>
        <time>2011-04-17T09:55:57Z</time>
      </trkpt>
      <trkpt lat="47.11241" lon="6.16093">
        <ele>409.65905761719</ele>
        <time>2011-04-17T09:56:06Z</time>
      </trkpt>
      <trkpt lat="47.11249" lon="6.1611">
        <ele>411.58166503906</ele>
        <time>2011-04-17T09:56:14Z</time>
      </trkpt>
      <trkpt lat="47.1125" lon="6.16111">
        <ele>411.58166503906</ele>
        <time>2011-04-17T09:56:15Z</time>
      </trkpt>
      <trkpt lat="47.11254" lon="6.16117">
        <ele>413.02355957031</ele>
        <time>2011-04-17T09:56:18Z</time>
      </trkpt>
      <trkpt lat="47.11265" lon="6.16131">
        <ele>414.46545410156</ele>
        <time>2011-04-17T09:56:27Z</time>
      </trkpt>
      <trkpt lat="47.11279" lon="6.16145">
        <ele>415.42687988281</ele>
        <time>2011-04-17T09:56:37Z</time>
      </trkpt>
      <trkpt lat="47.1129" lon="6.16159">
        <ele>417.83020019531</ele>
        <time>2011-04-17T09:56:45Z</time>
      </trkpt>
      <trkpt lat="47.11303" lon="6.16176">
        <ele>419.27221679688</ele>
        <time>2011-04-17T09:56:55Z</time>
      </trkpt>
      <trkpt lat="47.11315" lon="6.16188">
        <ele>419.27221679688</ele>
        <time>2011-04-17T09:57:03Z</time>
      </trkpt>
      <trkpt lat="47.11325" lon="6.16198">
        <ele>422.15600585938</ele>
        <time>2011-04-17T09:57:10Z</time>
      </trkpt>
      <trkpt lat="47.11338" lon="6.16213">
        <ele>423.11743164062</ele>
        <time>2011-04-17T09:57:20Z</time>
      </trkpt>
      <trkpt lat="47.1135" lon="6.16223">
        <ele>425.04016113281</ele>
        <time>2011-04-17T09:57:28Z</time>
      </trkpt>
      <trkpt lat="47.11353" lon="6.16225">
        <ele>426.00134277344</ele>
        <time>2011-04-17T09:57:30Z</time>
      </trkpt>
      <trkpt lat="47.1137" lon="6.16238">
        <ele>428.40466308594</ele>
        <time>2011-04-17T09:57:42Z</time>
      </trkpt>
      <trkpt lat="47.11384" lon="6.16248">
        <ele>429.84655761719</ele>
        <time>2011-04-17T09:57:51Z</time>
      </trkpt>
      <trkpt lat="47.11389" lon="6.16251">
        <ele>431.76916503906</ele>
        <time>2011-04-17T09:57:54Z</time>
      </trkpt>
      <trkpt lat="47.11401" lon="6.16258">
        <ele>434.17260742188</ele>
        <time>2011-04-17T09:58:02Z</time>
      </trkpt>
      <trkpt lat="47.11403" lon="6.16259">
        <ele>434.17260742188</ele>
        <time>2011-04-17T09:58:03Z</time>
      </trkpt>
      <trkpt lat="47.11412" lon="6.16263">
        <ele>434.6533203125</ele>
        <time>2011-04-17T09:58:09Z</time>
      </trkpt>
      <trkpt lat="47.1142" lon="6.16256">
        <ele>435.61450195312</ele>
        <time>2011-04-17T09:58:15Z</time>
      </trkpt>
      <trkpt lat="47.11425" lon="6.16242">
        <ele>437.537109375</ele>
        <time>2011-04-17T09:58:22Z</time>
      </trkpt>
      <trkpt lat="47.11424" lon="6.16237">
        <ele>437.537109375</ele>
        <time>2011-04-17T09:58:24Z</time>
      </trkpt>
      <trkpt lat="47.11414" lon="6.16224">
        <ele>438.49853515625</ele>
        <time>2011-04-17T09:58:31Z</time>
      </trkpt>
      <trkpt lat="47.11412" lon="6.16224">
        <ele>438.97912597656</ele>
        <time>2011-04-17T09:58:32Z</time>
      </trkpt>
      <trkpt lat="47.11399" lon="6.16225">
        <ele>440.42126464844</ele>
        <time>2011-04-17T09:58:39Z</time>
      </trkpt>
      <trkpt lat="47.11385" lon="6.16216">
        <ele>439.45971679688</ele>
        <time>2011-04-17T09:58:45Z</time>
      </trkpt>
      <trkpt lat="47.11367" lon="6.16196">
        <ele>439.45971679688</ele>
        <time>2011-04-17T09:58:51Z</time>
      </trkpt>
      <trkpt lat="47.11345" lon="6.16164">
        <ele>438.97912597656</ele>
        <time>2011-04-17T09:58:58Z</time>
      </trkpt>
      <trkpt lat="47.11325" lon="6.16138">
        <ele>437.537109375</ele>
        <time>2011-04-17T09:59:02Z</time>
      </trkpt>
      <trkpt lat="47.11303" lon="6.16108">
        <ele>436.57592773438</ele>
        <time>2011-04-17T09:59:06Z</time>
      </trkpt>
      <trkpt lat="47.11275" lon="6.16065">
        <ele>437.537109375</ele>
        <time>2011-04-17T09:59:12Z</time>
      </trkpt>
      <trkpt lat="47.11248" lon="6.16017">
        <ele>438.49853515625</ele>
        <time>2011-04-17T09:59:19Z</time>
      </trkpt>
      <trkpt lat="47.11242" lon="6.16007">
        <ele>438.01782226562</ele>
        <time>2011-04-17T09:59:21Z</time>
      </trkpt>
      <trkpt lat="47.11223" lon="6.15979">
        <ele>439.45971679688</ele>
        <time>2011-04-17T09:59:27Z</time>
      </trkpt>
      <trkpt lat="47.11207" lon="6.15953">
        <ele>440.42126464844</ele>
        <time>2011-04-17T09:59:33Z</time>
      </trkpt>
      <trkpt lat="47.11192" lon="6.15928">
        <ele>440.90185546875</ele>
        <time>2011-04-17T09:59:39Z</time>
      </trkpt>
      <trkpt lat="47.11168" lon="6.15895">
        <ele>441.38244628906</ele>
        <time>2011-04-17T09:59:46Z</time>
      </trkpt>
      <trkpt lat="47.11149" lon="6.1587">
        <ele>442.82446289062</ele>
        <time>2011-04-17T09:59:52Z</time>
      </trkpt>
      <trkpt lat="47.1113" lon="6.15844">
        <ele>443.30505371094</ele>
        <time>2011-04-17T09:59:59Z</time>
      </trkpt>
      <trkpt lat="47.1111" lon="6.15816">
        <ele>444.7470703125</ele>
        <time>2011-04-17T10:00:06Z</time>
      </trkpt>
      <trkpt lat="47.11097" lon="6.15797">
        <ele>445.70837402344</ele>
        <time>2011-04-17T10:00:11Z</time>
      </trkpt>
      <trkpt lat="47.11076" lon="6.15767">
        <ele>446.66967773438</ele>
        <time>2011-04-17T10:00:19Z</time>
      </trkpt>
      <trkpt lat="47.11058" lon="6.15738">
        <ele>448.11181640625</ele>
        <time>2011-04-17T10:00:27Z</time>
      </trkpt>
      <trkpt lat="47.11045" lon="6.15715">
        <ele>449.07299804688</ele>
        <time>2011-04-17T10:00:33Z</time>
      </trkpt>
      <trkpt lat="47.11035" lon="6.15693">
        <ele>450.51501464844</ele>
        <time>2011-04-17T10:00:39Z</time>
      </trkpt>
      <trkpt lat="47.11023" lon="6.15668">
        <ele>450.51501464844</ele>
        <time>2011-04-17T10:00:45Z</time>
      </trkpt>
      <trkpt lat="47.11007" lon="6.15638">
        <ele>451.47631835938</ele>
        <time>2011-04-17T10:00:52Z</time>
      </trkpt>
      <trkpt lat="47.10995" lon="6.15617">
        <ele>451.95703125</ele>
        <time>2011-04-17T10:00:57Z</time>
      </trkpt>
      <trkpt lat="47.10982" lon="6.156">
        <ele>452.91821289062</ele>
        <time>2011-04-17T10:01:02Z</time>
      </trkpt>
      <trkpt lat="47.10966" lon="6.15579">
        <ele>452.43762207031</ele>
        <time>2011-04-17T10:01:07Z</time>
      </trkpt>
      <trkpt lat="47.10949" lon="6.15555">
        <ele>453.87963867188</ele>
        <time>2011-04-17T10:01:13Z</time>
      </trkpt>
      <trkpt lat="47.10926" lon="6.15512">
        <ele>453.87963867188</ele>
        <time>2011-04-17T10:01:23Z</time>
      </trkpt>
      <trkpt lat="47.10914" lon="6.15487">
        <ele>454.8408203125</ele>
        <time>2011-04-17T10:01:29Z</time>
      </trkpt>
      <trkpt lat="47.10901" lon="6.1546">
        <ele>456.28295898438</ele>
        <time>2011-04-17T10:01:36Z</time>
      </trkpt>
      <trkpt lat="47.10892" lon="6.1544">
        <ele>455.80224609375</ele>
        <time>2011-04-17T10:01:42Z</time>
      </trkpt>
      <trkpt lat="47.1088" lon="6.15409">
        <ele>458.20556640625</ele>
        <time>2011-04-17T10:01:51Z</time>
      </trkpt>
      <trkpt lat="47.10869" lon="6.15381">
        <ele>459.16687011719</ele>
        <time>2011-04-17T10:01:59Z</time>
      </trkpt>
      <trkpt lat="47.10857" lon="6.15352">
        <ele>460.12817382812</ele>
        <time>2011-04-17T10:02:07Z</time>
      </trkpt>
      <trkpt lat="47.10849" lon="6.15317">
        <ele>461.57019042969</ele>
        <time>2011-04-17T10:02:16Z</time>
      </trkpt>
      <trkpt lat="47.10842" lon="6.15283">
        <ele>462.53137207031</ele>
        <time>2011-04-17T10:02:25Z</time>
      </trkpt>
      <trkpt lat="47.1083" lon="6.1525">
        <ele>462.53137207031</ele>
        <time>2011-04-17T10:02:33Z</time>
      </trkpt>
      <trkpt lat="47.1082" lon="6.15206">
        <ele>463.49279785156</ele>
        <time>2011-04-17T10:02:42Z</time>
      </trkpt>
      <trkpt lat="47.10814" lon="6.15158">
        <ele>463.97338867188</ele>
        <time>2011-04-17T10:02:52Z</time>
      </trkpt>
      <trkpt lat="47.10812" lon="6.15128">
        <ele>463.01208496094</ele>
        <time>2011-04-17T10:02:58Z</time>
      </trkpt>
      <trkpt lat="47.1081" lon="6.15107">
        <ele>463.49279785156</ele>
        <time>2011-04-17T10:03:03Z</time>
      </trkpt>
      <trkpt lat="47.10812" lon="6.1509">
        <ele>463.49279785156</ele>
        <time>2011-04-17T10:03:08Z</time>
      </trkpt>
      <trkpt lat="47.10818" lon="6.15079">
        <ele>462.53137207031</ele>
        <time>2011-04-17T10:03:14Z</time>
      </trkpt>
      <trkpt lat="47.10826" lon="6.15071">
        <ele>462.53137207031</ele>
        <time>2011-04-17T10:03:19Z</time>
      </trkpt>
      <trkpt lat="47.10827" lon="6.15069">
        <ele>462.53137207031</ele>
        <time>2011-04-17T10:03:20Z</time>
      </trkpt>
      <trkpt lat="47.10833" lon="6.1506">
        <ele>462.53137207031</ele>
        <time>2011-04-17T10:03:26Z</time>
      </trkpt>
      <trkpt lat="47.10841" lon="6.15059">
        <ele>463.01208496094</ele>
        <time>2011-04-17T10:03:30Z</time>
      </trkpt>
      <trkpt lat="47.10854" lon="6.15047">
        <ele>464.4541015625</ele>
        <time>2011-04-17T10:03:38Z</time>
      </trkpt>
      <trkpt lat="47.10872" lon="6.15035">
        <ele>464.4541015625</ele>
        <time>2011-04-17T10:03:46Z</time>
      </trkpt>
      <trkpt lat="47.1089" lon="6.15021">
        <ele>463.01208496094</ele>
        <time>2011-04-17T10:03:52Z</time>
      </trkpt>
      <trkpt lat="47.10915" lon="6.14994">
        <ele>461.08947753906</ele>
        <time>2011-04-17T10:03:59Z</time>
      </trkpt>
      <trkpt lat="47.10936" lon="6.14971">
        <ele>462.53137207031</ele>
        <time>2011-04-17T10:04:05Z</time>
      </trkpt>
      <trkpt lat="47.10965" lon="6.14959">
        <ele>462.53137207031</ele>
        <time>2011-04-17T10:04:12Z</time>
      </trkpt>
      <trkpt lat="47.10977" lon="6.14956">
        <ele>463.01208496094</ele>
        <time>2011-04-17T10:04:15Z</time>
      </trkpt>
      <trkpt lat="47.11002" lon="6.14962">
        <ele>463.01208496094</ele>
        <time>2011-04-17T10:04:21Z</time>
      </trkpt>
      <trkpt lat="47.11028" lon="6.14982">
        <ele>464.4541015625</ele>
        <time>2011-04-17T10:04:28Z</time>
      </trkpt>
      <trkpt lat="47.11058" lon="6.1501">
        <ele>463.01208496094</ele>
        <time>2011-04-17T10:04:35Z</time>
      </trkpt>
      <trkpt lat="47.1107" lon="6.1502">
        <ele>462.05078125</ele>
        <time>2011-04-17T10:04:37Z</time>
      </trkpt>
      <trkpt lat="47.1109" lon="6.15038">
        <ele>460.60876464844</ele>
        <time>2011-04-17T10:04:40Z</time>
      </trkpt>
      <trkpt lat="47.11127" lon="6.15081">
        <ele>458.68615722656</ele>
        <time>2011-04-17T10:04:46Z</time>
      </trkpt>
      <trkpt lat="47.11151" lon="6.15103">
        <ele>458.20556640625</ele>
        <time>2011-04-17T10:04:50Z</time>
      </trkpt>
      <trkpt lat="47.11176" lon="6.15132">
        <ele>456.76354980469</ele>
        <time>2011-04-17T10:04:55Z</time>
      </trkpt>
      <trkpt lat="47.11198" lon="6.15137">
        <ele>455.32153320312</ele>
        <time>2011-04-17T10:04:58Z</time>
      </trkpt>
      <trkpt lat="47.11221" lon="6.15146">
        <ele>452.91821289062</ele>
        <time>2011-04-17T10:05:01Z</time>
      </trkpt>
      <trkpt lat="47.11245" lon="6.15153">
        <ele>451.95703125</ele>
        <time>2011-04-17T10:05:04Z</time>
      </trkpt>
      <trkpt lat="47.11274" lon="6.1515">
        <ele>451.95703125</ele>
        <time>2011-04-17T10:05:08Z</time>
      </trkpt>
      <trkpt lat="47.1128" lon="6.1515">
        <ele>451.95703125</ele>
        <time>2011-04-17T10:05:09Z</time>
      </trkpt>
      <trkpt lat="47.11285" lon="6.1515">
        <ele>451.95703125</ele>
        <time>2011-04-17T10:05:10Z</time>
      </trkpt>
      <trkpt lat="47.113" lon="6.15131">
        <ele>451.95703125</ele>
        <time>2011-04-17T10:05:14Z</time>
      </trkpt>
      <trkpt lat="47.11318" lon="6.15108">
        <ele>451.95703125</ele>
        <time>2011-04-17T10:05:18Z</time>
      </trkpt>
      <trkpt lat="47.11324" lon="6.15095">
        <ele>450.51501464844</ele>
        <time>2011-04-17T10:05:20Z</time>
      </trkpt>
      <trkpt lat="47.11342" lon="6.15076">
        <ele>450.51501464844</ele>
        <time>2011-04-17T10:05:23Z</time>
      </trkpt>
      <trkpt lat="47.11353" lon="6.15057">
        <ele>451.47631835938</ele>
        <time>2011-04-17T10:05:28Z</time>
      </trkpt>
      <trkpt lat="47.11349" lon="6.15044">
        <ele>451.95703125</ele>
        <time>2011-04-17T10:05:33Z</time>
      </trkpt>
      <trkpt lat="47.11348" lon="6.15044">
        <ele>451.47631835938</ele>
        <time>2011-04-17T10:05:34Z</time>
      </trkpt>
      <trkpt lat="47.11334" lon="6.15042">
        <ele>451.95703125</ele>
        <time>2011-04-17T10:05:39Z</time>
      </trkpt>
      <trkpt lat="47.11331" lon="6.15041">
        <ele>451.47631835938</ele>
        <time>2011-04-17T10:05:40Z</time>
      </trkpt>
      <trkpt lat="47.11306" lon="6.15035">
        <ele>453.39892578125</ele>
        <time>2011-04-17T10:05:47Z</time>
      </trkpt>
      <trkpt lat="47.1129" lon="6.15025">
        <ele>452.91821289062</ele>
        <time>2011-04-17T10:05:52Z</time>
      </trkpt>
      <trkpt lat="47.11278" lon="6.15004">
        <ele>452.91821289062</ele>
        <time>2011-04-17T10:05:56Z</time>
      </trkpt>
      <trkpt lat="47.11273" lon="6.14994">
        <ele>453.39892578125</ele>
        <time>2011-04-17T10:05:58Z</time>
      </trkpt>
      <trkpt lat="47.11267" lon="6.14966">
        <ele>453.39892578125</ele>
        <time>2011-04-17T10:06:03Z</time>
      </trkpt>
      <trkpt lat="47.1127" lon="6.14947">
        <ele>453.39892578125</ele>
        <time>2011-04-17T10:06:07Z</time>
      </trkpt>
      <trkpt lat="47.1128" lon="6.14916">
        <ele>453.87963867188</ele>
        <time>2011-04-17T10:06:14Z</time>
      </trkpt>
      <trkpt lat="47.1129" lon="6.149">
        <ele>453.87963867188</ele>
        <time>2011-04-17T10:06:18Z</time>
      </trkpt>
      <trkpt lat="47.11308" lon="6.1489">
        <ele>452.43762207031</ele>
        <time>2011-04-17T10:06:23Z</time>
      </trkpt>
      <trkpt lat="47.11322" lon="6.14879">
        <ele>453.39892578125</ele>
        <time>2011-04-17T10:06:27Z</time>
      </trkpt>
      <trkpt lat="47.1134" lon="6.14873">
        <ele>453.39892578125</ele>
        <time>2011-04-17T10:06:31Z</time>
      </trkpt>
      <trkpt lat="47.1136" lon="6.14866">
        <ele>453.87963867188</ele>
        <time>2011-04-17T10:06:36Z</time>
      </trkpt>
      <trkpt lat="47.11388" lon="6.14845">
        <ele>452.43762207031</ele>
        <time>2011-04-17T10:06:42Z</time>
      </trkpt>
      <trkpt lat="47.11411" lon="6.14835">
        <ele>452.91821289062</ele>
        <time>2011-04-17T10:06:47Z</time>
      </trkpt>
      <trkpt lat="47.11426" lon="6.14825">
        <ele>453.39892578125</ele>
        <time>2011-04-17T10:06:50Z</time>
      </trkpt>
      <trkpt lat="47.11446" lon="6.14822">
        <ele>452.91821289062</ele>
        <time>2011-04-17T10:06:54Z</time>
      </trkpt>
      <trkpt lat="47.11457" lon="6.14826">
        <ele>452.43762207031</ele>
        <time>2011-04-17T10:06:56Z</time>
      </trkpt>
      <trkpt lat="47.11489" lon="6.1485">
        <ele>451.95703125</ele>
        <time>2011-04-17T10:07:02Z</time>
      </trkpt>
      <trkpt lat="47.11511" lon="6.14871">
        <ele>450.51501464844</ele>
        <time>2011-04-17T10:07:06Z</time>
      </trkpt>
      <trkpt lat="47.11534" lon="6.1489">
        <ele>450.51501464844</ele>
        <time>2011-04-17T10:07:10Z</time>
      </trkpt>
      <trkpt lat="47.1155" lon="6.14869">
        <ele>451.47631835938</ele>
        <time>2011-04-17T10:07:15Z</time>
      </trkpt>
      <trkpt lat="47.11547" lon="6.14846">
        <ele>452.43762207031</ele>
        <time>2011-04-17T10:07:18Z</time>
      </trkpt>
      <trkpt lat="47.11544" lon="6.14814">
        <ele>451.95703125</ele>
        <time>2011-04-17T10:07:22Z</time>
      </trkpt>
      <trkpt lat="47.11546" lon="6.14777">
        <ele>452.91821289062</ele>
        <time>2011-04-17T10:07:27Z</time>
      </trkpt>
      <trkpt lat="47.11548" lon="6.14765">
        <ele>453.87963867188</ele>
        <time>2011-04-17T10:07:29Z</time>
      </trkpt>
      <trkpt lat="47.11557" lon="6.14732">
        <ele>454.36022949219</ele>
        <time>2011-04-17T10:07:35Z</time>
      </trkpt>
      <trkpt lat="47.11563" lon="6.14704">
        <ele>455.32153320312</ele>
        <time>2011-04-17T10:07:41Z</time>
      </trkpt>
      <trkpt lat="47.11573" lon="6.14676">
        <ele>456.28295898438</ele>
        <time>2011-04-17T10:07:47Z</time>
      </trkpt>
      <trkpt lat="47.11589" lon="6.14652">
        <ele>456.28295898438</ele>
        <time>2011-04-17T10:07:52Z</time>
      </trkpt>
      <trkpt lat="47.11609" lon="6.14619">
        <ele>457.24426269531</ele>
        <time>2011-04-17T10:07:59Z</time>
      </trkpt>
      <trkpt lat="47.11611" lon="6.14614">
        <ele>456.76354980469</ele>
        <time>2011-04-17T10:08:00Z</time>
      </trkpt>
      <trkpt lat="47.11627" lon="6.1459">
        <ele>457.24426269531</ele>
        <time>2011-04-17T10:08:05Z</time>
      </trkpt>
      <trkpt lat="47.11649" lon="6.14559">
        <ele>455.32153320312</ele>
        <time>2011-04-17T10:08:11Z</time>
      </trkpt>
      <trkpt lat="47.11665" lon="6.14551">
        <ele>455.80224609375</ele>
        <time>2011-04-17T10:08:14Z</time>
      </trkpt>
      <trkpt lat="47.11677" lon="6.14546">
        <ele>455.32153320312</ele>
        <time>2011-04-17T10:08:16Z</time>
      </trkpt>
      <trkpt lat="47.11692" lon="6.14541">
        <ele>455.80224609375</ele>
        <time>2011-04-17T10:08:18Z</time>
      </trkpt>
      <trkpt lat="47.11724" lon="6.14538">
        <ele>454.36022949219</ele>
        <time>2011-04-17T10:08:23Z</time>
      </trkpt>
      <trkpt lat="47.1174" lon="6.14546">
        <ele>455.32153320312</ele>
        <time>2011-04-17T10:08:26Z</time>
      </trkpt>
      <trkpt lat="47.11749" lon="6.14552">
        <ele>454.36022949219</ele>
        <time>2011-04-17T10:08:28Z</time>
      </trkpt>
      <trkpt lat="47.11769" lon="6.14565">
        <ele>454.36022949219</ele>
        <time>2011-04-17T10:08:32Z</time>
      </trkpt>
      <trkpt lat="47.11786" lon="6.14587">
        <ele>453.87963867188</ele>
        <time>2011-04-17T10:08:36Z</time>
      </trkpt>
      <trkpt lat="47.118" lon="6.146">
        <ele>454.36022949219</ele>
        <time>2011-04-17T10:08:39Z</time>
      </trkpt>
      <trkpt lat="47.1182" lon="6.14623">
        <ele>455.32153320312</ele>
        <time>2011-04-17T10:08:44Z</time>
      </trkpt>
      <trkpt lat="47.11829" lon="6.14636">
        <ele>455.32153320312</ele>
        <time>2011-04-17T10:08:47Z</time>
      </trkpt>
      <trkpt lat="47.1185" lon="6.1465">
        <ele>454.36022949219</ele>
        <time>2011-04-17T10:08:52Z</time>
      </trkpt>
      <trkpt lat="47.11869" lon="6.14673">
        <ele>453.39892578125</ele>
        <time>2011-04-17T10:08:56Z</time>
      </trkpt>
      <trkpt lat="47.11874" lon="6.14688">
        <ele>453.39892578125</ele>
        <time>2011-04-17T10:08:58Z</time>
      </trkpt>
      <trkpt lat="47.11879" lon="6.14717">
        <ele>453.87963867188</ele>
        <time>2011-04-17T10:09:02Z</time>
      </trkpt>
      <trkpt lat="47.11872" lon="6.14748">
        <ele>451.95703125</ele>
        <time>2011-04-17T10:09:06Z</time>
      </trkpt>
      <trkpt lat="47.11859" lon="6.14793">
        <ele>451.47631835938</ele>
        <time>2011-04-17T10:09:11Z</time>
      </trkpt>
      <trkpt lat="47.11852" lon="6.14813">
        <ele>450.51501464844</ele>
        <time>2011-04-17T10:09:13Z</time>
      </trkpt>
      <trkpt lat="47.11836" lon="6.14883">
        <ele>450.03442382812</ele>
        <time>2011-04-17T10:09:20Z</time>
      </trkpt>
      <trkpt lat="47.11834" lon="6.14905">
        <ele>448.59240722656</ele>
        <time>2011-04-17T10:09:23Z</time>
      </trkpt>
      <trkpt lat="47.11836" lon="6.14917">
        <ele>447.63098144531</ele>
        <time>2011-04-17T10:09:27Z</time>
      </trkpt>
      <trkpt lat="47.11839" lon="6.14898">
        <ele>448.59240722656</ele>
        <time>2011-04-17T10:09:31Z</time>
      </trkpt>
      <trkpt lat="47.11859" lon="6.14859">
        <ele>450.03442382812</ele>
        <time>2011-04-17T10:09:38Z</time>
      </trkpt>
      <trkpt lat="47.11865" lon="6.14847">
        <ele>450.99560546875</ele>
        <time>2011-04-17T10:09:40Z</time>
      </trkpt>
      <trkpt lat="47.11887" lon="6.14807">
        <ele>450.99560546875</ele>
        <time>2011-04-17T10:09:47Z</time>
      </trkpt>
      <trkpt lat="47.11902" lon="6.14786">
        <ele>451.47631835938</ele>
        <time>2011-04-17T10:09:52Z</time>
      </trkpt>
      <trkpt lat="47.11916" lon="6.14773">
        <ele>452.91821289062</ele>
        <time>2011-04-17T10:09:57Z</time>
      </trkpt>
      <trkpt lat="47.11931" lon="6.14757">
        <ele>454.8408203125</ele>
        <time>2011-04-17T10:10:04Z</time>
      </trkpt>
      <trkpt lat="47.11942" lon="6.14743">
        <ele>456.76354980469</ele>
        <time>2011-04-17T10:10:11Z</time>
      </trkpt>
      <trkpt lat="47.11961" lon="6.14732">
        <ele>455.32153320312</ele>
        <time>2011-04-17T10:10:16Z</time>
      </trkpt>
      <trkpt lat="47.11987" lon="6.14718">
        <ele>455.80224609375</ele>
        <time>2011-04-17T10:10:22Z</time>
      </trkpt>
      <trkpt lat="47.12001" lon="6.14706">
        <ele>456.28295898438</ele>
        <time>2011-04-17T10:10:27Z</time>
      </trkpt>
      <trkpt lat="47.12021" lon="6.14699">
        <ele>456.76354980469</ele>
        <time>2011-04-17T10:10:32Z</time>
      </trkpt>
      <trkpt lat="47.12024" lon="6.14697">
        <ele>457.24426269531</ele>
        <time>2011-04-17T10:10:33Z</time>
      </trkpt>
      <trkpt lat="47.12016" lon="6.14677">
        <ele>455.80224609375</ele>
        <time>2011-04-17T10:10:37Z</time>
      </trkpt>
      <trkpt lat="47.11994" lon="6.14669">
        <ele>455.32153320312</ele>
        <time>2011-04-17T10:10:42Z</time>
      </trkpt>
      <trkpt lat="47.11976" lon="6.14658">
        <ele>455.80224609375</ele>
        <time>2011-04-17T10:10:45Z</time>
      </trkpt>
      <trkpt lat="47.11959" lon="6.14637">
        <ele>455.80224609375</ele>
        <time>2011-04-17T10:10:49Z</time>
      </trkpt>
      <trkpt lat="47.11948" lon="6.14609">
        <ele>454.36022949219</ele>
        <time>2011-04-17T10:10:53Z</time>
      </trkpt>
      <trkpt lat="47.11944" lon="6.14585">
        <ele>454.8408203125</ele>
        <time>2011-04-17T10:10:56Z</time>
      </trkpt>
      <trkpt lat="47.11941" lon="6.14545">
        <ele>455.80224609375</ele>
        <time>2011-04-17T10:11:02Z</time>
      </trkpt>
      <trkpt lat="47.11935" lon="6.14517">
        <ele>456.76354980469</ele>
        <time>2011-04-17T10:11:07Z</time>
      </trkpt>
      <trkpt lat="47.11929" lon="6.14495">
        <ele>457.24426269531</ele>
        <time>2011-04-17T10:11:11Z</time>
      </trkpt>
      <trkpt lat="47.11922" lon="6.14475">
        <ele>457.72497558594</ele>
        <time>2011-04-17T10:11:16Z</time>
      </trkpt>
      <trkpt lat="47.11915" lon="6.14446">
        <ele>460.12817382812</ele>
        <time>2011-04-17T10:11:23Z</time>
      </trkpt>
      <trkpt lat="47.11908" lon="6.14423">
        <ele>463.49279785156</ele>
        <time>2011-04-17T10:11:29Z</time>
      </trkpt>
      <trkpt lat="47.11903" lon="6.14407">
        <ele>464.93481445312</ele>
        <time>2011-04-17T10:11:33Z</time>
      </trkpt>
      <trkpt lat="47.119" lon="6.14389">
        <ele>465.41552734375</ele>
        <time>2011-04-17T10:11:37Z</time>
      </trkpt>
      <trkpt lat="47.11892" lon="6.14363">
        <ele>466.37670898438</ele>
        <time>2011-04-17T10:11:43Z</time>
      </trkpt>
      <trkpt lat="47.11889" lon="6.14336">
        <ele>465.89611816406</ele>
        <time>2011-04-17T10:11:48Z</time>
      </trkpt>
      <trkpt lat="47.11884" lon="6.14304">
        <ele>463.97338867188</ele>
        <time>2011-04-17T10:11:53Z</time>
      </trkpt>
      <trkpt lat="47.11869" lon="6.14245">
        <ele>460.60876464844</ele>
        <time>2011-04-17T10:12:00Z</time>
      </trkpt>
      <trkpt lat="47.11864" lon="6.14223">
        <ele>461.08947753906</ele>
        <time>2011-04-17T10:12:02Z</time>
      </trkpt>
      <trkpt lat="47.11855" lon="6.14196">
        <ele>462.05078125</ele>
        <time>2011-04-17T10:12:05Z</time>
      </trkpt>
      <trkpt lat="47.11852" lon="6.14189">
        <ele>460.60876464844</ele>
        <time>2011-04-17T10:12:06Z</time>
      </trkpt>
      <trkpt lat="47.1184" lon="6.14168">
        <ele>461.57019042969</ele>
        <time>2011-04-17T10:12:09Z</time>
      </trkpt>
      <trkpt lat="47.11816" lon="6.14155">
        <ele>461.08947753906</ele>
        <time>2011-04-17T10:12:14Z</time>
      </trkpt>
      <trkpt lat="47.11799" lon="6.14156">
        <ele>461.08947753906</ele>
        <time>2011-04-17T10:12:17Z</time>
      </trkpt>
      <trkpt lat="47.11774" lon="6.14162">
        <ele>460.60876464844</ele>
        <time>2011-04-17T10:12:21Z</time>
      </trkpt>
      <trkpt lat="47.11745" lon="6.14156">
        <ele>460.60876464844</ele>
        <time>2011-04-17T10:12:26Z</time>
      </trkpt>
      <trkpt lat="47.11734" lon="6.14151">
        <ele>460.60876464844</ele>
        <time>2011-04-17T10:12:28Z</time>
      </trkpt>
      <trkpt lat="47.11707" lon="6.14148">
        <ele>461.57019042969</ele>
        <time>2011-04-17T10:12:34Z</time>
      </trkpt>
      <trkpt lat="47.11687" lon="6.14146">
        <ele>462.53137207031</ele>
        <time>2011-04-17T10:12:39Z</time>
      </trkpt>
      <trkpt lat="47.11671" lon="6.14146">
        <ele>463.97338867188</ele>
        <time>2011-04-17T10:12:44Z</time>
      </trkpt>
      <trkpt lat="47.11663" lon="6.14146">
        <ele>465.41552734375</ele>
        <time>2011-04-17T10:12:47Z</time>
      </trkpt>
      <trkpt lat="47.1165" lon="6.14145">
        <ele>466.857421875</ele>
        <time>2011-04-17T10:12:52Z</time>
      </trkpt>
      <trkpt lat="47.11647" lon="6.14144">
        <ele>466.857421875</ele>
        <time>2011-04-17T10:12:53Z</time>
      </trkpt>
      <trkpt lat="47.11624" lon="6.14141">
        <ele>468.29931640625</ele>
        <time>2011-04-17T10:13:01Z</time>
      </trkpt>
      <trkpt lat="47.11607" lon="6.1414">
        <ele>468.78002929688</ele>
        <time>2011-04-17T10:13:08Z</time>
      </trkpt>
      <trkpt lat="47.11589" lon="6.14143">
        <ele>470.22192382812</ele>
        <time>2011-04-17T10:13:15Z</time>
      </trkpt>
      <trkpt lat="47.11578" lon="6.14144">
        <ele>471.18334960938</ele>
        <time>2011-04-17T10:13:20Z</time>
      </trkpt>
      <trkpt lat="47.11567" lon="6.14145">
        <ele>472.62536621094</ele>
        <time>2011-04-17T10:13:25Z</time>
      </trkpt>
      <trkpt lat="47.11556" lon="6.14146">
        <ele>473.58666992188</ele>
        <time>2011-04-17T10:13:31Z</time>
      </trkpt>
      <trkpt lat="47.11548" lon="6.14147">
        <ele>474.54797363281</ele>
        <time>2011-04-17T10:13:37Z</time>
      </trkpt>
      <trkpt lat="47.11544" lon="6.14147">
        <ele>474.54797363281</ele>
        <time>2011-04-17T10:13:40Z</time>
      </trkpt>
      <trkpt lat="47.11541" lon="6.14146">
        <ele>475.02868652344</ele>
        <time>2011-04-17T10:13:42Z</time>
      </trkpt>
      <trkpt lat="47.11544" lon="6.14137">
        <ele>476.47058105469</ele>
        <time>2011-04-17T10:13:48Z</time>
      </trkpt>
      <trkpt lat="47.11549" lon="6.14127">
        <ele>478.87390136719</ele>
        <time>2011-04-17T10:13:56Z</time>
      </trkpt>
      <trkpt lat="47.11547" lon="6.14117">
        <ele>479.83508300781</ele>
        <time>2011-04-17T10:14:02Z</time>
      </trkpt>
      <trkpt lat="47.11546" lon="6.14105">
        <ele>480.31591796875</ele>
        <time>2011-04-17T10:14:09Z</time>
      </trkpt>
      <trkpt lat="47.11544" lon="6.141">
        <ele>481.27722167969</ele>
        <time>2011-04-17T10:14:12Z</time>
      </trkpt>
      <trkpt lat="47.11543" lon="6.14086">
        <ele>483.19982910156</ele>
        <time>2011-04-17T10:14:19Z</time>
      </trkpt>
      <trkpt lat="47.11543" lon="6.14084">
        <ele>483.19982910156</ele>
        <time>2011-04-17T10:14:20Z</time>
      </trkpt>
      <trkpt lat="47.11547" lon="6.14072">
        <ele>484.64184570312</ele>
        <time>2011-04-17T10:14:26Z</time>
      </trkpt>
      <trkpt lat="47.11554" lon="6.14056">
        <ele>487.04504394531</ele>
        <time>2011-04-17T10:14:35Z</time>
      </trkpt>
      <trkpt lat="47.1156" lon="6.14042">
        <ele>487.04504394531</ele>
        <time>2011-04-17T10:14:43Z</time>
      </trkpt>
      <trkpt lat="47.11569" lon="6.14029">
        <ele>487.52563476562</ele>
        <time>2011-04-17T10:14:52Z</time>
      </trkpt>
      <trkpt lat="47.11577" lon="6.14019">
        <ele>488.48718261719</ele>
        <time>2011-04-17T10:14:59Z</time>
      </trkpt>
      <trkpt lat="47.11588" lon="6.14008">
        <ele>490.40979003906</ele>
        <time>2011-04-17T10:15:09Z</time>
      </trkpt>
      <trkpt lat="47.11594" lon="6.14002">
        <ele>491.85168457031</ele>
        <time>2011-04-17T10:15:16Z</time>
      </trkpt>
      <trkpt lat="47.11602" lon="6.13997">
        <ele>493.29357910156</ele>
        <time>2011-04-17T10:15:24Z</time>
      </trkpt>
      <trkpt lat="47.11609" lon="6.13989">
        <ele>495.69689941406</ele>
        <time>2011-04-17T10:15:33Z</time>
      </trkpt>
      <trkpt lat="47.11611" lon="6.13988">
        <ele>495.69689941406</ele>
        <time>2011-04-17T10:15:35Z</time>
      </trkpt>
      <trkpt lat="47.11615" lon="6.13988">
        <ele>495.69689941406</ele>
        <time>2011-04-17T10:15:39Z</time>
      </trkpt>
      <trkpt lat="47.11625" lon="6.14001">
        <ele>497.13891601562</ele>
        <time>2011-04-17T10:15:48Z</time>
      </trkpt>
      <trkpt lat="47.11632" lon="6.14013">
        <ele>498.58093261719</ele>
        <time>2011-04-17T10:15:55Z</time>
      </trkpt>
      <trkpt lat="47.11634" lon="6.14017">
        <ele>500.02294921875</ele>
        <time>2011-04-17T10:15:57Z</time>
      </trkpt>
      <trkpt lat="47.11642" lon="6.14025">
        <ele>500.98413085938</ele>
        <time>2011-04-17T10:16:04Z</time>
      </trkpt>
      <trkpt lat="47.11651" lon="6.14029">
        <ele>501.94555664062</ele>
        <time>2011-04-17T10:16:12Z</time>
      </trkpt>
      <trkpt lat="47.11661" lon="6.14022">
        <ele>504.34887695312</ele>
        <time>2011-04-17T10:16:20Z</time>
      </trkpt>
      <trkpt lat="47.11668" lon="6.14009">
        <ele>505.79089355469</ele>
        <time>2011-04-17T10:16:28Z</time>
      </trkpt>
      <trkpt lat="47.11673" lon="6.13998">
        <ele>507.23278808594</ele>
        <time>2011-04-17T10:16:34Z</time>
      </trkpt>
      <trkpt lat="47.11679" lon="6.13982">
        <ele>507.71350097656</ele>
        <time>2011-04-17T10:16:42Z</time>
      </trkpt>
      <trkpt lat="47.11687" lon="6.13975">
        <ele>508.67468261719</ele>
        <time>2011-04-17T10:16:49Z</time>
      </trkpt>
      <trkpt lat="47.11698" lon="6.13973">
        <ele>509.63610839844</ele>
        <time>2011-04-17T10:16:57Z</time>
      </trkpt>
      <trkpt lat="47.117" lon="6.13974">
        <ele>510.59729003906</ele>
        <time>2011-04-17T10:16:59Z</time>
      </trkpt>
      <trkpt lat="47.11704" lon="6.13972">
        <ele>512.52001953125</ele>
        <time>2011-04-17T10:17:03Z</time>
      </trkpt>
      <trkpt lat="47.11713" lon="6.13965">
        <ele>513.00073242188</ele>
        <time>2011-04-17T10:17:09Z</time>
      </trkpt>
      <trkpt lat="47.11722" lon="6.13955">
        <ele>515.40405273438</ele>
        <time>2011-04-17T10:17:17Z</time>
      </trkpt>
      <trkpt lat="47.11731" lon="6.13946">
        <ele>516.84594726562</ele>
        <time>2011-04-17T10:17:25Z</time>
      </trkpt>
      <trkpt lat="47.11741" lon="6.1394">
        <ele>517.32666015625</ele>
        <time>2011-04-17T10:17:33Z</time>
      </trkpt>
      <trkpt lat="47.11744" lon="6.13941">
        <ele>516.365234375</ele>
        <time>2011-04-17T10:17:37Z</time>
      </trkpt>
      <trkpt lat="47.11745" lon="6.13942">
        <ele>517.32666015625</ele>
        <time>2011-04-17T10:17:40Z</time>
      </trkpt>
      <trkpt lat="47.11746" lon="6.13942">
        <ele>517.32666015625</ele>
        <time>2011-04-17T10:17:42Z</time>
      </trkpt>
      <trkpt lat="47.11747" lon="6.13941">
        <ele>519.72985839844</ele>
        <time>2011-04-17T10:26:40Z</time>
      </trkpt>
      <trkpt lat="47.11746" lon="6.13941">
        <ele>519.72985839844</ele>
        <time>2011-04-17T10:26:41Z</time>
      </trkpt>
      <trkpt lat="47.11746" lon="6.13941">
        <ele>519.72985839844</ele>
        <time>2011-04-17T10:26:42Z</time>
      </trkpt>
      <trkpt lat="47.11746" lon="6.13941">
        <ele>519.72985839844</ele>
        <time>2011-04-17T10:28:57Z</time>
      </trkpt>
      <trkpt lat="47.11749" lon="6.13935">
        <ele>520.21057128906</ele>
        <time>2011-04-17T10:29:00Z</time>
      </trkpt>
      <trkpt lat="47.11757" lon="6.13931">
        <ele>520.69128417969</ele>
        <time>2011-04-17T10:29:06Z</time>
      </trkpt>
      <trkpt lat="47.11761" lon="6.13929">
        <ele>521.65258789062</ele>
        <time>2011-04-17T10:29:10Z</time>
      </trkpt>
      <trkpt lat="47.11774" lon="6.13924">
        <ele>524.05578613281</ele>
        <time>2011-04-17T10:29:19Z</time>
      </trkpt>
      <trkpt lat="47.11782" lon="6.13919">
        <ele>524.05578613281</ele>
        <time>2011-04-17T10:29:25Z</time>
      </trkpt>
      <trkpt lat="47.11794" lon="6.13914">
        <ele>525.97839355469</ele>
        <time>2011-04-17T10:29:34Z</time>
      </trkpt>
      <trkpt lat="47.11811" lon="6.13908">
        <ele>526.45910644531</ele>
        <time>2011-04-17T10:29:44Z</time>
      </trkpt>
      <trkpt lat="47.11831" lon="6.13902">
        <ele>527.42041015625</ele>
        <time>2011-04-17T10:29:54Z</time>
      </trkpt>
      <trkpt lat="47.1185" lon="6.139">
        <ele>528.3818359375</ele>
        <time>2011-04-17T10:30:03Z</time>
      </trkpt>
      <trkpt lat="47.11872" lon="6.13903">
        <ele>530.30444335938</ele>
        <time>2011-04-17T10:30:13Z</time>
      </trkpt>
      <trkpt lat="47.1189" lon="6.13903">
        <ele>532.22705078125</ele>
        <time>2011-04-17T10:30:21Z</time>
      </trkpt>
      <trkpt lat="47.11908" lon="6.13898">
        <ele>533.18835449219</ele>
        <time>2011-04-17T10:30:30Z</time>
      </trkpt>
      <trkpt lat="47.11927" lon="6.13896">
        <ele>534.63037109375</ele>
        <time>2011-04-17T10:30:40Z</time>
      </trkpt>
      <trkpt lat="47.11949" lon="6.13898">
        <ele>535.11096191406</ele>
        <time>2011-04-17T10:30:49Z</time>
      </trkpt>
      <trkpt lat="47.11971" lon="6.13905">
        <ele>536.07238769531</ele>
        <time>2011-04-17T10:30:57Z</time>
      </trkpt>
      <trkpt lat="47.11994" lon="6.13925">
        <ele>536.07238769531</ele>
        <time>2011-04-17T10:31:05Z</time>
      </trkpt>
      <trkpt lat="47.12022" lon="6.13951">
        <ele>537.51428222656</ele>
        <time>2011-04-17T10:31:14Z</time>
      </trkpt>
      <trkpt lat="47.12041" lon="6.13951">
        <ele>537.99499511719</ele>
        <time>2011-04-17T10:31:19Z</time>
      </trkpt>
      <trkpt lat="47.12071" lon="6.13943">
        <ele>539.43688964844</ele>
        <time>2011-04-17T10:31:27Z</time>
      </trkpt>
      <trkpt lat="47.12094" lon="6.13937">
        <ele>540.39831542969</ele>
        <time>2011-04-17T10:31:33Z</time>
      </trkpt>
      <trkpt lat="47.12136" lon="6.13933">
        <ele>541.35949707031</ele>
        <time>2011-04-17T10:31:44Z</time>
      </trkpt>
      <trkpt lat="47.12167" lon="6.13928">
        <ele>542.32092285156</ele>
        <time>2011-04-17T10:31:52Z</time>
      </trkpt>
      <trkpt lat="47.12198" lon="6.13918">
        <ele>543.76281738281</ele>
        <time>2011-04-17T10:32:00Z</time>
      </trkpt>
      <trkpt lat="47.12231" lon="6.13908">
        <ele>543.76281738281</ele>
        <time>2011-04-17T10:32:08Z</time>
      </trkpt>
      <trkpt lat="47.12267" lon="6.13899">
        <ele>545.685546875</ele>
        <time>2011-04-17T10:32:17Z</time>
      </trkpt>
      <trkpt lat="47.12301" lon="6.13891">
        <ele>545.20483398438</ele>
        <time>2011-04-17T10:32:26Z</time>
      </trkpt>
      <trkpt lat="47.12338" lon="6.13896">
        <ele>546.64685058594</ele>
        <time>2011-04-17T10:32:35Z</time>
      </trkpt>
      <trkpt lat="47.12373" lon="6.13905">
        <ele>546.64685058594</ele>
        <time>2011-04-17T10:32:43Z</time>
      </trkpt>
      <trkpt lat="47.12401" lon="6.13912">
        <ele>546.16625976562</ele>
        <time>2011-04-17T10:32:49Z</time>
      </trkpt>
      <trkpt lat="47.12423" lon="6.13902">
        <ele>546.16625976562</ele>
        <time>2011-04-17T10:32:54Z</time>
      </trkpt>
      <trkpt lat="47.12426" lon="6.13898">
        <ele>545.685546875</ele>
        <time>2011-04-17T10:32:55Z</time>
      </trkpt>
      <trkpt lat="47.12446" lon="6.13854">
        <ele>548.0888671875</ele>
        <time>2011-04-17T10:33:04Z</time>
      </trkpt>
      <trkpt lat="47.12457" lon="6.13828">
        <ele>547.12744140625</ele>
        <time>2011-04-17T10:33:09Z</time>
      </trkpt>
      <trkpt lat="47.12473" lon="6.13814">
        <ele>546.64685058594</ele>
        <time>2011-04-17T10:33:13Z</time>
      </trkpt>
      <trkpt lat="47.12478" lon="6.13814">
        <ele>545.685546875</ele>
        <time>2011-04-17T10:33:14Z</time>
      </trkpt>
      <trkpt lat="47.12523" lon="6.13819">
        <ele>547.60815429688</ele>
        <time>2011-04-17T10:33:24Z</time>
      </trkpt>
      <trkpt lat="47.12555" lon="6.13822">
        <ele>547.12744140625</ele>
        <time>2011-04-17T10:33:31Z</time>
      </trkpt>
      <trkpt lat="47.126" lon="6.13827">
        <ele>547.12744140625</ele>
        <time>2011-04-17T10:33:40Z</time>
      </trkpt>
      <trkpt lat="47.12646" lon="6.13832">
        <ele>547.60815429688</ele>
        <time>2011-04-17T10:33:49Z</time>
      </trkpt>
      <trkpt lat="47.12682" lon="6.13825">
        <ele>548.5693359375</ele>
        <time>2011-04-17T10:33:57Z</time>
      </trkpt>
      <trkpt lat="47.12721" lon="6.13813">
        <ele>549.53076171875</ele>
        <time>2011-04-17T10:34:06Z</time>
      </trkpt>
      <trkpt lat="47.12758" lon="6.13806">
        <ele>549.05004882812</ele>
        <time>2011-04-17T10:34:14Z</time>
      </trkpt>
      <trkpt lat="47.12787" lon="6.13804">
        <ele>547.60815429688</ele>
        <time>2011-04-17T10:34:20Z</time>
      </trkpt>
      <trkpt lat="47.12817" lon="6.138">
        <ele>548.5693359375</ele>
        <time>2011-04-17T10:34:26Z</time>
      </trkpt>
      <trkpt lat="47.1284" lon="6.13799">
        <ele>549.53076171875</ele>
        <time>2011-04-17T10:34:32Z</time>
      </trkpt>
      <trkpt lat="47.12851" lon="6.13804">
        <ele>549.05004882812</ele>
        <time>2011-04-17T10:34:35Z</time>
      </trkpt>
      <trkpt lat="47.12868" lon="6.13815">
        <ele>548.5693359375</ele>
        <time>2011-04-17T10:34:39Z</time>
      </trkpt>
      <trkpt lat="47.12886" lon="6.13831">
        <ele>548.0888671875</ele>
        <time>2011-04-17T10:34:43Z</time>
      </trkpt>
      <trkpt lat="47.12904" lon="6.13849">
        <ele>547.60815429688</ele>
        <time>2011-04-17T10:34:47Z</time>
      </trkpt>
      <trkpt lat="47.12923" lon="6.1387">
        <ele>546.64685058594</ele>
        <time>2011-04-17T10:34:51Z</time>
      </trkpt>
      <trkpt lat="47.12941" lon="6.13894">
        <ele>545.20483398438</ele>
        <time>2011-04-17T10:34:55Z</time>
      </trkpt>
      <trkpt lat="47.12975" lon="6.13933">
        <ele>543.28210449219</ele>
        <time>2011-04-17T10:35:02Z</time>
      </trkpt>
      <trkpt lat="47.1299" lon="6.13954">
        <ele>541.84020996094</ele>
        <time>2011-04-17T10:35:05Z</time>
      </trkpt>
      <trkpt lat="47.12999" lon="6.13971">
        <ele>540.87890625</ele>
        <time>2011-04-17T10:35:07Z</time>
      </trkpt>
      <trkpt lat="47.13015" lon="6.1401">
        <ele>537.99499511719</ele>
        <time>2011-04-17T10:35:11Z</time>
      </trkpt>
      <trkpt lat="47.13029" lon="6.1404">
        <ele>534.63037109375</ele>
        <time>2011-04-17T10:35:14Z</time>
      </trkpt>
      <trkpt lat="47.13034" lon="6.1405">
        <ele>534.63037109375</ele>
        <time>2011-04-17T10:35:15Z</time>
      </trkpt>
      <trkpt lat="47.13045" lon="6.14065">
        <ele>534.14965820312</ele>
        <time>2011-04-17T10:35:17Z</time>
      </trkpt>
      <trkpt lat="47.13061" lon="6.14079">
        <ele>533.6689453125</ele>
        <time>2011-04-17T10:35:20Z</time>
      </trkpt>
      <trkpt lat="47.13079" lon="6.14093">
        <ele>532.22705078125</ele>
        <time>2011-04-17T10:35:24Z</time>
      </trkpt>
      <trkpt lat="47.13087" lon="6.14107">
        <ele>530.78515625</ele>
        <time>2011-04-17T10:35:26Z</time>
      </trkpt>
      <trkpt lat="47.13095" lon="6.14125">
        <ele>529.82373046875</ele>
        <time>2011-04-17T10:35:28Z</time>
      </trkpt>
      <trkpt lat="47.13109" lon="6.14156">
        <ele>527.42041015625</ele>
        <time>2011-04-17T10:35:31Z</time>
      </trkpt>
      <trkpt lat="47.13121" lon="6.14189">
        <ele>525.01721191406</ele>
        <time>2011-04-17T10:35:34Z</time>
      </trkpt>
      <trkpt lat="47.13135" lon="6.14203">
        <ele>523.09460449219</ele>
        <time>2011-04-17T10:35:37Z</time>
      </trkpt>
      <trkpt lat="47.13148" lon="6.14193">
        <ele>521.65258789062</ele>
        <time>2011-04-17T10:35:40Z</time>
      </trkpt>
      <trkpt lat="47.13153" lon="6.14179">
        <ele>519.72985839844</ele>
        <time>2011-04-17T10:35:42Z</time>
      </trkpt>
      <trkpt lat="47.13157" lon="6.14161">
        <ele>518.28784179688</ele>
        <time>2011-04-17T10:35:44Z</time>
      </trkpt>
      <trkpt lat="47.13164" lon="6.14121">
        <ele>516.365234375</ele>
        <time>2011-04-17T10:35:48Z</time>
      </trkpt>
      <trkpt lat="47.13165" lon="6.1411">
        <ele>515.40405273438</ele>
        <time>2011-04-17T10:35:49Z</time>
      </trkpt>
      <trkpt lat="47.13166" lon="6.1409">
        <ele>513.4814453125</ele>
        <time>2011-04-17T10:35:51Z</time>
      </trkpt>
      <trkpt lat="47.13162" lon="6.14053">
        <ele>509.15539550781</ele>
        <time>2011-04-17T10:35:55Z</time>
      </trkpt>
      <trkpt lat="47.1316" lon="6.14035">
        <ele>507.23278808594</ele>
        <time>2011-04-17T10:35:57Z</time>
      </trkpt>
      <trkpt lat="47.13155" lon="6.13993">
        <ele>503.38745117188</ele>
        <time>2011-04-17T10:36:02Z</time>
      </trkpt>
      <trkpt lat="47.1315" lon="6.13968">
        <ele>500.50354003906</ele>
        <time>2011-04-17T10:36:05Z</time>
      </trkpt>
      <trkpt lat="47.13149" lon="6.13957">
        <ele>496.65832519531</ele>
        <time>2011-04-17T10:36:07Z</time>
      </trkpt>
      <trkpt lat="47.1315" lon="6.13951">
        <ele>496.65832519531</ele>
        <time>2011-04-17T10:36:08Z</time>
      </trkpt>
      <trkpt lat="47.13151" lon="6.13945">
        <ele>494.73559570312</ele>
        <time>2011-04-17T10:36:09Z</time>
      </trkpt>
      <trkpt lat="47.13148" lon="6.13925">
        <ele>489.92907714844</ele>
        <time>2011-04-17T10:36:12Z</time>
      </trkpt>
      <trkpt lat="47.13147" lon="6.13904">
        <ele>485.60302734375</ele>
        <time>2011-04-17T10:36:15Z</time>
      </trkpt>
      <trkpt lat="47.13144" lon="6.13876">
        <ele>482.23852539062</ele>
        <time>2011-04-17T10:36:19Z</time>
      </trkpt>
      <trkpt lat="47.13145" lon="6.13864">
        <ele>476.95129394531</ele>
        <time>2011-04-17T10:36:21Z</time>
      </trkpt>
      <trkpt lat="47.13144" lon="6.13845">
        <ele>474.06726074219</ele>
        <time>2011-04-17T10:36:24Z</time>
      </trkpt>
      <trkpt lat="47.1314" lon="6.13818">
        <ele>467.33813476562</ele>
        <time>2011-04-17T10:36:28Z</time>
      </trkpt>
      <trkpt lat="47.13136" lon="6.13804">
        <ele>464.93481445312</ele>
        <time>2011-04-17T10:36:30Z</time>
      </trkpt>
      <trkpt lat="47.13132" lon="6.13787">
        <ele>461.57019042969</ele>
        <time>2011-04-17T10:36:32Z</time>
      </trkpt>
      <trkpt lat="47.13132" lon="6.13756">
        <ele>456.28295898438</ele>
        <time>2011-04-17T10:36:35Z</time>
      </trkpt>
      <trkpt lat="47.1313" lon="6.13722">
        <ele>453.87963867188</ele>
        <time>2011-04-17T10:36:38Z</time>
      </trkpt>
      <trkpt lat="47.13129" lon="6.13711">
        <ele>450.99560546875</ele>
        <time>2011-04-17T10:36:39Z</time>
      </trkpt>
      <trkpt lat="47.13122" lon="6.13682">
        <ele>448.59240722656</ele>
        <time>2011-04-17T10:36:41Z</time>
      </trkpt>
      <trkpt lat="47.13118" lon="6.13639">
        <ele>443.30505371094</ele>
        <time>2011-04-17T10:36:45Z</time>
      </trkpt>
      <trkpt lat="47.1312" lon="6.1362">
        <ele>441.38244628906</ele>
        <time>2011-04-17T10:36:47Z</time>
      </trkpt>
      <trkpt lat="47.13139" lon="6.13576">
        <ele>438.01782226562</ele>
        <time>2011-04-17T10:36:51Z</time>
      </trkpt>
      <trkpt lat="47.13145" lon="6.13571">
        <ele>435.61450195312</ele>
        <time>2011-04-17T10:36:52Z</time>
      </trkpt>
      <trkpt lat="47.13163" lon="6.13535">
        <ele>429.36596679688</ele>
        <time>2011-04-17T10:36:56Z</time>
      </trkpt>
      <trkpt lat="47.13165" lon="6.13512">
        <ele>428.88537597656</ele>
        <time>2011-04-17T10:36:58Z</time>
      </trkpt>
      <trkpt lat="47.13166" lon="6.13478">
        <ele>424.55944824219</ele>
        <time>2011-04-17T10:37:01Z</time>
      </trkpt>
      <trkpt lat="47.13177" lon="6.13422">
        <ele>419.27221679688</ele>
        <time>2011-04-17T10:37:05Z</time>
      </trkpt>
      <trkpt lat="47.13179" lon="6.1341">
        <ele>420.2333984375</ele>
        <time>2011-04-17T10:37:06Z</time>
      </trkpt>
      <trkpt lat="47.13182" lon="6.13371">
        <ele>418.31079101562</ele>
        <time>2011-04-17T10:37:10Z</time>
      </trkpt>
      <trkpt lat="47.13198" lon="6.13353">
        <ele>415.42687988281</ele>
        <time>2011-04-17T10:37:14Z</time>
      </trkpt>
      <trkpt lat="47.13213" lon="6.1336">
        <ele>413.50427246094</ele>
        <time>2011-04-17T10:37:17Z</time>
      </trkpt>
      <trkpt lat="47.13225" lon="6.13383">
        <ele>412.54284667969</ele>
        <time>2011-04-17T10:37:20Z</time>
      </trkpt>
      <trkpt lat="47.13229" lon="6.13415">
        <ele>409.65905761719</ele>
        <time>2011-04-17T10:37:24Z</time>
      </trkpt>
      <trkpt lat="47.13229" lon="6.13425">
        <ele>409.17834472656</ele>
        <time>2011-04-17T10:37:25Z</time>
      </trkpt>
      <trkpt lat="47.13231" lon="6.13457">
        <ele>407.25561523438</ele>
        <time>2011-04-17T10:37:28Z</time>
      </trkpt>
      <trkpt lat="47.13233" lon="6.13502">
        <ele>407.736328125</ele>
        <time>2011-04-17T10:37:33Z</time>
      </trkpt>
      <trkpt lat="47.13231" lon="6.13516">
        <ele>408.69763183594</ele>
        <time>2011-04-17T10:37:35Z</time>
      </trkpt>
      <trkpt lat="47.13232" lon="6.13541">
        <ele>408.21704101562</ele>
        <time>2011-04-17T10:37:39Z</time>
      </trkpt>
      <trkpt lat="47.13231" lon="6.13556">
        <ele>407.736328125</ele>
        <time>2011-04-17T10:37:42Z</time>
      </trkpt>
      <trkpt lat="47.13231" lon="6.13574">
        <ele>407.25561523438</ele>
        <time>2011-04-17T10:37:45Z</time>
      </trkpt>
      <trkpt lat="47.13237" lon="6.136">
        <ele>406.77490234375</ele>
        <time>2011-04-17T10:37:49Z</time>
      </trkpt>
      <trkpt lat="47.13245" lon="6.13631">
        <ele>406.77490234375</ele>
        <time>2011-04-17T10:37:53Z</time>
      </trkpt>
      <trkpt lat="47.13259" lon="6.13668">
        <ele>407.25561523438</ele>
        <time>2011-04-17T10:37:58Z</time>
      </trkpt>
      <trkpt lat="47.13267" lon="6.13692">
        <ele>408.21704101562</ele>
        <time>2011-04-17T10:38:02Z</time>
      </trkpt>
      <trkpt lat="47.13277" lon="6.13718">
        <ele>408.21704101562</ele>
        <time>2011-04-17T10:38:06Z</time>
      </trkpt>
      <trkpt lat="47.1329" lon="6.13757">
        <ele>409.17834472656</ele>
        <time>2011-04-17T10:38:13Z</time>
      </trkpt>
      <trkpt lat="47.13292" lon="6.13763">
        <ele>408.69763183594</ele>
        <time>2011-04-17T10:38:14Z</time>
      </trkpt>
      <trkpt lat="47.13294" lon="6.13786">
        <ele>406.77490234375</ele>
        <time>2011-04-17T10:38:17Z</time>
      </trkpt>
      <trkpt lat="47.13297" lon="6.13813">
        <ele>406.29431152344</ele>
        <time>2011-04-17T10:38:20Z</time>
      </trkpt>
      <trkpt lat="47.13305" lon="6.1383">
        <ele>404.85229492188</ele>
        <time>2011-04-17T10:38:22Z</time>
      </trkpt>
      <trkpt lat="47.13329" lon="6.13885">
        <ele>399.56506347656</ele>
        <time>2011-04-17T10:38:27Z</time>
      </trkpt>
      <trkpt lat="47.13334" lon="6.13897">
        <ele>399.56506347656</ele>
        <time>2011-04-17T10:38:28Z</time>
      </trkpt>
      <trkpt lat="47.13348" lon="6.13928">
        <ele>396.20056152344</ele>
        <time>2011-04-17T10:38:31Z</time>
      </trkpt>
      <trkpt lat="47.13358" lon="6.13948">
        <ele>396.68115234375</ele>
        <time>2011-04-17T10:38:33Z</time>
      </trkpt>
      <trkpt lat="47.13391" lon="6.13992">
        <ele>394.75854492188</ele>
        <time>2011-04-17T10:38:38Z</time>
      </trkpt>
      <trkpt lat="47.13399" lon="6.14001">
        <ele>394.27795410156</ele>
        <time>2011-04-17T10:38:40Z</time>
      </trkpt>
      <trkpt lat="47.13404" lon="6.13987">
        <ele>393.31652832031</ele>
        <time>2011-04-17T10:38:44Z</time>
      </trkpt>
      <trkpt lat="47.13402" lon="6.13971">
        <ele>390.91320800781</ele>
        <time>2011-04-17T10:38:46Z</time>
      </trkpt>
      <trkpt lat="47.13394" lon="6.13945">
        <ele>386.10668945312</ele>
        <time>2011-04-17T10:38:49Z</time>
      </trkpt>
      <trkpt lat="47.13381" lon="6.13907">
        <ele>381.78063964844</ele>
        <time>2011-04-17T10:38:53Z</time>
      </trkpt>
      <trkpt lat="47.13377" lon="6.13889">
        <ele>381.30004882812</ele>
        <time>2011-04-17T10:38:55Z</time>
      </trkpt>
      <trkpt lat="47.13376" lon="6.1386">
        <ele>380.33874511719</ele>
        <time>2011-04-17T10:38:59Z</time>
      </trkpt>
      <trkpt lat="47.13374" lon="6.13838">
        <ele>378.89685058594</ele>
        <time>2011-04-17T10:39:02Z</time>
      </trkpt>
      <trkpt lat="47.13374" lon="6.13815">
        <ele>376.49353027344</ele>
        <time>2011-04-17T10:39:06Z</time>
      </trkpt>
      <trkpt lat="47.13383" lon="6.1381">
        <ele>374.57080078125</ele>
        <time>2011-04-17T10:39:10Z</time>
      </trkpt>
      <trkpt lat="47.13387" lon="6.13813">
        <ele>372.64819335938</ele>
        <time>2011-04-17T10:39:11Z</time>
      </trkpt>
      <trkpt lat="47.134" lon="6.13829">
        <ele>369.28369140625</ele>
        <time>2011-04-17T10:39:16Z</time>
      </trkpt>
      <trkpt lat="47.13413" lon="6.13837">
        <ele>365.9189453125</ele>
        <time>2011-04-17T10:39:20Z</time>
      </trkpt>
      <trkpt lat="47.13418" lon="6.13839">
        <ele>365.9189453125</ele>
        <time>2011-04-17T10:39:21Z</time>
      </trkpt>
      <trkpt lat="47.13429" lon="6.13847">
        <ele>363.99633789062</ele>
        <time>2011-04-17T10:39:23Z</time>
      </trkpt>
      <trkpt lat="47.13443" lon="6.13866">
        <ele>361.59313964844</ele>
        <time>2011-04-17T10:39:26Z</time>
      </trkpt>
      <trkpt lat="47.13463" lon="6.13891">
        <ele>357.74780273438</ele>
        <time>2011-04-17T10:39:31Z</time>
      </trkpt>
      <trkpt lat="47.13487" lon="6.13897">
        <ele>359.18969726562</ele>
        <time>2011-04-17T10:39:36Z</time>
      </trkpt>
      <trkpt lat="47.135" lon="6.1391">
        <ele>360.63171386719</ele>
        <time>2011-04-17T10:39:41Z</time>
      </trkpt>
      <trkpt lat="47.13511" lon="6.13921">
        <ele>362.55432128906</ele>
        <time>2011-04-17T10:39:47Z</time>
      </trkpt>
      <trkpt lat="47.13519" lon="6.1393">
        <ele>363.99633789062</ele>
        <time>2011-04-17T10:39:53Z</time>
      </trkpt>
      <trkpt lat="47.13525" lon="6.13938">
        <ele>365.43835449219</ele>
        <time>2011-04-17T10:39:58Z</time>
      </trkpt>
      <trkpt lat="47.13527" lon="6.13939">
        <ele>366.88024902344</ele>
        <time>2011-04-17T10:40:00Z</time>
      </trkpt>
      <trkpt lat="47.13533" lon="6.13931">
        <ele>367.84155273438</ele>
        <time>2011-04-17T10:40:07Z</time>
      </trkpt>
      <trkpt lat="47.13536" lon="6.13905">
        <ele>370.7255859375</ele>
        <time>2011-04-17T10:40:18Z</time>
      </trkpt>
      <trkpt lat="47.13534" lon="6.13887">
        <ele>370.7255859375</ele>
        <time>2011-04-17T10:40:26Z</time>
      </trkpt>
      <trkpt lat="47.13536" lon="6.13867">
        <ele>372.64819335938</ele>
        <time>2011-04-17T10:40:35Z</time>
      </trkpt>
      <trkpt lat="47.13545" lon="6.13861">
        <ele>375.05151367188</ele>
        <time>2011-04-17T10:40:42Z</time>
      </trkpt>
      <trkpt lat="47.13552" lon="6.13865">
        <ele>376.01281738281</ele>
        <time>2011-04-17T10:40:49Z</time>
      </trkpt>
      <trkpt lat="47.13553" lon="6.13867">
        <ele>376.01281738281</ele>
        <time>2011-04-17T10:40:50Z</time>
      </trkpt>
      <trkpt lat="47.13557" lon="6.13877">
        <ele>377.45483398438</ele>
        <time>2011-04-17T10:40:57Z</time>
      </trkpt>
      <trkpt lat="47.13562" lon="6.13891">
        <ele>376.97424316406</ele>
        <time>2011-04-17T10:41:04Z</time>
      </trkpt>
      <trkpt lat="47.13564" lon="6.13908">
        <ele>379.37744140625</ele>
        <time>2011-04-17T10:41:11Z</time>
      </trkpt>
      <trkpt lat="47.13567" lon="6.1392">
        <ele>382.74206542969</ele>
        <time>2011-04-17T10:41:17Z</time>
      </trkpt>
      <trkpt lat="47.13569" lon="6.13924">
        <ele>383.70324707031</ele>
        <time>2011-04-17T10:41:20Z</time>
      </trkpt>
      <trkpt lat="47.13575" lon="6.13924">
        <ele>384.18408203125</ele>
        <time>2011-04-17T10:41:25Z</time>
      </trkpt>
      <trkpt lat="47.13577" lon="6.13913">
        <ele>384.18408203125</ele>
        <time>2011-04-17T10:41:30Z</time>
      </trkpt>
      <trkpt lat="47.13573" lon="6.13885">
        <ele>384.18408203125</ele>
        <time>2011-04-17T10:41:38Z</time>
      </trkpt>
      <trkpt lat="47.13569" lon="6.13866">
        <ele>384.66479492188</ele>
        <time>2011-04-17T10:41:43Z</time>
      </trkpt>
      <trkpt lat="47.13561" lon="6.13841">
        <ele>384.66479492188</ele>
        <time>2011-04-17T10:41:49Z</time>
      </trkpt>
      <trkpt lat="47.13553" lon="6.13812">
        <ele>384.66479492188</ele>
        <time>2011-04-17T10:41:56Z</time>
      </trkpt>
      <trkpt lat="47.13544" lon="6.13776">
        <ele>386.10668945312</ele>
        <time>2011-04-17T10:42:04Z</time>
      </trkpt>
      <trkpt lat="47.13535" lon="6.13733">
        <ele>386.58740234375</ele>
        <time>2011-04-17T10:42:12Z</time>
      </trkpt>
      <trkpt lat="47.13519" lon="6.13674">
        <ele>386.58740234375</ele>
        <time>2011-04-17T10:42:22Z</time>
      </trkpt>
      <trkpt lat="47.13516" lon="6.13625">
        <ele>387.06799316406</ele>
        <time>2011-04-17T10:42:30Z</time>
      </trkpt>
      <trkpt lat="47.13514" lon="6.13575">
        <ele>389.47119140625</ele>
        <time>2011-04-17T10:42:39Z</time>
      </trkpt>
      <trkpt lat="47.13511" lon="6.13529">
        <ele>389.95190429688</ele>
        <time>2011-04-17T10:42:48Z</time>
      </trkpt>
      <trkpt lat="47.1351" lon="6.1351">
        <ele>391.39379882812</ele>
        <time>2011-04-17T10:42:52Z</time>
      </trkpt>
      <trkpt lat="47.13506" lon="6.13466">
        <ele>391.87451171875</ele>
        <time>2011-04-17T10:43:01Z</time>
      </trkpt>
      <trkpt lat="47.13498" lon="6.13414">
        <ele>393.79724121094</ele>
        <time>2011-04-17T10:43:12Z</time>
      </trkpt>
      <trkpt lat="47.13489" lon="6.13373">
        <ele>396.20056152344</ele>
        <time>2011-04-17T10:43:22Z</time>
      </trkpt>
      <trkpt lat="47.13474" lon="6.13335">
        <ele>397.16174316406</ele>
        <time>2011-04-17T10:43:32Z</time>
      </trkpt>
      <trkpt lat="47.1346" lon="6.13302">
        <ele>399.08435058594</ele>
        <time>2011-04-17T10:43:41Z</time>
      </trkpt>
      <trkpt lat="47.13446" lon="6.13269">
        <ele>399.56506347656</ele>
        <time>2011-04-17T10:43:50Z</time>
      </trkpt>
      <trkpt lat="47.13433" lon="6.13235">
        <ele>402.44909667969</ele>
        <time>2011-04-17T10:43:59Z</time>
      </trkpt>
      <trkpt lat="47.13423" lon="6.13199">
        <ele>404.37170410156</ele>
        <time>2011-04-17T10:44:08Z</time>
      </trkpt>
      <trkpt lat="47.13408" lon="6.13149">
        <ele>406.29431152344</ele>
        <time>2011-04-17T10:44:21Z</time>
      </trkpt>
      <trkpt lat="47.13398" lon="6.13114">
        <ele>406.77490234375</ele>
        <time>2011-04-17T10:44:30Z</time>
      </trkpt>
      <trkpt lat="47.13386" lon="6.13076">
        <ele>408.69763183594</ele>
        <time>2011-04-17T10:44:40Z</time>
      </trkpt>
      <trkpt lat="47.13374" lon="6.13035">
        <ele>409.65905761719</ele>
        <time>2011-04-17T10:44:51Z</time>
      </trkpt>
      <trkpt lat="47.13371" lon="6.13007">
        <ele>410.62023925781</ele>
        <time>2011-04-17T10:44:58Z</time>
      </trkpt>
      <trkpt lat="47.13377" lon="6.13006">
        <ele>411.10095214844</ele>
        <time>2011-04-17T10:45:02Z</time>
      </trkpt>
      <trkpt lat="47.13399" lon="6.13042">
        <ele>413.02355957031</ele>
        <time>2011-04-17T10:45:13Z</time>
      </trkpt>
      <trkpt lat="47.13405" lon="6.13057">
        <ele>412.06225585938</ele>
        <time>2011-04-17T10:45:17Z</time>
      </trkpt>
      <trkpt lat="47.13412" lon="6.13066">
        <ele>411.58166503906</ele>
        <time>2011-04-17T10:45:21Z</time>
      </trkpt>
      <trkpt lat="47.13427" lon="6.13103">
        <ele>412.54284667969</ele>
        <time>2011-04-17T10:45:30Z</time>
      </trkpt>
      <trkpt lat="47.13446" lon="6.13146">
        <ele>413.02355957031</ele>
        <time>2011-04-17T10:45:40Z</time>
      </trkpt>
      <trkpt lat="47.13465" lon="6.13186">
        <ele>414.94616699219</ele>
        <time>2011-04-17T10:45:49Z</time>
      </trkpt>
      <trkpt lat="47.13485" lon="6.13227">
        <ele>415.42687988281</ele>
        <time>2011-04-17T10:45:58Z</time>
      </trkpt>
      <trkpt lat="47.13501" lon="6.13258">
        <ele>415.90747070312</ele>
        <time>2011-04-17T10:46:05Z</time>
      </trkpt>
      <trkpt lat="47.1352" lon="6.13298">
        <ele>415.90747070312</ele>
        <time>2011-04-17T10:46:14Z</time>
      </trkpt>
      <trkpt lat="47.13543" lon="6.13342">
        <ele>418.31079101562</ele>
        <time>2011-04-17T10:46:24Z</time>
      </trkpt>
      <trkpt lat="47.1356" lon="6.13376">
        <ele>419.27221679688</ele>
        <time>2011-04-17T10:46:32Z</time>
      </trkpt>
      <trkpt lat="47.13577" lon="6.13424">
        <ele>420.2333984375</ele>
        <time>2011-04-17T10:46:42Z</time>
      </trkpt>
      <trkpt lat="47.13589" lon="6.13475">
        <ele>420.71411132812</ele>
        <time>2011-04-17T10:46:52Z</time>
      </trkpt>
      <trkpt lat="47.13596" lon="6.13524">
        <ele>422.15600585938</ele>
        <time>2011-04-17T10:47:01Z</time>
      </trkpt>
      <trkpt lat="47.13601" lon="6.13556">
        <ele>423.11743164062</ele>
        <time>2011-04-17T10:47:07Z</time>
      </trkpt>
      <trkpt lat="47.13607" lon="6.13602">
        <ele>423.59802246094</ele>
        <time>2011-04-17T10:47:15Z</time>
      </trkpt>
      <trkpt lat="47.13612" lon="6.13645">
        <ele>425.04016113281</ele>
        <time>2011-04-17T10:47:23Z</time>
      </trkpt>
      <trkpt lat="47.13617" lon="6.1369">
        <ele>426.00134277344</ele>
        <time>2011-04-17T10:47:31Z</time>
      </trkpt>
      <trkpt lat="47.13618" lon="6.13695">
        <ele>426.48205566406</ele>
        <time>2011-04-17T10:47:32Z</time>
      </trkpt>
      <trkpt lat="47.13625" lon="6.13738">
        <ele>427.443359375</ele>
        <time>2011-04-17T10:47:40Z</time>
      </trkpt>
      <trkpt lat="47.13632" lon="6.1376">
        <ele>427.443359375</ele>
        <time>2011-04-17T10:47:45Z</time>
      </trkpt>
      <trkpt lat="47.13644" lon="6.138">
        <ele>427.92395019531</ele>
        <time>2011-04-17T10:47:52Z</time>
      </trkpt>
      <trkpt lat="47.13661" lon="6.13847">
        <ele>427.92395019531</ele>
        <time>2011-04-17T10:48:00Z</time>
      </trkpt>
      <trkpt lat="47.13673" lon="6.13889">
        <ele>429.36596679688</ele>
        <time>2011-04-17T10:48:07Z</time>
      </trkpt>
      <trkpt lat="47.13686" lon="6.13934">
        <ele>430.32727050781</ele>
        <time>2011-04-17T10:48:15Z</time>
      </trkpt>
      <trkpt lat="47.13699" lon="6.13985">
        <ele>430.80798339844</ele>
        <time>2011-04-17T10:48:24Z</time>
      </trkpt>
      <trkpt lat="47.13705" lon="6.14024">
        <ele>431.28857421875</ele>
        <time>2011-04-17T10:48:31Z</time>
      </trkpt>
      <trkpt lat="47.13708" lon="6.14051">
        <ele>432.25</ele>
        <time>2011-04-17T10:48:36Z</time>
      </trkpt>
      <trkpt lat="47.13708" lon="6.14084">
        <ele>433.21130371094</ele>
        <time>2011-04-17T10:48:42Z</time>
      </trkpt>
      <trkpt lat="47.13705" lon="6.14118">
        <ele>434.17260742188</ele>
        <time>2011-04-17T10:48:48Z</time>
      </trkpt>
      <trkpt lat="47.13698" lon="6.1416">
        <ele>436.09521484375</ele>
        <time>2011-04-17T10:48:55Z</time>
      </trkpt>
      <trkpt lat="47.1369" lon="6.14208">
        <ele>436.57592773438</ele>
        <time>2011-04-17T10:49:03Z</time>
      </trkpt>
      <trkpt lat="47.13681" lon="6.14245">
        <ele>437.537109375</ele>
        <time>2011-04-17T10:49:10Z</time>
      </trkpt>
      <trkpt lat="47.13665" lon="6.14301">
        <ele>438.49853515625</ele>
        <time>2011-04-17T10:49:20Z</time>
      </trkpt>
      <trkpt lat="47.13648" lon="6.14349">
        <ele>439.9404296875</ele>
        <time>2011-04-17T10:49:29Z</time>
      </trkpt>
      <trkpt lat="47.13634" lon="6.14392">
        <ele>441.38244628906</ele>
        <time>2011-04-17T10:49:37Z</time>
      </trkpt>
      <trkpt lat="47.13624" lon="6.14436">
        <ele>441.86315917969</ele>
        <time>2011-04-17T10:49:45Z</time>
      </trkpt>
      <trkpt lat="47.13617" lon="6.14476">
        <ele>442.82446289062</ele>
        <time>2011-04-17T10:49:52Z</time>
      </trkpt>
      <trkpt lat="47.13616" lon="6.14511">
        <ele>442.82446289062</ele>
        <time>2011-04-17T10:49:58Z</time>
      </trkpt>
      <trkpt lat="47.13616" lon="6.14533">
        <ele>443.30505371094</ele>
        <time>2011-04-17T10:50:02Z</time>
      </trkpt>
      <trkpt lat="47.13615" lon="6.14568">
        <ele>444.26647949219</ele>
        <time>2011-04-17T10:50:08Z</time>
      </trkpt>
      <trkpt lat="47.13615" lon="6.14593">
        <ele>444.26647949219</ele>
        <time>2011-04-17T10:50:13Z</time>
      </trkpt>
      <trkpt lat="47.13613" lon="6.14633">
        <ele>445.22766113281</ele>
        <time>2011-04-17T10:50:20Z</time>
      </trkpt>
      <trkpt lat="47.1361" lon="6.14667">
        <ele>445.22766113281</ele>
        <time>2011-04-17T10:50:26Z</time>
      </trkpt>
      <trkpt lat="47.13604" lon="6.14706">
        <ele>446.66967773438</ele>
        <time>2011-04-17T10:50:33Z</time>
      </trkpt>
      <trkpt lat="47.13594" lon="6.14757">
        <ele>447.63098144531</ele>
        <time>2011-04-17T10:50:42Z</time>
      </trkpt>
      <trkpt lat="47.13588" lon="6.14791">
        <ele>448.11181640625</ele>
        <time>2011-04-17T10:50:49Z</time>
      </trkpt>
      <trkpt lat="47.13586" lon="6.14806">
        <ele>449.07299804688</ele>
        <time>2011-04-17T10:50:54Z</time>
      </trkpt>
      <trkpt lat="47.13585" lon="6.14809">
        <ele>450.03442382812</ele>
        <time>2011-04-17T10:50:58Z</time>
      </trkpt>
      <trkpt lat="47.13637" lon="6.15084">
        <ele>453.39892578125</ele>
        <time>2011-04-17T10:51:43Z</time>
      </trkpt>
      <trkpt lat="47.13643" lon="6.15083">
        <ele>453.87963867188</ele>
        <time>2011-04-17T10:51:45Z</time>
      </trkpt>
      <trkpt lat="47.1366" lon="6.15111">
        <ele>455.80224609375</ele>
        <time>2011-04-17T10:51:53Z</time>
      </trkpt>
      <trkpt lat="47.13675" lon="6.15135">
        <ele>456.76354980469</ele>
        <time>2011-04-17T10:51:59Z</time>
      </trkpt>
      <trkpt lat="47.13691" lon="6.15166">
        <ele>456.76354980469</ele>
        <time>2011-04-17T10:52:06Z</time>
      </trkpt>
      <trkpt lat="47.13708" lon="6.15205">
        <ele>458.68615722656</ele>
        <time>2011-04-17T10:52:14Z</time>
      </trkpt>
      <trkpt lat="47.1372" lon="6.15237">
        <ele>459.16687011719</ele>
        <time>2011-04-17T10:52:20Z</time>
      </trkpt>
      <trkpt lat="47.13732" lon="6.15278">
        <ele>459.64758300781</ele>
        <time>2011-04-17T10:52:27Z</time>
      </trkpt>
      <trkpt lat="47.13739" lon="6.15309">
        <ele>460.60876464844</ele>
        <time>2011-04-17T10:52:33Z</time>
      </trkpt>
      <trkpt lat="47.13749" lon="6.15347">
        <ele>460.60876464844</ele>
        <time>2011-04-17T10:52:40Z</time>
      </trkpt>
      <trkpt lat="47.13755" lon="6.15382">
        <ele>461.57019042969</ele>
        <time>2011-04-17T10:52:46Z</time>
      </trkpt>
      <trkpt lat="47.13763" lon="6.15418">
        <ele>462.05078125</ele>
        <time>2011-04-17T10:52:52Z</time>
      </trkpt>
      <trkpt lat="47.1377" lon="6.15451">
        <ele>462.53137207031</ele>
        <time>2011-04-17T10:52:58Z</time>
      </trkpt>
      <trkpt lat="47.13782" lon="6.15497">
        <ele>463.49279785156</ele>
        <time>2011-04-17T10:53:07Z</time>
      </trkpt>
      <trkpt lat="47.13798" lon="6.15539">
        <ele>464.4541015625</ele>
        <time>2011-04-17T10:53:16Z</time>
      </trkpt>
      <trkpt lat="47.13816" lon="6.15577">
        <ele>465.41552734375</ele>
        <time>2011-04-17T10:53:25Z</time>
      </trkpt>
      <trkpt lat="47.13828" lon="6.15601">
        <ele>465.41552734375</ele>
        <time>2011-04-17T10:53:31Z</time>
      </trkpt>
      <trkpt lat="47.13845" lon="6.15625">
        <ele>465.89611816406</ele>
        <time>2011-04-17T10:53:38Z</time>
      </trkpt>
      <trkpt lat="47.13861" lon="6.15645">
        <ele>466.37670898438</ele>
        <time>2011-04-17T10:53:44Z</time>
      </trkpt>
      <trkpt lat="47.13873" lon="6.15662">
        <ele>465.89611816406</ele>
        <time>2011-04-17T10:53:49Z</time>
      </trkpt>
      <trkpt lat="47.1389" lon="6.15682">
        <ele>467.33813476562</ele>
        <time>2011-04-17T10:53:55Z</time>
      </trkpt>
      <trkpt lat="47.13916" lon="6.15713">
        <ele>468.29931640625</ele>
        <time>2011-04-17T10:54:04Z</time>
      </trkpt>
      <trkpt lat="47.13935" lon="6.15737">
        <ele>470.22192382812</ele>
        <time>2011-04-17T10:54:11Z</time>
      </trkpt>
      <trkpt lat="47.13956" lon="6.15766">
        <ele>470.70263671875</ele>
        <time>2011-04-17T10:54:19Z</time>
      </trkpt>
      <trkpt lat="47.13974" lon="6.15801">
        <ele>472.14465332031</ele>
        <time>2011-04-17T10:54:27Z</time>
      </trkpt>
      <trkpt lat="47.13987" lon="6.1583">
        <ele>473.10607910156</ele>
        <time>2011-04-17T10:54:33Z</time>
      </trkpt>
      <trkpt lat="47.13998" lon="6.15858">
        <ele>473.10607910156</ele>
        <time>2011-04-17T10:54:39Z</time>
      </trkpt>
      <trkpt lat="47.14011" lon="6.15903">
        <ele>473.10607910156</ele>
        <time>2011-04-17T10:54:48Z</time>
      </trkpt>
      <trkpt lat="47.14024" lon="6.15951">
        <ele>473.10607910156</ele>
        <time>2011-04-17T10:54:57Z</time>
      </trkpt>
      <trkpt lat="47.14038" lon="6.15994">
        <ele>474.54797363281</ele>
        <time>2011-04-17T10:55:06Z</time>
      </trkpt>
      <trkpt lat="47.14056" lon="6.16043">
        <ele>475.50927734375</ele>
        <time>2011-04-17T10:55:16Z</time>
      </trkpt>
      <trkpt lat="47.14075" lon="6.1608">
        <ele>476.47058105469</ele>
        <time>2011-04-17T10:55:25Z</time>
      </trkpt>
      <trkpt lat="47.141" lon="6.1612">
        <ele>477.91247558594</ele>
        <time>2011-04-17T10:55:35Z</time>
      </trkpt>
      <trkpt lat="47.14124" lon="6.16152">
        <ele>478.39318847656</ele>
        <time>2011-04-17T10:55:44Z</time>
      </trkpt>
      <trkpt lat="47.1414" lon="6.16172">
        <ele>478.87390136719</ele>
        <time>2011-04-17T10:55:50Z</time>
      </trkpt>
      <trkpt lat="47.14157" lon="6.16191">
        <ele>479.3544921875</ele>
        <time>2011-04-17T10:55:56Z</time>
      </trkpt>
      <trkpt lat="47.14174" lon="6.16212">
        <ele>480.79663085938</ele>
        <time>2011-04-17T10:56:02Z</time>
      </trkpt>
      <trkpt lat="47.14198" lon="6.16245">
        <ele>481.7578125</ele>
        <time>2011-04-17T10:56:11Z</time>
      </trkpt>
      <trkpt lat="47.14219" lon="6.16286">
        <ele>483.68041992188</ele>
        <time>2011-04-17T10:56:21Z</time>
      </trkpt>
      <trkpt lat="47.14227" lon="6.16292">
        <ele>483.68041992188</ele>
        <time>2011-04-17T10:56:25Z</time>
      </trkpt>
      <trkpt lat="47.1423" lon="6.16294">
        <ele>483.19982910156</ele>
        <time>2011-04-17T10:56:29Z</time>
      </trkpt>
      <trkpt lat="47.14231" lon="6.16294">
        <ele>483.19982910156</ele>
        <time>2011-04-17T10:56:32Z</time>
      </trkpt>
      <trkpt lat="47.14233" lon="6.16294">
        <ele>483.68041992188</ele>
        <time>2011-04-17T10:56:36Z</time>
      </trkpt>
      <trkpt lat="47.14234" lon="6.16295">
        <ele>482.71923828125</ele>
        <time>2011-04-17T10:56:42Z</time>
      </trkpt>
      <trkpt lat="47.14238" lon="6.1629">
        <ele>483.19982910156</ele>
        <time>2011-04-17T10:56:45Z</time>
      </trkpt>
      <trkpt lat="47.14251" lon="6.16271">
        <ele>482.71923828125</ele>
        <time>2011-04-17T10:56:51Z</time>
      </trkpt>
      <trkpt lat="47.14267" lon="6.16262">
        <ele>482.71923828125</ele>
        <time>2011-04-17T10:56:56Z</time>
      </trkpt>
      <trkpt lat="47.1428" lon="6.16258">
        <ele>482.71923828125</ele>
        <time>2011-04-17T10:57:00Z</time>
      </trkpt>
      <trkpt lat="47.14283" lon="6.16258">
        <ele>483.19982910156</ele>
        <time>2011-04-17T10:57:01Z</time>
      </trkpt>
      <trkpt lat="47.14293" lon="6.16252">
        <ele>483.19982910156</ele>
        <time>2011-04-17T10:57:04Z</time>
      </trkpt>
      <trkpt lat="47.14303" lon="6.16238">
        <ele>483.19982910156</ele>
        <time>2011-04-17T10:57:08Z</time>
      </trkpt>
      <trkpt lat="47.1432" lon="6.16215">
        <ele>483.68041992188</ele>
        <time>2011-04-17T10:57:15Z</time>
      </trkpt>
      <trkpt lat="47.14329" lon="6.16196">
        <ele>485.12243652344</ele>
        <time>2011-04-17T10:57:20Z</time>
      </trkpt>
      <trkpt lat="47.14341" lon="6.1618">
        <ele>485.12243652344</ele>
        <time>2011-04-17T10:57:25Z</time>
      </trkpt>
      <trkpt lat="47.14343" lon="6.16177">
        <ele>485.12243652344</ele>
        <time>2011-04-17T10:57:26Z</time>
      </trkpt>
      <trkpt lat="47.14354" lon="6.16166">
        <ele>486.08374023438</ele>
        <time>2011-04-17T10:57:31Z</time>
      </trkpt>
      <trkpt lat="47.14364" lon="6.1616">
        <ele>486.564453125</ele>
        <time>2011-04-17T10:57:36Z</time>
      </trkpt>
      <trkpt lat="47.14374" lon="6.16158">
        <ele>488.00646972656</ele>
        <time>2011-04-17T10:57:41Z</time>
      </trkpt>
      <trkpt lat="47.14381" lon="6.16157">
        <ele>489.44836425781</ele>
        <time>2011-04-17T10:57:44Z</time>
      </trkpt>
      <trkpt lat="47.14385" lon="6.16156">
        <ele>489.44836425781</ele>
        <time>2011-04-17T10:57:46Z</time>
      </trkpt>
      <trkpt lat="47.14397" lon="6.16155">
        <ele>489.92907714844</ele>
        <time>2011-04-17T10:57:52Z</time>
      </trkpt>
      <trkpt lat="47.1441" lon="6.16152">
        <ele>490.40979003906</ele>
        <time>2011-04-17T10:57:59Z</time>
      </trkpt>
      <trkpt lat="47.14418" lon="6.16151">
        <ele>491.37097167969</ele>
        <time>2011-04-17T10:58:05Z</time>
      </trkpt>
      <trkpt lat="47.14428" lon="6.1615">
        <ele>491.85168457031</ele>
        <time>2011-04-17T10:58:13Z</time>
      </trkpt>
      <trkpt lat="47.14429" lon="6.1615">
        <ele>492.33239746094</ele>
        <time>2011-04-17T10:58:14Z</time>
      </trkpt>
      <trkpt lat="47.14432" lon="6.16149">
        <ele>491.85168457031</ele>
        <time>2011-04-17T10:58:18Z</time>
      </trkpt>
      <trkpt lat="47.14435" lon="6.16148">
        <ele>491.85168457031</ele>
        <time>2011-04-17T10:58:20Z</time>
      </trkpt>
      <trkpt lat="47.14438" lon="6.16146">
        <ele>491.37097167969</ele>
        <time>2011-04-17T10:58:24Z</time>
      </trkpt>
      <trkpt lat="47.14439" lon="6.16145">
        <ele>490.89038085938</ele>
        <time>2011-04-17T10:58:25Z</time>
      </trkpt>
      <trkpt lat="47.14441" lon="6.16144">
        <ele>490.89038085938</ele>
        <time>2011-04-17T10:58:29Z</time>
      </trkpt>
      <trkpt lat="47.14442" lon="6.16143">
        <ele>491.85168457031</ele>
        <time>2011-04-17T10:58:30Z</time>
      </trkpt>
      <trkpt lat="47.14442" lon="6.16143">
        <ele>491.85168457031</ele>
        <time>2011-04-17T10:58:31Z</time>
      </trkpt>
      <trkpt lat="47.14442" lon="6.1614">
        <ele>491.85168457031</ele>
        <time>2011-04-17T10:58:35Z</time>
      </trkpt>
      <trkpt lat="47.14441" lon="6.16129">
        <ele>494.25500488281</ele>
        <time>2011-04-17T10:58:40Z</time>
      </trkpt>
      <trkpt lat="47.1444" lon="6.16128">
        <ele>495.21618652344</ele>
        <time>2011-04-17T10:58:44Z</time>
      </trkpt>
      <trkpt lat="47.1444" lon="6.16127">
        <ele>495.69689941406</ele>
        <time>2011-04-17T10:58:45Z</time>
      </trkpt>
      <trkpt lat="47.14439" lon="6.16125">
        <ele>496.65832519531</ele>
        <time>2011-04-17T10:58:51Z</time>
      </trkpt>
      <trkpt lat="47.14439" lon="6.16124">
        <ele>497.13891601562</ele>
        <time>2011-04-17T10:58:52Z</time>
      </trkpt>
      <trkpt lat="47.14438" lon="6.16124">
        <ele>496.177734375</ele>
        <time>2011-04-17T10:58:53Z</time>
      </trkpt>
      <trkpt lat="47.14437" lon="6.16123">
        <ele>497.61962890625</ele>
        <time>2011-04-17T10:58:56Z</time>
      </trkpt>
      <trkpt lat="47.14437" lon="6.16121">
        <ele>497.61962890625</ele>
        <time>2011-04-17T10:58:57Z</time>
      </trkpt>
      <trkpt lat="47.14437" lon="6.1612">
        <ele>498.10034179688</ele>
        <time>2011-04-17T10:59:00Z</time>
      </trkpt>
      <trkpt lat="47.14434" lon="6.16115">
        <ele>499.54223632812</ele>
        <time>2011-04-17T10:59:05Z</time>
      </trkpt>
      <trkpt lat="47.14434" lon="6.16115">
        <ele>499.54223632812</ele>
        <time>2011-04-17T10:59:08Z</time>
      </trkpt>
      <trkpt lat="47.14434" lon="6.16114">
        <ele>500.02294921875</ele>
        <time>2011-04-17T10:59:09Z</time>
      </trkpt>
      <trkpt lat="47.14434" lon="6.16112">
        <ele>500.98413085938</ele>
        <time>2011-04-17T10:59:12Z</time>
      </trkpt>
      <trkpt lat="47.14433" lon="6.16111">
        <ele>501.46484375</ele>
        <time>2011-04-17T10:59:13Z</time>
      </trkpt>
      <trkpt lat="47.14433" lon="6.1611">
        <ele>500.98413085938</ele>
        <time>2011-04-17T10:59:16Z</time>
      </trkpt>
      <trkpt lat="47.14433" lon="6.16109">
        <ele>501.94555664062</ele>
        <time>2011-04-17T10:59:17Z</time>
      </trkpt>
      <trkpt lat="47.14431" lon="6.16106">
        <ele>502.42614746094</ele>
        <time>2011-04-17T10:59:24Z</time>
      </trkpt>
      <trkpt lat="47.1443" lon="6.16105">
        <ele>503.8681640625</ele>
        <time>2011-04-17T10:59:25Z</time>
      </trkpt>
      <trkpt lat="47.14428" lon="6.16103">
        <ele>503.8681640625</ele>
        <time>2011-04-17T10:59:29Z</time>
      </trkpt>
      <trkpt lat="47.14428" lon="6.16101">
        <ele>505.31018066406</ele>
        <time>2011-04-17T10:59:33Z</time>
      </trkpt>
      <trkpt lat="47.14426" lon="6.16097">
        <ele>505.79089355469</ele>
        <time>2011-04-17T10:59:37Z</time>
      </trkpt>
      <trkpt lat="47.14425" lon="6.16091">
        <ele>507.23278808594</ele>
        <time>2011-04-17T10:59:44Z</time>
      </trkpt>
      <trkpt lat="47.14424" lon="6.1609">
        <ele>506.75207519531</ele>
        <time>2011-04-17T10:59:47Z</time>
      </trkpt>
      <trkpt lat="47.14424" lon="6.16089">
        <ele>508.19409179688</ele>
        <time>2011-04-17T10:59:48Z</time>
      </trkpt>
      <trkpt lat="47.1442" lon="6.16081">
        <ele>509.15539550781</ele>
        <time>2011-04-17T10:59:56Z</time>
      </trkpt>
      <trkpt lat="47.14418" lon="6.16077">
        <ele>509.63610839844</ele>
        <time>2011-04-17T10:59:59Z</time>
      </trkpt>
      <trkpt lat="47.1441" lon="6.16065">
        <ele>510.59729003906</ele>
        <time>2011-04-17T11:00:08Z</time>
      </trkpt>
      <trkpt lat="47.14406" lon="6.16057">
        <ele>513.00073242188</ele>
        <time>2011-04-17T11:00:16Z</time>
      </trkpt>
      <trkpt lat="47.14406" lon="6.16055">
        <ele>513.00073242188</ele>
        <time>2011-04-17T11:00:17Z</time>
      </trkpt>
      <trkpt lat="47.14404" lon="6.16046">
        <ele>513.96203613281</ele>
        <time>2011-04-17T11:00:25Z</time>
      </trkpt>
      <trkpt lat="47.14404" lon="6.16045">
        <ele>513.96203613281</ele>
        <time>2011-04-17T11:00:26Z</time>
      </trkpt>
      <trkpt lat="47.14403" lon="6.16041">
        <ele>514.44262695312</ele>
        <time>2011-04-17T11:00:32Z</time>
      </trkpt>
      <trkpt lat="47.14397" lon="6.16028">
        <ele>514.92333984375</ele>
        <time>2011-04-17T11:00:37Z</time>
      </trkpt>
      <trkpt lat="47.14392" lon="6.16018">
        <ele>515.40405273438</ele>
        <time>2011-04-17T11:00:41Z</time>
      </trkpt>
      <trkpt lat="47.14384" lon="6.15999">
        <ele>516.365234375</ele>
        <time>2011-04-17T11:00:48Z</time>
      </trkpt>
      <trkpt lat="47.14375" lon="6.15981">
        <ele>516.84594726562</ele>
        <time>2011-04-17T11:00:55Z</time>
      </trkpt>
      <trkpt lat="47.14367" lon="6.15963">
        <ele>517.80725097656</ele>
        <time>2011-04-17T11:01:02Z</time>
      </trkpt>
      <trkpt lat="47.1436" lon="6.15947">
        <ele>518.28784179688</ele>
        <time>2011-04-17T11:01:09Z</time>
      </trkpt>
      <trkpt lat="47.14353" lon="6.15934">
        <ele>519.72985839844</ele>
        <time>2011-04-17T11:01:15Z</time>
      </trkpt>
      <trkpt lat="47.14342" lon="6.15907">
        <ele>519.72985839844</ele>
        <time>2011-04-17T11:01:22Z</time>
      </trkpt>
      <trkpt lat="47.14333" lon="6.15881">
        <ele>520.21057128906</ele>
        <time>2011-04-17T11:01:29Z</time>
      </trkpt>
      <trkpt lat="47.14319" lon="6.15853">
        <ele>521.65258789062</ele>
        <time>2011-04-17T11:01:37Z</time>
      </trkpt>
      <trkpt lat="47.14307" lon="6.15825">
        <ele>522.61389160156</ele>
        <time>2011-04-17T11:01:45Z</time>
      </trkpt>
      <trkpt lat="47.14294" lon="6.15797">
        <ele>524.05578613281</ele>
        <time>2011-04-17T11:01:52Z</time>
      </trkpt>
      <trkpt lat="47.14276" lon="6.15755">
        <ele>524.05578613281</ele>
        <time>2011-04-17T11:02:00Z</time>
      </trkpt>
      <trkpt lat="47.1426" lon="6.1572">
        <ele>523.09460449219</ele>
        <time>2011-04-17T11:02:06Z</time>
      </trkpt>
      <trkpt lat="47.14256" lon="6.15709">
        <ele>523.5751953125</ele>
        <time>2011-04-17T11:02:08Z</time>
      </trkpt>
      <trkpt lat="47.14249" lon="6.15691">
        <ele>521.65258789062</ele>
        <time>2011-04-17T11:02:11Z</time>
      </trkpt>
      <trkpt lat="47.14236" lon="6.15667">
        <ele>521.17199707031</ele>
        <time>2011-04-17T11:02:15Z</time>
      </trkpt>
      <trkpt lat="47.14222" lon="6.15637">
        <ele>519.72985839844</ele>
        <time>2011-04-17T11:02:19Z</time>
      </trkpt>
      <trkpt lat="47.14202" lon="6.15592">
        <ele>520.69128417969</ele>
        <time>2011-04-17T11:02:24Z</time>
      </trkpt>
      <trkpt lat="47.14198" lon="6.15584">
        <ele>520.69128417969</ele>
        <time>2011-04-17T11:02:25Z</time>
      </trkpt>
      <trkpt lat="47.14186" lon="6.15559">
        <ele>519.24926757812</ele>
        <time>2011-04-17T11:02:28Z</time>
      </trkpt>
      <trkpt lat="47.14178" lon="6.15544">
        <ele>518.7685546875</ele>
        <time>2011-04-17T11:02:30Z</time>
      </trkpt>
      <trkpt lat="47.14154" lon="6.15481">
        <ele>518.28784179688</ele>
        <time>2011-04-17T11:02:36Z</time>
      </trkpt>
      <trkpt lat="47.14145" lon="6.15459">
        <ele>517.80725097656</ele>
        <time>2011-04-17T11:02:38Z</time>
      </trkpt>
      <trkpt lat="47.14135" lon="6.15441">
        <ele>521.17199707031</ele>
        <time>2011-04-17T11:02:40Z</time>
      </trkpt>
      <trkpt lat="47.1413" lon="6.15422">
        <ele>523.09460449219</ele>
        <time>2011-04-17T11:02:44Z</time>
      </trkpt>
      <trkpt lat="47.14123" lon="6.15405">
        <ele>525.01721191406</ele>
        <time>2011-04-17T11:02:48Z</time>
      </trkpt>
      <trkpt lat="47.1411" lon="6.15375">
        <ele>525.97839355469</ele>
        <time>2011-04-17T11:02:55Z</time>
      </trkpt>
      <trkpt lat="47.141" lon="6.15349">
        <ele>526.45910644531</ele>
        <time>2011-04-17T11:03:01Z</time>
      </trkpt>
      <trkpt lat="47.14088" lon="6.15322">
        <ele>524.53649902344</ele>
        <time>2011-04-17T11:03:07Z</time>
      </trkpt>
      <trkpt lat="47.14071" lon="6.15281">
        <ele>524.53649902344</ele>
        <time>2011-04-17T11:03:14Z</time>
      </trkpt>
      <trkpt lat="47.14055" lon="6.15245">
        <ele>524.05578613281</ele>
        <time>2011-04-17T11:03:19Z</time>
      </trkpt>
      <trkpt lat="47.14031" lon="6.15189">
        <ele>521.65258789062</ele>
        <time>2011-04-17T11:03:26Z</time>
      </trkpt>
      <trkpt lat="47.14001" lon="6.15121">
        <ele>521.17199707031</ele>
        <time>2011-04-17T11:03:34Z</time>
      </trkpt>
      <trkpt lat="47.13982" lon="6.15076">
        <ele>520.21057128906</ele>
        <time>2011-04-17T11:03:39Z</time>
      </trkpt>
      <trkpt lat="47.13961" lon="6.1503">
        <ele>520.69128417969</ele>
        <time>2011-04-17T11:03:44Z</time>
      </trkpt>
      <trkpt lat="47.13957" lon="6.15018">
        <ele>524.53649902344</ele>
        <time>2011-04-17T11:03:47Z</time>
      </trkpt>
      <trkpt lat="47.13956" lon="6.15015">
        <ele>524.53649902344</ele>
        <time>2011-04-17T11:03:48Z</time>
      </trkpt>
      <trkpt lat="47.13953" lon="6.15006">
        <ele>526.45910644531</ele>
        <time>2011-04-17T11:03:53Z</time>
      </trkpt>
      <trkpt lat="47.13949" lon="6.14996">
        <ele>526.93981933594</ele>
        <time>2011-04-17T11:03:57Z</time>
      </trkpt>
      <trkpt lat="47.13943" lon="6.14981">
        <ele>525.97839355469</ele>
        <time>2011-04-17T11:04:02Z</time>
      </trkpt>
      <trkpt lat="47.13931" lon="6.14948">
        <ele>525.97839355469</ele>
        <time>2011-04-17T11:04:09Z</time>
      </trkpt>
      <trkpt lat="47.13922" lon="6.14928">
        <ele>525.01721191406</ele>
        <time>2011-04-17T11:04:13Z</time>
      </trkpt>
      <trkpt lat="47.13906" lon="6.14895">
        <ele>524.53649902344</ele>
        <time>2011-04-17T11:04:18Z</time>
      </trkpt>
      <trkpt lat="47.13893" lon="6.14861">
        <ele>523.09460449219</ele>
        <time>2011-04-17T11:04:22Z</time>
      </trkpt>
      <trkpt lat="47.13873" lon="6.14814">
        <ele>521.17199707031</ele>
        <time>2011-04-17T11:04:27Z</time>
      </trkpt>
      <trkpt lat="47.13864" lon="6.14795">
        <ele>520.21057128906</ele>
        <time>2011-04-17T11:04:29Z</time>
      </trkpt>
      <trkpt lat="47.13846" lon="6.14751">
        <ele>518.7685546875</ele>
        <time>2011-04-17T11:04:34Z</time>
      </trkpt>
      <trkpt lat="47.13846" lon="6.14739">
        <ele>519.24926757812</ele>
        <time>2011-04-17T11:04:37Z</time>
      </trkpt>
      <trkpt lat="47.13863" lon="6.14718">
        <ele>520.21057128906</ele>
        <time>2011-04-17T11:04:42Z</time>
      </trkpt>
      <trkpt lat="47.13887" lon="6.14692">
        <ele>520.69128417969</ele>
        <time>2011-04-17T11:04:48Z</time>
      </trkpt>
      <trkpt lat="47.13908" lon="6.1468">
        <ele>521.17199707031</ele>
        <time>2011-04-17T11:04:54Z</time>
      </trkpt>
      <trkpt lat="47.13927" lon="6.14665">
        <ele>521.65258789062</ele>
        <time>2011-04-17T11:05:00Z</time>
      </trkpt>
      <trkpt lat="47.13932" lon="6.14652">
        <ele>521.65258789062</ele>
        <time>2011-04-17T11:05:03Z</time>
      </trkpt>
      <trkpt lat="47.1395" lon="6.14619">
        <ele>521.65258789062</ele>
        <time>2011-04-17T11:05:09Z</time>
      </trkpt>
      <trkpt lat="47.1396" lon="6.14607">
        <ele>520.69128417969</ele>
        <time>2011-04-17T11:05:12Z</time>
      </trkpt>
      <trkpt lat="47.13972" lon="6.14608">
        <ele>521.65258789062</ele>
        <time>2011-04-17T11:05:15Z</time>
      </trkpt>
      <trkpt lat="47.13977" lon="6.1461">
        <ele>521.65258789062</ele>
        <time>2011-04-17T11:05:16Z</time>
      </trkpt>
      <trkpt lat="47.14003" lon="6.14627">
        <ele>522.13317871094</ele>
        <time>2011-04-17T11:05:23Z</time>
      </trkpt>
      <trkpt lat="47.14018" lon="6.14631">
        <ele>523.09460449219</ele>
        <time>2011-04-17T11:05:27Z</time>
      </trkpt>
      <trkpt lat="47.14039" lon="6.1463">
        <ele>522.61389160156</ele>
        <time>2011-04-17T11:05:31Z</time>
      </trkpt>
      <trkpt lat="47.14044" lon="6.14629">
        <ele>522.61389160156</ele>
        <time>2011-04-17T11:05:32Z</time>
      </trkpt>
      <trkpt lat="47.14064" lon="6.14629">
        <ele>521.65258789062</ele>
        <time>2011-04-17T11:05:36Z</time>
      </trkpt>
      <trkpt lat="47.14079" lon="6.14618">
        <ele>521.17199707031</ele>
        <time>2011-04-17T11:05:40Z</time>
      </trkpt>
      <trkpt lat="47.14076" lon="6.14606">
        <ele>520.69128417969</ele>
        <time>2011-04-17T11:05:43Z</time>
      </trkpt>
      <trkpt lat="47.14072" lon="6.14602">
        <ele>521.17199707031</ele>
        <time>2011-04-17T11:05:44Z</time>
      </trkpt>
      <trkpt lat="47.14048" lon="6.14564">
        <ele>519.72985839844</ele>
        <time>2011-04-17T11:05:51Z</time>
      </trkpt>
      <trkpt lat="47.14045" lon="6.14533">
        <ele>517.80725097656</ele>
        <time>2011-04-17T11:05:55Z</time>
      </trkpt>
      <trkpt lat="47.14047" lon="6.14523">
        <ele>515.40405273438</ele>
        <time>2011-04-17T11:05:56Z</time>
      </trkpt>
      <trkpt lat="47.14059" lon="6.14479">
        <ele>511.55871582031</ele>
        <time>2011-04-17T11:06:00Z</time>
      </trkpt>
      <trkpt lat="47.14061" lon="6.14467">
        <ele>510.59729003906</ele>
        <time>2011-04-17T11:06:01Z</time>
      </trkpt>
      <trkpt lat="47.14062" lon="6.14445">
        <ele>513.4814453125</ele>
        <time>2011-04-17T11:06:03Z</time>
      </trkpt>
      <trkpt lat="47.14071" lon="6.1441">
        <ele>514.44262695312</ele>
        <time>2011-04-17T11:06:08Z</time>
      </trkpt>
      <trkpt lat="47.14082" lon="6.14389">
        <ele>514.44262695312</ele>
        <time>2011-04-17T11:06:13Z</time>
      </trkpt>
      <trkpt lat="47.14095" lon="6.14372">
        <ele>514.92333984375</ele>
        <time>2011-04-17T11:06:18Z</time>
      </trkpt>
      <trkpt lat="47.14106" lon="6.14354">
        <ele>515.40405273438</ele>
        <time>2011-04-17T11:06:23Z</time>
      </trkpt>
      <trkpt lat="47.14122" lon="6.14331">
        <ele>514.44262695312</ele>
        <time>2011-04-17T11:06:30Z</time>
      </trkpt>
      <trkpt lat="47.14129" lon="6.14319">
        <ele>513.4814453125</ele>
        <time>2011-04-17T11:06:32Z</time>
      </trkpt>
      <trkpt lat="47.14146" lon="6.14308">
        <ele>516.84594726562</ele>
        <time>2011-04-17T11:06:36Z</time>
      </trkpt>
      <trkpt lat="47.14149" lon="6.14308">
        <ele>516.84594726562</ele>
        <time>2011-04-17T11:06:37Z</time>
      </trkpt>
      <trkpt lat="47.14159" lon="6.14304">
        <ele>518.7685546875</ele>
        <time>2011-04-17T11:06:40Z</time>
      </trkpt>
      <trkpt lat="47.1417" lon="6.14294">
        <ele>520.21057128906</ele>
        <time>2011-04-17T11:06:46Z</time>
      </trkpt>
      <trkpt lat="47.14174" lon="6.14292">
        <ele>520.69128417969</ele>
        <time>2011-04-17T11:06:48Z</time>
      </trkpt>
      <trkpt lat="47.14181" lon="6.1429">
        <ele>522.61389160156</ele>
        <time>2011-04-17T11:06:53Z</time>
      </trkpt>
      <trkpt lat="47.1419" lon="6.14281">
        <ele>522.61389160156</ele>
        <time>2011-04-17T11:06:59Z</time>
      </trkpt>
      <trkpt lat="47.14201" lon="6.14273">
        <ele>523.5751953125</ele>
        <time>2011-04-17T11:07:07Z</time>
      </trkpt>
      <trkpt lat="47.14209" lon="6.14258">
        <ele>525.01721191406</ele>
        <time>2011-04-17T11:07:13Z</time>
      </trkpt>
      <trkpt lat="47.14214" lon="6.14241">
        <ele>524.05578613281</ele>
        <time>2011-04-17T11:07:18Z</time>
      </trkpt>
      <trkpt lat="47.14217" lon="6.14234">
        <ele>524.05578613281</ele>
        <time>2011-04-17T11:07:20Z</time>
      </trkpt>
      <trkpt lat="47.14223" lon="6.14207">
        <ele>522.61389160156</ele>
        <time>2011-04-17T11:07:26Z</time>
      </trkpt>
      <trkpt lat="47.14228" lon="6.14178">
        <ele>522.13317871094</ele>
        <time>2011-04-17T11:07:31Z</time>
      </trkpt>
      <trkpt lat="47.14225" lon="6.1417">
        <ele>522.13317871094</ele>
        <time>2011-04-17T11:07:33Z</time>
      </trkpt>
      <trkpt lat="47.14222" lon="6.14168">
        <ele>522.13317871094</ele>
        <time>2011-04-17T11:07:34Z</time>
      </trkpt>
      <trkpt lat="47.14198" lon="6.14155">
        <ele>522.13317871094</ele>
        <time>2011-04-17T11:07:39Z</time>
      </trkpt>
      <trkpt lat="47.14185" lon="6.1415">
        <ele>521.65258789062</ele>
        <time>2011-04-17T11:07:41Z</time>
      </trkpt>
      <trkpt lat="47.14163" lon="6.14146">
        <ele>521.65258789062</ele>
        <time>2011-04-17T11:07:45Z</time>
      </trkpt>
      <trkpt lat="47.14138" lon="6.14142">
        <ele>520.69128417969</ele>
        <time>2011-04-17T11:07:49Z</time>
      </trkpt>
      <trkpt lat="47.14123" lon="6.14134">
        <ele>519.24926757812</ele>
        <time>2011-04-17T11:07:51Z</time>
      </trkpt>
      <trkpt lat="47.14099" lon="6.14113">
        <ele>516.365234375</ele>
        <time>2011-04-17T11:07:55Z</time>
      </trkpt>
      <trkpt lat="47.14083" lon="6.14101">
        <ele>513.96203613281</ele>
        <time>2011-04-17T11:07:57Z</time>
      </trkpt>
      <trkpt lat="47.14062" lon="6.14078">
        <ele>512.52001953125</ele>
        <time>2011-04-17T11:08:00Z</time>
      </trkpt>
      <trkpt lat="47.14056" lon="6.14069">
        <ele>511.07800292969</ele>
        <time>2011-04-17T11:08:01Z</time>
      </trkpt>
      <trkpt lat="47.1405" lon="6.14021">
        <ele>511.07800292969</ele>
        <time>2011-04-17T11:08:06Z</time>
      </trkpt>
      <trkpt lat="47.14063" lon="6.14001">
        <ele>510.59729003906</ele>
        <time>2011-04-17T11:08:09Z</time>
      </trkpt>
      <trkpt lat="47.14077" lon="6.13988">
        <ele>511.07800292969</ele>
        <time>2011-04-17T11:08:12Z</time>
      </trkpt>
      <trkpt lat="47.14092" lon="6.13978">
        <ele>513.00073242188</ele>
        <time>2011-04-17T11:08:15Z</time>
      </trkpt>
      <trkpt lat="47.14112" lon="6.13962">
        <ele>513.00073242188</ele>
        <time>2011-04-17T11:08:20Z</time>
      </trkpt>
      <trkpt lat="47.14127" lon="6.13936">
        <ele>512.52001953125</ele>
        <time>2011-04-17T11:08:24Z</time>
      </trkpt>
      <trkpt lat="47.1414" lon="6.13901">
        <ele>512.03942871094</ele>
        <time>2011-04-17T11:08:28Z</time>
      </trkpt>
      <trkpt lat="47.14155" lon="6.13885">
        <ele>511.55871582031</ele>
        <time>2011-04-17T11:08:31Z</time>
      </trkpt>
      <trkpt lat="47.14161" lon="6.13884">
        <ele>511.07800292969</ele>
        <time>2011-04-17T11:08:32Z</time>
      </trkpt>
      <trkpt lat="47.14208" lon="6.13875">
        <ele>512.52001953125</ele>
        <time>2011-04-17T11:08:41Z</time>
      </trkpt>
      <trkpt lat="47.14235" lon="6.13868">
        <ele>513.4814453125</ele>
        <time>2011-04-17T11:08:48Z</time>
      </trkpt>
      <trkpt lat="47.14257" lon="6.13862">
        <ele>515.40405273438</ele>
        <time>2011-04-17T11:08:55Z</time>
      </trkpt>
      <trkpt lat="47.14277" lon="6.13859">
        <ele>517.80725097656</ele>
        <time>2011-04-17T11:09:03Z</time>
      </trkpt>
      <trkpt lat="47.14293" lon="6.13855">
        <ele>519.24926757812</ele>
        <time>2011-04-17T11:09:11Z</time>
      </trkpt>
      <trkpt lat="47.14314" lon="6.13855">
        <ele>521.17199707031</ele>
        <time>2011-04-17T11:09:21Z</time>
      </trkpt>
      <trkpt lat="47.14333" lon="6.13859">
        <ele>524.53649902344</ele>
        <time>2011-04-17T11:09:30Z</time>
      </trkpt>
      <trkpt lat="47.14352" lon="6.13862">
        <ele>526.45910644531</ele>
        <time>2011-04-17T11:09:39Z</time>
      </trkpt>
      <trkpt lat="47.14367" lon="6.13862">
        <ele>527.42041015625</ele>
        <time>2011-04-17T11:09:47Z</time>
      </trkpt>
      <trkpt lat="47.14376" lon="6.13863">
        <ele>530.30444335938</ele>
        <time>2011-04-17T11:09:53Z</time>
      </trkpt>
      <trkpt lat="47.14392" lon="6.13861">
        <ele>531.26574707031</ele>
        <time>2011-04-17T11:10:00Z</time>
      </trkpt>
      <trkpt lat="47.14415" lon="6.13859">
        <ele>532.70776367188</ele>
        <time>2011-04-17T11:10:09Z</time>
      </trkpt>
      <trkpt lat="47.14439" lon="6.13858">
        <ele>533.18835449219</ele>
        <time>2011-04-17T11:10:17Z</time>
      </trkpt>
      <trkpt lat="47.1446" lon="6.13859">
        <ele>533.6689453125</ele>
        <time>2011-04-17T11:10:23Z</time>
      </trkpt>
      <trkpt lat="47.14482" lon="6.13863">
        <ele>534.14965820312</ele>
        <time>2011-04-17T11:10:29Z</time>
      </trkpt>
      <trkpt lat="47.14508" lon="6.13869">
        <ele>534.63037109375</ele>
        <time>2011-04-17T11:10:35Z</time>
      </trkpt>
      <trkpt lat="47.14542" lon="6.13864">
        <ele>533.6689453125</ele>
        <time>2011-04-17T11:10:43Z</time>
      </trkpt>
      <trkpt lat="47.14574" lon="6.13861">
        <ele>531.74633789062</ele>
        <time>2011-04-17T11:10:49Z</time>
      </trkpt>
      <trkpt lat="47.14609" lon="6.13858">
        <ele>528.86254882812</ele>
        <time>2011-04-17T11:10:54Z</time>
      </trkpt>
      <trkpt lat="47.14616" lon="6.13858">
        <ele>528.3818359375</ele>
        <time>2011-04-17T11:10:55Z</time>
      </trkpt>
      <trkpt lat="47.14633" lon="6.13858">
        <ele>526.93981933594</ele>
        <time>2011-04-17T11:10:57Z</time>
      </trkpt>
      <trkpt lat="47.14688" lon="6.13858">
        <ele>526.45910644531</ele>
        <time>2011-04-17T11:11:04Z</time>
      </trkpt>
      <trkpt lat="47.14719" lon="6.13857">
        <ele>528.86254882812</ele>
        <time>2011-04-17T11:11:09Z</time>
      </trkpt>
      <trkpt lat="47.14754" lon="6.13857">
        <ele>531.74633789062</ele>
        <time>2011-04-17T11:11:16Z</time>
      </trkpt>
      <trkpt lat="47.14805" lon="6.13856">
        <ele>532.22705078125</ele>
        <time>2011-04-17T11:11:26Z</time>
      </trkpt>
      <trkpt lat="47.14861" lon="6.13854">
        <ele>531.26574707031</ele>
        <time>2011-04-17T11:11:36Z</time>
      </trkpt>
      <trkpt lat="47.14907" lon="6.13852">
        <ele>532.70776367188</ele>
        <time>2011-04-17T11:11:44Z</time>
      </trkpt>
      <trkpt lat="47.1495" lon="6.13852">
        <ele>532.22705078125</ele>
        <time>2011-04-17T11:11:52Z</time>
      </trkpt>
      <trkpt lat="47.14982" lon="6.13855">
        <ele>533.6689453125</ele>
        <time>2011-04-17T11:11:58Z</time>
      </trkpt>
      <trkpt lat="47.15014" lon="6.13858">
        <ele>534.63037109375</ele>
        <time>2011-04-17T11:12:05Z</time>
      </trkpt>
      <trkpt lat="47.15053" lon="6.13855">
        <ele>536.55310058594</ele>
        <time>2011-04-17T11:12:14Z</time>
      </trkpt>
      <trkpt lat="47.15096" lon="6.13846">
        <ele>536.55310058594</ele>
        <time>2011-04-17T11:12:24Z</time>
      </trkpt>
      <trkpt lat="47.15143" lon="6.13833">
        <ele>537.51428222656</ele>
        <time>2011-04-17T11:12:35Z</time>
      </trkpt>
      <trkpt lat="47.15187" lon="6.13818">
        <ele>539.43688964844</ele>
        <time>2011-04-17T11:12:45Z</time>
      </trkpt>
      <trkpt lat="47.15231" lon="6.138">
        <ele>538.95629882812</ele>
        <time>2011-04-17T11:12:55Z</time>
      </trkpt>
      <trkpt lat="47.15273" lon="6.13789">
        <ele>541.35949707031</ele>
        <time>2011-04-17T11:13:05Z</time>
      </trkpt>
      <trkpt lat="47.15305" lon="6.13781">
        <ele>542.80151367188</ele>
        <time>2011-04-17T11:13:14Z</time>
      </trkpt>
      <trkpt lat="47.15333" lon="6.13773">
        <ele>544.24365234375</ele>
        <time>2011-04-17T11:13:22Z</time>
      </trkpt>
      <trkpt lat="47.15368" lon="6.13767">
        <ele>545.20483398438</ele>
        <time>2011-04-17T11:13:31Z</time>
      </trkpt>
      <trkpt lat="47.15395" lon="6.13761">
        <ele>547.12744140625</ele>
        <time>2011-04-17T11:13:38Z</time>
      </trkpt>
      <trkpt lat="47.1543" lon="6.13752">
        <ele>548.5693359375</ele>
        <time>2011-04-17T11:13:47Z</time>
      </trkpt>
      <trkpt lat="47.15462" lon="6.13735">
        <ele>549.05004882812</ele>
        <time>2011-04-17T11:13:56Z</time>
      </trkpt>
      <trkpt lat="47.15494" lon="6.13717">
        <ele>551.45336914062</ele>
        <time>2011-04-17T11:14:06Z</time>
      </trkpt>
      <trkpt lat="47.15524" lon="6.13696">
        <ele>552.89526367188</ele>
        <time>2011-04-17T11:14:16Z</time>
      </trkpt>
      <trkpt lat="47.15544" lon="6.13685">
        <ele>554.81787109375</ele>
        <time>2011-04-17T11:14:23Z</time>
      </trkpt>
      <trkpt lat="47.15567" lon="6.13678">
        <ele>555.779296875</ele>
        <time>2011-04-17T11:14:32Z</time>
      </trkpt>
      <trkpt lat="47.1559" lon="6.13675">
        <ele>557.22143554688</ele>
        <time>2011-04-17T11:14:42Z</time>
      </trkpt>
      <trkpt lat="47.15599" lon="6.13675">
        <ele>557.7021484375</ele>
        <time>2011-04-17T11:14:49Z</time>
      </trkpt>
      <trkpt lat="47.15607" lon="6.13674">
        <ele>558.66333007812</ele>
        <time>2011-04-17T11:14:55Z</time>
      </trkpt>
      <trkpt lat="47.15617" lon="6.13675">
        <ele>559.62475585938</ele>
        <time>2011-04-17T11:15:01Z</time>
      </trkpt>
      <trkpt lat="47.15626" lon="6.13678">
        <ele>561.06665039062</ele>
        <time>2011-04-17T11:15:09Z</time>
      </trkpt>
      <trkpt lat="47.15628" lon="6.13678">
        <ele>561.06665039062</ele>
        <time>2011-04-17T11:15:10Z</time>
      </trkpt>
      <trkpt lat="47.15635" lon="6.13669">
        <ele>562.02807617188</ele>
        <time>2011-04-17T11:15:16Z</time>
      </trkpt>
      <trkpt lat="47.15632" lon="6.13662">
        <ele>562.50854492188</ele>
        <time>2011-04-17T11:15:20Z</time>
      </trkpt>
      <trkpt lat="47.15631" lon="6.13662">
        <ele>562.50854492188</ele>
        <time>2011-04-17T11:15:21Z</time>
      </trkpt>
      <trkpt lat="47.15631" lon="6.13662">
        <ele>562.02807617188</ele>
        <time>2011-04-17T11:15:25Z</time>
      </trkpt>
      <trkpt lat="47.15631" lon="6.13661">
        <ele>562.50854492188</ele>
        <time>2011-04-17T11:15:26Z</time>
      </trkpt>
      <trkpt lat="47.15636" lon="6.13665">
        <ele>560.5859375</ele>
        <time>2011-04-17T11:28:35Z</time>
      </trkpt>
      <trkpt lat="47.15636" lon="6.13665">
        <ele>561.54736328125</ele>
        <time>2011-04-17T11:28:36Z</time>
      </trkpt>
      <trkpt lat="47.15636" lon="6.13665">
        <ele>561.06665039062</ele>
        <time>2011-04-17T11:28:37Z</time>
      </trkpt>
      <trkpt lat="47.15636" lon="6.13666">
        <ele>560.5859375</ele>
        <time>2011-04-17T11:28:40Z</time>
      </trkpt>
      <trkpt lat="47.15639" lon="6.1367">
        <ele>561.54736328125</ele>
        <time>2011-04-17T11:28:43Z</time>
      </trkpt>
      <trkpt lat="47.15645" lon="6.13672">
        <ele>562.02807617188</ele>
        <time>2011-04-17T11:28:51Z</time>
      </trkpt>
      <trkpt lat="47.1565" lon="6.13675">
        <ele>561.54736328125</ele>
        <time>2011-04-17T11:28:58Z</time>
      </trkpt>
      <trkpt lat="47.15654" lon="6.13679">
        <ele>560.5859375</ele>
        <time>2011-04-17T11:29:06Z</time>
      </trkpt>
      <trkpt lat="47.15658" lon="6.13687">
        <ele>562.50854492188</ele>
        <time>2011-04-17T11:29:13Z</time>
      </trkpt>
      <trkpt lat="47.15659" lon="6.13689">
        <ele>561.54736328125</ele>
        <time>2011-04-17T11:29:16Z</time>
      </trkpt>
      <trkpt lat="47.15663" lon="6.13691">
        <ele>562.02807617188</ele>
        <time>2011-04-17T11:29:19Z</time>
      </trkpt>
      <trkpt lat="47.15675" lon="6.13687">
        <ele>561.06665039062</ele>
        <time>2011-04-17T11:29:25Z</time>
      </trkpt>
      <trkpt lat="47.15694" lon="6.1369">
        <ele>561.54736328125</ele>
        <time>2011-04-17T11:29:32Z</time>
      </trkpt>
      <trkpt lat="47.15705" lon="6.13693">
        <ele>561.54736328125</ele>
        <time>2011-04-17T11:29:37Z</time>
      </trkpt>
      <trkpt lat="47.15723" lon="6.13697">
        <ele>560.5859375</ele>
        <time>2011-04-17T11:29:43Z</time>
      </trkpt>
      <trkpt lat="47.1574" lon="6.13707">
        <ele>561.06665039062</ele>
        <time>2011-04-17T11:29:48Z</time>
      </trkpt>
      <trkpt lat="47.15752" lon="6.13708">
        <ele>560.5859375</ele>
        <time>2011-04-17T11:29:51Z</time>
      </trkpt>
      <trkpt lat="47.1577" lon="6.13713">
        <ele>559.62475585938</ele>
        <time>2011-04-17T11:29:55Z</time>
      </trkpt>
      <trkpt lat="47.15806" lon="6.13715">
        <ele>558.66333007812</ele>
        <time>2011-04-17T11:30:02Z</time>
      </trkpt>
      <trkpt lat="47.15811" lon="6.13714">
        <ele>558.66333007812</ele>
        <time>2011-04-17T11:30:03Z</time>
      </trkpt>
      <trkpt lat="47.15853" lon="6.1369">
        <ele>556.74072265625</ele>
        <time>2011-04-17T11:30:11Z</time>
      </trkpt>
      <trkpt lat="47.15878" lon="6.13669">
        <ele>556.26000976562</ele>
        <time>2011-04-17T11:30:16Z</time>
      </trkpt>
      <trkpt lat="47.15919" lon="6.13636">
        <ele>555.779296875</ele>
        <time>2011-04-17T11:30:24Z</time>
      </trkpt>
      <trkpt lat="47.15928" lon="6.13629">
        <ele>555.779296875</ele>
        <time>2011-04-17T11:30:26Z</time>
      </trkpt>
      <trkpt lat="47.15948" lon="6.13599">
        <ele>555.29858398438</ele>
        <time>2011-04-17T11:30:31Z</time>
      </trkpt>
      <trkpt lat="47.15966" lon="6.13572">
        <ele>554.33740234375</ele>
        <time>2011-04-17T11:30:35Z</time>
      </trkpt>
      <trkpt lat="47.15981" lon="6.13566">
        <ele>553.3759765625</ele>
        <time>2011-04-17T11:30:39Z</time>
      </trkpt>
      <trkpt lat="47.15984" lon="6.13569">
        <ele>553.85668945312</ele>
        <time>2011-04-17T11:30:40Z</time>
      </trkpt>
      <trkpt lat="47.1601" lon="6.13596">
        <ele>553.85668945312</ele>
        <time>2011-04-17T11:30:48Z</time>
      </trkpt>
      <trkpt lat="47.16031" lon="6.13616">
        <ele>553.3759765625</ele>
        <time>2011-04-17T11:30:53Z</time>
      </trkpt>
      <trkpt lat="47.16041" lon="6.13624">
        <ele>552.41455078125</ele>
        <time>2011-04-17T11:30:55Z</time>
      </trkpt>
      <trkpt lat="47.16054" lon="6.13631">
        <ele>550.97265625</ele>
        <time>2011-04-17T11:30:57Z</time>
      </trkpt>
      <trkpt lat="47.16084" lon="6.13645">
        <ele>547.12744140625</ele>
        <time>2011-04-17T11:31:01Z</time>
      </trkpt>
      <trkpt lat="47.16091" lon="6.13654">
        <ele>547.12744140625</ele>
        <time>2011-04-17T11:31:02Z</time>
      </trkpt>
      <trkpt lat="47.16118" lon="6.13694">
        <ele>542.32092285156</ele>
        <time>2011-04-17T11:31:06Z</time>
      </trkpt>
      <trkpt lat="47.16148" lon="6.1374">
        <ele>538.95629882812</ele>
        <time>2011-04-17T11:31:10Z</time>
      </trkpt>
      <trkpt lat="47.16209" lon="6.13826">
        <ele>536.55310058594</ele>
        <time>2011-04-17T11:31:18Z</time>
      </trkpt>
      <trkpt lat="47.16258" lon="6.13892">
        <ele>535.59155273438</ele>
        <time>2011-04-17T11:31:25Z</time>
      </trkpt>
      <trkpt lat="47.16293" lon="6.13939">
        <ele>536.07238769531</ele>
        <time>2011-04-17T11:31:31Z</time>
      </trkpt>
      <trkpt lat="47.16328" lon="6.13997">
        <ele>536.07238769531</ele>
        <time>2011-04-17T11:31:39Z</time>
      </trkpt>
      <trkpt lat="47.16368" lon="6.14069">
        <ele>536.07238769531</ele>
        <time>2011-04-17T11:31:49Z</time>
      </trkpt>
      <trkpt lat="47.1642" lon="6.14162">
        <ele>534.63037109375</ele>
        <time>2011-04-17T11:32:02Z</time>
      </trkpt>
      <trkpt lat="47.16469" lon="6.1425">
        <ele>533.6689453125</ele>
        <time>2011-04-17T11:32:14Z</time>
      </trkpt>
      <trkpt lat="47.1651" lon="6.14324">
        <ele>532.70776367188</ele>
        <time>2011-04-17T11:32:24Z</time>
      </trkpt>
      <trkpt lat="47.16548" lon="6.1439">
        <ele>533.6689453125</ele>
        <time>2011-04-17T11:32:34Z</time>
      </trkpt>
      <trkpt lat="47.16579" lon="6.14443">
        <ele>534.14965820312</ele>
        <time>2011-04-17T11:32:43Z</time>
      </trkpt>
      <trkpt lat="47.16608" lon="6.14493">
        <ele>535.11096191406</ele>
        <time>2011-04-17T11:32:53Z</time>
      </trkpt>
      <trkpt lat="47.16628" lon="6.14529">
        <ele>536.55310058594</ele>
        <time>2011-04-17T11:33:01Z</time>
      </trkpt>
      <trkpt lat="47.16642" lon="6.14561">
        <ele>537.03369140625</ele>
        <time>2011-04-17T11:33:08Z</time>
      </trkpt>
      <trkpt lat="47.16654" lon="6.14555">
        <ele>536.07238769531</ele>
        <time>2011-04-17T11:33:12Z</time>
      </trkpt>
      <trkpt lat="47.1666" lon="6.14545">
        <ele>536.55310058594</ele>
        <time>2011-04-17T11:33:14Z</time>
      </trkpt>
      <trkpt lat="47.1668" lon="6.14516">
        <ele>537.03369140625</ele>
        <time>2011-04-17T11:33:20Z</time>
      </trkpt>
      <trkpt lat="47.16693" lon="6.14496">
        <ele>537.03369140625</ele>
        <time>2011-04-17T11:33:24Z</time>
      </trkpt>
      <trkpt lat="47.16706" lon="6.14456">
        <ele>537.99499511719</ele>
        <time>2011-04-17T11:33:31Z</time>
      </trkpt>
      <trkpt lat="47.16708" lon="6.14418">
        <ele>539.91760253906</ele>
        <time>2011-04-17T11:33:38Z</time>
      </trkpt>
      <trkpt lat="47.16707" lon="6.14402">
        <ele>539.91760253906</ele>
        <time>2011-04-17T11:33:41Z</time>
      </trkpt>
      <trkpt lat="47.16696" lon="6.14357">
        <ele>538.47570800781</ele>
        <time>2011-04-17T11:33:48Z</time>
      </trkpt>
      <trkpt lat="47.16674" lon="6.14312">
        <ele>538.95629882812</ele>
        <time>2011-04-17T11:33:55Z</time>
      </trkpt>
      <trkpt lat="47.16659" lon="6.14266">
        <ele>537.99499511719</ele>
        <time>2011-04-17T11:34:01Z</time>
      </trkpt>
      <trkpt lat="47.16648" lon="6.14202">
        <ele>536.07238769531</ele>
        <time>2011-04-17T11:34:07Z</time>
      </trkpt>
      <trkpt lat="47.16639" lon="6.1415">
        <ele>533.18835449219</ele>
        <time>2011-04-17T11:34:11Z</time>
      </trkpt>
      <trkpt lat="47.16629" lon="6.14107">
        <ele>530.30444335938</ele>
        <time>2011-04-17T11:34:14Z</time>
      </trkpt>
      <trkpt lat="47.16612" lon="6.1401">
        <ele>528.86254882812</ele>
        <time>2011-04-17T11:34:20Z</time>
      </trkpt>
      <trkpt lat="47.1661" lon="6.13942">
        <ele>525.49780273438</ele>
        <time>2011-04-17T11:34:24Z</time>
      </trkpt>
      <trkpt lat="47.16609" lon="6.13879">
        <ele>523.09460449219</ele>
        <time>2011-04-17T11:34:28Z</time>
      </trkpt>
      <trkpt lat="47.16616" lon="6.13867">
        <ele>522.61389160156</ele>
        <time>2011-04-17T11:34:31Z</time>
      </trkpt>
      <trkpt lat="47.16626" lon="6.13872">
        <ele>522.61389160156</ele>
        <time>2011-04-17T11:34:35Z</time>
      </trkpt>
      <trkpt lat="47.16643" lon="6.13902">
        <ele>523.09460449219</ele>
        <time>2011-04-17T11:34:41Z</time>
      </trkpt>
      <trkpt lat="47.16656" lon="6.13908">
        <ele>524.05578613281</ele>
        <time>2011-04-17T11:34:45Z</time>
      </trkpt>
      <trkpt lat="47.16658" lon="6.13907">
        <ele>524.05578613281</ele>
        <time>2011-04-17T11:34:46Z</time>
      </trkpt>
      <trkpt lat="47.16669" lon="6.13909">
        <ele>525.49780273438</ele>
        <time>2011-04-17T11:34:52Z</time>
      </trkpt>
      <trkpt lat="47.16683" lon="6.13916">
        <ele>527.42041015625</ele>
        <time>2011-04-17T11:34:57Z</time>
      </trkpt>
      <trkpt lat="47.16692" lon="6.13917">
        <ele>527.42041015625</ele>
        <time>2011-04-17T11:35:00Z</time>
      </trkpt>
      <trkpt lat="47.16702" lon="6.13922">
        <ele>529.34313964844</ele>
        <time>2011-04-17T11:35:04Z</time>
      </trkpt>
      <trkpt lat="47.16717" lon="6.13932">
        <ele>530.30444335938</ele>
        <time>2011-04-17T11:35:10Z</time>
      </trkpt>
      <trkpt lat="47.16729" lon="6.13945">
        <ele>530.78515625</ele>
        <time>2011-04-17T11:35:15Z</time>
      </trkpt>
      <trkpt lat="47.1673" lon="6.13948">
        <ele>531.74633789062</ele>
        <time>2011-04-17T11:35:16Z</time>
      </trkpt>
      <trkpt lat="47.16736" lon="6.13958">
        <ele>531.74633789062</ele>
        <time>2011-04-17T11:35:21Z</time>
      </trkpt>
      <trkpt lat="47.16742" lon="6.13963">
        <ele>532.22705078125</ele>
        <time>2011-04-17T11:35:25Z</time>
      </trkpt>
      <trkpt lat="47.16755" lon="6.13968">
        <ele>534.14965820312</ele>
        <time>2011-04-17T11:35:32Z</time>
      </trkpt>
      <trkpt lat="47.16756" lon="6.13968">
        <ele>534.14965820312</ele>
        <time>2011-04-17T11:35:33Z</time>
      </trkpt>
      <trkpt lat="47.16769" lon="6.13973">
        <ele>535.59155273438</ele>
        <time>2011-04-17T11:35:41Z</time>
      </trkpt>
      <trkpt lat="47.16776" lon="6.13977">
        <ele>536.55310058594</ele>
        <time>2011-04-17T11:35:47Z</time>
      </trkpt>
      <trkpt lat="47.16779" lon="6.13978">
        <ele>537.03369140625</ele>
        <time>2011-04-17T11:35:50Z</time>
      </trkpt>
      <trkpt lat="47.16786" lon="6.1398">
        <ele>537.99499511719</ele>
        <time>2011-04-17T11:35:54Z</time>
      </trkpt>
      <trkpt lat="47.16795" lon="6.13984">
        <ele>538.47570800781</ele>
        <time>2011-04-17T11:36:00Z</time>
      </trkpt>
      <trkpt lat="47.16805" lon="6.13981">
        <ele>539.91760253906</ele>
        <time>2011-04-17T11:36:07Z</time>
      </trkpt>
      <trkpt lat="47.16812" lon="6.13973">
        <ele>540.87890625</ele>
        <time>2011-04-17T11:36:14Z</time>
      </trkpt>
      <trkpt lat="47.16819" lon="6.13969">
        <ele>541.35949707031</ele>
        <time>2011-04-17T11:36:19Z</time>
      </trkpt>
      <trkpt lat="47.16831" lon="6.1397">
        <ele>542.32092285156</ele>
        <time>2011-04-17T11:36:25Z</time>
      </trkpt>
      <trkpt lat="47.16844" lon="6.13978">
        <ele>544.24365234375</ele>
        <time>2011-04-17T11:36:33Z</time>
      </trkpt>
      <trkpt lat="47.16854" lon="6.13972">
        <ele>544.72424316406</ele>
        <time>2011-04-17T11:36:40Z</time>
      </trkpt>
      <trkpt lat="47.16862" lon="6.1397">
        <ele>545.685546875</ele>
        <time>2011-04-17T11:36:45Z</time>
      </trkpt>
      <trkpt lat="47.16866" lon="6.13971">
        <ele>545.685546875</ele>
        <time>2011-04-17T11:36:48Z</time>
      </trkpt>
      <trkpt lat="47.16878" lon="6.13971">
        <ele>547.60815429688</ele>
        <time>2011-04-17T11:36:56Z</time>
      </trkpt>
      <trkpt lat="47.16887" lon="6.1397">
        <ele>548.5693359375</ele>
        <time>2011-04-17T11:37:02Z</time>
      </trkpt>
      <trkpt lat="47.16899" lon="6.13972">
        <ele>549.05004882812</ele>
        <time>2011-04-17T11:37:09Z</time>
      </trkpt>
      <trkpt lat="47.16915" lon="6.13976">
        <ele>549.53076171875</ele>
        <time>2011-04-17T11:37:15Z</time>
      </trkpt>
      <trkpt lat="47.16925" lon="6.13977">
        <ele>550.4921875</ele>
        <time>2011-04-17T11:37:20Z</time>
      </trkpt>
      <trkpt lat="47.16936" lon="6.13977">
        <ele>550.97265625</ele>
        <time>2011-04-17T11:37:26Z</time>
      </trkpt>
      <trkpt lat="47.16946" lon="6.13977">
        <ele>551.93408203125</ele>
        <time>2011-04-17T11:37:31Z</time>
      </trkpt>
      <trkpt lat="47.16949" lon="6.13976">
        <ele>552.41455078125</ele>
        <time>2011-04-17T11:37:32Z</time>
      </trkpt>
      <trkpt lat="47.16957" lon="6.13964">
        <ele>553.85668945312</ele>
        <time>2011-04-17T11:37:38Z</time>
      </trkpt>
      <trkpt lat="47.16963" lon="6.13954">
        <ele>555.29858398438</ele>
        <time>2011-04-17T11:37:44Z</time>
      </trkpt>
      <trkpt lat="47.16972" lon="6.13945">
        <ele>556.74072265625</ele>
        <time>2011-04-17T11:37:50Z</time>
      </trkpt>
      <trkpt lat="47.16976" lon="6.13942">
        <ele>557.7021484375</ele>
        <time>2011-04-17T11:37:53Z</time>
      </trkpt>
      <trkpt lat="47.16985" lon="6.13937">
        <ele>558.66333007812</ele>
        <time>2011-04-17T11:37:57Z</time>
      </trkpt>
      <trkpt lat="47.16996" lon="6.13923">
        <ele>559.14404296875</ele>
        <time>2011-04-17T11:38:03Z</time>
      </trkpt>
      <trkpt lat="47.1701" lon="6.13907">
        <ele>560.10522460938</ele>
        <time>2011-04-17T11:38:10Z</time>
      </trkpt>
      <trkpt lat="47.17022" lon="6.13892">
        <ele>559.62475585938</ele>
        <time>2011-04-17T11:38:16Z</time>
      </trkpt>
      <trkpt lat="47.17033" lon="6.13871">
        <ele>560.5859375</ele>
        <time>2011-04-17T11:38:22Z</time>
      </trkpt>
      <trkpt lat="47.17035" lon="6.1386">
        <ele>560.5859375</ele>
        <time>2011-04-17T11:38:25Z</time>
      </trkpt>
      <trkpt lat="47.17033" lon="6.13839">
        <ele>561.06665039062</ele>
        <time>2011-04-17T11:38:30Z</time>
      </trkpt>
      <trkpt lat="47.17042" lon="6.1381">
        <ele>561.06665039062</ele>
        <time>2011-04-17T11:38:37Z</time>
      </trkpt>
      <trkpt lat="47.17053" lon="6.13779">
        <ele>561.06665039062</ele>
        <time>2011-04-17T11:38:45Z</time>
      </trkpt>
      <trkpt lat="47.17058" lon="6.13759">
        <ele>560.10522460938</ele>
        <time>2011-04-17T11:38:50Z</time>
      </trkpt>
      <trkpt lat="47.17067" lon="6.13733">
        <ele>559.62475585938</ele>
        <time>2011-04-17T11:38:55Z</time>
      </trkpt>
      <trkpt lat="47.1707" lon="6.13724">
        <ele>558.66333007812</ele>
        <time>2011-04-17T11:38:57Z</time>
      </trkpt>
      <trkpt lat="47.17081" lon="6.13725">
        <ele>559.62475585938</ele>
        <time>2011-04-17T11:39:02Z</time>
      </trkpt>
      <trkpt lat="47.17086" lon="6.13727">
        <ele>560.10522460938</ele>
        <time>2011-04-17T11:39:04Z</time>
      </trkpt>
      <trkpt lat="47.171" lon="6.13738">
        <ele>561.54736328125</ele>
        <time>2011-04-17T11:39:10Z</time>
      </trkpt>
      <trkpt lat="47.17116" lon="6.13746">
        <ele>562.50854492188</ele>
        <time>2011-04-17T11:39:16Z</time>
      </trkpt>
      <trkpt lat="47.17133" lon="6.13758">
        <ele>562.9892578125</ele>
        <time>2011-04-17T11:39:22Z</time>
      </trkpt>
      <trkpt lat="47.17148" lon="6.13771">
        <ele>564.43115234375</ele>
        <time>2011-04-17T11:39:28Z</time>
      </trkpt>
      <trkpt lat="47.17156" lon="6.1378">
        <ele>566.35375976562</ele>
        <time>2011-04-17T11:39:32Z</time>
      </trkpt>
      <trkpt lat="47.17165" lon="6.1379">
        <ele>568.2763671875</ele>
        <time>2011-04-17T11:39:38Z</time>
      </trkpt>
      <trkpt lat="47.17176" lon="6.13801">
        <ele>568.75708007812</ele>
        <time>2011-04-17T11:39:44Z</time>
      </trkpt>
      <trkpt lat="47.17186" lon="6.13813">
        <ele>571.16040039062</ele>
        <time>2011-04-17T11:39:50Z</time>
      </trkpt>
      <trkpt lat="47.17196" lon="6.13825">
        <ele>572.6025390625</ele>
        <time>2011-04-17T11:39:56Z</time>
      </trkpt>
      <trkpt lat="47.17207" lon="6.13839">
        <ele>573.56396484375</ele>
        <time>2011-04-17T11:40:04Z</time>
      </trkpt>
      <trkpt lat="47.17213" lon="6.1385">
        <ele>574.04443359375</ele>
        <time>2011-04-17T11:40:10Z</time>
      </trkpt>
      <trkpt lat="47.17224" lon="6.13863">
        <ele>574.52514648438</ele>
        <time>2011-04-17T11:40:17Z</time>
      </trkpt>
      <trkpt lat="47.17231" lon="6.13877">
        <ele>575.96704101562</ele>
        <time>2011-04-17T11:40:24Z</time>
      </trkpt>
      <trkpt lat="47.17238" lon="6.1389">
        <ele>577.8896484375</ele>
        <time>2011-04-17T11:40:30Z</time>
      </trkpt>
      <trkpt lat="47.17246" lon="6.13908">
        <ele>578.85107421875</ele>
        <time>2011-04-17T11:40:37Z</time>
      </trkpt>
      <trkpt lat="47.17253" lon="6.13925">
        <ele>579.81225585938</ele>
        <time>2011-04-17T11:40:44Z</time>
      </trkpt>
      <trkpt lat="47.17263" lon="6.13946">
        <ele>581.25439453125</ele>
        <time>2011-04-17T11:40:52Z</time>
      </trkpt>
      <trkpt lat="47.17272" lon="6.1396">
        <ele>582.6962890625</ele>
        <time>2011-04-17T11:40:58Z</time>
      </trkpt>
      <trkpt lat="47.17283" lon="6.13975">
        <ele>583.65747070312</ele>
        <time>2011-04-17T11:41:04Z</time>
      </trkpt>
      <trkpt lat="47.17292" lon="6.13983">
        <ele>585.580078125</ele>
        <time>2011-04-17T11:41:10Z</time>
      </trkpt>
      <trkpt lat="47.17298" lon="6.13989">
        <ele>586.06079101562</ele>
        <time>2011-04-17T11:41:14Z</time>
      </trkpt>
      <trkpt lat="47.17308" lon="6.14003">
        <ele>586.54150390625</ele>
        <time>2011-04-17T11:41:20Z</time>
      </trkpt>
      <trkpt lat="47.17325" lon="6.14019">
        <ele>587.50268554688</ele>
        <time>2011-04-17T11:41:27Z</time>
      </trkpt>
      <trkpt lat="47.1734" lon="6.14027">
        <ele>588.46435546875</ele>
        <time>2011-04-17T11:41:33Z</time>
      </trkpt>
      <trkpt lat="47.17354" lon="6.14029">
        <ele>589.42553710938</ele>
        <time>2011-04-17T11:41:38Z</time>
      </trkpt>
      <trkpt lat="47.17372" lon="6.14041">
        <ele>589.42553710938</ele>
        <time>2011-04-17T11:41:44Z</time>
      </trkpt>
      <trkpt lat="47.1739" lon="6.14065">
        <ele>589.90625</ele>
        <time>2011-04-17T11:41:51Z</time>
      </trkpt>
      <trkpt lat="47.17405" lon="6.14096">
        <ele>589.42553710938</ele>
        <time>2011-04-17T11:41:58Z</time>
      </trkpt>
      <trkpt lat="47.17422" lon="6.14112">
        <ele>588.94506835938</ele>
        <time>2011-04-17T11:42:02Z</time>
      </trkpt>
      <trkpt lat="47.17452" lon="6.14137">
        <ele>588.94506835938</ele>
        <time>2011-04-17T11:42:08Z</time>
      </trkpt>
      <trkpt lat="47.17456" lon="6.14142">
        <ele>588.94506835938</ele>
        <time>2011-04-17T11:42:09Z</time>
      </trkpt>
      <trkpt lat="47.17478" lon="6.1416">
        <ele>587.9833984375</ele>
        <time>2011-04-17T11:42:13Z</time>
      </trkpt>
      <trkpt lat="47.17498" lon="6.14167">
        <ele>585.099609375</ele>
        <time>2011-04-17T11:42:16Z</time>
      </trkpt>
      <trkpt lat="47.17516" lon="6.14177">
        <ele>581.73486328125</ele>
        <time>2011-04-17T11:42:19Z</time>
      </trkpt>
      <trkpt lat="47.17548" lon="6.14197">
        <ele>579.81225585938</ele>
        <time>2011-04-17T11:42:24Z</time>
      </trkpt>
      <trkpt lat="47.17556" lon="6.14202">
        <ele>578.37036132812</ele>
        <time>2011-04-17T11:42:25Z</time>
      </trkpt>
      <trkpt lat="47.17584" lon="6.14232">
        <ele>574.52514648438</ele>
        <time>2011-04-17T11:42:29Z</time>
      </trkpt>
      <trkpt lat="47.17598" lon="6.14248">
        <ele>572.6025390625</ele>
        <time>2011-04-17T11:42:32Z</time>
      </trkpt>
      <trkpt lat="47.1761" lon="6.14262">
        <ele>571.64086914062</ele>
        <time>2011-04-17T11:42:34Z</time>
      </trkpt>
      <trkpt lat="47.17636" lon="6.14294">
        <ele>565.87329101562</ele>
        <time>2011-04-17T11:42:38Z</time>
      </trkpt>
      <trkpt lat="47.17667" lon="6.14333">
        <ele>562.9892578125</ele>
        <time>2011-04-17T11:42:42Z</time>
      </trkpt>
      <trkpt lat="47.17676" lon="6.14341">
        <ele>562.02807617188</ele>
        <time>2011-04-17T11:42:44Z</time>
      </trkpt>
      <trkpt lat="47.17685" lon="6.14354">
        <ele>561.54736328125</ele>
        <time>2011-04-17T11:42:47Z</time>
      </trkpt>
      <trkpt lat="47.17691" lon="6.14366">
        <ele>561.54736328125</ele>
        <time>2011-04-17T11:42:49Z</time>
      </trkpt>
      <trkpt lat="47.177" lon="6.14394">
        <ele>557.7021484375</ele>
        <time>2011-04-17T11:42:52Z</time>
      </trkpt>
      <trkpt lat="47.17704" lon="6.14403">
        <ele>557.7021484375</ele>
        <time>2011-04-17T11:42:53Z</time>
      </trkpt>
      <trkpt lat="47.17717" lon="6.14427">
        <ele>558.66333007812</ele>
        <time>2011-04-17T11:42:56Z</time>
      </trkpt>
      <trkpt lat="47.17735" lon="6.14463">
        <ele>559.14404296875</ele>
        <time>2011-04-17T11:43:02Z</time>
      </trkpt>
      <trkpt lat="47.17744" lon="6.14477">
        <ele>560.5859375</ele>
        <time>2011-04-17T11:43:07Z</time>
      </trkpt>
      <trkpt lat="47.17754" lon="6.14491">
        <ele>562.02807617188</ele>
        <time>2011-04-17T11:43:12Z</time>
      </trkpt>
      <trkpt lat="47.17767" lon="6.14505">
        <ele>561.54736328125</ele>
        <time>2011-04-17T11:43:17Z</time>
      </trkpt>
      <trkpt lat="47.17777" lon="6.14518">
        <ele>562.02807617188</ele>
        <time>2011-04-17T11:43:22Z</time>
      </trkpt>
      <trkpt lat="47.17791" lon="6.14533">
        <ele>562.9892578125</ele>
        <time>2011-04-17T11:43:28Z</time>
      </trkpt>
      <trkpt lat="47.17801" lon="6.14542">
        <ele>563.95043945312</ele>
        <time>2011-04-17T11:43:32Z</time>
      </trkpt>
      <trkpt lat="47.17811" lon="6.14531">
        <ele>561.54736328125</ele>
        <time>2011-04-17T11:43:37Z</time>
      </trkpt>
      <trkpt lat="47.17822" lon="6.14502">
        <ele>558.66333007812</ele>
        <time>2011-04-17T11:43:41Z</time>
      </trkpt>
      <trkpt lat="47.17839" lon="6.14465">
        <ele>555.29858398438</ele>
        <time>2011-04-17T11:43:45Z</time>
      </trkpt>
      <trkpt lat="47.17858" lon="6.14426">
        <ele>551.93408203125</ele>
        <time>2011-04-17T11:43:49Z</time>
      </trkpt>
      <trkpt lat="47.17864" lon="6.14405">
        <ele>551.45336914062</ele>
        <time>2011-04-17T11:43:51Z</time>
      </trkpt>
      <trkpt lat="47.17864" lon="6.14382">
        <ele>548.5693359375</ele>
        <time>2011-04-17T11:43:54Z</time>
      </trkpt>
      <trkpt lat="47.1786" lon="6.1437">
        <ele>546.16625976562</ele>
        <time>2011-04-17T11:43:56Z</time>
      </trkpt>
      <trkpt lat="47.1784" lon="6.14349">
        <ele>541.35949707031</ele>
        <time>2011-04-17T11:44:00Z</time>
      </trkpt>
      <trkpt lat="47.17829" lon="6.14339">
        <ele>534.63037109375</ele>
        <time>2011-04-17T11:44:02Z</time>
      </trkpt>
      <trkpt lat="47.17816" lon="6.14324">
        <ele>533.6689453125</ele>
        <time>2011-04-17T11:44:04Z</time>
      </trkpt>
      <trkpt lat="47.17804" lon="6.1431">
        <ele>530.30444335938</ele>
        <time>2011-04-17T11:44:06Z</time>
      </trkpt>
      <trkpt lat="47.17799" lon="6.14303">
        <ele>529.82373046875</ele>
        <time>2011-04-17T11:44:07Z</time>
      </trkpt>
      <trkpt lat="47.17789" lon="6.14292">
        <ele>526.93981933594</ele>
        <time>2011-04-17T11:44:09Z</time>
      </trkpt>
      <trkpt lat="47.17762" lon="6.14264">
        <ele>523.5751953125</ele>
        <time>2011-04-17T11:44:14Z</time>
      </trkpt>
      <trkpt lat="47.17759" lon="6.14227">
        <ele>518.28784179688</ele>
        <time>2011-04-17T11:44:17Z</time>
      </trkpt>
      <trkpt lat="47.17769" lon="6.14193">
        <ele>513.00073242188</ele>
        <time>2011-04-17T11:44:22Z</time>
      </trkpt>
      <trkpt lat="47.17793" lon="6.1419">
        <ele>508.67468261719</ele>
        <time>2011-04-17T11:44:26Z</time>
      </trkpt>
      <trkpt lat="47.17819" lon="6.1419">
        <ele>502.90673828125</ele>
        <time>2011-04-17T11:44:29Z</time>
      </trkpt>
      <trkpt lat="47.17847" lon="6.14188">
        <ele>500.50354003906</ele>
        <time>2011-04-17T11:44:32Z</time>
      </trkpt>
      <trkpt lat="47.17867" lon="6.1419">
        <ele>497.61962890625</ele>
        <time>2011-04-17T11:44:34Z</time>
      </trkpt>
      <trkpt lat="47.17895" lon="6.1419">
        <ele>494.25500488281</ele>
        <time>2011-04-17T11:44:37Z</time>
      </trkpt>
      <trkpt lat="47.17916" lon="6.14191">
        <ele>493.29357910156</ele>
        <time>2011-04-17T11:44:39Z</time>
      </trkpt>
      <trkpt lat="47.17939" lon="6.1419">
        <ele>489.92907714844</ele>
        <time>2011-04-17T11:44:41Z</time>
      </trkpt>
      <trkpt lat="47.17957" lon="6.14188">
        <ele>488.48718261719</ele>
        <time>2011-04-17T11:44:43Z</time>
      </trkpt>
      <trkpt lat="47.17948" lon="6.1417">
        <ele>485.60302734375</ele>
        <time>2011-04-17T11:44:46Z</time>
      </trkpt>
      <trkpt lat="47.17943" lon="6.14162">
        <ele>486.564453125</ele>
        <time>2011-04-17T11:44:47Z</time>
      </trkpt>
      <trkpt lat="47.17934" lon="6.14143">
        <ele>483.68041992188</ele>
        <time>2011-04-17T11:44:49Z</time>
      </trkpt>
      <trkpt lat="47.17916" lon="6.14091">
        <ele>478.87390136719</ele>
        <time>2011-04-17T11:44:53Z</time>
      </trkpt>
      <trkpt lat="47.1791" lon="6.14039">
        <ele>474.06726074219</ele>
        <time>2011-04-17T11:44:56Z</time>
      </trkpt>
      <trkpt lat="47.17912" lon="6.14021">
        <ele>473.58666992188</ele>
        <time>2011-04-17T11:44:57Z</time>
      </trkpt>
      <trkpt lat="47.17915" lon="6.14004">
        <ele>473.58666992188</ele>
        <time>2011-04-17T11:44:58Z</time>
      </trkpt>
      <trkpt lat="47.17932" lon="6.13915">
        <ele>472.14465332031</ele>
        <time>2011-04-17T11:45:04Z</time>
      </trkpt>
      <trkpt lat="47.17943" lon="6.13851">
        <ele>469.2607421875</ele>
        <time>2011-04-17T11:45:08Z</time>
      </trkpt>
      <trkpt lat="47.17949" lon="6.13822">
        <ele>470.70263671875</ele>
        <time>2011-04-17T11:45:10Z</time>
      </trkpt>
      <trkpt lat="47.17952" lon="6.13799">
        <ele>473.10607910156</ele>
        <time>2011-04-17T11:45:12Z</time>
      </trkpt>
      <trkpt lat="47.17962" lon="6.1375">
        <ele>474.54797363281</ele>
        <time>2011-04-17T11:45:17Z</time>
      </trkpt>
      <trkpt lat="47.17978" lon="6.13667">
        <ele>472.62536621094</ele>
        <time>2011-04-17T11:45:25Z</time>
      </trkpt>
      <trkpt lat="47.17982" lon="6.13643">
        <ele>471.18334960938</ele>
        <time>2011-04-17T11:45:27Z</time>
      </trkpt>
      <trkpt lat="47.17994" lon="6.13576">
        <ele>467.81872558594</ele>
        <time>2011-04-17T11:45:32Z</time>
      </trkpt>
      <trkpt lat="47.18001" lon="6.13533">
        <ele>466.857421875</ele>
        <time>2011-04-17T11:45:35Z</time>
      </trkpt>
      <trkpt lat="47.18016" lon="6.13503">
        <ele>466.37670898438</ele>
        <time>2011-04-17T11:45:39Z</time>
      </trkpt>
      <trkpt lat="47.18026" lon="6.13506">
        <ele>466.37670898438</ele>
        <time>2011-04-17T11:45:41Z</time>
      </trkpt>
      <trkpt lat="47.18047" lon="6.13519">
        <ele>466.857421875</ele>
        <time>2011-04-17T11:45:45Z</time>
      </trkpt>
      <trkpt lat="47.18075" lon="6.13526">
        <ele>466.37670898438</ele>
        <time>2011-04-17T11:45:50Z</time>
      </trkpt>
      <trkpt lat="47.1814" lon="6.13525">
        <ele>468.29931640625</ele>
        <time>2011-04-17T11:46:01Z</time>
      </trkpt>
      <trkpt lat="47.18151" lon="6.13528">
        <ele>468.29931640625</ele>
        <time>2011-04-17T11:46:03Z</time>
      </trkpt>
      <trkpt lat="47.18176" lon="6.1355">
        <ele>466.857421875</ele>
        <time>2011-04-17T11:46:08Z</time>
      </trkpt>
      <trkpt lat="47.18181" lon="6.13557">
        <ele>466.857421875</ele>
        <time>2011-04-17T11:46:09Z</time>
      </trkpt>
      <trkpt lat="47.18205" lon="6.13595">
        <ele>466.37670898438</ele>
        <time>2011-04-17T11:46:14Z</time>
      </trkpt>
      <trkpt lat="47.18209" lon="6.13603">
        <ele>466.857421875</ele>
        <time>2011-04-17T11:46:15Z</time>
      </trkpt>
      <trkpt lat="47.1822" lon="6.13642">
        <ele>467.33813476562</ele>
        <time>2011-04-17T11:46:19Z</time>
      </trkpt>
      <trkpt lat="47.18227" lon="6.13695">
        <ele>466.857421875</ele>
        <time>2011-04-17T11:46:24Z</time>
      </trkpt>
      <trkpt lat="47.18242" lon="6.1373">
        <ele>466.857421875</ele>
        <time>2011-04-17T11:46:28Z</time>
      </trkpt>
      <trkpt lat="47.18256" lon="6.13751">
        <ele>465.41552734375</ele>
        <time>2011-04-17T11:46:31Z</time>
      </trkpt>
      <trkpt lat="47.18283" lon="6.13781">
        <ele>465.89611816406</ele>
        <time>2011-04-17T11:46:37Z</time>
      </trkpt>
      <trkpt lat="47.18298" lon="6.13798">
        <ele>467.81872558594</ele>
        <time>2011-04-17T11:46:42Z</time>
      </trkpt>
      <trkpt lat="47.18317" lon="6.1381">
        <ele>468.78002929688</ele>
        <time>2011-04-17T11:46:48Z</time>
      </trkpt>
      <trkpt lat="47.18335" lon="6.13831">
        <ele>468.78002929688</ele>
        <time>2011-04-17T11:46:55Z</time>
      </trkpt>
      <trkpt lat="47.18342" lon="6.13846">
        <ele>468.78002929688</ele>
        <time>2011-04-17T11:46:58Z</time>
      </trkpt>
      <trkpt lat="47.18347" lon="6.13866">
        <ele>469.2607421875</ele>
        <time>2011-04-17T11:47:01Z</time>
      </trkpt>
      <trkpt lat="47.1835" lon="6.13909">
        <ele>469.2607421875</ele>
        <time>2011-04-17T11:47:07Z</time>
      </trkpt>
      <trkpt lat="47.18361" lon="6.13934">
        <ele>469.2607421875</ele>
        <time>2011-04-17T11:47:11Z</time>
      </trkpt>
      <trkpt lat="47.18375" lon="6.13937">
        <ele>470.22192382812</ele>
        <time>2011-04-17T11:47:14Z</time>
      </trkpt>
      <trkpt lat="47.18406" lon="6.1394">
        <ele>470.70263671875</ele>
        <time>2011-04-17T11:47:21Z</time>
      </trkpt>
      <trkpt lat="47.1842" lon="6.13949">
        <ele>470.70263671875</ele>
        <time>2011-04-17T11:47:26Z</time>
      </trkpt>
      <trkpt lat="47.18431" lon="6.13959">
        <ele>470.70263671875</ele>
        <time>2011-04-17T11:47:30Z</time>
      </trkpt>
      <trkpt lat="47.18444" lon="6.13972">
        <ele>470.70263671875</ele>
        <time>2011-04-17T11:47:35Z</time>
      </trkpt>
      <trkpt lat="47.18472" lon="6.14">
        <ele>473.10607910156</ele>
        <time>2011-04-17T11:47:44Z</time>
      </trkpt>
      <trkpt lat="47.18499" lon="6.14026">
        <ele>473.58666992188</ele>
        <time>2011-04-17T11:47:53Z</time>
      </trkpt>
      <trkpt lat="47.18523" lon="6.14048">
        <ele>474.06726074219</ele>
        <time>2011-04-17T11:48:00Z</time>
      </trkpt>
      <trkpt lat="47.18536" lon="6.14061">
        <ele>473.58666992188</ele>
        <time>2011-04-17T11:48:04Z</time>
      </trkpt>
      <trkpt lat="47.18555" lon="6.14075">
        <ele>474.06726074219</ele>
        <time>2011-04-17T11:48:09Z</time>
      </trkpt>
      <trkpt lat="47.18559" lon="6.14079">
        <ele>473.58666992188</ele>
        <time>2011-04-17T11:48:10Z</time>
      </trkpt>
      <trkpt lat="47.18565" lon="6.14087">
        <ele>473.10607910156</ele>
        <time>2011-04-17T11:48:12Z</time>
      </trkpt>
      <trkpt lat="47.18576" lon="6.14098">
        <ele>472.62536621094</ele>
        <time>2011-04-17T11:48:15Z</time>
      </trkpt>
      <trkpt lat="47.18589" lon="6.14108">
        <ele>472.14465332031</ele>
        <time>2011-04-17T11:48:18Z</time>
      </trkpt>
      <trkpt lat="47.18621" lon="6.14143">
        <ele>470.70263671875</ele>
        <time>2011-04-17T11:48:25Z</time>
      </trkpt>
      <trkpt lat="47.18656" lon="6.14179">
        <ele>467.81872558594</ele>
        <time>2011-04-17T11:48:31Z</time>
      </trkpt>
      <trkpt lat="47.18662" lon="6.14185">
        <ele>467.81872558594</ele>
        <time>2011-04-17T11:48:32Z</time>
      </trkpt>
      <trkpt lat="47.18682" lon="6.14204">
        <ele>466.37670898438</ele>
        <time>2011-04-17T11:48:35Z</time>
      </trkpt>
      <trkpt lat="47.18695" lon="6.14219">
        <ele>465.41552734375</ele>
        <time>2011-04-17T11:48:37Z</time>
      </trkpt>
      <trkpt lat="47.18708" lon="6.14234">
        <ele>464.93481445312</ele>
        <time>2011-04-17T11:48:39Z</time>
      </trkpt>
      <trkpt lat="47.18744" lon="6.14271">
        <ele>466.37670898438</ele>
        <time>2011-04-17T11:48:45Z</time>
      </trkpt>
      <trkpt lat="47.18759" lon="6.14289">
        <ele>466.857421875</ele>
        <time>2011-04-17T11:48:49Z</time>
      </trkpt>
      <trkpt lat="47.18775" lon="6.14306">
        <ele>466.37670898438</ele>
        <time>2011-04-17T11:48:55Z</time>
      </trkpt>
      <trkpt lat="47.1879" lon="6.14322">
        <ele>466.37670898438</ele>
        <time>2011-04-17T11:49:01Z</time>
      </trkpt>
      <trkpt lat="47.18807" lon="6.14339">
        <ele>466.37670898438</ele>
        <time>2011-04-17T11:49:07Z</time>
      </trkpt>
      <trkpt lat="47.18832" lon="6.14367">
        <ele>465.89611816406</ele>
        <time>2011-04-17T11:49:14Z</time>
      </trkpt>
      <trkpt lat="47.18862" lon="6.14396">
        <ele>466.857421875</ele>
        <time>2011-04-17T11:49:21Z</time>
      </trkpt>
      <trkpt lat="47.1887" lon="6.14404">
        <ele>467.81872558594</ele>
        <time>2011-04-17T11:49:23Z</time>
      </trkpt>
      <trkpt lat="47.18898" lon="6.14433">
        <ele>468.29931640625</ele>
        <time>2011-04-17T11:49:31Z</time>
      </trkpt>
      <trkpt lat="47.18917" lon="6.14453">
        <ele>469.74133300781</ele>
        <time>2011-04-17T11:49:37Z</time>
      </trkpt>
      <trkpt lat="47.1894" lon="6.14477">
        <ele>470.70263671875</ele>
        <time>2011-04-17T11:49:44Z</time>
      </trkpt>
      <trkpt lat="47.18949" lon="6.14487">
        <ele>471.66394042969</ele>
        <time>2011-04-17T11:49:47Z</time>
      </trkpt>
      <trkpt lat="47.1897" lon="6.14508">
        <ele>471.66394042969</ele>
        <time>2011-04-17T11:49:54Z</time>
      </trkpt>
      <trkpt lat="47.18989" lon="6.1453">
        <ele>471.66394042969</ele>
        <time>2011-04-17T11:50:01Z</time>
      </trkpt>
      <trkpt lat="47.19017" lon="6.14565">
        <ele>472.62536621094</ele>
        <time>2011-04-17T11:50:11Z</time>
      </trkpt>
      <trkpt lat="47.19046" lon="6.14604">
        <ele>474.06726074219</ele>
        <time>2011-04-17T11:50:21Z</time>
      </trkpt>
      <trkpt lat="47.1908" lon="6.14658">
        <ele>475.02868652344</ele>
        <time>2011-04-17T11:50:33Z</time>
      </trkpt>
      <trkpt lat="47.19112" lon="6.14721">
        <ele>475.98986816406</ele>
        <time>2011-04-17T11:50:45Z</time>
      </trkpt>
      <trkpt lat="47.1914" lon="6.14779">
        <ele>477.43188476562</ele>
        <time>2011-04-17T11:50:56Z</time>
      </trkpt>
      <trkpt lat="47.19169" lon="6.14838">
        <ele>477.43188476562</ele>
        <time>2011-04-17T11:51:07Z</time>
      </trkpt>
      <trkpt lat="47.192" lon="6.14899">
        <ele>477.91247558594</ele>
        <time>2011-04-17T11:51:18Z</time>
      </trkpt>
      <trkpt lat="47.19202" lon="6.14905">
        <ele>478.39318847656</ele>
        <time>2011-04-17T11:51:19Z</time>
      </trkpt>
      <trkpt lat="47.19209" lon="6.14923">
        <ele>477.43188476562</ele>
        <time>2011-04-17T11:51:22Z</time>
      </trkpt>
      <trkpt lat="47.19209" lon="6.14953">
        <ele>478.87390136719</ele>
        <time>2011-04-17T11:51:27Z</time>
      </trkpt>
      <trkpt lat="47.19207" lon="6.14958">
        <ele>478.87390136719</ele>
        <time>2011-04-17T11:51:28Z</time>
      </trkpt>
      <trkpt lat="47.19203" lon="6.14969">
        <ele>478.87390136719</ele>
        <time>2011-04-17T11:51:30Z</time>
      </trkpt>
      <trkpt lat="47.19192" lon="6.14986">
        <ele>478.87390136719</ele>
        <time>2011-04-17T11:51:34Z</time>
      </trkpt>
      <trkpt lat="47.19184" lon="6.14994">
        <ele>478.39318847656</ele>
        <time>2011-04-17T11:51:36Z</time>
      </trkpt>
      <trkpt lat="47.19179" lon="6.1502">
        <ele>477.43188476562</ele>
        <time>2011-04-17T11:51:40Z</time>
      </trkpt>
      <trkpt lat="47.19191" lon="6.15045">
        <ele>476.95129394531</ele>
        <time>2011-04-17T11:51:44Z</time>
      </trkpt>
      <trkpt lat="47.19199" lon="6.15052">
        <ele>476.95129394531</ele>
        <time>2011-04-17T11:51:46Z</time>
      </trkpt>
      <trkpt lat="47.1923" lon="6.15076">
        <ele>477.43188476562</ele>
        <time>2011-04-17T11:51:54Z</time>
      </trkpt>
      <trkpt lat="47.19252" lon="6.15101">
        <ele>479.3544921875</ele>
        <time>2011-04-17T11:52:03Z</time>
      </trkpt>
      <trkpt lat="47.19279" lon="6.15136">
        <ele>480.79663085938</ele>
        <time>2011-04-17T11:52:14Z</time>
      </trkpt>
      <trkpt lat="47.19299" lon="6.15166">
        <ele>481.27722167969</ele>
        <time>2011-04-17T11:52:22Z</time>
      </trkpt>
      <trkpt lat="47.19317" lon="6.15203">
        <ele>480.79663085938</ele>
        <time>2011-04-17T11:52:30Z</time>
      </trkpt>
      <trkpt lat="47.19337" lon="6.15239">
        <ele>480.31591796875</ele>
        <time>2011-04-17T11:52:37Z</time>
      </trkpt>
      <trkpt lat="47.19368" lon="6.15296">
        <ele>480.31591796875</ele>
        <time>2011-04-17T11:52:47Z</time>
      </trkpt>
      <trkpt lat="47.19407" lon="6.15364">
        <ele>480.79663085938</ele>
        <time>2011-04-17T11:52:59Z</time>
      </trkpt>
      <trkpt lat="47.19429" lon="6.15411">
        <ele>480.31591796875</ele>
        <time>2011-04-17T11:53:07Z</time>
      </trkpt>
      <trkpt lat="47.19445" lon="6.15446">
        <ele>480.31591796875</ele>
        <time>2011-04-17T11:53:13Z</time>
      </trkpt>
      <trkpt lat="47.19445" lon="6.15465">
        <ele>481.27722167969</ele>
        <time>2011-04-17T11:53:17Z</time>
      </trkpt>
      <trkpt lat="47.19436" lon="6.1548">
        <ele>483.19982910156</ele>
        <time>2011-04-17T11:53:23Z</time>
      </trkpt>
      <trkpt lat="47.19425" lon="6.15504">
        <ele>486.08374023438</ele>
        <time>2011-04-17T11:53:34Z</time>
      </trkpt>
      <trkpt lat="47.19417" lon="6.15524">
        <ele>487.52563476562</ele>
        <time>2011-04-17T11:53:44Z</time>
      </trkpt>
      <trkpt lat="47.1941" lon="6.15545">
        <ele>488.9677734375</ele>
        <time>2011-04-17T11:53:54Z</time>
      </trkpt>
      <trkpt lat="47.19403" lon="6.15561">
        <ele>491.85168457031</ele>
        <time>2011-04-17T11:54:02Z</time>
      </trkpt>
      <trkpt lat="47.19396" lon="6.15581">
        <ele>494.25500488281</ele>
        <time>2011-04-17T11:54:12Z</time>
      </trkpt>
      <trkpt lat="47.19392" lon="6.15596">
        <ele>495.21618652344</ele>
        <time>2011-04-17T11:54:20Z</time>
      </trkpt>
      <trkpt lat="47.19387" lon="6.15612">
        <ele>495.21618652344</ele>
        <time>2011-04-17T11:54:28Z</time>
      </trkpt>
      <trkpt lat="47.19384" lon="6.15625">
        <ele>497.61962890625</ele>
        <time>2011-04-17T11:54:35Z</time>
      </trkpt>
      <trkpt lat="47.19382" lon="6.15635">
        <ele>499.54223632812</ele>
        <time>2011-04-17T11:54:40Z</time>
      </trkpt>
      <trkpt lat="47.19377" lon="6.15654">
        <ele>500.50354003906</ele>
        <time>2011-04-17T11:54:49Z</time>
      </trkpt>
      <trkpt lat="47.19371" lon="6.15673">
        <ele>502.42614746094</ele>
        <time>2011-04-17T11:54:58Z</time>
      </trkpt>
      <trkpt lat="47.19367" lon="6.15695">
        <ele>502.42614746094</ele>
        <time>2011-04-17T11:55:08Z</time>
      </trkpt>
      <trkpt lat="47.19365" lon="6.15716">
        <ele>503.38745117188</ele>
        <time>2011-04-17T11:55:15Z</time>
      </trkpt>
      <trkpt lat="47.19363" lon="6.15752">
        <ele>502.42614746094</ele>
        <time>2011-04-17T11:55:23Z</time>
      </trkpt>
      <trkpt lat="47.1936" lon="6.15764">
        <ele>502.42614746094</ele>
        <time>2011-04-17T11:55:25Z</time>
      </trkpt>
      <trkpt lat="47.19347" lon="6.15797">
        <ele>502.90673828125</ele>
        <time>2011-04-17T11:55:31Z</time>
      </trkpt>
      <trkpt lat="47.19328" lon="6.1584">
        <ele>504.34887695312</ele>
        <time>2011-04-17T11:55:39Z</time>
      </trkpt>
      <trkpt lat="47.19312" lon="6.15871">
        <ele>504.82946777344</ele>
        <time>2011-04-17T11:55:45Z</time>
      </trkpt>
      <trkpt lat="47.19313" lon="6.15892">
        <ele>505.31018066406</ele>
        <time>2011-04-17T11:55:49Z</time>
      </trkpt>
      <trkpt lat="47.19324" lon="6.15923">
        <ele>507.23278808594</ele>
        <time>2011-04-17T11:55:56Z</time>
      </trkpt>
      <trkpt lat="47.19338" lon="6.15959">
        <ele>509.15539550781</ele>
        <time>2011-04-17T11:56:05Z</time>
      </trkpt>
      <trkpt lat="47.19343" lon="6.15983">
        <ele>509.63610839844</ele>
        <time>2011-04-17T11:56:11Z</time>
      </trkpt>
      <trkpt lat="47.19352" lon="6.15996">
        <ele>509.63610839844</ele>
        <time>2011-04-17T11:56:15Z</time>
      </trkpt>
      <trkpt lat="47.19355" lon="6.15998">
        <ele>510.11669921875</ele>
        <time>2011-04-17T11:56:16Z</time>
      </trkpt>
      <trkpt lat="47.19369" lon="6.15998">
        <ele>509.15539550781</ele>
        <time>2011-04-17T11:56:19Z</time>
      </trkpt>
      <trkpt lat="47.19405" lon="6.1598">
        <ele>508.19409179688</ele>
        <time>2011-04-17T11:56:26Z</time>
      </trkpt>
      <trkpt lat="47.19453" lon="6.15951">
        <ele>506.271484375</ele>
        <time>2011-04-17T11:56:35Z</time>
      </trkpt>
      <trkpt lat="47.19471" lon="6.15938">
        <ele>505.31018066406</ele>
        <time>2011-04-17T11:56:38Z</time>
      </trkpt>
      <trkpt lat="47.19499" lon="6.1593">
        <ele>502.90673828125</ele>
        <time>2011-04-17T11:56:42Z</time>
      </trkpt>
      <trkpt lat="47.1952" lon="6.15943">
        <ele>502.90673828125</ele>
        <time>2011-04-17T11:56:45Z</time>
      </trkpt>
      <trkpt lat="47.1956" lon="6.1599">
        <ele>502.90673828125</ele>
        <time>2011-04-17T11:56:52Z</time>
      </trkpt>
      <trkpt lat="47.19575" lon="6.16009">
        <ele>502.90673828125</ele>
        <time>2011-04-17T11:56:55Z</time>
      </trkpt>
      <trkpt lat="47.19612" lon="6.1607">
        <ele>501.46484375</ele>
        <time>2011-04-17T11:57:03Z</time>
      </trkpt>
      <trkpt lat="47.19645" lon="6.16118">
        <ele>498.10034179688</ele>
        <time>2011-04-17T11:57:09Z</time>
      </trkpt>
      <trkpt lat="47.19657" lon="6.16134">
        <ele>497.61962890625</ele>
        <time>2011-04-17T11:57:11Z</time>
      </trkpt>
      <trkpt lat="47.19669" lon="6.16152">
        <ele>494.73559570312</ele>
        <time>2011-04-17T11:57:13Z</time>
      </trkpt>
      <trkpt lat="47.19701" lon="6.16213">
        <ele>493.77429199219</ele>
        <time>2011-04-17T11:57:19Z</time>
      </trkpt>
      <trkpt lat="47.1971" lon="6.1623">
        <ele>494.25500488281</ele>
        <time>2011-04-17T11:57:21Z</time>
      </trkpt>
      <trkpt lat="47.19737" lon="6.1629">
        <ele>492.33239746094</ele>
        <time>2011-04-17T11:57:28Z</time>
      </trkpt>
      <trkpt lat="47.19743" lon="6.163">
        <ele>490.89038085938</ele>
        <time>2011-04-17T11:57:29Z</time>
      </trkpt>
      <trkpt lat="47.19765" lon="6.16319">
        <ele>488.48718261719</ele>
        <time>2011-04-17T11:57:32Z</time>
      </trkpt>
      <trkpt lat="47.19791" lon="6.16321">
        <ele>486.564453125</ele>
        <time>2011-04-17T11:57:35Z</time>
      </trkpt>
      <trkpt lat="47.19808" lon="6.16342">
        <ele>486.564453125</ele>
        <time>2011-04-17T11:57:38Z</time>
      </trkpt>
      <trkpt lat="47.19834" lon="6.1638">
        <ele>486.08374023438</ele>
        <time>2011-04-17T11:57:43Z</time>
      </trkpt>
      <trkpt lat="47.19866" lon="6.16398">
        <ele>484.64184570312</ele>
        <time>2011-04-17T11:57:47Z</time>
      </trkpt>
      <trkpt lat="47.19904" lon="6.16405">
        <ele>480.79663085938</ele>
        <time>2011-04-17T11:57:51Z</time>
      </trkpt>
      <trkpt lat="47.19923" lon="6.1641">
        <ele>477.43188476562</ele>
        <time>2011-04-17T11:57:53Z</time>
      </trkpt>
      <trkpt lat="47.19969" lon="6.1645">
        <ele>474.06726074219</ele>
        <time>2011-04-17T11:57:58Z</time>
      </trkpt>
      <trkpt lat="47.20001" lon="6.16493">
        <ele>471.66394042969</ele>
        <time>2011-04-17T11:58:02Z</time>
      </trkpt>
      <trkpt lat="47.20016" lon="6.16517">
        <ele>469.74133300781</ele>
        <time>2011-04-17T11:58:04Z</time>
      </trkpt>
      <trkpt lat="47.20028" lon="6.16574">
        <ele>466.857421875</ele>
        <time>2011-04-17T11:58:08Z</time>
      </trkpt>
      <trkpt lat="47.20023" lon="6.16605">
        <ele>464.4541015625</ele>
        <time>2011-04-17T11:58:10Z</time>
      </trkpt>
      <trkpt lat="47.20016" lon="6.16635">
        <ele>464.4541015625</ele>
        <time>2011-04-17T11:58:12Z</time>
      </trkpt>
      <trkpt lat="47.20019" lon="6.16669">
        <ele>463.49279785156</ele>
        <time>2011-04-17T11:58:15Z</time>
      </trkpt>
      <trkpt lat="47.20032" lon="6.16674">
        <ele>462.53137207031</ele>
        <time>2011-04-17T11:58:17Z</time>
      </trkpt>
      <trkpt lat="47.20057" lon="6.16674">
        <ele>459.64758300781</ele>
        <time>2011-04-17T11:58:21Z</time>
      </trkpt>
      <trkpt lat="47.2006" lon="6.16681">
        <ele>460.60876464844</ele>
        <time>2011-04-17T11:58:24Z</time>
      </trkpt>
      <trkpt lat="47.20058" lon="6.16684">
        <ele>460.12817382812</ele>
        <time>2011-04-17T11:58:28Z</time>
      </trkpt>
      <trkpt lat="47.20058" lon="6.16686">
        <ele>460.60876464844</ele>
        <time>2011-04-17T11:58:34Z</time>
      </trkpt>
      <trkpt lat="47.20057" lon="6.1669">
        <ele>461.08947753906</ele>
        <time>2011-04-17T11:58:38Z</time>
      </trkpt>
      <trkpt lat="47.20057" lon="6.16693">
        <ele>461.57019042969</ele>
        <time>2011-04-17T11:58:41Z</time>
      </trkpt>
      <trkpt lat="47.20057" lon="6.16693">
        <ele>462.05078125</ele>
        <time>2011-04-17T11:58:49Z</time>
      </trkpt>
      <trkpt lat="47.20059" lon="6.16701">
        <ele>462.53137207031</ele>
        <time>2011-04-17T11:58:53Z</time>
      </trkpt>
      <trkpt lat="47.20065" lon="6.16719">
        <ele>463.01208496094</ele>
        <time>2011-04-17T11:59:00Z</time>
      </trkpt>
      <trkpt lat="47.20076" lon="6.16736">
        <ele>463.97338867188</ele>
        <time>2011-04-17T11:59:05Z</time>
      </trkpt>
      <trkpt lat="47.20089" lon="6.16761">
        <ele>465.41552734375</ele>
        <time>2011-04-17T11:59:11Z</time>
      </trkpt>
      <trkpt lat="47.20098" lon="6.16785">
        <ele>466.37670898438</ele>
        <time>2011-04-17T11:59:17Z</time>
      </trkpt>
      <trkpt lat="47.20105" lon="6.16814">
        <ele>467.33813476562</ele>
        <time>2011-04-17T11:59:24Z</time>
      </trkpt>
      <trkpt lat="47.20113" lon="6.1685">
        <ele>467.33813476562</ele>
        <time>2011-04-17T11:59:32Z</time>
      </trkpt>
      <trkpt lat="47.20127" lon="6.16898">
        <ele>466.857421875</ele>
        <time>2011-04-17T11:59:41Z</time>
      </trkpt>
      <trkpt lat="47.2014" lon="6.16936">
        <ele>466.37670898438</ele>
        <time>2011-04-17T11:59:47Z</time>
      </trkpt>
      <trkpt lat="47.20153" lon="6.16991">
        <ele>464.93481445312</ele>
        <time>2011-04-17T11:59:54Z</time>
      </trkpt>
      <trkpt lat="47.20158" lon="6.17016">
        <ele>463.97338867188</ele>
        <time>2011-04-17T11:59:57Z</time>
      </trkpt>
      <trkpt lat="47.20177" lon="6.17103">
        <ele>464.4541015625</ele>
        <time>2011-04-17T12:00:07Z</time>
      </trkpt>
      <trkpt lat="47.20195" lon="6.17171">
        <ele>463.97338867188</ele>
        <time>2011-04-17T12:00:15Z</time>
      </trkpt>
      <trkpt lat="47.202" lon="6.17188">
        <ele>463.49279785156</ele>
        <time>2011-04-17T12:00:17Z</time>
      </trkpt>
      <trkpt lat="47.20205" lon="6.17272">
        <ele>463.01208496094</ele>
        <time>2011-04-17T12:00:26Z</time>
      </trkpt>
      <trkpt lat="47.20208" lon="6.17349">
        <ele>462.53137207031</ele>
        <time>2011-04-17T12:00:35Z</time>
      </trkpt>
      <trkpt lat="47.2021" lon="6.17358">
        <ele>462.53137207031</ele>
        <time>2011-04-17T12:00:36Z</time>
      </trkpt>
      <trkpt lat="47.20229" lon="6.17425">
        <ele>463.01208496094</ele>
        <time>2011-04-17T12:00:45Z</time>
      </trkpt>
      <trkpt lat="47.20247" lon="6.17462">
        <ele>462.53137207031</ele>
        <time>2011-04-17T12:00:50Z</time>
      </trkpt>
      <trkpt lat="47.20272" lon="6.17499">
        <ele>463.49279785156</ele>
        <time>2011-04-17T12:00:56Z</time>
      </trkpt>
      <trkpt lat="47.20285" lon="6.1753">
        <ele>465.41552734375</ele>
        <time>2011-04-17T12:01:01Z</time>
      </trkpt>
      <trkpt lat="47.20288" lon="6.17535">
        <ele>464.93481445312</ele>
        <time>2011-04-17T12:01:02Z</time>
      </trkpt>
      <trkpt lat="47.20297" lon="6.17564">
        <ele>466.37670898438</ele>
        <time>2011-04-17T12:01:08Z</time>
      </trkpt>
      <trkpt lat="47.20306" lon="6.17599">
        <ele>466.857421875</ele>
        <time>2011-04-17T12:01:16Z</time>
      </trkpt>
      <trkpt lat="47.20315" lon="6.1763">
        <ele>469.2607421875</ele>
        <time>2011-04-17T12:01:24Z</time>
      </trkpt>
      <trkpt lat="47.20324" lon="6.17655">
        <ele>471.18334960938</ele>
        <time>2011-04-17T12:01:31Z</time>
      </trkpt>
      <trkpt lat="47.20336" lon="6.17683">
        <ele>472.62536621094</ele>
        <time>2011-04-17T12:01:39Z</time>
      </trkpt>
      <trkpt lat="47.20348" lon="6.17715">
        <ele>473.58666992188</ele>
        <time>2011-04-17T12:01:48Z</time>
      </trkpt>
      <trkpt lat="47.20354" lon="6.17746">
        <ele>474.54797363281</ele>
        <time>2011-04-17T12:01:56Z</time>
      </trkpt>
      <trkpt lat="47.20357" lon="6.17775">
        <ele>476.47058105469</ele>
        <time>2011-04-17T12:02:04Z</time>
      </trkpt>
      <trkpt lat="47.20359" lon="6.17801">
        <ele>476.95129394531</ele>
        <time>2011-04-17T12:02:11Z</time>
      </trkpt>
      <trkpt lat="47.2036" lon="6.1783">
        <ele>477.43188476562</ele>
        <time>2011-04-17T12:02:19Z</time>
      </trkpt>
      <trkpt lat="47.20362" lon="6.17856">
        <ele>478.87390136719</ele>
        <time>2011-04-17T12:02:26Z</time>
      </trkpt>
      <trkpt lat="47.20362" lon="6.1788">
        <ele>480.79663085938</ele>
        <time>2011-04-17T12:02:32Z</time>
      </trkpt>
      <trkpt lat="47.20363" lon="6.17916">
        <ele>481.7578125</ele>
        <time>2011-04-17T12:02:41Z</time>
      </trkpt>
      <trkpt lat="47.20364" lon="6.1794">
        <ele>483.19982910156</ele>
        <time>2011-04-17T12:02:47Z</time>
      </trkpt>
      <trkpt lat="47.20366" lon="6.17981">
        <ele>485.12243652344</ele>
        <time>2011-04-17T12:02:56Z</time>
      </trkpt>
      <trkpt lat="47.20366" lon="6.18009">
        <ele>484.64184570312</ele>
        <time>2011-04-17T12:03:01Z</time>
      </trkpt>
      <trkpt lat="47.20367" lon="6.18051">
        <ele>482.71923828125</ele>
        <time>2011-04-17T12:03:07Z</time>
      </trkpt>
      <trkpt lat="47.20372" lon="6.18121">
        <ele>481.27722167969</ele>
        <time>2011-04-17T12:03:15Z</time>
      </trkpt>
      <trkpt lat="47.20386" lon="6.1817">
        <ele>480.79663085938</ele>
        <time>2011-04-17T12:03:21Z</time>
      </trkpt>
      <trkpt lat="47.20392" lon="6.18185">
        <ele>480.79663085938</ele>
        <time>2011-04-17T12:03:23Z</time>
      </trkpt>
      <trkpt lat="47.20416" lon="6.18208">
        <ele>480.31591796875</ele>
        <time>2011-04-17T12:03:28Z</time>
      </trkpt>
      <trkpt lat="47.20421" lon="6.18208">
        <ele>479.83508300781</ele>
        <time>2011-04-17T12:03:29Z</time>
      </trkpt>
      <trkpt lat="47.20446" lon="6.18214">
        <ele>479.3544921875</ele>
        <time>2011-04-17T12:03:34Z</time>
      </trkpt>
      <trkpt lat="47.2045" lon="6.18227">
        <ele>479.3544921875</ele>
        <time>2011-04-17T12:03:36Z</time>
      </trkpt>
      <trkpt lat="47.20455" lon="6.18248">
        <ele>479.3544921875</ele>
        <time>2011-04-17T12:03:39Z</time>
      </trkpt>
      <trkpt lat="47.20473" lon="6.18296">
        <ele>480.79663085938</ele>
        <time>2011-04-17T12:03:46Z</time>
      </trkpt>
      <trkpt lat="47.20494" lon="6.18343">
        <ele>480.79663085938</ele>
        <time>2011-04-17T12:03:53Z</time>
      </trkpt>
      <trkpt lat="47.20507" lon="6.18377">
        <ele>480.79663085938</ele>
        <time>2011-04-17T12:03:58Z</time>
      </trkpt>
      <trkpt lat="47.20524" lon="6.18428">
        <ele>480.79663085938</ele>
        <time>2011-04-17T12:04:05Z</time>
      </trkpt>
      <trkpt lat="47.20532" lon="6.18449">
        <ele>480.31591796875</ele>
        <time>2011-04-17T12:04:08Z</time>
      </trkpt>
      <trkpt lat="47.20545" lon="6.18517">
        <ele>480.31591796875</ele>
        <time>2011-04-17T12:04:16Z</time>
      </trkpt>
      <trkpt lat="47.20551" lon="6.18552">
        <ele>480.31591796875</ele>
        <time>2011-04-17T12:04:20Z</time>
      </trkpt>
      <trkpt lat="47.20551" lon="6.18601">
        <ele>479.83508300781</ele>
        <time>2011-04-17T12:04:26Z</time>
      </trkpt>
      <trkpt lat="47.20543" lon="6.18645">
        <ele>479.3544921875</ele>
        <time>2011-04-17T12:04:32Z</time>
      </trkpt>
      <trkpt lat="47.2054" lon="6.1866">
        <ele>478.87390136719</ele>
        <time>2011-04-17T12:04:34Z</time>
      </trkpt>
      <trkpt lat="47.20539" lon="6.18685">
        <ele>479.3544921875</ele>
        <time>2011-04-17T12:04:37Z</time>
      </trkpt>
      <trkpt lat="47.20542" lon="6.1873">
        <ele>479.3544921875</ele>
        <time>2011-04-17T12:04:43Z</time>
      </trkpt>
      <trkpt lat="47.20543" lon="6.18757">
        <ele>479.83508300781</ele>
        <time>2011-04-17T12:04:47Z</time>
      </trkpt>
      <trkpt lat="47.20546" lon="6.1878">
        <ele>479.3544921875</ele>
        <time>2011-04-17T12:04:50Z</time>
      </trkpt>
      <trkpt lat="47.20552" lon="6.18861">
        <ele>477.43188476562</ele>
        <time>2011-04-17T12:05:00Z</time>
      </trkpt>
      <trkpt lat="47.20553" lon="6.18869">
        <ele>476.95129394531</ele>
        <time>2011-04-17T12:05:01Z</time>
      </trkpt>
      <trkpt lat="47.20556" lon="6.18885">
        <ele>475.98986816406</ele>
        <time>2011-04-17T12:05:03Z</time>
      </trkpt>
      <trkpt lat="47.20569" lon="6.18894">
        <ele>475.98986816406</ele>
        <time>2011-04-17T12:05:06Z</time>
      </trkpt>
      <trkpt lat="47.20583" lon="6.18897">
        <ele>475.98986816406</ele>
        <time>2011-04-17T12:05:10Z</time>
      </trkpt>
      <trkpt lat="47.206" lon="6.18891">
        <ele>474.54797363281</ele>
        <time>2011-04-17T12:05:16Z</time>
      </trkpt>
      <trkpt lat="47.20608" lon="6.18887">
        <ele>473.58666992188</ele>
        <time>2011-04-17T12:05:18Z</time>
      </trkpt>
      <trkpt lat="47.20613" lon="6.18885">
        <ele>474.06726074219</ele>
        <time>2011-04-17T12:05:19Z</time>
      </trkpt>
      <trkpt lat="47.20635" lon="6.18875">
        <ele>474.06726074219</ele>
        <time>2011-04-17T12:05:24Z</time>
      </trkpt>
      <trkpt lat="47.20641" lon="6.18872">
        <ele>474.54797363281</ele>
        <time>2011-04-17T12:05:27Z</time>
      </trkpt>
      <trkpt lat="47.20644" lon="6.18872">
        <ele>475.50927734375</ele>
        <time>2011-04-17T12:05:30Z</time>
      </trkpt>
      <trkpt lat="47.20657" lon="6.1887">
        <ele>475.02868652344</ele>
        <time>2011-04-17T12:05:36Z</time>
      </trkpt>
      <trkpt lat="47.20673" lon="6.18864">
        <ele>473.58666992188</ele>
        <time>2011-04-17T12:05:41Z</time>
      </trkpt>
      <trkpt lat="47.20686" lon="6.18858">
        <ele>473.58666992188</ele>
        <time>2011-04-17T12:05:46Z</time>
      </trkpt>
      <trkpt lat="47.20697" lon="6.18852">
        <ele>474.06726074219</ele>
        <time>2011-04-17T12:05:52Z</time>
      </trkpt>
      <trkpt lat="47.2071" lon="6.18842">
        <ele>474.54797363281</ele>
        <time>2011-04-17T12:05:57Z</time>
      </trkpt>
      <trkpt lat="47.20718" lon="6.18837">
        <ele>474.54797363281</ele>
        <time>2011-04-17T12:05:59Z</time>
      </trkpt>
      <trkpt lat="47.20741" lon="6.18819">
        <ele>471.18334960938</ele>
        <time>2011-04-17T12:06:04Z</time>
      </trkpt>
      <trkpt lat="47.20764" lon="6.18804">
        <ele>468.29931640625</ele>
        <time>2011-04-17T12:06:09Z</time>
      </trkpt>
      <trkpt lat="47.20766" lon="6.18804">
        <ele>468.29931640625</ele>
        <time>2011-04-17T12:06:10Z</time>
      </trkpt>
      <trkpt lat="47.20787" lon="6.18788">
        <ele>465.89611816406</ele>
        <time>2011-04-17T12:06:17Z</time>
      </trkpt>
      <trkpt lat="47.20801" lon="6.18777">
        <ele>461.57019042969</ele>
        <time>2011-04-17T12:06:20Z</time>
      </trkpt>
      <trkpt lat="47.20814" lon="6.18769">
        <ele>460.12817382812</ele>
        <time>2011-04-17T12:06:22Z</time>
      </trkpt>
      <trkpt lat="47.20826" lon="6.1876">
        <ele>457.24426269531</ele>
        <time>2011-04-17T12:06:24Z</time>
      </trkpt>
      <trkpt lat="47.20847" lon="6.18745">
        <ele>455.80224609375</ele>
        <time>2011-04-17T12:06:28Z</time>
      </trkpt>
      <trkpt lat="47.2087" lon="6.18735">
        <ele>454.8408203125</ele>
        <time>2011-04-17T12:06:33Z</time>
      </trkpt>
      <trkpt lat="47.2088" lon="6.18723">
        <ele>456.28295898438</ele>
        <time>2011-04-17T12:06:38Z</time>
      </trkpt>
      <trkpt lat="47.20883" lon="6.1872">
        <ele>454.8408203125</ele>
        <time>2011-04-17T12:06:39Z</time>
      </trkpt>
      <trkpt lat="47.20901" lon="6.1871">
        <ele>453.87963867188</ele>
        <time>2011-04-17T12:06:44Z</time>
      </trkpt>
      <trkpt lat="47.20905" lon="6.1871">
        <ele>453.87963867188</ele>
        <time>2011-04-17T12:06:45Z</time>
      </trkpt>
      <trkpt lat="47.20922" lon="6.18699">
        <ele>452.91821289062</ele>
        <time>2011-04-17T12:06:50Z</time>
      </trkpt>
      <trkpt lat="47.20921" lon="6.18685">
        <ele>454.36022949219</ele>
        <time>2011-04-17T12:06:54Z</time>
      </trkpt>
      <trkpt lat="47.20921" lon="6.18677">
        <ele>455.32153320312</ele>
        <time>2011-04-17T12:06:57Z</time>
      </trkpt>
      <trkpt lat="47.20927" lon="6.18666">
        <ele>455.32153320312</ele>
        <time>2011-04-17T12:07:01Z</time>
      </trkpt>
      <trkpt lat="47.2093" lon="6.18664">
        <ele>455.80224609375</ele>
        <time>2011-04-17T12:07:02Z</time>
      </trkpt>
      <trkpt lat="47.20947" lon="6.18648">
        <ele>457.72497558594</ele>
        <time>2011-04-17T12:07:09Z</time>
      </trkpt>
      <trkpt lat="47.20955" lon="6.18641">
        <ele>459.16687011719</ele>
        <time>2011-04-17T12:07:14Z</time>
      </trkpt>
      <trkpt lat="47.20964" lon="6.18632">
        <ele>460.60876464844</ele>
        <time>2011-04-17T12:07:20Z</time>
      </trkpt>
      <trkpt lat="47.20969" lon="6.18625">
        <ele>461.08947753906</ele>
        <time>2011-04-17T12:07:24Z</time>
      </trkpt>
      <trkpt lat="47.20984" lon="6.18614">
        <ele>461.57019042969</ele>
        <time>2011-04-17T12:07:31Z</time>
      </trkpt>
      <trkpt lat="47.2099" lon="6.18609">
        <ele>460.12817382812</ele>
        <time>2011-04-17T12:07:33Z</time>
      </trkpt>
      <trkpt lat="47.21003" lon="6.18594">
        <ele>459.16687011719</ele>
        <time>2011-04-17T12:07:38Z</time>
      </trkpt>
      <trkpt lat="47.2101" lon="6.18583">
        <ele>459.16687011719</ele>
        <time>2011-04-17T12:07:42Z</time>
      </trkpt>
      <trkpt lat="47.21012" lon="6.18564">
        <ele>457.72497558594</ele>
        <time>2011-04-17T12:07:47Z</time>
      </trkpt>
      <trkpt lat="47.2101" lon="6.18553">
        <ele>457.24426269531</ele>
        <time>2011-04-17T12:07:49Z</time>
      </trkpt>
      <trkpt lat="47.21012" lon="6.18515">
        <ele>454.36022949219</ele>
        <time>2011-04-17T12:07:54Z</time>
      </trkpt>
      <trkpt lat="47.21013" lon="6.18495">
        <ele>452.91821289062</ele>
        <time>2011-04-17T12:07:56Z</time>
      </trkpt>
      <trkpt lat="47.21012" lon="6.18487">
        <ele>452.91821289062</ele>
        <time>2011-04-17T12:07:57Z</time>
      </trkpt>
      <trkpt lat="47.21006" lon="6.1846">
        <ele>452.91821289062</ele>
        <time>2011-04-17T12:08:00Z</time>
      </trkpt>
      <trkpt lat="47.20995" lon="6.18423">
        <ele>450.99560546875</ele>
        <time>2011-04-17T12:08:04Z</time>
      </trkpt>
      <trkpt lat="47.20985" lon="6.184">
        <ele>450.51501464844</ele>
        <time>2011-04-17T12:08:07Z</time>
      </trkpt>
      <trkpt lat="47.20987" lon="6.18366">
        <ele>448.11181640625</ele>
        <time>2011-04-17T12:08:11Z</time>
      </trkpt>
      <trkpt lat="47.21006" lon="6.18328">
        <ele>445.70837402344</ele>
        <time>2011-04-17T12:08:15Z</time>
      </trkpt>
      <trkpt lat="47.21027" lon="6.1829">
        <ele>443.30505371094</ele>
        <time>2011-04-17T12:08:20Z</time>
      </trkpt>
      <trkpt lat="47.21031" lon="6.18284">
        <ele>444.26647949219</ele>
        <time>2011-04-17T12:08:21Z</time>
      </trkpt>
      <trkpt lat="47.21059" lon="6.18237">
        <ele>440.42126464844</ele>
        <time>2011-04-17T12:08:28Z</time>
      </trkpt>
      <trkpt lat="47.21064" lon="6.18231">
        <ele>440.90185546875</ele>
        <time>2011-04-17T12:08:29Z</time>
      </trkpt>
      <trkpt lat="47.21088" lon="6.18213">
        <ele>439.9404296875</ele>
        <time>2011-04-17T12:08:33Z</time>
      </trkpt>
      <trkpt lat="47.21099" lon="6.18208">
        <ele>438.49853515625</ele>
        <time>2011-04-17T12:08:35Z</time>
      </trkpt>
      <trkpt lat="47.21114" lon="6.18184">
        <ele>436.57592773438</ele>
        <time>2011-04-17T12:08:39Z</time>
      </trkpt>
      <trkpt lat="47.21127" lon="6.18148">
        <ele>436.09521484375</ele>
        <time>2011-04-17T12:08:44Z</time>
      </trkpt>
      <trkpt lat="47.2113" lon="6.18136">
        <ele>436.09521484375</ele>
        <time>2011-04-17T12:08:48Z</time>
      </trkpt>
      <trkpt lat="47.21137" lon="6.18127">
        <ele>435.13391113281</ele>
        <time>2011-04-17T12:08:52Z</time>
      </trkpt>
      <trkpt lat="47.21142" lon="6.1812">
        <ele>434.17260742188</ele>
        <time>2011-04-17T12:08:54Z</time>
      </trkpt>
      <trkpt lat="47.21151" lon="6.18107">
        <ele>434.17260742188</ele>
        <time>2011-04-17T12:08:57Z</time>
      </trkpt>
      <trkpt lat="47.21175" lon="6.18082">
        <ele>432.73071289062</ele>
        <time>2011-04-17T12:09:03Z</time>
      </trkpt>
      <trkpt lat="47.2118" lon="6.18077">
        <ele>432.73071289062</ele>
        <time>2011-04-17T12:09:04Z</time>
      </trkpt>
      <trkpt lat="47.21193" lon="6.18069">
        <ele>431.76916503906</ele>
        <time>2011-04-17T12:09:07Z</time>
      </trkpt>
      <trkpt lat="47.21212" lon="6.18056">
        <ele>432.73071289062</ele>
        <time>2011-04-17T12:09:12Z</time>
      </trkpt>
      <trkpt lat="47.21215" lon="6.18058">
        <ele>432.73071289062</ele>
        <time>2011-04-17T12:09:13Z</time>
      </trkpt>
      <trkpt lat="47.21227" lon="6.18066">
        <ele>432.73071289062</ele>
        <time>2011-04-17T12:09:16Z</time>
      </trkpt>
      <trkpt lat="47.21253" lon="6.18067">
        <ele>432.25</ele>
        <time>2011-04-17T12:09:21Z</time>
      </trkpt>
      <trkpt lat="47.21261" lon="6.18058">
        <ele>431.76916503906</ele>
        <time>2011-04-17T12:09:23Z</time>
      </trkpt>
      <trkpt lat="47.21274" lon="6.18041">
        <ele>431.28857421875</ele>
        <time>2011-04-17T12:09:26Z</time>
      </trkpt>
      <trkpt lat="47.21289" lon="6.18007">
        <ele>431.76916503906</ele>
        <time>2011-04-17T12:09:31Z</time>
      </trkpt>
      <trkpt lat="47.21297" lon="6.17982">
        <ele>432.25</ele>
        <time>2011-04-17T12:09:35Z</time>
      </trkpt>
      <trkpt lat="47.21308" lon="6.17957">
        <ele>432.25</ele>
        <time>2011-04-17T12:09:40Z</time>
      </trkpt>
      <trkpt lat="47.21314" lon="6.17949">
        <ele>432.73071289062</ele>
        <time>2011-04-17T12:09:43Z</time>
      </trkpt>
      <trkpt lat="47.2133" lon="6.17954">
        <ele>432.73071289062</ele>
        <time>2011-04-17T12:09:48Z</time>
      </trkpt>
      <trkpt lat="47.21348" lon="6.17958">
        <ele>433.21130371094</ele>
        <time>2011-04-17T12:09:53Z</time>
      </trkpt>
      <trkpt lat="47.21355" lon="6.17963">
        <ele>432.73071289062</ele>
        <time>2011-04-17T12:09:55Z</time>
      </trkpt>
      <trkpt lat="47.21378" lon="6.17976">
        <ele>431.28857421875</ele>
        <time>2011-04-17T12:10:01Z</time>
      </trkpt>
      <trkpt lat="47.21382" lon="6.17978">
        <ele>430.80798339844</ele>
        <time>2011-04-17T12:10:02Z</time>
      </trkpt>
      <trkpt lat="47.214" lon="6.17995">
        <ele>430.80798339844</ele>
        <time>2011-04-17T12:10:07Z</time>
      </trkpt>
      <trkpt lat="47.2142" lon="6.18003">
        <ele>430.80798339844</ele>
        <time>2011-04-17T12:10:11Z</time>
      </trkpt>
      <trkpt lat="47.21432" lon="6.18003">
        <ele>431.28857421875</ele>
        <time>2011-04-17T12:10:15Z</time>
      </trkpt>
      <trkpt lat="47.21434" lon="6.17999">
        <ele>430.80798339844</ele>
        <time>2011-04-17T12:10:16Z</time>
      </trkpt>
      <trkpt lat="47.21437" lon="6.17972">
        <ele>430.80798339844</ele>
        <time>2011-04-17T12:10:22Z</time>
      </trkpt>
      <trkpt lat="47.21447" lon="6.17941">
        <ele>432.25</ele>
        <time>2011-04-17T12:10:28Z</time>
      </trkpt>
      <trkpt lat="47.21458" lon="6.17906">
        <ele>432.25</ele>
        <time>2011-04-17T12:10:34Z</time>
      </trkpt>
      <trkpt lat="47.21465" lon="6.17888">
        <ele>431.76916503906</ele>
        <time>2011-04-17T12:10:37Z</time>
      </trkpt>
      <trkpt lat="47.21481" lon="6.17862">
        <ele>430.32727050781</ele>
        <time>2011-04-17T12:10:42Z</time>
      </trkpt>
      <trkpt lat="47.21484" lon="6.17857">
        <ele>430.80798339844</ele>
        <time>2011-04-17T12:10:43Z</time>
      </trkpt>
      <trkpt lat="47.21489" lon="6.17833">
        <ele>430.32727050781</ele>
        <time>2011-04-17T12:10:48Z</time>
      </trkpt>
      <trkpt lat="47.21478" lon="6.17819">
        <ele>429.36596679688</ele>
        <time>2011-04-17T12:10:52Z</time>
      </trkpt>
      <trkpt lat="47.21475" lon="6.17816">
        <ele>428.40466308594</ele>
        <time>2011-04-17T12:10:53Z</time>
      </trkpt>
      <trkpt lat="47.21474" lon="6.17796">
        <ele>428.40466308594</ele>
        <time>2011-04-17T12:10:59Z</time>
      </trkpt>
      <trkpt lat="47.21475" lon="6.17785">
        <ele>429.84655761719</ele>
        <time>2011-04-17T12:11:02Z</time>
      </trkpt>
      <trkpt lat="47.21479" lon="6.17777">
        <ele>431.28857421875</ele>
        <time>2011-04-17T12:11:05Z</time>
      </trkpt>
      <trkpt lat="47.2148" lon="6.17775">
        <ele>431.76916503906</ele>
        <time>2011-04-17T12:11:06Z</time>
      </trkpt>
      <trkpt lat="47.21487" lon="6.17751">
        <ele>432.73071289062</ele>
        <time>2011-04-17T12:11:12Z</time>
      </trkpt>
      <trkpt lat="47.21498" lon="6.17735">
        <ele>432.25</ele>
        <time>2011-04-17T12:11:16Z</time>
      </trkpt>
      <trkpt lat="47.21504" lon="6.17725">
        <ele>431.28857421875</ele>
        <time>2011-04-17T12:11:18Z</time>
      </trkpt>
      <trkpt lat="47.21526" lon="6.17691">
        <ele>432.25</ele>
        <time>2011-04-17T12:11:25Z</time>
      </trkpt>
      <trkpt lat="47.21541" lon="6.17664">
        <ele>433.21130371094</ele>
        <time>2011-04-17T12:11:32Z</time>
      </trkpt>
      <trkpt lat="47.21564" lon="6.17636">
        <ele>434.17260742188</ele>
        <time>2011-04-17T12:11:40Z</time>
      </trkpt>
      <trkpt lat="47.2158" lon="6.17612">
        <ele>434.17260742188</ele>
        <time>2011-04-17T12:11:46Z</time>
      </trkpt>
      <trkpt lat="47.21592" lon="6.17593">
        <ele>432.73071289062</ele>
        <time>2011-04-17T12:11:50Z</time>
      </trkpt>
      <trkpt lat="47.21611" lon="6.17569">
        <ele>432.25</ele>
        <time>2011-04-17T12:11:55Z</time>
      </trkpt>
      <trkpt lat="47.21639" lon="6.17551">
        <ele>433.21130371094</ele>
        <time>2011-04-17T12:12:02Z</time>
      </trkpt>
      <trkpt lat="47.21645" lon="6.17547">
        <ele>432.73071289062</ele>
        <time>2011-04-17T12:12:04Z</time>
      </trkpt>
      <trkpt lat="47.21643" lon="6.17529">
        <ele>432.73071289062</ele>
        <time>2011-04-17T12:12:08Z</time>
      </trkpt>
      <trkpt lat="47.21635" lon="6.17521">
        <ele>432.25</ele>
        <time>2011-04-17T12:12:10Z</time>
      </trkpt>
      <trkpt lat="47.21621" lon="6.17509">
        <ele>432.73071289062</ele>
        <time>2011-04-17T12:12:13Z</time>
      </trkpt>
      <trkpt lat="47.21598" lon="6.17494">
        <ele>431.76916503906</ele>
        <time>2011-04-17T12:12:17Z</time>
      </trkpt>
      <trkpt lat="47.21587" lon="6.17485">
        <ele>431.28857421875</ele>
        <time>2011-04-17T12:12:19Z</time>
      </trkpt>
      <trkpt lat="47.21548" lon="6.17465">
        <ele>432.25</ele>
        <time>2011-04-17T12:12:26Z</time>
      </trkpt>
      <trkpt lat="47.21537" lon="6.17459">
        <ele>432.73071289062</ele>
        <time>2011-04-17T12:12:28Z</time>
      </trkpt>
      <trkpt lat="47.21527" lon="6.17452">
        <ele>433.21130371094</ele>
        <time>2011-04-17T12:12:30Z</time>
      </trkpt>
      <trkpt lat="47.21507" lon="6.17441">
        <ele>432.25</ele>
        <time>2011-04-17T12:12:34Z</time>
      </trkpt>
      <trkpt lat="47.21482" lon="6.17433">
        <ele>433.69189453125</ele>
        <time>2011-04-17T12:12:39Z</time>
      </trkpt>
      <trkpt lat="47.21458" lon="6.17423">
        <ele>434.17260742188</ele>
        <time>2011-04-17T12:12:45Z</time>
      </trkpt>
      <trkpt lat="47.21447" lon="6.17413">
        <ele>434.17260742188</ele>
        <time>2011-04-17T12:12:48Z</time>
      </trkpt>
      <trkpt lat="47.21429" lon="6.17402">
        <ele>433.69189453125</ele>
        <time>2011-04-17T12:12:52Z</time>
      </trkpt>
      <trkpt lat="47.21412" lon="6.17405">
        <ele>433.69189453125</ele>
        <time>2011-04-17T12:12:56Z</time>
      </trkpt>
      <trkpt lat="47.21401" lon="6.17406">
        <ele>433.69189453125</ele>
        <time>2011-04-17T12:12:59Z</time>
      </trkpt>
      <trkpt lat="47.21402" lon="6.17391">
        <ele>433.21130371094</ele>
        <time>2011-04-17T12:13:02Z</time>
      </trkpt>
      <trkpt lat="47.21406" lon="6.17385">
        <ele>432.73071289062</ele>
        <time>2011-04-17T12:13:03Z</time>
      </trkpt>
      <trkpt lat="47.21416" lon="6.17353">
        <ele>433.21130371094</ele>
        <time>2011-04-17T12:13:08Z</time>
      </trkpt>
      <trkpt lat="47.21425" lon="6.1733">
        <ele>433.21130371094</ele>
        <time>2011-04-17T12:13:12Z</time>
      </trkpt>
      <trkpt lat="47.21441" lon="6.1728">
        <ele>432.73071289062</ele>
        <time>2011-04-17T12:13:20Z</time>
      </trkpt>
      <trkpt lat="47.21443" lon="6.17274">
        <ele>433.21130371094</ele>
        <time>2011-04-17T12:13:21Z</time>
      </trkpt>
      <trkpt lat="47.21448" lon="6.17248">
        <ele>433.21130371094</ele>
        <time>2011-04-17T12:13:25Z</time>
      </trkpt>
      <trkpt lat="47.21452" lon="6.17215">
        <ele>432.25</ele>
        <time>2011-04-17T12:13:31Z</time>
      </trkpt>
      <trkpt lat="47.21456" lon="6.17196">
        <ele>432.25</ele>
        <time>2011-04-17T12:13:35Z</time>
      </trkpt>
      <trkpt lat="47.21457" lon="6.17182">
        <ele>432.25</ele>
        <time>2011-04-17T12:13:37Z</time>
      </trkpt>
      <trkpt lat="47.21458" lon="6.17169">
        <ele>431.76916503906</ele>
        <time>2011-04-17T12:13:39Z</time>
      </trkpt>
      <trkpt lat="47.21469" lon="6.17138">
        <ele>431.76916503906</ele>
        <time>2011-04-17T12:13:43Z</time>
      </trkpt>
      <trkpt lat="47.2148" lon="6.17089">
        <ele>430.80798339844</ele>
        <time>2011-04-17T12:13:49Z</time>
      </trkpt>
      <trkpt lat="47.21483" lon="6.17071">
        <ele>430.80798339844</ele>
        <time>2011-04-17T12:13:51Z</time>
      </trkpt>
      <trkpt lat="47.21495" lon="6.17043">
        <ele>430.80798339844</ele>
        <time>2011-04-17T12:13:55Z</time>
      </trkpt>
      <trkpt lat="47.21518" lon="6.17011">
        <ele>429.84655761719</ele>
        <time>2011-04-17T12:14:00Z</time>
      </trkpt>
      <trkpt lat="47.21539" lon="6.16981">
        <ele>429.36596679688</ele>
        <time>2011-04-17T12:14:05Z</time>
      </trkpt>
      <trkpt lat="47.21567" lon="6.16952">
        <ele>429.36596679688</ele>
        <time>2011-04-17T12:14:11Z</time>
      </trkpt>
      <trkpt lat="47.21572" lon="6.16947">
        <ele>430.32727050781</ele>
        <time>2011-04-17T12:14:12Z</time>
      </trkpt>
      <trkpt lat="47.21585" lon="6.16933">
        <ele>429.36596679688</ele>
        <time>2011-04-17T12:14:15Z</time>
      </trkpt>
      <trkpt lat="47.21611" lon="6.16908">
        <ele>429.36596679688</ele>
        <time>2011-04-17T12:14:21Z</time>
      </trkpt>
      <trkpt lat="47.21635" lon="6.16896">
        <ele>429.36596679688</ele>
        <time>2011-04-17T12:14:26Z</time>
      </trkpt>
      <trkpt lat="47.21667" lon="6.16901">
        <ele>429.36596679688</ele>
        <time>2011-04-17T12:14:31Z</time>
      </trkpt>
      <trkpt lat="47.21687" lon="6.16907">
        <ele>428.88537597656</ele>
        <time>2011-04-17T12:14:34Z</time>
      </trkpt>
      <trkpt lat="47.21703" lon="6.16908">
        <ele>429.84655761719</ele>
        <time>2011-04-17T12:14:37Z</time>
      </trkpt>
      <trkpt lat="47.21727" lon="6.16909">
        <ele>430.80798339844</ele>
        <time>2011-04-17T12:14:43Z</time>
      </trkpt>
      <trkpt lat="47.21757" lon="6.16911">
        <ele>431.28857421875</ele>
        <time>2011-04-17T12:14:51Z</time>
      </trkpt>
      <trkpt lat="47.21761" lon="6.16912">
        <ele>430.80798339844</ele>
        <time>2011-04-17T12:14:55Z</time>
      </trkpt>
      <trkpt lat="47.21759" lon="6.16912">
        <ele>430.80798339844</ele>
        <time>2011-04-17T12:14:58Z</time>
      </trkpt>
      <trkpt lat="47.21753" lon="6.16909">
        <ele>431.28857421875</ele>
        <time>2011-04-17T12:15:03Z</time>
      </trkpt>
      <trkpt lat="47.21752" lon="6.16906">
        <ele>430.32727050781</ele>
        <time>2011-04-17T12:15:04Z</time>
      </trkpt>
      <trkpt lat="47.21748" lon="6.16883">
        <ele>430.80798339844</ele>
        <time>2011-04-17T12:15:10Z</time>
      </trkpt>
      <trkpt lat="47.21743" lon="6.16849">
        <ele>431.28857421875</ele>
        <time>2011-04-17T12:15:16Z</time>
      </trkpt>
      <trkpt lat="47.21735" lon="6.16815">
        <ele>429.84655761719</ele>
        <time>2011-04-17T12:15:22Z</time>
      </trkpt>
      <trkpt lat="47.21729" lon="6.16792">
        <ele>429.36596679688</ele>
        <time>2011-04-17T12:15:27Z</time>
      </trkpt>
      <trkpt lat="47.21728" lon="6.16786">
        <ele>429.36596679688</ele>
        <time>2011-04-17T12:15:28Z</time>
      </trkpt>
      <trkpt lat="47.21722" lon="6.16759">
        <ele>427.443359375</ele>
        <time>2011-04-17T12:15:32Z</time>
      </trkpt>
      <trkpt lat="47.21718" lon="6.16744">
        <ele>427.443359375</ele>
        <time>2011-04-17T12:15:34Z</time>
      </trkpt>
      <trkpt lat="47.21706" lon="6.16689">
        <ele>425.04016113281</ele>
        <time>2011-04-17T12:15:41Z</time>
      </trkpt>
      <trkpt lat="47.21699" lon="6.16665">
        <ele>424.55944824219</ele>
        <time>2011-04-17T12:15:44Z</time>
      </trkpt>
      <trkpt lat="47.21699" lon="6.16631">
        <ele>424.55944824219</ele>
        <time>2011-04-17T12:15:49Z</time>
      </trkpt>
      <trkpt lat="47.21701" lon="6.16623">
        <ele>424.07873535156</ele>
        <time>2011-04-17T12:15:50Z</time>
      </trkpt>
      <trkpt lat="47.21709" lon="6.16598">
        <ele>424.55944824219</ele>
        <time>2011-04-17T12:15:53Z</time>
      </trkpt>
      <trkpt lat="47.2173" lon="6.16565">
        <ele>424.55944824219</ele>
        <time>2011-04-17T12:15:59Z</time>
      </trkpt>
      <trkpt lat="47.21737" lon="6.16555">
        <ele>425.04016113281</ele>
        <time>2011-04-17T12:16:01Z</time>
      </trkpt>
      <trkpt lat="47.21745" lon="6.16527">
        <ele>423.11743164062</ele>
        <time>2011-04-17T12:16:05Z</time>
      </trkpt>
      <trkpt lat="47.21744" lon="6.16493">
        <ele>422.63671875</ele>
        <time>2011-04-17T12:16:09Z</time>
      </trkpt>
      <trkpt lat="47.21738" lon="6.16471">
        <ele>422.63671875</ele>
        <time>2011-04-17T12:16:12Z</time>
      </trkpt>
      <trkpt lat="47.21721" lon="6.16431">
        <ele>423.11743164062</ele>
        <time>2011-04-17T12:16:19Z</time>
      </trkpt>
      <trkpt lat="47.21707" lon="6.16396">
        <ele>423.11743164062</ele>
        <time>2011-04-17T12:16:26Z</time>
      </trkpt>
      <trkpt lat="47.21702" lon="6.16379">
        <ele>423.59802246094</ele>
        <time>2011-04-17T12:16:30Z</time>
      </trkpt>
      <trkpt lat="47.2169" lon="6.16353">
        <ele>423.59802246094</ele>
        <time>2011-04-17T12:16:38Z</time>
      </trkpt>
      <trkpt lat="47.21675" lon="6.16318">
        <ele>424.07873535156</ele>
        <time>2011-04-17T12:16:46Z</time>
      </trkpt>
      <trkpt lat="47.21663" lon="6.16288">
        <ele>424.55944824219</ele>
        <time>2011-04-17T12:16:52Z</time>
      </trkpt>
      <trkpt lat="47.21661" lon="6.16282">
        <ele>424.07873535156</ele>
        <time>2011-04-17T12:16:53Z</time>
      </trkpt>
      <trkpt lat="47.21655" lon="6.16246">
        <ele>423.59802246094</ele>
        <time>2011-04-17T12:16:58Z</time>
      </trkpt>
      <trkpt lat="47.21639" lon="6.16192">
        <ele>424.55944824219</ele>
        <time>2011-04-17T12:17:06Z</time>
      </trkpt>
      <trkpt lat="47.21626" lon="6.16159">
        <ele>425.52075195312</ele>
        <time>2011-04-17T12:17:12Z</time>
      </trkpt>
      <trkpt lat="47.21624" lon="6.16154">
        <ele>425.52075195312</ele>
        <time>2011-04-17T12:17:13Z</time>
      </trkpt>
      <trkpt lat="47.21609" lon="6.16115">
        <ele>426.48205566406</ele>
        <time>2011-04-17T12:17:21Z</time>
      </trkpt>
      <trkpt lat="47.21598" lon="6.16077">
        <ele>428.40466308594</ele>
        <time>2011-04-17T12:17:29Z</time>
      </trkpt>
      <trkpt lat="47.21584" lon="6.16038">
        <ele>428.88537597656</ele>
        <time>2011-04-17T12:17:37Z</time>
      </trkpt>
      <trkpt lat="47.21574" lon="6.16006">
        <ele>428.88537597656</ele>
        <time>2011-04-17T12:17:43Z</time>
      </trkpt>
      <trkpt lat="47.21562" lon="6.15959">
        <ele>429.84655761719</ele>
        <time>2011-04-17T12:17:52Z</time>
      </trkpt>
      <trkpt lat="47.21548" lon="6.15897">
        <ele>430.80798339844</ele>
        <time>2011-04-17T12:18:03Z</time>
      </trkpt>
      <trkpt lat="47.2154" lon="6.15845">
        <ele>430.32727050781</ele>
        <time>2011-04-17T12:18:11Z</time>
      </trkpt>
      <trkpt lat="47.21536" lon="6.15814">
        <ele>430.32727050781</ele>
        <time>2011-04-17T12:18:17Z</time>
      </trkpt>
      <trkpt lat="47.21532" lon="6.15784">
        <ele>429.84655761719</ele>
        <time>2011-04-17T12:18:23Z</time>
      </trkpt>
      <trkpt lat="47.21528" lon="6.15746">
        <ele>429.84655761719</ele>
        <time>2011-04-17T12:18:29Z</time>
      </trkpt>
      <trkpt lat="47.21524" lon="6.15717">
        <ele>428.88537597656</ele>
        <time>2011-04-17T12:18:33Z</time>
      </trkpt>
      <trkpt lat="47.21523" lon="6.15655">
        <ele>427.443359375</ele>
        <time>2011-04-17T12:18:41Z</time>
      </trkpt>
      <trkpt lat="47.21529" lon="6.15587">
        <ele>427.92395019531</ele>
        <time>2011-04-17T12:18:50Z</time>
      </trkpt>
      <trkpt lat="47.21535" lon="6.15551">
        <ele>426.96276855469</ele>
        <time>2011-04-17T12:18:55Z</time>
      </trkpt>
      <trkpt lat="47.21537" lon="6.15536">
        <ele>426.96276855469</ele>
        <time>2011-04-17T12:18:57Z</time>
      </trkpt>
      <trkpt lat="47.21533" lon="6.15488">
        <ele>427.92395019531</ele>
        <time>2011-04-17T12:19:03Z</time>
      </trkpt>
      <trkpt lat="47.2152" lon="6.15455">
        <ele>427.443359375</ele>
        <time>2011-04-17T12:19:08Z</time>
      </trkpt>
      <trkpt lat="47.21503" lon="6.15432">
        <ele>427.92395019531</ele>
        <time>2011-04-17T12:19:12Z</time>
      </trkpt>
      <trkpt lat="47.21465" lon="6.1539">
        <ele>428.88537597656</ele>
        <time>2011-04-17T12:19:21Z</time>
      </trkpt>
      <trkpt lat="47.21434" lon="6.15359">
        <ele>428.88537597656</ele>
        <time>2011-04-17T12:19:28Z</time>
      </trkpt>
      <trkpt lat="47.214" lon="6.15324">
        <ele>428.40466308594</ele>
        <time>2011-04-17T12:19:35Z</time>
      </trkpt>
      <trkpt lat="47.21391" lon="6.15312">
        <ele>428.40466308594</ele>
        <time>2011-04-17T12:19:37Z</time>
      </trkpt>
      <trkpt lat="47.2138" lon="6.15293">
        <ele>428.88537597656</ele>
        <time>2011-04-17T12:19:40Z</time>
      </trkpt>
      <trkpt lat="47.21372" lon="6.1527">
        <ele>426.96276855469</ele>
        <time>2011-04-17T12:19:43Z</time>
      </trkpt>
      <trkpt lat="47.21354" lon="6.1521">
        <ele>426.00134277344</ele>
        <time>2011-04-17T12:19:50Z</time>
      </trkpt>
      <trkpt lat="47.21334" lon="6.15146">
        <ele>424.07873535156</ele>
        <time>2011-04-17T12:19:57Z</time>
      </trkpt>
      <trkpt lat="47.21318" lon="6.15097">
        <ele>423.11743164062</ele>
        <time>2011-04-17T12:20:03Z</time>
      </trkpt>
      <trkpt lat="47.21301" lon="6.15045">
        <ele>422.15600585938</ele>
        <time>2011-04-17T12:20:09Z</time>
      </trkpt>
      <trkpt lat="47.21296" lon="6.15029">
        <ele>423.59802246094</ele>
        <time>2011-04-17T12:20:11Z</time>
      </trkpt>
      <trkpt lat="47.21293" lon="6.15024">
        <ele>424.55944824219</ele>
        <time>2011-04-17T12:20:12Z</time>
      </trkpt>
      <trkpt lat="47.21294" lon="6.15001">
        <ele>424.55944824219</ele>
        <time>2011-04-17T12:20:16Z</time>
      </trkpt>
      <trkpt lat="47.21297" lon="6.14998">
        <ele>424.07873535156</ele>
        <time>2011-04-17T12:20:17Z</time>
      </trkpt>
      <trkpt lat="47.21329" lon="6.14968">
        <ele>425.52075195312</ele>
        <time>2011-04-17T12:20:25Z</time>
      </trkpt>
      <trkpt lat="47.21349" lon="6.14953">
        <ele>426.00134277344</ele>
        <time>2011-04-17T12:20:30Z</time>
      </trkpt>
      <trkpt lat="47.21377" lon="6.14924">
        <ele>426.00134277344</ele>
        <time>2011-04-17T12:20:37Z</time>
      </trkpt>
      <trkpt lat="47.214" lon="6.14899">
        <ele>425.04016113281</ele>
        <time>2011-04-17T12:20:42Z</time>
      </trkpt>
      <trkpt lat="47.21429" lon="6.14865">
        <ele>425.52075195312</ele>
        <time>2011-04-17T12:20:49Z</time>
      </trkpt>
      <trkpt lat="47.21457" lon="6.14835">
        <ele>427.443359375</ele>
        <time>2011-04-17T12:20:56Z</time>
      </trkpt>
      <trkpt lat="47.21474" lon="6.14816">
        <ele>428.40466308594</ele>
        <time>2011-04-17T12:21:02Z</time>
      </trkpt>
      <trkpt lat="47.21492" lon="6.14795">
        <ele>427.92395019531</ele>
        <time>2011-04-17T12:21:08Z</time>
      </trkpt>
      <trkpt lat="47.215" lon="6.14788">
        <ele>428.40466308594</ele>
        <time>2011-04-17T12:21:10Z</time>
      </trkpt>
      <trkpt lat="47.21526" lon="6.14779">
        <ele>427.92395019531</ele>
        <time>2011-04-17T12:21:16Z</time>
      </trkpt>
      <trkpt lat="47.2154" lon="6.14783">
        <ele>428.40466308594</ele>
        <time>2011-04-17T12:21:20Z</time>
      </trkpt>
      <trkpt lat="47.21554" lon="6.14792">
        <ele>428.88537597656</ele>
        <time>2011-04-17T12:21:25Z</time>
      </trkpt>
      <trkpt lat="47.21566" lon="6.14799">
        <ele>429.36596679688</ele>
        <time>2011-04-17T12:21:30Z</time>
      </trkpt>
      <trkpt lat="47.21581" lon="6.14808">
        <ele>431.28857421875</ele>
        <time>2011-04-17T12:21:36Z</time>
      </trkpt>
      <trkpt lat="47.21592" lon="6.14815">
        <ele>432.25</ele>
        <time>2011-04-17T12:21:41Z</time>
      </trkpt>
      <trkpt lat="47.21609" lon="6.14826">
        <ele>432.73071289062</ele>
        <time>2011-04-17T12:21:47Z</time>
      </trkpt>
      <trkpt lat="47.21625" lon="6.14837">
        <ele>432.73071289062</ele>
        <time>2011-04-17T12:21:53Z</time>
      </trkpt>
      <trkpt lat="47.2164" lon="6.14848">
        <ele>432.73071289062</ele>
        <time>2011-04-17T12:21:58Z</time>
      </trkpt>
      <trkpt lat="47.21657" lon="6.1486">
        <ele>433.69189453125</ele>
        <time>2011-04-17T12:22:04Z</time>
      </trkpt>
      <trkpt lat="47.21675" lon="6.14873">
        <ele>434.17260742188</ele>
        <time>2011-04-17T12:22:10Z</time>
      </trkpt>
      <trkpt lat="47.21695" lon="6.14887">
        <ele>434.17260742188</ele>
        <time>2011-04-17T12:22:16Z</time>
      </trkpt>
      <trkpt lat="47.21716" lon="6.14901">
        <ele>434.6533203125</ele>
        <time>2011-04-17T12:22:23Z</time>
      </trkpt>
      <trkpt lat="47.21719" lon="6.14902">
        <ele>434.6533203125</ele>
        <time>2011-04-17T12:22:24Z</time>
      </trkpt>
      <trkpt lat="47.21726" lon="6.14895">
        <ele>434.6533203125</ele>
        <time>2011-04-17T12:22:29Z</time>
      </trkpt>
      <trkpt lat="47.21725" lon="6.14891">
        <ele>434.6533203125</ele>
        <time>2011-04-17T12:22:30Z</time>
      </trkpt>
      <trkpt lat="47.21724" lon="6.1488">
        <ele>434.6533203125</ele>
        <time>2011-04-17T12:22:32Z</time>
      </trkpt>
      <trkpt lat="47.21723" lon="6.14861">
        <ele>433.69189453125</ele>
        <time>2011-04-17T12:22:35Z</time>
      </trkpt>
      <trkpt lat="47.21722" lon="6.14809">
        <ele>429.36596679688</ele>
        <time>2011-04-17T12:22:41Z</time>
      </trkpt>
      <trkpt lat="47.21721" lon="6.14799">
        <ele>429.36596679688</ele>
        <time>2011-04-17T12:22:42Z</time>
      </trkpt>
      <trkpt lat="47.2172" lon="6.1476">
        <ele>431.76916503906</ele>
        <time>2011-04-17T12:22:47Z</time>
      </trkpt>
      <trkpt lat="47.2172" lon="6.14755">
        <ele>431.28857421875</ele>
        <time>2011-04-17T12:22:48Z</time>
      </trkpt>
      <trkpt lat="47.21718" lon="6.14724">
        <ele>434.17260742188</ele>
        <time>2011-04-17T12:22:54Z</time>
      </trkpt>
      <trkpt lat="47.21717" lon="6.14702">
        <ele>434.6533203125</ele>
        <time>2011-04-17T12:22:59Z</time>
      </trkpt>
      <trkpt lat="47.21717" lon="6.14678">
        <ele>436.09521484375</ele>
        <time>2011-04-17T12:23:04Z</time>
      </trkpt>
      <trkpt lat="47.21716" lon="6.14635">
        <ele>435.13391113281</ele>
        <time>2011-04-17T12:23:11Z</time>
      </trkpt>
      <trkpt lat="47.21713" lon="6.14585">
        <ele>432.73071289062</ele>
        <time>2011-04-17T12:23:17Z</time>
      </trkpt>
      <trkpt lat="47.21714" lon="6.14566">
        <ele>433.21130371094</ele>
        <time>2011-04-17T12:23:20Z</time>
      </trkpt>
      <trkpt lat="47.21725" lon="6.14563">
        <ele>432.25</ele>
        <time>2011-04-17T12:23:24Z</time>
      </trkpt>
      <trkpt lat="47.21729" lon="6.14564">
        <ele>432.73071289062</ele>
        <time>2011-04-17T12:23:25Z</time>
      </trkpt>
      <trkpt lat="47.21741" lon="6.14568">
        <ele>432.73071289062</ele>
        <time>2011-04-17T12:23:32Z</time>
      </trkpt>
      <trkpt lat="47.21759" lon="6.14573">
        <ele>433.21130371094</ele>
        <time>2011-04-17T12:23:37Z</time>
      </trkpt>
      <trkpt lat="47.21775" lon="6.14579">
        <ele>433.69189453125</ele>
        <time>2011-04-17T12:23:41Z</time>
      </trkpt>
      <trkpt lat="47.21778" lon="6.14569">
        <ele>432.73071289062</ele>
        <time>2011-04-17T12:23:45Z</time>
      </trkpt>
      <trkpt lat="47.21775" lon="6.14556">
        <ele>431.76916503906</ele>
        <time>2011-04-17T12:23:47Z</time>
      </trkpt>
      <trkpt lat="47.21762" lon="6.14505">
        <ele>428.88537597656</ele>
        <time>2011-04-17T12:23:53Z</time>
      </trkpt>
      <trkpt lat="47.21761" lon="6.14498">
        <ele>428.88537597656</ele>
        <time>2011-04-17T12:23:54Z</time>
      </trkpt>
      <trkpt lat="47.21758" lon="6.1448">
        <ele>425.52075195312</ele>
        <time>2011-04-17T12:23:56Z</time>
      </trkpt>
      <trkpt lat="47.21753" lon="6.14456">
        <ele>426.96276855469</ele>
        <time>2011-04-17T12:23:58Z</time>
      </trkpt>
      <trkpt lat="47.2175" lon="6.14442">
        <ele>427.92395019531</ele>
        <time>2011-04-17T12:24:00Z</time>
      </trkpt>
      <trkpt lat="47.21742" lon="6.14421">
        <ele>429.84655761719</ele>
        <time>2011-04-17T12:24:05Z</time>
      </trkpt>
      <trkpt lat="47.21737" lon="6.14405">
        <ele>431.28857421875</ele>
        <time>2011-04-17T12:24:11Z</time>
      </trkpt>
      <trkpt lat="47.21733" lon="6.14384">
        <ele>430.32727050781</ele>
        <time>2011-04-17T12:24:16Z</time>
      </trkpt>
      <trkpt lat="47.21726" lon="6.14379">
        <ele>430.80798339844</ele>
        <time>2011-04-17T12:24:20Z</time>
      </trkpt>
      <trkpt lat="47.2171" lon="6.14386">
        <ele>428.40466308594</ele>
        <time>2011-04-17T12:24:25Z</time>
      </trkpt>
      <trkpt lat="47.21679" lon="6.14401">
        <ele>426.48205566406</ele>
        <time>2011-04-17T12:24:31Z</time>
      </trkpt>
      <trkpt lat="47.21666" lon="6.14408">
        <ele>422.63671875</ele>
        <time>2011-04-17T12:24:33Z</time>
      </trkpt>
      <trkpt lat="47.21657" lon="6.14412">
        <ele>422.63671875</ele>
        <time>2011-04-17T12:24:34Z</time>
      </trkpt>
      <trkpt lat="47.21627" lon="6.14428">
        <ele>422.15600585938</ele>
        <time>2011-04-17T12:24:38Z</time>
      </trkpt>
      <trkpt lat="47.21619" lon="6.14409">
        <ele>422.15600585938</ele>
        <time>2011-04-17T12:24:42Z</time>
      </trkpt>
      <trkpt lat="47.21619" lon="6.14407">
        <ele>423.11743164062</ele>
        <time>2011-04-17T12:24:43Z</time>
      </trkpt>
      <trkpt lat="47.21618" lon="6.14407">
        <ele>423.11743164062</ele>
        <time>2011-04-17T12:24:46Z</time>
      </trkpt>
      <trkpt lat="47.21616" lon="6.14406">
        <ele>424.07873535156</ele>
        <time>2011-04-17T12:24:47Z</time>
      </trkpt>
      <trkpt lat="47.21616" lon="6.14404">
        <ele>425.52075195312</ele>
        <time>2011-04-17T12:24:53Z</time>
      </trkpt>
      <trkpt lat="47.21616" lon="6.14402">
        <ele>426.96276855469</ele>
        <time>2011-04-17T12:24:58Z</time>
      </trkpt>
      <trkpt lat="47.21615" lon="6.14402">
        <ele>426.96276855469</ele>
        <time>2011-04-17T12:24:59Z</time>
      </trkpt>
      <trkpt lat="47.21613" lon="6.14391">
        <ele>428.40466308594</ele>
        <time>2011-04-17T12:25:07Z</time>
      </trkpt>
      <trkpt lat="47.21612" lon="6.14388">
        <ele>428.40466308594</ele>
        <time>2011-04-17T12:25:09Z</time>
      </trkpt>
      <trkpt lat="47.21612" lon="6.14387">
        <ele>428.40466308594</ele>
        <time>2011-04-17T12:25:12Z</time>
      </trkpt>
      <trkpt lat="47.21612" lon="6.14387">
        <ele>427.92395019531</ele>
        <time>2011-04-17T12:25:13Z</time>
      </trkpt>
      <trkpt lat="47.21612" lon="6.14386">
        <ele>428.40466308594</ele>
        <time>2011-04-17T12:25:16Z</time>
      </trkpt>
      <trkpt lat="47.21611" lon="6.14379">
        <ele>428.40466308594</ele>
        <time>2011-04-17T12:25:18Z</time>
      </trkpt>
      <trkpt lat="47.21608" lon="6.14365">
        <ele>428.88537597656</ele>
        <time>2011-04-17T12:25:25Z</time>
      </trkpt>
      <trkpt lat="47.21605" lon="6.14351">
        <ele>428.40466308594</ele>
        <time>2011-04-17T12:25:30Z</time>
      </trkpt>
      <trkpt lat="47.21602" lon="6.14329">
        <ele>429.84655761719</ele>
        <time>2011-04-17T12:25:37Z</time>
      </trkpt>
      <trkpt lat="47.21595" lon="6.14308">
        <ele>431.28857421875</ele>
        <time>2011-04-17T12:25:43Z</time>
      </trkpt>
      <trkpt lat="47.21591" lon="6.14285">
        <ele>432.73071289062</ele>
        <time>2011-04-17T12:25:50Z</time>
      </trkpt>
      <trkpt lat="47.21589" lon="6.14269">
        <ele>433.21130371094</ele>
        <time>2011-04-17T12:25:55Z</time>
      </trkpt>
      <trkpt lat="47.21584" lon="6.14249">
        <ele>432.73071289062</ele>
        <time>2011-04-17T12:26:00Z</time>
      </trkpt>
      <trkpt lat="47.21577" lon="6.14224">
        <ele>432.73071289062</ele>
        <time>2011-04-17T12:26:06Z</time>
      </trkpt>
      <trkpt lat="47.21572" lon="6.14202">
        <ele>434.17260742188</ele>
        <time>2011-04-17T12:26:11Z</time>
      </trkpt>
      <trkpt lat="47.21566" lon="6.14169">
        <ele>433.21130371094</ele>
        <time>2011-04-17T12:26:17Z</time>
      </trkpt>
      <trkpt lat="47.2156" lon="6.14137">
        <ele>432.25</ele>
        <time>2011-04-17T12:26:22Z</time>
      </trkpt>
      <trkpt lat="47.21553" lon="6.14103">
        <ele>431.28857421875</ele>
        <time>2011-04-17T12:26:28Z</time>
      </trkpt>
      <trkpt lat="47.21542" lon="6.14058">
        <ele>428.40466308594</ele>
        <time>2011-04-17T12:26:34Z</time>
      </trkpt>
      <trkpt lat="47.21531" lon="6.14021">
        <ele>429.84655761719</ele>
        <time>2011-04-17T12:26:39Z</time>
      </trkpt>
      <trkpt lat="47.21529" lon="6.14013">
        <ele>430.32727050781</ele>
        <time>2011-04-17T12:26:41Z</time>
      </trkpt>
      <trkpt lat="47.2152" lon="6.1401">
        <ele>429.84655761719</ele>
        <time>2011-04-17T12:26:45Z</time>
      </trkpt>
      <trkpt lat="47.21486" lon="6.14028">
        <ele>425.04016113281</ele>
        <time>2011-04-17T12:26:51Z</time>
      </trkpt>
      <trkpt lat="47.21447" lon="6.14046">
        <ele>422.63671875</ele>
        <time>2011-04-17T12:26:56Z</time>
      </trkpt>
      <trkpt lat="47.21432" lon="6.14052">
        <ele>421.19482421875</ele>
        <time>2011-04-17T12:26:58Z</time>
      </trkpt>
      <trkpt lat="47.21402" lon="6.14066">
        <ele>423.11743164062</ele>
        <time>2011-04-17T12:27:02Z</time>
      </trkpt>
      <trkpt lat="47.21389" lon="6.1407">
        <ele>424.07873535156</ele>
        <time>2011-04-17T12:27:05Z</time>
      </trkpt>
      <trkpt lat="47.21379" lon="6.14073">
        <ele>423.11743164062</ele>
        <time>2011-04-17T12:27:07Z</time>
      </trkpt>
      <trkpt lat="47.21358" lon="6.14084">
        <ele>424.07873535156</ele>
        <time>2011-04-17T12:27:11Z</time>
      </trkpt>
      <trkpt lat="47.21346" lon="6.1409">
        <ele>423.11743164062</ele>
        <time>2011-04-17T12:27:13Z</time>
      </trkpt>
      <trkpt lat="47.21324" lon="6.14101">
        <ele>422.63671875</ele>
        <time>2011-04-17T12:27:17Z</time>
      </trkpt>
      <trkpt lat="47.21296" lon="6.14116">
        <ele>423.59802246094</ele>
        <time>2011-04-17T12:27:23Z</time>
      </trkpt>
      <trkpt lat="47.2127" lon="6.14128">
        <ele>423.11743164062</ele>
        <time>2011-04-17T12:27:27Z</time>
      </trkpt>
      <trkpt lat="47.21248" lon="6.14139">
        <ele>423.11743164062</ele>
        <time>2011-04-17T12:27:31Z</time>
      </trkpt>
      <trkpt lat="47.2122" lon="6.14152">
        <ele>423.11743164062</ele>
        <time>2011-04-17T12:27:37Z</time>
      </trkpt>
      <trkpt lat="47.21209" lon="6.14157">
        <ele>423.59802246094</ele>
        <time>2011-04-17T12:27:41Z</time>
      </trkpt>
      <trkpt lat="47.21202" lon="6.14159">
        <ele>424.07873535156</ele>
        <time>2011-04-17T12:27:46Z</time>
      </trkpt>
      <trkpt lat="47.21189" lon="6.14164">
        <ele>425.04016113281</ele>
        <time>2011-04-17T12:27:53Z</time>
      </trkpt>
      <trkpt lat="47.21182" lon="6.1417">
        <ele>426.48205566406</ele>
        <time>2011-04-17T12:27:59Z</time>
      </trkpt>
      <trkpt lat="47.21173" lon="6.14174">
        <ele>428.40466308594</ele>
        <time>2011-04-17T12:28:06Z</time>
      </trkpt>
      <trkpt lat="47.21161" lon="6.14179">
        <ele>429.84655761719</ele>
        <time>2011-04-17T12:28:13Z</time>
      </trkpt>
      <trkpt lat="47.21148" lon="6.14184">
        <ele>430.32727050781</ele>
        <time>2011-04-17T12:28:20Z</time>
      </trkpt>
      <trkpt lat="47.21133" lon="6.14191">
        <ele>429.84655761719</ele>
        <time>2011-04-17T12:28:26Z</time>
      </trkpt>
      <trkpt lat="47.21116" lon="6.14194">
        <ele>428.88537597656</ele>
        <time>2011-04-17T12:28:31Z</time>
      </trkpt>
      <trkpt lat="47.21103" lon="6.1418">
        <ele>429.36596679688</ele>
        <time>2011-04-17T12:28:36Z</time>
      </trkpt>
      <trkpt lat="47.21088" lon="6.14164">
        <ele>430.80798339844</ele>
        <time>2011-04-17T12:28:42Z</time>
      </trkpt>
      <trkpt lat="47.21075" lon="6.14146">
        <ele>430.80798339844</ele>
        <time>2011-04-17T12:28:48Z</time>
      </trkpt>
      <trkpt lat="47.21065" lon="6.1413">
        <ele>431.28857421875</ele>
        <time>2011-04-17T12:28:52Z</time>
      </trkpt>
      <trkpt lat="47.21049" lon="6.14108">
        <ele>431.76916503906</ele>
        <time>2011-04-17T12:28:58Z</time>
      </trkpt>
      <trkpt lat="47.21037" lon="6.14078">
        <ele>431.76916503906</ele>
        <time>2011-04-17T12:29:04Z</time>
      </trkpt>
      <trkpt lat="47.21046" lon="6.14058">
        <ele>432.25</ele>
        <time>2011-04-17T12:29:08Z</time>
      </trkpt>
      <trkpt lat="47.21083" lon="6.14007">
        <ele>433.69189453125</ele>
        <time>2011-04-17T12:29:19Z</time>
      </trkpt>
      <trkpt lat="47.2112" lon="6.13955">
        <ele>435.61450195312</ele>
        <time>2011-04-17T12:29:30Z</time>
      </trkpt>
      <trkpt lat="47.21147" lon="6.13918">
        <ele>437.537109375</ele>
        <time>2011-04-17T12:29:39Z</time>
      </trkpt>
      <trkpt lat="47.21163" lon="6.13895">
        <ele>438.01782226562</ele>
        <time>2011-04-17T12:29:45Z</time>
      </trkpt>
      <trkpt lat="47.21167" lon="6.13875">
        <ele>438.49853515625</ele>
        <time>2011-04-17T12:29:49Z</time>
      </trkpt>
      <trkpt lat="47.21161" lon="6.1385">
        <ele>439.45971679688</ele>
        <time>2011-04-17T12:29:54Z</time>
      </trkpt>
      <trkpt lat="47.21148" lon="6.13815">
        <ele>439.45971679688</ele>
        <time>2011-04-17T12:30:00Z</time>
      </trkpt>
      <trkpt lat="47.21132" lon="6.13751">
        <ele>438.01782226562</ele>
        <time>2011-04-17T12:30:08Z</time>
      </trkpt>
      <trkpt lat="47.2111" lon="6.13673">
        <ele>436.57592773438</ele>
        <time>2011-04-17T12:30:16Z</time>
      </trkpt>
      <trkpt lat="47.21089" lon="6.13603">
        <ele>435.61450195312</ele>
        <time>2011-04-17T12:30:22Z</time>
      </trkpt>
      <trkpt lat="47.21071" lon="6.13536">
        <ele>434.6533203125</ele>
        <time>2011-04-17T12:30:27Z</time>
      </trkpt>
      <trkpt lat="47.21066" lon="6.13471">
        <ele>435.13391113281</ele>
        <time>2011-04-17T12:30:32Z</time>
      </trkpt>
      <trkpt lat="47.21063" lon="6.13397">
        <ele>436.09521484375</ele>
        <time>2011-04-17T12:30:39Z</time>
      </trkpt>
      <trkpt lat="47.21058" lon="6.13302">
        <ele>436.09521484375</ele>
        <time>2011-04-17T12:30:48Z</time>
      </trkpt>
      <trkpt lat="47.21056" lon="6.13242">
        <ele>432.73071289062</ele>
        <time>2011-04-17T12:30:53Z</time>
      </trkpt>
      <trkpt lat="47.21056" lon="6.13229">
        <ele>432.73071289062</ele>
        <time>2011-04-17T12:30:54Z</time>
      </trkpt>
      <trkpt lat="47.2105" lon="6.13154">
        <ele>431.76916503906</ele>
        <time>2011-04-17T12:31:00Z</time>
      </trkpt>
      <trkpt lat="47.2104" lon="6.13065">
        <ele>429.84655761719</ele>
        <time>2011-04-17T12:31:07Z</time>
      </trkpt>
      <trkpt lat="47.21029" lon="6.12975">
        <ele>427.443359375</ele>
        <time>2011-04-17T12:31:14Z</time>
      </trkpt>
      <trkpt lat="47.21027" lon="6.12961">
        <ele>427.443359375</ele>
        <time>2011-04-17T12:31:15Z</time>
      </trkpt>
      <trkpt lat="47.21026" lon="6.12947">
        <ele>427.443359375</ele>
        <time>2011-04-17T12:31:16Z</time>
      </trkpt>
      <trkpt lat="47.21031" lon="6.1289">
        <ele>424.55944824219</ele>
        <time>2011-04-17T12:31:20Z</time>
      </trkpt>
      <trkpt lat="47.21033" lon="6.12876">
        <ele>424.55944824219</ele>
        <time>2011-04-17T12:31:21Z</time>
      </trkpt>
      <trkpt lat="47.21039" lon="6.12781">
        <ele>423.11743164062</ele>
        <time>2011-04-17T12:31:28Z</time>
      </trkpt>
      <trkpt lat="47.21034" lon="6.12711">
        <ele>422.15600585938</ele>
        <time>2011-04-17T12:31:33Z</time>
      </trkpt>
      <trkpt lat="47.21035" lon="6.12636">
        <ele>418.79150390625</ele>
        <time>2011-04-17T12:31:38Z</time>
      </trkpt>
      <trkpt lat="47.21041" lon="6.12562">
        <ele>418.31079101562</ele>
        <time>2011-04-17T12:31:43Z</time>
      </trkpt>
      <trkpt lat="47.21056" lon="6.1247">
        <ele>419.75280761719</ele>
        <time>2011-04-17T12:31:50Z</time>
      </trkpt>
      <trkpt lat="47.21067" lon="6.12413">
        <ele>417.83020019531</ele>
        <time>2011-04-17T12:31:55Z</time>
      </trkpt>
      <trkpt lat="47.21074" lon="6.12377">
        <ele>417.349609375</ele>
        <time>2011-04-17T12:31:58Z</time>
      </trkpt>
      <trkpt lat="47.21085" lon="6.12284">
        <ele>413.98486328125</ele>
        <time>2011-04-17T12:32:05Z</time>
      </trkpt>
      <trkpt lat="47.21088" lon="6.12271">
        <ele>413.98486328125</ele>
        <time>2011-04-17T12:32:06Z</time>
      </trkpt>
      <trkpt lat="47.21091" lon="6.12257">
        <ele>413.50427246094</ele>
        <time>2011-04-17T12:32:07Z</time>
      </trkpt>
      <trkpt lat="47.21103" lon="6.12215">
        <ele>409.65905761719</ele>
        <time>2011-04-17T12:32:10Z</time>
      </trkpt>
      <trkpt lat="47.21122" lon="6.12163">
        <ele>410.1396484375</ele>
        <time>2011-04-17T12:32:14Z</time>
      </trkpt>
      <trkpt lat="47.21131" lon="6.12112">
        <ele>410.1396484375</ele>
        <time>2011-04-17T12:32:18Z</time>
      </trkpt>
      <trkpt lat="47.2113" lon="6.12049">
        <ele>413.02355957031</ele>
        <time>2011-04-17T12:32:24Z</time>
      </trkpt>
      <trkpt lat="47.21132" lon="6.12027">
        <ele>413.98486328125</ele>
        <time>2011-04-17T12:32:27Z</time>
      </trkpt>
      <trkpt lat="47.21141" lon="6.11983">
        <ele>416.86889648438</ele>
        <time>2011-04-17T12:32:35Z</time>
      </trkpt>
      <trkpt lat="47.2116" lon="6.11939">
        <ele>418.31079101562</ele>
        <time>2011-04-17T12:32:45Z</time>
      </trkpt>
      <trkpt lat="47.21174" lon="6.11909">
        <ele>418.79150390625</ele>
        <time>2011-04-17T12:32:51Z</time>
      </trkpt>
      <trkpt lat="47.21201" lon="6.11858">
        <ele>418.31079101562</ele>
        <time>2011-04-17T12:33:00Z</time>
      </trkpt>
      <trkpt lat="47.21233" lon="6.11815">
        <ele>416.38818359375</ele>
        <time>2011-04-17T12:33:07Z</time>
      </trkpt>
      <trkpt lat="47.21239" lon="6.11809">
        <ele>415.90747070312</ele>
        <time>2011-04-17T12:33:08Z</time>
      </trkpt>
      <trkpt lat="47.21277" lon="6.11787">
        <ele>413.02355957031</ele>
        <time>2011-04-17T12:33:13Z</time>
      </trkpt>
      <trkpt lat="47.21285" lon="6.11781">
        <ele>413.02355957031</ele>
        <time>2011-04-17T12:33:14Z</time>
      </trkpt>
      <trkpt lat="47.2132" lon="6.1174">
        <ele>412.54284667969</ele>
        <time>2011-04-17T12:33:19Z</time>
      </trkpt>
      <trkpt lat="47.21364" lon="6.11674">
        <ele>410.1396484375</ele>
        <time>2011-04-17T12:33:26Z</time>
      </trkpt>
      <trkpt lat="47.21402" lon="6.11618">
        <ele>410.62023925781</ele>
        <time>2011-04-17T12:33:32Z</time>
      </trkpt>
      <trkpt lat="47.21419" lon="6.11578">
        <ele>411.58166503906</ele>
        <time>2011-04-17T12:33:36Z</time>
      </trkpt>
      <trkpt lat="47.21433" lon="6.11538">
        <ele>413.98486328125</ele>
        <time>2011-04-17T12:33:41Z</time>
      </trkpt>
      <trkpt lat="47.21457" lon="6.11488">
        <ele>414.46545410156</ele>
        <time>2011-04-17T12:33:49Z</time>
      </trkpt>
      <trkpt lat="47.21485" lon="6.11434">
        <ele>416.38818359375</ele>
        <time>2011-04-17T12:33:58Z</time>
      </trkpt>
      <trkpt lat="47.21497" lon="6.11412">
        <ele>415.42687988281</ele>
        <time>2011-04-17T12:34:03Z</time>
      </trkpt>
      <trkpt lat="47.21511" lon="6.11384">
        <ele>414.46545410156</ele>
        <time>2011-04-17T12:34:09Z</time>
      </trkpt>
      <trkpt lat="47.21518" lon="6.11372">
        <ele>413.98486328125</ele>
        <time>2011-04-17T12:34:11Z</time>
      </trkpt>
      <trkpt lat="47.21542" lon="6.11328">
        <ele>412.06225585938</ele>
        <time>2011-04-17T12:34:17Z</time>
      </trkpt>
      <trkpt lat="47.2158" lon="6.11259">
        <ele>409.17834472656</ele>
        <time>2011-04-17T12:34:25Z</time>
      </trkpt>
      <trkpt lat="47.21598" lon="6.11227">
        <ele>408.21704101562</ele>
        <time>2011-04-17T12:34:29Z</time>
      </trkpt>
      <trkpt lat="47.21612" lon="6.11206">
        <ele>407.736328125</ele>
        <time>2011-04-17T12:34:34Z</time>
      </trkpt>
      <trkpt lat="47.21616" lon="6.11195">
        <ele>407.25561523438</ele>
        <time>2011-04-17T12:34:38Z</time>
      </trkpt>
      <trkpt lat="47.21627" lon="6.1118">
        <ele>406.29431152344</ele>
        <time>2011-04-17T12:34:42Z</time>
      </trkpt>
      <trkpt lat="47.21654" lon="6.11148">
        <ele>407.736328125</ele>
        <time>2011-04-17T12:34:48Z</time>
      </trkpt>
      <trkpt lat="47.21684" lon="6.11108">
        <ele>408.21704101562</ele>
        <time>2011-04-17T12:34:53Z</time>
      </trkpt>
      <trkpt lat="47.21708" lon="6.11088">
        <ele>406.29431152344</ele>
        <time>2011-04-17T12:34:56Z</time>
      </trkpt>
      <trkpt lat="47.21716" lon="6.11084">
        <ele>405.3330078125</ele>
        <time>2011-04-17T12:34:57Z</time>
      </trkpt>
      <trkpt lat="47.2174" lon="6.11077">
        <ele>404.37170410156</ele>
        <time>2011-04-17T12:35:01Z</time>
      </trkpt>
      <trkpt lat="47.21746" lon="6.11076">
        <ele>403.89111328125</ele>
        <time>2011-04-17T12:35:05Z</time>
      </trkpt>
      <trkpt lat="47.21747" lon="6.11076">
        <ele>404.37170410156</ele>
        <time>2011-04-17T12:35:06Z</time>
      </trkpt>
      <trkpt lat="47.21748" lon="6.11078">
        <ele>403.89111328125</ele>
        <time>2011-04-17T12:35:15Z</time>
      </trkpt>
      <trkpt lat="47.21758" lon="6.11088">
        <ele>404.37170410156</ele>
        <time>2011-04-17T12:35:19Z</time>
      </trkpt>
      <trkpt lat="47.21763" lon="6.11095">
        <ele>404.37170410156</ele>
        <time>2011-04-17T12:35:21Z</time>
      </trkpt>
      <trkpt lat="47.21785" lon="6.11089">
        <ele>401.96850585938</ele>
        <time>2011-04-17T12:35:25Z</time>
      </trkpt>
      <trkpt lat="47.218" lon="6.11079">
        <ele>398.60375976562</ele>
        <time>2011-04-17T12:35:27Z</time>
      </trkpt>
      <trkpt lat="47.21809" lon="6.11073">
        <ele>398.60375976562</ele>
        <time>2011-04-17T12:35:28Z</time>
      </trkpt>
      <trkpt lat="47.21842" lon="6.11051">
        <ele>397.16174316406</ele>
        <time>2011-04-17T12:35:32Z</time>
      </trkpt>
      <trkpt lat="47.21886" lon="6.11007">
        <ele>396.68115234375</ele>
        <time>2011-04-17T12:35:38Z</time>
      </trkpt>
      <trkpt lat="47.21908" lon="6.10988">
        <ele>395.23913574219</ele>
        <time>2011-04-17T12:35:41Z</time>
      </trkpt>
      <trkpt lat="47.21924" lon="6.10979">
        <ele>394.75854492188</ele>
        <time>2011-04-17T12:35:43Z</time>
      </trkpt>
      <trkpt lat="47.2196" lon="6.10978">
        <ele>393.31652832031</ele>
        <time>2011-04-17T12:35:47Z</time>
      </trkpt>
      <trkpt lat="47.21978" lon="6.10979">
        <ele>392.8359375</ele>
        <time>2011-04-17T12:35:49Z</time>
      </trkpt>
      <trkpt lat="47.22008" lon="6.11003">
        <ele>391.87451171875</ele>
        <time>2011-04-17T12:35:53Z</time>
      </trkpt>
      <trkpt lat="47.22016" lon="6.11035">
        <ele>392.8359375</ele>
        <time>2011-04-17T12:35:56Z</time>
      </trkpt>
      <trkpt lat="47.22023" lon="6.11041">
        <ele>393.31652832031</ele>
        <time>2011-04-17T12:35:58Z</time>
      </trkpt>
      <trkpt lat="47.22028" lon="6.1104">
        <ele>393.31652832031</ele>
        <time>2011-04-17T12:35:59Z</time>
      </trkpt>
      <trkpt lat="47.22055" lon="6.11038">
        <ele>389.47119140625</ele>
        <time>2011-04-17T12:36:04Z</time>
      </trkpt>
      <trkpt lat="47.22061" lon="6.11043">
        <ele>389.47119140625</ele>
        <time>2011-04-17T12:36:05Z</time>
      </trkpt>
      <trkpt lat="47.22073" lon="6.11056">
        <ele>388.99060058594</ele>
        <time>2011-04-17T12:36:07Z</time>
      </trkpt>
      <trkpt lat="47.221" lon="6.11063">
        <ele>387.06799316406</ele>
        <time>2011-04-17T12:36:11Z</time>
      </trkpt>
      <trkpt lat="47.22157" lon="6.11045">
        <ele>385.6259765625</ele>
        <time>2011-04-17T12:36:18Z</time>
      </trkpt>
      <trkpt lat="47.22198" lon="6.11034">
        <ele>383.70324707031</ele>
        <time>2011-04-17T12:36:23Z</time>
      </trkpt>
      <trkpt lat="47.22229" lon="6.11043">
        <ele>384.18408203125</ele>
        <time>2011-04-17T12:36:27Z</time>
      </trkpt>
      <trkpt lat="47.2226" lon="6.11074">
        <ele>384.66479492188</ele>
        <time>2011-04-17T12:36:32Z</time>
      </trkpt>
      <trkpt lat="47.22296" lon="6.1111">
        <ele>384.66479492188</ele>
        <time>2011-04-17T12:36:38Z</time>
      </trkpt>
      <trkpt lat="47.22314" lon="6.11128">
        <ele>382.74206542969</ele>
        <time>2011-04-17T12:36:41Z</time>
      </trkpt>
      <trkpt lat="47.22326" lon="6.11139">
        <ele>384.66479492188</ele>
        <time>2011-04-17T12:36:43Z</time>
      </trkpt>
      <trkpt lat="47.22337" lon="6.11151">
        <ele>384.66479492188</ele>
        <time>2011-04-17T12:36:45Z</time>
      </trkpt>
      <trkpt lat="47.22351" lon="6.11164">
        <ele>385.14538574219</ele>
        <time>2011-04-17T12:36:48Z</time>
      </trkpt>
      <trkpt lat="47.22391" lon="6.11203">
        <ele>384.18408203125</ele>
        <time>2011-04-17T12:36:56Z</time>
      </trkpt>
      <trkpt lat="47.22438" lon="6.11249">
        <ele>384.18408203125</ele>
        <time>2011-04-17T12:37:06Z</time>
      </trkpt>
      <trkpt lat="47.22475" lon="6.11284">
        <ele>384.18408203125</ele>
        <time>2011-04-17T12:37:15Z</time>
      </trkpt>
      <trkpt lat="47.22479" lon="6.11287">
        <ele>384.66479492188</ele>
        <time>2011-04-17T12:37:16Z</time>
      </trkpt>
      <trkpt lat="47.22502" lon="6.11292">
        <ele>384.66479492188</ele>
        <time>2011-04-17T12:37:21Z</time>
      </trkpt>
      <trkpt lat="47.2252" lon="6.11291">
        <ele>383.70324707031</ele>
        <time>2011-04-17T12:37:25Z</time>
      </trkpt>
      <trkpt lat="47.2256" lon="6.11279">
        <ele>384.66479492188</ele>
        <time>2011-04-17T12:37:33Z</time>
      </trkpt>
      <trkpt lat="47.22588" lon="6.11269">
        <ele>384.66479492188</ele>
        <time>2011-04-17T12:37:38Z</time>
      </trkpt>
      <trkpt lat="47.22608" lon="6.11273">
        <ele>385.14538574219</ele>
        <time>2011-04-17T12:37:42Z</time>
      </trkpt>
      <trkpt lat="47.22615" lon="6.11281">
        <ele>384.66479492188</ele>
        <time>2011-04-17T12:37:44Z</time>
      </trkpt>
      <trkpt lat="47.22626" lon="6.11292">
        <ele>385.14538574219</ele>
        <time>2011-04-17T12:37:47Z</time>
      </trkpt>
      <trkpt lat="47.22638" lon="6.11278">
        <ele>384.66479492188</ele>
        <time>2011-04-17T12:37:51Z</time>
      </trkpt>
      <trkpt lat="47.22653" lon="6.11229">
        <ele>384.66479492188</ele>
        <time>2011-04-17T12:37:58Z</time>
      </trkpt>
      <trkpt lat="47.22667" lon="6.1119">
        <ele>385.14538574219</ele>
        <time>2011-04-17T12:38:03Z</time>
      </trkpt>
      <trkpt lat="47.22691" lon="6.11145">
        <ele>385.6259765625</ele>
        <time>2011-04-17T12:38:10Z</time>
      </trkpt>
      <trkpt lat="47.22703" lon="6.11114">
        <ele>385.6259765625</ele>
        <time>2011-04-17T12:38:15Z</time>
      </trkpt>
      <trkpt lat="47.22711" lon="6.11114">
        <ele>385.14538574219</ele>
        <time>2011-04-17T12:38:17Z</time>
      </trkpt>
      <trkpt lat="47.22737" lon="6.11134">
        <ele>385.14538574219</ele>
        <time>2011-04-17T12:38:23Z</time>
      </trkpt>
      <trkpt lat="47.22747" lon="6.11132">
        <ele>385.6259765625</ele>
        <time>2011-04-17T12:38:26Z</time>
      </trkpt>
      <trkpt lat="47.22753" lon="6.11107">
        <ele>386.10668945312</ele>
        <time>2011-04-17T12:38:30Z</time>
      </trkpt>
      <trkpt lat="47.2276" lon="6.11088">
        <ele>385.14538574219</ele>
        <time>2011-04-17T12:38:33Z</time>
      </trkpt>
      <trkpt lat="47.2277" lon="6.11079">
        <ele>386.10668945312</ele>
        <time>2011-04-17T12:38:36Z</time>
      </trkpt>
      <trkpt lat="47.22789" lon="6.11092">
        <ele>385.14538574219</ele>
        <time>2011-04-17T12:38:40Z</time>
      </trkpt>
      <trkpt lat="47.22828" lon="6.11123">
        <ele>385.6259765625</ele>
        <time>2011-04-17T12:38:47Z</time>
      </trkpt>
      <trkpt lat="47.22844" lon="6.11141">
        <ele>385.6259765625</ele>
        <time>2011-04-17T12:38:50Z</time>
      </trkpt>
      <trkpt lat="47.22853" lon="6.11154">
        <ele>385.6259765625</ele>
        <time>2011-04-17T12:38:52Z</time>
      </trkpt>
      <trkpt lat="47.22873" lon="6.11178">
        <ele>386.10668945312</ele>
        <time>2011-04-17T12:38:57Z</time>
      </trkpt>
      <trkpt lat="47.22879" lon="6.11188">
        <ele>386.58740234375</ele>
        <time>2011-04-17T12:39:00Z</time>
      </trkpt>
      <trkpt lat="47.22883" lon="6.11201">
        <ele>386.58740234375</ele>
        <time>2011-04-17T12:39:05Z</time>
      </trkpt>
      <trkpt lat="47.22881" lon="6.11209">
        <ele>386.58740234375</ele>
        <time>2011-04-17T12:39:11Z</time>
      </trkpt>
      <trkpt lat="47.22876" lon="6.11211">
        <ele>385.6259765625</ele>
        <time>2011-04-17T12:40:17Z</time>
      </trkpt>
      <trkpt lat="47.22876" lon="6.11211">
        <ele>385.14538574219</ele>
        <time>2011-04-17T12:40:18Z</time>
      </trkpt>
      <trkpt lat="47.22875" lon="6.11212">
        <ele>385.6259765625</ele>
        <time>2011-04-17T12:40:20Z</time>
      </trkpt>
      <trkpt lat="47.22874" lon="6.11214">
        <ele>385.6259765625</ele>
        <time>2011-04-17T12:40:26Z</time>
      </trkpt>
      <trkpt lat="47.22874" lon="6.11215">
        <ele>386.58740234375</ele>
        <time>2011-04-17T12:40:27Z</time>
      </trkpt>
      <trkpt lat="47.22872" lon="6.11217">
        <ele>386.10668945312</ele>
        <time>2011-04-17T12:40:31Z</time>
      </trkpt>
      <trkpt lat="47.22872" lon="6.11218">
        <ele>386.10668945312</ele>
        <time>2011-04-17T12:40:35Z</time>
      </trkpt>
      <trkpt lat="47.22871" lon="6.11219">
        <ele>386.10668945312</ele>
        <time>2011-04-17T12:40:36Z</time>
      </trkpt>
      <trkpt lat="47.22867" lon="6.11225">
        <ele>386.10668945312</ele>
        <time>2011-04-17T12:40:46Z</time>
      </trkpt>
      <trkpt lat="47.22864" lon="6.11226">
        <ele>385.6259765625</ele>
        <time>2011-04-17T12:40:53Z</time>
      </trkpt>
      <trkpt lat="47.22863" lon="6.11224">
        <ele>386.58740234375</ele>
        <time>2011-04-17T12:41:10Z</time>
      </trkpt>
      <trkpt lat="47.22858" lon="6.11222">
        <ele>386.58740234375</ele>
        <time>2011-04-17T12:41:15Z</time>
      </trkpt>
      <trkpt lat="47.22853" lon="6.11226">
        <ele>386.58740234375</ele>
        <time>2011-04-17T12:41:22Z</time>
      </trkpt>
      <trkpt lat="47.2285" lon="6.1123">
        <ele>387.06799316406</ele>
        <time>2011-04-17T12:41:30Z</time>
      </trkpt>
      <trkpt lat="47.22847" lon="6.11234">
        <ele>387.54858398438</ele>
        <time>2011-04-17T12:41:37Z</time>
      </trkpt>
      <trkpt lat="47.22844" lon="6.11236">
        <ele>387.06799316406</ele>
        <time>2011-04-17T12:41:44Z</time>
      </trkpt>
      <trkpt lat="47.22843" lon="6.11237">
        <ele>387.06799316406</ele>
        <time>2011-04-17T12:41:49Z</time>
      </trkpt>
      <trkpt lat="47.22839" lon="6.11239">
        <ele>387.06799316406</ele>
        <time>2011-04-17T12:41:57Z</time>
      </trkpt>
      <trkpt lat="47.22839" lon="6.11239">
        <ele>387.06799316406</ele>
        <time>2011-04-17T12:41:58Z</time>
      </trkpt>
      <trkpt lat="47.22838" lon="6.11239">
        <ele>386.58740234375</ele>
        <time>2011-04-17T12:42:01Z</time>
      </trkpt>
      <trkpt lat="47.22837" lon="6.1124">
        <ele>386.58740234375</ele>
        <time>2011-04-17T12:42:02Z</time>
      </trkpt>
      <trkpt lat="47.22837" lon="6.11239">
        <ele>387.06799316406</ele>
        <time>2011-04-17T12:42:05Z</time>
      </trkpt>
      <trkpt lat="47.22837" lon="6.11237">
        <ele>387.06799316406</ele>
        <time>2011-04-17T12:42:06Z</time>
      </trkpt>
      <trkpt lat="47.22839" lon="6.11233">
        <ele>388.51000976562</ele>
        <time>2011-04-17T12:42:12Z</time>
      </trkpt>
      <trkpt lat="47.22622" lon="6.11628">
        <ele>393.31652832031</ele>
        <time>2011-04-17T12:43:01Z</time>
      </trkpt>
      <trkpt lat="47.22617" lon="6.11633">
        <ele>393.31652832031</ele>
        <time>2011-04-17T12:43:03Z</time>
      </trkpt>
      <trkpt lat="47.22612" lon="6.11638">
        <ele>393.31652832031</ele>
        <time>2011-04-17T12:43:05Z</time>
      </trkpt>
      <trkpt lat="47.22583" lon="6.11661">
        <ele>394.75854492188</ele>
        <time>2011-04-17T12:43:15Z</time>
      </trkpt>
      <trkpt lat="47.22538" lon="6.11691">
        <ele>396.20056152344</ele>
        <time>2011-04-17T12:43:29Z</time>
      </trkpt>
      <trkpt lat="47.22509" lon="6.1171">
        <ele>396.20056152344</ele>
        <time>2011-04-17T12:43:39Z</time>
      </trkpt>
      <trkpt lat="47.22499" lon="6.11716">
        <ele>397.64245605469</ele>
        <time>2011-04-17T12:43:43Z</time>
      </trkpt>
      <trkpt lat="47.22479" lon="6.11729">
        <ele>399.08435058594</ele>
        <time>2011-04-17T12:43:52Z</time>
      </trkpt>
      <trkpt lat="47.22465" lon="6.11739">
        <ele>400.0458984375</ele>
        <time>2011-04-17T12:43:59Z</time>
      </trkpt>
      <trkpt lat="47.22453" lon="6.11752">
        <ele>401.48779296875</ele>
        <time>2011-04-17T12:44:06Z</time>
      </trkpt>
      <trkpt lat="47.22454" lon="6.11766">
        <ele>401.00708007812</ele>
        <time>2011-04-17T12:44:10Z</time>
      </trkpt>
      <trkpt lat="47.22454" lon="6.11769">
        <ele>401.96850585938</ele>
        <time>2011-04-17T12:44:11Z</time>
      </trkpt>
      <trkpt lat="47.22445" lon="6.11791">
        <ele>403.41040039062</ele>
        <time>2011-04-17T12:44:18Z</time>
      </trkpt>
      <trkpt lat="47.22427" lon="6.11818">
        <ele>403.41040039062</ele>
        <time>2011-04-17T12:44:26Z</time>
      </trkpt>
      <trkpt lat="47.224" lon="6.11858">
        <ele>403.89111328125</ele>
        <time>2011-04-17T12:44:36Z</time>
      </trkpt>
      <trkpt lat="47.22374" lon="6.11898">
        <ele>403.41040039062</ele>
        <time>2011-04-17T12:44:45Z</time>
      </trkpt>
      <trkpt lat="47.22364" lon="6.11911">
        <ele>403.89111328125</ele>
        <time>2011-04-17T12:44:48Z</time>
      </trkpt>
      <trkpt lat="47.22335" lon="6.11951">
        <ele>403.89111328125</ele>
        <time>2011-04-17T12:44:58Z</time>
      </trkpt>
      <trkpt lat="47.22313" lon="6.11984">
        <ele>403.89111328125</ele>
        <time>2011-04-17T12:45:07Z</time>
      </trkpt>
      <trkpt lat="47.22295" lon="6.12012">
        <ele>405.81372070312</ele>
        <time>2011-04-17T12:45:16Z</time>
      </trkpt>
      <trkpt lat="47.22279" lon="6.12038">
        <ele>407.25561523438</ele>
        <time>2011-04-17T12:45:24Z</time>
      </trkpt>
      <trkpt lat="47.22257" lon="6.12075">
        <ele>410.1396484375</ele>
        <time>2011-04-17T12:45:35Z</time>
      </trkpt>
      <trkpt lat="47.2224" lon="6.12103">
        <ele>410.1396484375</ele>
        <time>2011-04-17T12:45:44Z</time>
      </trkpt>
      <trkpt lat="47.22222" lon="6.12132">
        <ele>413.50427246094</ele>
        <time>2011-04-17T12:45:54Z</time>
      </trkpt>
      <trkpt lat="47.2222" lon="6.12135">
        <ele>413.50427246094</ele>
        <time>2011-04-17T12:45:55Z</time>
      </trkpt>
      <trkpt lat="47.22204" lon="6.12162">
        <ele>413.98486328125</ele>
        <time>2011-04-17T12:46:04Z</time>
      </trkpt>
      <trkpt lat="47.22187" lon="6.12189">
        <ele>415.42687988281</ele>
        <time>2011-04-17T12:46:13Z</time>
      </trkpt>
      <trkpt lat="47.22169" lon="6.12217">
        <ele>416.38818359375</ele>
        <time>2011-04-17T12:46:23Z</time>
      </trkpt>
      <trkpt lat="47.22152" lon="6.12244">
        <ele>419.27221679688</ele>
        <time>2011-04-17T12:46:33Z</time>
      </trkpt>
      <trkpt lat="47.22138" lon="6.12268">
        <ele>420.2333984375</ele>
        <time>2011-04-17T12:46:43Z</time>
      </trkpt>
      <trkpt lat="47.22124" lon="6.1229">
        <ele>421.19482421875</ele>
        <time>2011-04-17T12:46:53Z</time>
      </trkpt>
      <trkpt lat="47.22115" lon="6.12306">
        <ele>422.63671875</ele>
        <time>2011-04-17T12:47:00Z</time>
      </trkpt>
      <trkpt lat="47.22097" lon="6.12335">
        <ele>425.52075195312</ele>
        <time>2011-04-17T12:47:13Z</time>
      </trkpt>
      <trkpt lat="47.22094" lon="6.12339">
        <ele>426.48205566406</ele>
        <time>2011-04-17T12:47:15Z</time>
      </trkpt>
      <trkpt lat="47.22078" lon="6.12364">
        <ele>427.92395019531</ele>
        <time>2011-04-17T12:47:27Z</time>
      </trkpt>
      <trkpt lat="47.22065" lon="6.12385">
        <ele>428.88537597656</ele>
        <time>2011-04-17T12:47:37Z</time>
      </trkpt>
      <trkpt lat="47.22057" lon="6.12399">
        <ele>430.80798339844</ele>
        <time>2011-04-17T12:47:43Z</time>
      </trkpt>
      <trkpt lat="47.22041" lon="6.12425">
        <ele>432.25</ele>
        <time>2011-04-17T12:47:54Z</time>
      </trkpt>
      <trkpt lat="47.22028" lon="6.12447">
        <ele>433.69189453125</ele>
        <time>2011-04-17T12:48:03Z</time>
      </trkpt>
      <trkpt lat="47.22016" lon="6.1247">
        <ele>434.17260742188</ele>
        <time>2011-04-17T12:48:12Z</time>
      </trkpt>
      <trkpt lat="47.22004" lon="6.12493">
        <ele>435.61450195312</ele>
        <time>2011-04-17T12:48:21Z</time>
      </trkpt>
      <trkpt lat="47.2199" lon="6.12518">
        <ele>437.05651855469</ele>
        <time>2011-04-17T12:48:31Z</time>
      </trkpt>
      <trkpt lat="47.2198" lon="6.12539">
        <ele>438.97912597656</ele>
        <time>2011-04-17T12:48:40Z</time>
      </trkpt>
      <trkpt lat="47.21968" lon="6.1256">
        <ele>440.42126464844</ele>
        <time>2011-04-17T12:48:49Z</time>
      </trkpt>
      <trkpt lat="47.21953" lon="6.12587">
        <ele>443.30505371094</ele>
        <time>2011-04-17T12:49:00Z</time>
      </trkpt>
      <trkpt lat="47.21939" lon="6.12612">
        <ele>443.78576660156</ele>
        <time>2011-04-17T12:49:10Z</time>
      </trkpt>
      <trkpt lat="47.21926" lon="6.12637">
        <ele>443.30505371094</ele>
        <time>2011-04-17T12:49:16Z</time>
      </trkpt>
      <trkpt lat="47.21914" lon="6.12662">
        <ele>441.38244628906</ele>
        <time>2011-04-17T12:49:20Z</time>
      </trkpt>
      <trkpt lat="47.21897" lon="6.12693">
        <ele>439.45971679688</ele>
        <time>2011-04-17T12:49:24Z</time>
      </trkpt>
      <trkpt lat="47.21862" lon="6.12758">
        <ele>436.57592773438</ele>
        <time>2011-04-17T12:49:31Z</time>
      </trkpt>
      <trkpt lat="47.21831" lon="6.12819">
        <ele>433.69189453125</ele>
        <time>2011-04-17T12:49:37Z</time>
      </trkpt>
      <trkpt lat="47.21793" lon="6.12892">
        <ele>431.28857421875</ele>
        <time>2011-04-17T12:49:44Z</time>
      </trkpt>
      <trkpt lat="47.21765" lon="6.12945">
        <ele>431.76916503906</ele>
        <time>2011-04-17T12:49:50Z</time>
      </trkpt>
      <trkpt lat="47.21734" lon="6.13005">
        <ele>432.73071289062</ele>
        <time>2011-04-17T12:49:58Z</time>
      </trkpt>
      <trkpt lat="47.21696" lon="6.13079">
        <ele>432.73071289062</ele>
        <time>2011-04-17T12:50:09Z</time>
      </trkpt>
      <trkpt lat="47.21665" lon="6.13136">
        <ele>433.21130371094</ele>
        <time>2011-04-17T12:50:18Z</time>
      </trkpt>
      <trkpt lat="47.21642" lon="6.13178">
        <ele>434.17260742188</ele>
        <time>2011-04-17T12:50:26Z</time>
      </trkpt>
      <trkpt lat="47.21619" lon="6.13215">
        <ele>435.61450195312</ele>
        <time>2011-04-17T12:50:35Z</time>
      </trkpt>
      <trkpt lat="47.21592" lon="6.13258">
        <ele>437.05651855469</ele>
        <time>2011-04-17T12:50:46Z</time>
      </trkpt>
      <trkpt lat="47.21565" lon="6.13301">
        <ele>440.42126464844</ele>
        <time>2011-04-17T12:50:58Z</time>
      </trkpt>
      <trkpt lat="47.21538" lon="6.13344">
        <ele>442.34387207031</ele>
        <time>2011-04-17T12:51:11Z</time>
      </trkpt>
      <trkpt lat="47.21517" lon="6.13378">
        <ele>444.7470703125</ele>
        <time>2011-04-17T12:51:22Z</time>
      </trkpt>
      <trkpt lat="47.21499" lon="6.13407">
        <ele>448.11181640625</ele>
        <time>2011-04-17T12:51:32Z</time>
      </trkpt>
      <trkpt lat="47.21486" lon="6.13428">
        <ele>448.59240722656</ele>
        <time>2011-04-17T12:51:40Z</time>
      </trkpt>
      <trkpt lat="47.21474" lon="6.13447">
        <ele>450.03442382812</ele>
        <time>2011-04-17T12:51:48Z</time>
      </trkpt>
      <trkpt lat="47.21454" lon="6.13479">
        <ele>450.99560546875</ele>
        <time>2011-04-17T12:52:00Z</time>
      </trkpt>
      <trkpt lat="47.21435" lon="6.13508">
        <ele>450.99560546875</ele>
        <time>2011-04-17T12:52:09Z</time>
      </trkpt>
      <trkpt lat="47.21412" lon="6.13541">
        <ele>449.5537109375</ele>
        <time>2011-04-17T12:52:16Z</time>
      </trkpt>
      <trkpt lat="47.21382" lon="6.13583">
        <ele>448.11181640625</ele>
        <time>2011-04-17T12:52:23Z</time>
      </trkpt>
      <trkpt lat="47.21352" lon="6.13627">
        <ele>445.70837402344</ele>
        <time>2011-04-17T12:52:29Z</time>
      </trkpt>
      <trkpt lat="47.21325" lon="6.13664">
        <ele>444.7470703125</ele>
        <time>2011-04-17T12:52:34Z</time>
      </trkpt>
      <trkpt lat="47.21275" lon="6.13735">
        <ele>442.82446289062</ele>
        <time>2011-04-17T12:52:43Z</time>
      </trkpt>
      <trkpt lat="47.2121" lon="6.13825">
        <ele>441.86315917969</ele>
        <time>2011-04-17T12:52:55Z</time>
      </trkpt>
      <trkpt lat="47.21157" lon="6.139">
        <ele>440.90185546875</ele>
        <time>2011-04-17T12:53:05Z</time>
      </trkpt>
      <trkpt lat="47.21101" lon="6.13978">
        <ele>438.97912597656</ele>
        <time>2011-04-17T12:53:15Z</time>
      </trkpt>
      <trkpt lat="47.21056" lon="6.14042">
        <ele>436.57592773438</ele>
        <time>2011-04-17T12:53:23Z</time>
      </trkpt>
      <trkpt lat="47.21004" lon="6.14115">
        <ele>433.21130371094</ele>
        <time>2011-04-17T12:53:32Z</time>
      </trkpt>
      <trkpt lat="47.20979" lon="6.14151">
        <ele>430.80798339844</ele>
        <time>2011-04-17T12:53:36Z</time>
      </trkpt>
      <trkpt lat="47.20933" lon="6.14217">
        <ele>430.32727050781</ele>
        <time>2011-04-17T12:53:44Z</time>
      </trkpt>
      <trkpt lat="47.20889" lon="6.14279">
        <ele>430.80798339844</ele>
        <time>2011-04-17T12:53:52Z</time>
      </trkpt>
      <trkpt lat="47.20863" lon="6.14317">
        <ele>430.80798339844</ele>
        <time>2011-04-17T12:53:58Z</time>
      </trkpt>
      <trkpt lat="47.20842" lon="6.14319">
        <ele>429.84655761719</ele>
        <time>2011-04-17T12:54:02Z</time>
      </trkpt>
      <trkpt lat="47.20836" lon="6.14316">
        <ele>431.28857421875</ele>
        <time>2011-04-17T12:54:03Z</time>
      </trkpt>
      <trkpt lat="47.20809" lon="6.143">
        <ele>431.28857421875</ele>
        <time>2011-04-17T12:54:09Z</time>
      </trkpt>
      <trkpt lat="47.20781" lon="6.14286">
        <ele>432.25</ele>
        <time>2011-04-17T12:54:16Z</time>
      </trkpt>
      <trkpt lat="47.20761" lon="6.14279">
        <ele>432.25</ele>
        <time>2011-04-17T12:54:21Z</time>
      </trkpt>
      <trkpt lat="47.20723" lon="6.14257">
        <ele>433.21130371094</ele>
        <time>2011-04-17T12:54:31Z</time>
      </trkpt>
      <trkpt lat="47.20685" lon="6.14217">
        <ele>433.21130371094</ele>
        <time>2011-04-17T12:54:42Z</time>
      </trkpt>
      <trkpt lat="47.20669" lon="6.14193">
        <ele>432.73071289062</ele>
        <time>2011-04-17T12:54:47Z</time>
      </trkpt>
      <trkpt lat="47.20661" lon="6.14168">
        <ele>433.21130371094</ele>
        <time>2011-04-17T12:54:51Z</time>
      </trkpt>
      <trkpt lat="47.20658" lon="6.14153">
        <ele>432.73071289062</ele>
        <time>2011-04-17T12:54:53Z</time>
      </trkpt>
      <trkpt lat="47.20647" lon="6.1412">
        <ele>433.21130371094</ele>
        <time>2011-04-17T12:54:58Z</time>
      </trkpt>
      <trkpt lat="47.20638" lon="6.14104">
        <ele>433.69189453125</ele>
        <time>2011-04-17T12:55:01Z</time>
      </trkpt>
      <trkpt lat="47.20608" lon="6.14071">
        <ele>434.17260742188</ele>
        <time>2011-04-17T12:55:10Z</time>
      </trkpt>
      <trkpt lat="47.2058" lon="6.14038">
        <ele>433.69189453125</ele>
        <time>2011-04-17T12:55:18Z</time>
      </trkpt>
      <trkpt lat="47.20535" lon="6.13988">
        <ele>433.69189453125</ele>
        <time>2011-04-17T12:55:30Z</time>
      </trkpt>
      <trkpt lat="47.20506" lon="6.13965">
        <ele>434.6533203125</ele>
        <time>2011-04-17T12:55:38Z</time>
      </trkpt>
      <trkpt lat="47.2048" lon="6.1394">
        <ele>435.61450195312</ele>
        <time>2011-04-17T12:55:46Z</time>
      </trkpt>
      <trkpt lat="47.20456" lon="6.13915">
        <ele>435.61450195312</ele>
        <time>2011-04-17T12:55:53Z</time>
      </trkpt>
      <trkpt lat="47.20433" lon="6.13892">
        <ele>434.6533203125</ele>
        <time>2011-04-17T12:56:00Z</time>
      </trkpt>
      <trkpt lat="47.2041" lon="6.13868">
        <ele>434.6533203125</ele>
        <time>2011-04-17T12:56:07Z</time>
      </trkpt>
      <trkpt lat="47.20376" lon="6.13832">
        <ele>433.21130371094</ele>
        <time>2011-04-17T12:56:16Z</time>
      </trkpt>
      <trkpt lat="47.20354" lon="6.1381">
        <ele>433.69189453125</ele>
        <time>2011-04-17T12:56:22Z</time>
      </trkpt>
      <trkpt lat="47.20331" lon="6.13784">
        <ele>433.21130371094</ele>
        <time>2011-04-17T12:56:28Z</time>
      </trkpt>
      <trkpt lat="47.20297" lon="6.13748">
        <ele>434.6533203125</ele>
        <time>2011-04-17T12:56:37Z</time>
      </trkpt>
      <trkpt lat="47.20264" lon="6.13713">
        <ele>434.6533203125</ele>
        <time>2011-04-17T12:56:46Z</time>
      </trkpt>
      <trkpt lat="47.20261" lon="6.13709">
        <ele>434.6533203125</ele>
        <time>2011-04-17T12:56:47Z</time>
      </trkpt>
      <trkpt lat="47.20259" lon="6.13685">
        <ele>433.69189453125</ele>
        <time>2011-04-17T12:56:51Z</time>
      </trkpt>
      <trkpt lat="47.20269" lon="6.13667">
        <ele>433.21130371094</ele>
        <time>2011-04-17T12:56:54Z</time>
      </trkpt>
      <trkpt lat="47.20274" lon="6.13646">
        <ele>431.76916503906</ele>
        <time>2011-04-17T12:56:57Z</time>
      </trkpt>
      <trkpt lat="47.20269" lon="6.13636">
        <ele>431.76916503906</ele>
        <time>2011-04-17T12:56:59Z</time>
      </trkpt>
      <trkpt lat="47.20259" lon="6.13626">
        <ele>430.32727050781</ele>
        <time>2011-04-17T12:57:02Z</time>
      </trkpt>
      <trkpt lat="47.20241" lon="6.13611">
        <ele>430.80798339844</ele>
        <time>2011-04-17T12:57:06Z</time>
      </trkpt>
      <trkpt lat="47.20238" lon="6.1361">
        <ele>431.28857421875</ele>
        <time>2011-04-17T12:57:08Z</time>
      </trkpt>
      <trkpt lat="47.20234" lon="6.1362">
        <ele>431.76916503906</ele>
        <time>2011-04-17T12:57:13Z</time>
      </trkpt>
      <trkpt lat="47.20232" lon="6.13629">
        <ele>431.76916503906</ele>
        <time>2011-04-17T12:57:15Z</time>
      </trkpt>
      <trkpt lat="47.20229" lon="6.13642">
        <ele>432.73071289062</ele>
        <time>2011-04-17T12:57:18Z</time>
      </trkpt>
      <trkpt lat="47.20226" lon="6.13655">
        <ele>433.21130371094</ele>
        <time>2011-04-17T12:57:21Z</time>
      </trkpt>
      <trkpt lat="47.20222" lon="6.13664">
        <ele>433.69189453125</ele>
        <time>2011-04-17T12:57:23Z</time>
      </trkpt>
      <trkpt lat="47.20211" lon="6.13693">
        <ele>435.61450195312</ele>
        <time>2011-04-17T12:57:30Z</time>
      </trkpt>
      <trkpt lat="47.20195" lon="6.13733">
        <ele>437.05651855469</ele>
        <time>2011-04-17T12:57:39Z</time>
      </trkpt>
      <trkpt lat="47.20176" lon="6.13778">
        <ele>436.57592773438</ele>
        <time>2011-04-17T12:57:48Z</time>
      </trkpt>
      <trkpt lat="47.2016" lon="6.13819">
        <ele>435.61450195312</ele>
        <time>2011-04-17T12:57:55Z</time>
      </trkpt>
      <trkpt lat="47.20142" lon="6.13867">
        <ele>434.17260742188</ele>
        <time>2011-04-17T12:58:02Z</time>
      </trkpt>
      <trkpt lat="47.20117" lon="6.13912">
        <ele>434.6533203125</ele>
        <time>2011-04-17T12:58:09Z</time>
      </trkpt>
      <trkpt lat="47.20103" lon="6.13922">
        <ele>434.6533203125</ele>
        <time>2011-04-17T12:58:12Z</time>
      </trkpt>
      <trkpt lat="47.20083" lon="6.13937">
        <ele>434.6533203125</ele>
        <time>2011-04-17T12:58:17Z</time>
      </trkpt>
      <trkpt lat="47.20066" lon="6.13959">
        <ele>435.13391113281</ele>
        <time>2011-04-17T12:58:22Z</time>
      </trkpt>
      <trkpt lat="47.20057" lon="6.13974">
        <ele>434.6533203125</ele>
        <time>2011-04-17T12:58:25Z</time>
      </trkpt>
      <trkpt lat="47.20043" lon="6.14007">
        <ele>434.6533203125</ele>
        <time>2011-04-17T12:58:31Z</time>
      </trkpt>
      <trkpt lat="47.20043" lon="6.1404">
        <ele>435.13391113281</ele>
        <time>2011-04-17T12:58:36Z</time>
      </trkpt>
      <trkpt lat="47.20046" lon="6.14053">
        <ele>435.13391113281</ele>
        <time>2011-04-17T12:58:38Z</time>
      </trkpt>
      <trkpt lat="47.20044" lon="6.14086">
        <ele>435.61450195312</ele>
        <time>2011-04-17T12:58:43Z</time>
      </trkpt>
      <trkpt lat="47.2004" lon="6.14097">
        <ele>436.57592773438</ele>
        <time>2011-04-17T12:58:45Z</time>
      </trkpt>
      <trkpt lat="47.20012" lon="6.14156">
        <ele>438.97912597656</ele>
        <time>2011-04-17T12:58:57Z</time>
      </trkpt>
      <trkpt lat="47.20001" lon="6.14186">
        <ele>439.9404296875</ele>
        <time>2011-04-17T12:59:03Z</time>
      </trkpt>
      <trkpt lat="47.19983" lon="6.14238">
        <ele>439.9404296875</ele>
        <time>2011-04-17T12:59:12Z</time>
      </trkpt>
      <trkpt lat="47.19965" lon="6.14292">
        <ele>438.97912597656</ele>
        <time>2011-04-17T12:59:19Z</time>
      </trkpt>
      <trkpt lat="47.19935" lon="6.1438">
        <ele>438.97912597656</ele>
        <time>2011-04-17T12:59:30Z</time>
      </trkpt>
      <trkpt lat="47.19915" lon="6.14433">
        <ele>440.90185546875</ele>
        <time>2011-04-17T12:59:38Z</time>
      </trkpt>
      <trkpt lat="47.19891" lon="6.14498">
        <ele>443.30505371094</ele>
        <time>2011-04-17T12:59:49Z</time>
      </trkpt>
      <trkpt lat="47.19866" lon="6.14565">
        <ele>443.78576660156</ele>
        <time>2011-04-17T13:00:00Z</time>
      </trkpt>
      <trkpt lat="47.19846" lon="6.14618">
        <ele>444.7470703125</ele>
        <time>2011-04-17T13:00:09Z</time>
      </trkpt>
      <trkpt lat="47.19824" lon="6.14678">
        <ele>445.70837402344</ele>
        <time>2011-04-17T13:00:19Z</time>
      </trkpt>
      <trkpt lat="47.19801" lon="6.14738">
        <ele>446.66967773438</ele>
        <time>2011-04-17T13:00:30Z</time>
      </trkpt>
      <trkpt lat="47.1979" lon="6.14769">
        <ele>449.07299804688</ele>
        <time>2011-04-17T13:00:36Z</time>
      </trkpt>
      <trkpt lat="47.1977" lon="6.14823">
        <ele>450.03442382812</ele>
        <time>2011-04-17T13:00:46Z</time>
      </trkpt>
      <trkpt lat="47.19749" lon="6.14879">
        <ele>449.5537109375</ele>
        <time>2011-04-17T13:00:56Z</time>
      </trkpt>
      <trkpt lat="47.19732" lon="6.14923">
        <ele>450.03442382812</ele>
        <time>2011-04-17T13:01:05Z</time>
      </trkpt>
      <trkpt lat="47.19715" lon="6.14964">
        <ele>452.43762207031</ele>
        <time>2011-04-17T13:01:14Z</time>
      </trkpt>
      <trkpt lat="47.19697" lon="6.15001">
        <ele>453.39892578125</ele>
        <time>2011-04-17T13:01:23Z</time>
      </trkpt>
      <trkpt lat="47.19675" lon="6.1504">
        <ele>455.80224609375</ele>
        <time>2011-04-17T13:01:33Z</time>
      </trkpt>
      <trkpt lat="47.19653" lon="6.15074">
        <ele>457.24426269531</ele>
        <time>2011-04-17T13:01:43Z</time>
      </trkpt>
      <trkpt lat="47.19627" lon="6.15098">
        <ele>459.16687011719</ele>
        <time>2011-04-17T13:01:53Z</time>
      </trkpt>
      <trkpt lat="47.19606" lon="6.15104">
        <ele>460.12817382812</ele>
        <time>2011-04-17T13:02:01Z</time>
      </trkpt>
      <trkpt lat="47.19576" lon="6.15105">
        <ele>460.12817382812</ele>
        <time>2011-04-17T13:02:12Z</time>
      </trkpt>
      <trkpt lat="47.19561" lon="6.151">
        <ele>461.57019042969</ele>
        <time>2011-04-17T13:02:18Z</time>
      </trkpt>
      <trkpt lat="47.1955" lon="6.15102">
        <ele>463.49279785156</ele>
        <time>2011-04-17T13:02:23Z</time>
      </trkpt>
      <trkpt lat="47.19547" lon="6.15106">
        <ele>463.49279785156</ele>
        <time>2011-04-17T13:02:25Z</time>
      </trkpt>
      <trkpt lat="47.19545" lon="6.15119">
        <ele>463.97338867188</ele>
        <time>2011-04-17T13:02:29Z</time>
      </trkpt>
      <trkpt lat="47.19547" lon="6.15135">
        <ele>464.4541015625</ele>
        <time>2011-04-17T13:02:33Z</time>
      </trkpt>
      <trkpt lat="47.19542" lon="6.15164">
        <ele>464.4541015625</ele>
        <time>2011-04-17T13:02:40Z</time>
      </trkpt>
      <trkpt lat="47.19539" lon="6.15196">
        <ele>464.93481445312</ele>
        <time>2011-04-17T13:02:47Z</time>
      </trkpt>
      <trkpt lat="47.19538" lon="6.15234">
        <ele>465.41552734375</ele>
        <time>2011-04-17T13:02:55Z</time>
      </trkpt>
      <trkpt lat="47.19537" lon="6.15277">
        <ele>465.41552734375</ele>
        <time>2011-04-17T13:03:04Z</time>
      </trkpt>
      <trkpt lat="47.19531" lon="6.15291">
        <ele>465.89611816406</ele>
        <time>2011-04-17T13:03:09Z</time>
      </trkpt>
      <trkpt lat="47.19529" lon="6.15295">
        <ele>466.37670898438</ele>
        <time>2011-04-17T13:03:11Z</time>
      </trkpt>
      <trkpt lat="47.19526" lon="6.15302">
        <ele>467.33813476562</ele>
        <time>2011-04-17T13:03:18Z</time>
      </trkpt>
      <trkpt lat="47.19526" lon="6.15302">
        <ele>467.33813476562</ele>
        <time>2011-04-17T13:03:20Z</time>
      </trkpt>
      <trkpt lat="47.19526" lon="6.15304">
        <ele>467.81872558594</ele>
        <time>2011-04-17T13:04:00Z</time>
      </trkpt>
      <trkpt lat="47.19526" lon="6.15304">
        <ele>467.33813476562</ele>
        <time>2011-04-17T13:04:01Z</time>
      </trkpt>
      <trkpt lat="47.19522" lon="6.15309">
        <ele>467.33813476562</ele>
        <time>2011-04-17T13:04:06Z</time>
      </trkpt>
      <trkpt lat="47.19518" lon="6.15317">
        <ele>468.29931640625</ele>
        <time>2011-04-17T13:04:10Z</time>
      </trkpt>
      <trkpt lat="47.19511" lon="6.15333">
        <ele>470.70263671875</ele>
        <time>2011-04-17T13:04:18Z</time>
      </trkpt>
      <trkpt lat="47.1951" lon="6.15335">
        <ele>470.70263671875</ele>
        <time>2011-04-17T13:04:19Z</time>
      </trkpt>
      <trkpt lat="47.19498" lon="6.15359">
        <ele>471.66394042969</ele>
        <time>2011-04-17T13:04:30Z</time>
      </trkpt>
      <trkpt lat="47.19491" lon="6.15376">
        <ele>474.06726074219</ele>
        <time>2011-04-17T13:04:39Z</time>
      </trkpt>
      <trkpt lat="47.19487" lon="6.15388">
        <ele>475.98986816406</ele>
        <time>2011-04-17T13:04:47Z</time>
      </trkpt>
      <trkpt lat="47.19482" lon="6.15399">
        <ele>477.43188476562</ele>
        <time>2011-04-17T13:04:55Z</time>
      </trkpt>
      <trkpt lat="47.19476" lon="6.15411">
        <ele>478.87390136719</ele>
        <time>2011-04-17T13:05:03Z</time>
      </trkpt>
      <trkpt lat="47.19468" lon="6.15428">
        <ele>480.79663085938</ele>
        <time>2011-04-17T13:05:13Z</time>
      </trkpt>
      <trkpt lat="47.19457" lon="6.15445">
        <ele>481.7578125</ele>
        <time>2011-04-17T13:05:24Z</time>
      </trkpt>
      <trkpt lat="47.19448" lon="6.15459">
        <ele>482.23852539062</ele>
        <time>2011-04-17T13:05:33Z</time>
      </trkpt>
      <trkpt lat="47.19439" lon="6.15476">
        <ele>486.08374023438</ele>
        <time>2011-04-17T13:05:43Z</time>
      </trkpt>
      <trkpt lat="47.1943" lon="6.15495">
        <ele>488.00646972656</ele>
        <time>2011-04-17T13:05:54Z</time>
      </trkpt>
      <trkpt lat="47.19424" lon="6.15511">
        <ele>489.92907714844</ele>
        <time>2011-04-17T13:06:03Z</time>
      </trkpt>
      <trkpt lat="47.19417" lon="6.15529">
        <ele>491.37097167969</ele>
        <time>2011-04-17T13:06:13Z</time>
      </trkpt>
      <trkpt lat="47.1941" lon="6.15548">
        <ele>492.81298828125</ele>
        <time>2011-04-17T13:06:24Z</time>
      </trkpt>
      <trkpt lat="47.19402" lon="6.15566">
        <ele>494.25500488281</ele>
        <time>2011-04-17T13:06:35Z</time>
      </trkpt>
      <trkpt lat="47.19395" lon="6.15586">
        <ele>496.177734375</ele>
        <time>2011-04-17T13:06:46Z</time>
      </trkpt>
      <trkpt lat="47.19388" lon="6.15606">
        <ele>497.61962890625</ele>
        <time>2011-04-17T13:06:57Z</time>
      </trkpt>
      <trkpt lat="47.19386" lon="6.15613">
        <ele>499.54223632812</ele>
        <time>2011-04-17T13:07:01Z</time>
      </trkpt>
      <trkpt lat="47.1938" lon="6.15634">
        <ele>500.98413085938</ele>
        <time>2011-04-17T13:07:12Z</time>
      </trkpt>
      <trkpt lat="47.19376" lon="6.15653">
        <ele>502.90673828125</ele>
        <time>2011-04-17T13:07:22Z</time>
      </trkpt>
      <trkpt lat="47.19375" lon="6.15655">
        <ele>503.38745117188</ele>
        <time>2011-04-17T13:07:23Z</time>
      </trkpt>
      <trkpt lat="47.1937" lon="6.15673">
        <ele>504.82946777344</ele>
        <time>2011-04-17T13:07:33Z</time>
      </trkpt>
      <trkpt lat="47.19366" lon="6.15692">
        <ele>506.271484375</ele>
        <time>2011-04-17T13:07:43Z</time>
      </trkpt>
      <trkpt lat="47.19364" lon="6.15714">
        <ele>507.23278808594</ele>
        <time>2011-04-17T13:07:53Z</time>
      </trkpt>
      <trkpt lat="47.19363" lon="6.15741">
        <ele>506.75207519531</ele>
        <time>2011-04-17T13:08:01Z</time>
      </trkpt>
      <trkpt lat="47.19363" lon="6.15756">
        <ele>506.75207519531</ele>
        <time>2011-04-17T13:08:04Z</time>
      </trkpt>
      <trkpt lat="47.19358" lon="6.15778">
        <ele>506.271484375</ele>
        <time>2011-04-17T13:08:09Z</time>
      </trkpt>
      <trkpt lat="47.19357" lon="6.15781">
        <ele>505.79089355469</ele>
        <time>2011-04-17T13:08:12Z</time>
      </trkpt>
      <trkpt lat="47.19357" lon="6.15781">
        <ele>506.75207519531</ele>
        <time>2011-04-17T13:08:34Z</time>
      </trkpt>
      <trkpt lat="47.19357" lon="6.15782">
        <ele>506.75207519531</ele>
        <time>2011-04-17T13:08:35Z</time>
      </trkpt>
      <trkpt lat="47.19351" lon="6.15795">
        <ele>506.75207519531</ele>
        <time>2011-04-17T13:08:39Z</time>
      </trkpt>
      <trkpt lat="47.19337" lon="6.15825">
        <ele>507.23278808594</ele>
        <time>2011-04-17T13:08:47Z</time>
      </trkpt>
      <trkpt lat="47.1932" lon="6.15856">
        <ele>507.71350097656</ele>
        <time>2011-04-17T13:08:55Z</time>
      </trkpt>
      <trkpt lat="47.19312" lon="6.1588">
        <ele>509.15539550781</ele>
        <time>2011-04-17T13:09:01Z</time>
      </trkpt>
      <trkpt lat="47.19316" lon="6.15906">
        <ele>509.63610839844</ele>
        <time>2011-04-17T13:09:07Z</time>
      </trkpt>
      <trkpt lat="47.19329" lon="6.15933">
        <ele>510.11669921875</ele>
        <time>2011-04-17T13:09:15Z</time>
      </trkpt>
      <trkpt lat="47.1934" lon="6.15958">
        <ele>512.03942871094</ele>
        <time>2011-04-17T13:09:23Z</time>
      </trkpt>
      <trkpt lat="47.19344" lon="6.15979">
        <ele>512.03942871094</ele>
        <time>2011-04-17T13:09:31Z</time>
      </trkpt>
      <trkpt lat="47.19346" lon="6.15983">
        <ele>512.03942871094</ele>
        <time>2011-04-17T13:09:34Z</time>
      </trkpt>
      <trkpt lat="47.19352" lon="6.15985">
        <ele>512.52001953125</ele>
        <time>2011-04-17T13:09:39Z</time>
      </trkpt>
      <trkpt lat="47.19358" lon="6.15985">
        <ele>511.55871582031</ele>
        <time>2011-04-17T13:09:45Z</time>
      </trkpt>
      <trkpt lat="47.19359" lon="6.15984">
        <ele>510.59729003906</ele>
        <time>2011-04-17T13:10:31Z</time>
      </trkpt>
      <trkpt lat="47.1936" lon="6.15984">
        <ele>511.07800292969</ele>
        <time>2011-04-17T13:10:32Z</time>
      </trkpt>
      <trkpt lat="47.1936" lon="6.15997">
        <ele>512.03942871094</ele>
        <time>2011-04-17T13:10:37Z</time>
      </trkpt>
      <trkpt lat="47.19354" lon="6.15999">
        <ele>512.52001953125</ele>
        <time>2011-04-17T13:10:40Z</time>
      </trkpt>
      <trkpt lat="47.19347" lon="6.16009">
        <ele>513.96203613281</ele>
        <time>2011-04-17T13:10:45Z</time>
      </trkpt>
      <trkpt lat="47.1935" lon="6.16027">
        <ele>514.44262695312</ele>
        <time>2011-04-17T13:10:51Z</time>
      </trkpt>
      <trkpt lat="47.1936" lon="6.16043">
        <ele>515.40405273438</ele>
        <time>2011-04-17T13:10:58Z</time>
      </trkpt>
      <trkpt lat="47.19373" lon="6.16053">
        <ele>517.80725097656</ele>
        <time>2011-04-17T13:11:05Z</time>
      </trkpt>
      <trkpt lat="47.19379" lon="6.16057">
        <ele>518.7685546875</ele>
        <time>2011-04-17T13:11:08Z</time>
      </trkpt>
      <trkpt lat="47.19389" lon="6.16068">
        <ele>520.21057128906</ele>
        <time>2011-04-17T13:11:15Z</time>
      </trkpt>
      <trkpt lat="47.19395" lon="6.16081">
        <ele>520.69128417969</ele>
        <time>2011-04-17T13:11:21Z</time>
      </trkpt>
      <trkpt lat="47.19402" lon="6.16103">
        <ele>523.09460449219</ele>
        <time>2011-04-17T13:11:30Z</time>
      </trkpt>
      <trkpt lat="47.19405" lon="6.16119">
        <ele>524.53649902344</ele>
        <time>2011-04-17T13:11:37Z</time>
      </trkpt>
      <trkpt lat="47.19405" lon="6.1614">
        <ele>525.01721191406</ele>
        <time>2011-04-17T13:11:46Z</time>
      </trkpt>
      <trkpt lat="47.19407" lon="6.16162">
        <ele>526.93981933594</ele>
        <time>2011-04-17T13:11:55Z</time>
      </trkpt>
      <trkpt lat="47.19405" lon="6.16189">
        <ele>527.90100097656</ele>
        <time>2011-04-17T13:12:06Z</time>
      </trkpt>
      <trkpt lat="47.19403" lon="6.16213">
        <ele>530.78515625</ele>
        <time>2011-04-17T13:12:17Z</time>
      </trkpt>
      <trkpt lat="47.19401" lon="6.16237">
        <ele>533.18835449219</ele>
        <time>2011-04-17T13:12:28Z</time>
      </trkpt>
      <trkpt lat="47.19399" lon="6.16256">
        <ele>534.14965820312</ele>
        <time>2011-04-17T13:12:37Z</time>
      </trkpt>
      <trkpt lat="47.19395" lon="6.16276">
        <ele>536.55310058594</ele>
        <time>2011-04-17T13:12:47Z</time>
      </trkpt>
      <trkpt lat="47.19392" lon="6.16291">
        <ele>537.99499511719</ele>
        <time>2011-04-17T13:12:54Z</time>
      </trkpt>
      <trkpt lat="47.19392" lon="6.16315">
        <ele>538.47570800781</ele>
        <time>2011-04-17T13:13:03Z</time>
      </trkpt>
      <trkpt lat="47.19394" lon="6.16338">
        <ele>538.47570800781</ele>
        <time>2011-04-17T13:13:10Z</time>
      </trkpt>
      <trkpt lat="47.19403" lon="6.16369">
        <ele>538.47570800781</ele>
        <time>2011-04-17T13:13:18Z</time>
      </trkpt>
      <trkpt lat="47.1942" lon="6.16407">
        <ele>538.95629882812</ele>
        <time>2011-04-17T13:13:26Z</time>
      </trkpt>
      <trkpt lat="47.19437" lon="6.16453">
        <ele>538.95629882812</ele>
        <time>2011-04-17T13:13:34Z</time>
      </trkpt>
      <trkpt lat="47.19447" lon="6.1648">
        <ele>538.47570800781</ele>
        <time>2011-04-17T13:13:38Z</time>
      </trkpt>
      <trkpt lat="47.19461" lon="6.16514">
        <ele>537.51428222656</ele>
        <time>2011-04-17T13:13:43Z</time>
      </trkpt>
      <trkpt lat="47.19496" lon="6.16595">
        <ele>536.55310058594</ele>
        <time>2011-04-17T13:13:54Z</time>
      </trkpt>
      <trkpt lat="47.195" lon="6.16603">
        <ele>536.55310058594</ele>
        <time>2011-04-17T13:13:55Z</time>
      </trkpt>
      <trkpt lat="47.19513" lon="6.16659">
        <ele>537.03369140625</ele>
        <time>2011-04-17T13:14:02Z</time>
      </trkpt>
      <trkpt lat="47.19521" lon="6.16712">
        <ele>536.07238769531</ele>
        <time>2011-04-17T13:14:09Z</time>
      </trkpt>
      <trkpt lat="47.19522" lon="6.1672">
        <ele>535.11096191406</ele>
        <time>2011-04-17T13:14:10Z</time>
      </trkpt>
      <trkpt lat="47.1953" lon="6.16752">
        <ele>534.14965820312</ele>
        <time>2011-04-17T13:14:14Z</time>
      </trkpt>
      <trkpt lat="47.19539" lon="6.16795">
        <ele>536.07238769531</ele>
        <time>2011-04-17T13:14:20Z</time>
      </trkpt>
      <trkpt lat="47.19541" lon="6.16801">
        <ele>536.55310058594</ele>
        <time>2011-04-17T13:14:21Z</time>
      </trkpt>
      <trkpt lat="47.19548" lon="6.16818">
        <ele>536.55310058594</ele>
        <time>2011-04-17T13:14:24Z</time>
      </trkpt>
      <trkpt lat="47.19559" lon="6.16852">
        <ele>537.03369140625</ele>
        <time>2011-04-17T13:14:30Z</time>
      </trkpt>
      <trkpt lat="47.19579" lon="6.16899">
        <ele>534.14965820312</ele>
        <time>2011-04-17T13:14:37Z</time>
      </trkpt>
      <trkpt lat="47.19583" lon="6.16906">
        <ele>534.14965820312</ele>
        <time>2011-04-17T13:14:38Z</time>
      </trkpt>
      <trkpt lat="47.19608" lon="6.1695">
        <ele>531.74633789062</ele>
        <time>2011-04-17T13:14:43Z</time>
      </trkpt>
      <trkpt lat="47.19613" lon="6.16961">
        <ele>532.22705078125</ele>
        <time>2011-04-17T13:14:44Z</time>
      </trkpt>
      <trkpt lat="47.19618" lon="6.16972">
        <ele>531.26574707031</ele>
        <time>2011-04-17T13:14:45Z</time>
      </trkpt>
      <trkpt lat="47.19633" lon="6.1702">
        <ele>535.11096191406</ele>
        <time>2011-04-17T13:14:50Z</time>
      </trkpt>
      <trkpt lat="47.19637" lon="6.17045">
        <ele>537.03369140625</ele>
        <time>2011-04-17T13:14:54Z</time>
      </trkpt>
      <trkpt lat="47.19637" lon="6.17053">
        <ele>537.99499511719</ele>
        <time>2011-04-17T13:14:56Z</time>
      </trkpt>
      <trkpt lat="47.19639" lon="6.17075">
        <ele>539.43688964844</ele>
        <time>2011-04-17T13:15:02Z</time>
      </trkpt>
      <trkpt lat="47.19638" lon="6.17094">
        <ele>540.87890625</ele>
        <time>2011-04-17T13:15:08Z</time>
      </trkpt>
      <trkpt lat="47.19635" lon="6.17111">
        <ele>541.84020996094</ele>
        <time>2011-04-17T13:15:13Z</time>
      </trkpt>
      <trkpt lat="47.19636" lon="6.17125">
        <ele>542.80151367188</ele>
        <time>2011-04-17T13:15:18Z</time>
      </trkpt>
      <trkpt lat="47.19636" lon="6.17133">
        <ele>542.80151367188</ele>
        <time>2011-04-17T13:15:21Z</time>
      </trkpt>
      <trkpt lat="47.19635" lon="6.17152">
        <ele>543.76281738281</ele>
        <time>2011-04-17T13:15:29Z</time>
      </trkpt>
      <trkpt lat="47.19633" lon="6.17167">
        <ele>545.685546875</ele>
        <time>2011-04-17T13:15:35Z</time>
      </trkpt>
      <trkpt lat="47.19632" lon="6.17181">
        <ele>547.12744140625</ele>
        <time>2011-04-17T13:15:41Z</time>
      </trkpt>
      <trkpt lat="47.1963" lon="6.17197">
        <ele>549.05004882812</ele>
        <time>2011-04-17T13:15:48Z</time>
      </trkpt>
      <trkpt lat="47.19628" lon="6.17216">
        <ele>551.45336914062</ele>
        <time>2011-04-17T13:15:56Z</time>
      </trkpt>
      <trkpt lat="47.19625" lon="6.17238">
        <ele>552.89526367188</ele>
        <time>2011-04-17T13:16:06Z</time>
      </trkpt>
      <trkpt lat="47.19619" lon="6.17255">
        <ele>554.33740234375</ele>
        <time>2011-04-17T13:16:14Z</time>
      </trkpt>
      <trkpt lat="47.19608" lon="6.17279">
        <ele>556.74072265625</ele>
        <time>2011-04-17T13:16:25Z</time>
      </trkpt>
      <trkpt lat="47.19601" lon="6.17297">
        <ele>557.7021484375</ele>
        <time>2011-04-17T13:16:33Z</time>
      </trkpt>
      <trkpt lat="47.19591" lon="6.17317">
        <ele>559.14404296875</ele>
        <time>2011-04-17T13:16:43Z</time>
      </trkpt>
      <trkpt lat="47.19585" lon="6.17334">
        <ele>562.02807617188</ele>
        <time>2011-04-17T13:16:51Z</time>
      </trkpt>
      <trkpt lat="47.19579" lon="6.17351">
        <ele>561.54736328125</ele>
        <time>2011-04-17T13:16:59Z</time>
      </trkpt>
      <trkpt lat="47.19571" lon="6.17372">
        <ele>562.50854492188</ele>
        <time>2011-04-17T13:17:08Z</time>
      </trkpt>
      <trkpt lat="47.19564" lon="6.17391">
        <ele>562.50854492188</ele>
        <time>2011-04-17T13:17:15Z</time>
      </trkpt>
      <trkpt lat="47.19553" lon="6.17422">
        <ele>561.06665039062</ele>
        <time>2011-04-17T13:17:22Z</time>
      </trkpt>
      <trkpt lat="47.19538" lon="6.17458">
        <ele>559.62475585938</ele>
        <time>2011-04-17T13:17:28Z</time>
      </trkpt>
      <trkpt lat="47.19527" lon="6.17503">
        <ele>559.14404296875</ele>
        <time>2011-04-17T13:17:35Z</time>
      </trkpt>
      <trkpt lat="47.19524" lon="6.17543">
        <ele>561.06665039062</ele>
        <time>2011-04-17T13:17:42Z</time>
      </trkpt>
      <trkpt lat="47.19524" lon="6.1757">
        <ele>561.54736328125</ele>
        <time>2011-04-17T13:17:49Z</time>
      </trkpt>
      <trkpt lat="47.19524" lon="6.17592">
        <ele>563.46997070312</ele>
        <time>2011-04-17T13:17:57Z</time>
      </trkpt>
      <trkpt lat="47.19524" lon="6.1762">
        <ele>565.392578125</ele>
        <time>2011-04-17T13:18:07Z</time>
      </trkpt>
      <trkpt lat="47.19524" lon="6.17635">
        <ele>567.31518554688</ele>
        <time>2011-04-17T13:18:13Z</time>
      </trkpt>
      <trkpt lat="47.19523" lon="6.17652">
        <ele>568.75708007812</ele>
        <time>2011-04-17T13:18:21Z</time>
      </trkpt>
      <trkpt lat="47.19525" lon="6.17669">
        <ele>571.64086914062</ele>
        <time>2011-04-17T13:18:28Z</time>
      </trkpt>
      <trkpt lat="47.19523" lon="6.17687">
        <ele>572.6025390625</ele>
        <time>2011-04-17T13:18:36Z</time>
      </trkpt>
      <trkpt lat="47.19521" lon="6.17704">
        <ele>573.56396484375</ele>
        <time>2011-04-17T13:18:43Z</time>
      </trkpt>
      <trkpt lat="47.19517" lon="6.17725">
        <ele>574.04443359375</ele>
        <time>2011-04-17T13:18:51Z</time>
      </trkpt>
      <trkpt lat="47.19514" lon="6.17743">
        <ele>575.486328125</ele>
        <time>2011-04-17T13:18:59Z</time>
      </trkpt>
      <trkpt lat="47.19512" lon="6.17763">
        <ele>576.44775390625</ele>
        <time>2011-04-17T13:19:07Z</time>
      </trkpt>
      <trkpt lat="47.19508" lon="6.17788">
        <ele>576.92846679688</ele>
        <time>2011-04-17T13:19:16Z</time>
      </trkpt>
      <trkpt lat="47.19505" lon="6.17814">
        <ele>578.85107421875</ele>
        <time>2011-04-17T13:19:24Z</time>
      </trkpt>
      <trkpt lat="47.19502" lon="6.1784">
        <ele>580.77368164062</ele>
        <time>2011-04-17T13:19:33Z</time>
      </trkpt>
      <trkpt lat="47.195" lon="6.17859">
        <ele>580.77368164062</ele>
        <time>2011-04-17T13:19:40Z</time>
      </trkpt>
      <trkpt lat="47.19498" lon="6.17871">
        <ele>582.21557617188</ele>
        <time>2011-04-17T13:19:45Z</time>
      </trkpt>
      <trkpt lat="47.19493" lon="6.17899">
        <ele>583.65747070312</ele>
        <time>2011-04-17T13:19:55Z</time>
      </trkpt>
      <trkpt lat="47.19492" lon="6.17926">
        <ele>584.61889648438</ele>
        <time>2011-04-17T13:20:05Z</time>
      </trkpt>
      <trkpt lat="47.1949" lon="6.17942">
        <ele>585.580078125</ele>
        <time>2011-04-17T13:20:11Z</time>
      </trkpt>
      <trkpt lat="47.19484" lon="6.17966">
        <ele>586.06079101562</ele>
        <time>2011-04-17T13:20:19Z</time>
      </trkpt>
      <trkpt lat="47.19479" lon="6.17987">
        <ele>586.54150390625</ele>
        <time>2011-04-17T13:20:26Z</time>
      </trkpt>
      <trkpt lat="47.19474" lon="6.1801">
        <ele>587.50268554688</ele>
        <time>2011-04-17T13:20:34Z</time>
      </trkpt>
      <trkpt lat="47.19468" lon="6.18029">
        <ele>587.50268554688</ele>
        <time>2011-04-17T13:20:40Z</time>
      </trkpt>
      <trkpt lat="47.19458" lon="6.18055">
        <ele>587.9833984375</ele>
        <time>2011-04-17T13:20:48Z</time>
      </trkpt>
      <trkpt lat="47.19447" lon="6.18084">
        <ele>587.50268554688</ele>
        <time>2011-04-17T13:20:55Z</time>
      </trkpt>
      <trkpt lat="47.19437" lon="6.18112">
        <ele>587.50268554688</ele>
        <time>2011-04-17T13:21:02Z</time>
      </trkpt>
      <trkpt lat="47.1943" lon="6.18131">
        <ele>589.42553710938</ele>
        <time>2011-04-17T13:21:08Z</time>
      </trkpt>
      <trkpt lat="47.19422" lon="6.18157">
        <ele>589.90625</ele>
        <time>2011-04-17T13:21:16Z</time>
      </trkpt>
      <trkpt lat="47.19413" lon="6.18187">
        <ele>591.34814453125</ele>
        <time>2011-04-17T13:21:26Z</time>
      </trkpt>
      <trkpt lat="47.19405" lon="6.18208">
        <ele>593.27075195312</ele>
        <time>2011-04-17T13:21:34Z</time>
      </trkpt>
      <trkpt lat="47.19393" lon="6.18235">
        <ele>594.23217773438</ele>
        <time>2011-04-17T13:21:44Z</time>
      </trkpt>
      <trkpt lat="47.1938" lon="6.18265">
        <ele>595.193359375</ele>
        <time>2011-04-17T13:21:54Z</time>
      </trkpt>
      <trkpt lat="47.19364" lon="6.18297">
        <ele>596.63549804688</ele>
        <time>2011-04-17T13:22:05Z</time>
      </trkpt>
      <trkpt lat="47.19352" lon="6.18321">
        <ele>597.5966796875</ele>
        <time>2011-04-17T13:22:15Z</time>
      </trkpt>
      <trkpt lat="47.19343" lon="6.18343">
        <ele>599.51928710938</ele>
        <time>2011-04-17T13:22:23Z</time>
      </trkpt>
      <trkpt lat="47.19332" lon="6.18364">
        <ele>600.48071289062</ele>
        <time>2011-04-17T13:22:31Z</time>
      </trkpt>
      <trkpt lat="47.19324" lon="6.18383">
        <ele>602.40307617188</ele>
        <time>2011-04-17T13:22:38Z</time>
      </trkpt>
      <trkpt lat="47.19313" lon="6.18407">
        <ele>601.92260742188</ele>
        <time>2011-04-17T13:22:47Z</time>
      </trkpt>
      <trkpt lat="47.19302" lon="6.1843">
        <ele>602.40307617188</ele>
        <time>2011-04-17T13:22:55Z</time>
      </trkpt>
      <trkpt lat="47.19291" lon="6.18452">
        <ele>603.36450195312</ele>
        <time>2011-04-17T13:23:02Z</time>
      </trkpt>
      <trkpt lat="47.19275" lon="6.1848">
        <ele>602.8837890625</ele>
        <time>2011-04-17T13:23:10Z</time>
      </trkpt>
      <trkpt lat="47.19262" lon="6.185">
        <ele>601.92260742188</ele>
        <time>2011-04-17T13:23:15Z</time>
      </trkpt>
      <trkpt lat="47.19242" lon="6.18519">
        <ele>600.48071289062</ele>
        <time>2011-04-17T13:23:20Z</time>
      </trkpt>
      <trkpt lat="47.19207" lon="6.18541">
        <ele>596.63549804688</ele>
        <time>2011-04-17T13:23:25Z</time>
      </trkpt>
      <trkpt lat="47.19183" lon="6.18556">
        <ele>593.27075195312</ele>
        <time>2011-04-17T13:23:28Z</time>
      </trkpt>
      <trkpt lat="47.19175" lon="6.18562">
        <ele>593.27075195312</ele>
        <time>2011-04-17T13:23:29Z</time>
      </trkpt>
      <trkpt lat="47.19157" lon="6.18575">
        <ele>589.90625</ele>
        <time>2011-04-17T13:23:31Z</time>
      </trkpt>
      <trkpt lat="47.19117" lon="6.1861">
        <ele>587.9833984375</ele>
        <time>2011-04-17T13:23:36Z</time>
      </trkpt>
      <trkpt lat="47.19085" lon="6.18642">
        <ele>589.42553710938</ele>
        <time>2011-04-17T13:23:41Z</time>
      </trkpt>
      <trkpt lat="47.19061" lon="6.18667">
        <ele>588.94506835938</ele>
        <time>2011-04-17T13:23:46Z</time>
      </trkpt>
      <trkpt lat="47.1903" lon="6.18698">
        <ele>588.46435546875</ele>
        <time>2011-04-17T13:23:54Z</time>
      </trkpt>
      <trkpt lat="47.18997" lon="6.18733">
        <ele>587.02197265625</ele>
        <time>2011-04-17T13:24:01Z</time>
      </trkpt>
      <trkpt lat="47.1897" lon="6.18765">
        <ele>584.13818359375</ele>
        <time>2011-04-17T13:24:06Z</time>
      </trkpt>
      <trkpt lat="47.18926" lon="6.1882">
        <ele>581.73486328125</ele>
        <time>2011-04-17T13:24:14Z</time>
      </trkpt>
      <trkpt lat="47.18894" lon="6.1886">
        <ele>580.77368164062</ele>
        <time>2011-04-17T13:24:20Z</time>
      </trkpt>
      <trkpt lat="47.18863" lon="6.18907">
        <ele>578.85107421875</ele>
        <time>2011-04-17T13:24:26Z</time>
      </trkpt>
      <trkpt lat="47.18832" lon="6.18955">
        <ele>577.4091796875</ele>
        <time>2011-04-17T13:24:32Z</time>
      </trkpt>
      <trkpt lat="47.18794" lon="6.19019">
        <ele>575.96704101562</ele>
        <time>2011-04-17T13:24:40Z</time>
      </trkpt>
      <trkpt lat="47.18776" lon="6.19049">
        <ele>575.486328125</ele>
        <time>2011-04-17T13:24:44Z</time>
      </trkpt>
      <trkpt lat="47.18749" lon="6.19099">
        <ele>575.96704101562</ele>
        <time>2011-04-17T13:24:51Z</time>
      </trkpt>
      <trkpt lat="47.18713" lon="6.19156">
        <ele>576.44775390625</ele>
        <time>2011-04-17T13:25:00Z</time>
      </trkpt>
      <trkpt lat="47.18688" lon="6.192">
        <ele>575.005859375</ele>
        <time>2011-04-17T13:25:07Z</time>
      </trkpt>
      <trkpt lat="47.18668" lon="6.19242">
        <ele>571.64086914062</ele>
        <time>2011-04-17T13:25:12Z</time>
      </trkpt>
      <trkpt lat="47.18649" lon="6.19286">
        <ele>567.31518554688</ele>
        <time>2011-04-17T13:25:16Z</time>
      </trkpt>
      <trkpt lat="47.18637" lon="6.19312">
        <ele>563.95043945312</ele>
        <time>2011-04-17T13:25:18Z</time>
      </trkpt>
      <trkpt lat="47.18625" lon="6.19343">
        <ele>561.06665039062</ele>
        <time>2011-04-17T13:25:20Z</time>
      </trkpt>
      <trkpt lat="47.18612" lon="6.19374">
        <ele>557.22143554688</ele>
        <time>2011-04-17T13:25:22Z</time>
      </trkpt>
      <trkpt lat="47.18582" lon="6.19436">
        <ele>554.33740234375</ele>
        <time>2011-04-17T13:25:26Z</time>
      </trkpt>
      <trkpt lat="47.18557" lon="6.19473">
        <ele>553.3759765625</ele>
        <time>2011-04-17T13:25:29Z</time>
      </trkpt>
      <trkpt lat="47.18517" lon="6.19516">
        <ele>552.89526367188</ele>
        <time>2011-04-17T13:25:34Z</time>
      </trkpt>
      <trkpt lat="47.18486" lon="6.19521">
        <ele>551.93408203125</ele>
        <time>2011-04-17T13:25:38Z</time>
      </trkpt>
      <trkpt lat="47.18467" lon="6.19507">
        <ele>550.97265625</ele>
        <time>2011-04-17T13:25:41Z</time>
      </trkpt>
      <trkpt lat="47.18447" lon="6.19485">
        <ele>548.0888671875</ele>
        <time>2011-04-17T13:25:44Z</time>
      </trkpt>
      <trkpt lat="47.18408" lon="6.19444">
        <ele>546.16625976562</ele>
        <time>2011-04-17T13:25:50Z</time>
      </trkpt>
      <trkpt lat="47.18397" lon="6.1943">
        <ele>544.24365234375</ele>
        <time>2011-04-17T13:25:52Z</time>
      </trkpt>
      <trkpt lat="47.18363" lon="6.194">
        <ele>542.80151367188</ele>
        <time>2011-04-17T13:25:57Z</time>
      </trkpt>
      <trkpt lat="47.18333" lon="6.19357">
        <ele>539.91760253906</ele>
        <time>2011-04-17T13:26:02Z</time>
      </trkpt>
      <trkpt lat="47.1831" lon="6.19333">
        <ele>538.47570800781</ele>
        <time>2011-04-17T13:26:07Z</time>
      </trkpt>
      <trkpt lat="47.183" lon="6.1935">
        <ele>538.95629882812</ele>
        <time>2011-04-17T13:26:10Z</time>
      </trkpt>
      <trkpt lat="47.18298" lon="6.19357">
        <ele>538.47570800781</ele>
        <time>2011-04-17T13:26:11Z</time>
      </trkpt>
      <trkpt lat="47.18291" lon="6.19377">
        <ele>538.95629882812</ele>
        <time>2011-04-17T13:26:14Z</time>
      </trkpt>
      <trkpt lat="47.18283" lon="6.19404">
        <ele>540.39831542969</ele>
        <time>2011-04-17T13:26:19Z</time>
      </trkpt>
      <trkpt lat="47.18281" lon="6.19409">
        <ele>540.39831542969</ele>
        <time>2011-04-17T13:26:20Z</time>
      </trkpt>
      <trkpt lat="47.18275" lon="6.19437">
        <ele>540.87890625</ele>
        <time>2011-04-17T13:26:26Z</time>
      </trkpt>
      <trkpt lat="47.18273" lon="6.19455">
        <ele>539.91760253906</ele>
        <time>2011-04-17T13:26:29Z</time>
      </trkpt>
      <trkpt lat="47.18272" lon="6.19467">
        <ele>539.43688964844</ele>
        <time>2011-04-17T13:26:31Z</time>
      </trkpt>
      <trkpt lat="47.18269" lon="6.19513">
        <ele>540.87890625</ele>
        <time>2011-04-17T13:26:39Z</time>
      </trkpt>
      <trkpt lat="47.18264" lon="6.19549">
        <ele>541.35949707031</ele>
        <time>2011-04-17T13:26:46Z</time>
      </trkpt>
      <trkpt lat="47.1826" lon="6.19584">
        <ele>542.32092285156</ele>
        <time>2011-04-17T13:26:53Z</time>
      </trkpt>
      <trkpt lat="47.18257" lon="6.19616">
        <ele>542.80151367188</ele>
        <time>2011-04-17T13:27:00Z</time>
      </trkpt>
      <trkpt lat="47.18259" lon="6.19636">
        <ele>543.76281738281</ele>
        <time>2011-04-17T13:27:05Z</time>
      </trkpt>
      <trkpt lat="47.18255" lon="6.19667">
        <ele>545.20483398438</ele>
        <time>2011-04-17T13:27:12Z</time>
      </trkpt>
      <trkpt lat="47.18252" lon="6.19673">
        <ele>544.72424316406</ele>
        <time>2011-04-17T13:27:14Z</time>
      </trkpt>
      <trkpt lat="47.18242" lon="6.19672">
        <ele>544.24365234375</ele>
        <time>2011-04-17T13:27:18Z</time>
      </trkpt>
      <trkpt lat="47.18223" lon="6.19667">
        <ele>544.24365234375</ele>
        <time>2011-04-17T13:27:24Z</time>
      </trkpt>
      <trkpt lat="47.18202" lon="6.19674">
        <ele>545.20483398438</ele>
        <time>2011-04-17T13:27:30Z</time>
      </trkpt>
      <trkpt lat="47.18188" lon="6.19682">
        <ele>544.24365234375</ele>
        <time>2011-04-17T13:27:34Z</time>
      </trkpt>
      <trkpt lat="47.1817" lon="6.19688">
        <ele>542.80151367188</ele>
        <time>2011-04-17T13:27:38Z</time>
      </trkpt>
      <trkpt lat="47.18145" lon="6.19689">
        <ele>541.84020996094</ele>
        <time>2011-04-17T13:27:43Z</time>
      </trkpt>
      <trkpt lat="47.18125" lon="6.19691">
        <ele>540.39831542969</ele>
        <time>2011-04-17T13:27:47Z</time>
      </trkpt>
      <trkpt lat="47.18115" lon="6.19694">
        <ele>540.87890625</ele>
        <time>2011-04-17T13:27:49Z</time>
      </trkpt>
      <trkpt lat="47.18101" lon="6.19701">
        <ele>540.39831542969</ele>
        <time>2011-04-17T13:27:52Z</time>
      </trkpt>
      <trkpt lat="47.18079" lon="6.19733">
        <ele>539.91760253906</ele>
        <time>2011-04-17T13:27:58Z</time>
      </trkpt>
      <trkpt lat="47.18071" lon="6.19771">
        <ele>541.35949707031</ele>
        <time>2011-04-17T13:28:05Z</time>
      </trkpt>
      <trkpt lat="47.18067" lon="6.19792">
        <ele>543.76281738281</ele>
        <time>2011-04-17T13:28:11Z</time>
      </trkpt>
      <trkpt lat="47.18059" lon="6.19811">
        <ele>544.24365234375</ele>
        <time>2011-04-17T13:28:16Z</time>
      </trkpt>
      <trkpt lat="47.18044" lon="6.19838">
        <ele>544.72424316406</ele>
        <time>2011-04-17T13:28:24Z</time>
      </trkpt>
      <trkpt lat="47.18026" lon="6.19855">
        <ele>543.76281738281</ele>
        <time>2011-04-17T13:28:30Z</time>
      </trkpt>
      <trkpt lat="47.1801" lon="6.19874">
        <ele>545.685546875</ele>
        <time>2011-04-17T13:28:37Z</time>
      </trkpt>
      <trkpt lat="47.17999" lon="6.19892">
        <ele>547.60815429688</ele>
        <time>2011-04-17T13:28:45Z</time>
      </trkpt>
      <trkpt lat="47.17989" lon="6.19911">
        <ele>548.5693359375</ele>
        <time>2011-04-17T13:28:53Z</time>
      </trkpt>
      <trkpt lat="47.17976" lon="6.19931">
        <ele>549.05004882812</ele>
        <time>2011-04-17T13:29:00Z</time>
      </trkpt>
      <trkpt lat="47.17957" lon="6.1995">
        <ele>550.01147460938</ele>
        <time>2011-04-17T13:29:08Z</time>
      </trkpt>
      <trkpt lat="47.17934" lon="6.19958">
        <ele>550.4921875</ele>
        <time>2011-04-17T13:29:16Z</time>
      </trkpt>
      <trkpt lat="47.17904" lon="6.19968">
        <ele>550.97265625</ele>
        <time>2011-04-17T13:29:26Z</time>
      </trkpt>
      <trkpt lat="47.17882" lon="6.19975">
        <ele>551.93408203125</ele>
        <time>2011-04-17T13:29:34Z</time>
      </trkpt>
      <trkpt lat="47.17865" lon="6.19982">
        <ele>553.3759765625</ele>
        <time>2011-04-17T13:29:40Z</time>
      </trkpt>
      <trkpt lat="47.17849" lon="6.19999">
        <ele>553.3759765625</ele>
        <time>2011-04-17T13:29:47Z</time>
      </trkpt>
      <trkpt lat="47.17833" lon="6.20025">
        <ele>554.33740234375</ele>
        <time>2011-04-17T13:29:56Z</time>
      </trkpt>
      <trkpt lat="47.17815" lon="6.20058">
        <ele>554.81787109375</ele>
        <time>2011-04-17T13:30:06Z</time>
      </trkpt>
      <trkpt lat="47.17807" lon="6.20078">
        <ele>554.81787109375</ele>
        <time>2011-04-17T13:30:12Z</time>
      </trkpt>
      <trkpt lat="47.17797" lon="6.201">
        <ele>555.29858398438</ele>
        <time>2011-04-17T13:30:19Z</time>
      </trkpt>
      <trkpt lat="47.17793" lon="6.20107">
        <ele>556.26000976562</ele>
        <time>2011-04-17T13:30:22Z</time>
      </trkpt>
      <trkpt lat="47.17781" lon="6.20135">
        <ele>557.22143554688</ele>
        <time>2011-04-17T13:30:32Z</time>
      </trkpt>
      <trkpt lat="47.17773" lon="6.20158">
        <ele>558.66333007812</ele>
        <time>2011-04-17T13:30:40Z</time>
      </trkpt>
      <trkpt lat="47.17761" lon="6.20185">
        <ele>560.10522460938</ele>
        <time>2011-04-17T13:30:50Z</time>
      </trkpt>
      <trkpt lat="47.17747" lon="6.20205">
        <ele>559.62475585938</ele>
        <time>2011-04-17T13:30:57Z</time>
      </trkpt>
      <trkpt lat="47.17733" lon="6.20229">
        <ele>558.18286132812</ele>
        <time>2011-04-17T13:31:02Z</time>
      </trkpt>
      <trkpt lat="47.17717" lon="6.20263">
        <ele>557.22143554688</ele>
        <time>2011-04-17T13:31:08Z</time>
      </trkpt>
      <trkpt lat="47.17693" lon="6.20312">
        <ele>555.779296875</ele>
        <time>2011-04-17T13:31:16Z</time>
      </trkpt>
      <trkpt lat="47.17683" lon="6.2033">
        <ele>558.66333007812</ele>
        <time>2011-04-17T13:31:20Z</time>
      </trkpt>
      <trkpt lat="47.17667" lon="6.20348">
        <ele>558.66333007812</ele>
        <time>2011-04-17T13:31:27Z</time>
      </trkpt>
      <trkpt lat="47.17648" lon="6.20361">
        <ele>556.74072265625</ele>
        <time>2011-04-17T13:31:31Z</time>
      </trkpt>
      <trkpt lat="47.17623" lon="6.20377">
        <ele>553.85668945312</ele>
        <time>2011-04-17T13:31:35Z</time>
      </trkpt>
      <trkpt lat="47.17607" lon="6.20388">
        <ele>552.89526367188</ele>
        <time>2011-04-17T13:31:37Z</time>
      </trkpt>
      <trkpt lat="47.17586" lon="6.20411">
        <ele>553.85668945312</ele>
        <time>2011-04-17T13:31:40Z</time>
      </trkpt>
      <trkpt lat="47.17579" lon="6.2043">
        <ele>555.779296875</ele>
        <time>2011-04-17T13:31:44Z</time>
      </trkpt>
      <trkpt lat="47.17577" lon="6.20443">
        <ele>557.22143554688</ele>
        <time>2011-04-17T13:31:50Z</time>
      </trkpt>
      <trkpt lat="47.17577" lon="6.20446">
        <ele>557.7021484375</ele>
        <time>2011-04-17T13:31:52Z</time>
      </trkpt>
      <trkpt lat="47.17575" lon="6.20457">
        <ele>560.10522460938</ele>
        <time>2011-04-17T13:31:59Z</time>
      </trkpt>
      <trkpt lat="47.17573" lon="6.20472">
        <ele>562.02807617188</ele>
        <time>2011-04-17T13:32:08Z</time>
      </trkpt>
      <trkpt lat="47.17571" lon="6.20477">
        <ele>563.46997070312</ele>
        <time>2011-04-17T13:32:12Z</time>
      </trkpt>
      <trkpt lat="47.17565" lon="6.20487">
        <ele>564.91186523438</ele>
        <time>2011-04-17T13:32:20Z</time>
      </trkpt>
      <trkpt lat="47.17554" lon="6.20497">
        <ele>565.87329101562</ele>
        <time>2011-04-17T13:32:29Z</time>
      </trkpt>
      <trkpt lat="47.17546" lon="6.20496">
        <ele>565.87329101562</ele>
        <time>2011-04-17T13:32:35Z</time>
      </trkpt>
      <trkpt lat="47.17532" lon="6.20492">
        <ele>565.392578125</ele>
        <time>2011-04-17T13:32:40Z</time>
      </trkpt>
      <trkpt lat="47.17523" lon="6.2049">
        <ele>563.46997070312</ele>
        <time>2011-04-17T13:32:42Z</time>
      </trkpt>
      <trkpt lat="47.17515" lon="6.20491">
        <ele>562.50854492188</ele>
        <time>2011-04-17T13:32:44Z</time>
      </trkpt>
      <trkpt lat="47.17503" lon="6.20498">
        <ele>560.10522460938</ele>
        <time>2011-04-17T13:32:48Z</time>
      </trkpt>
      <trkpt lat="47.17499" lon="6.20503">
        <ele>560.5859375</ele>
        <time>2011-04-17T13:32:51Z</time>
      </trkpt>
      <trkpt lat="47.175" lon="6.20513">
        <ele>560.5859375</ele>
        <time>2011-04-17T13:32:55Z</time>
      </trkpt>
      <trkpt lat="47.17509" lon="6.20531">
        <ele>561.06665039062</ele>
        <time>2011-04-17T13:33:03Z</time>
      </trkpt>
      <trkpt lat="47.17522" lon="6.20552">
        <ele>562.02807617188</ele>
        <time>2011-04-17T13:33:13Z</time>
      </trkpt>
      <trkpt lat="47.17535" lon="6.20576">
        <ele>563.46997070312</ele>
        <time>2011-04-17T13:33:22Z</time>
      </trkpt>
      <trkpt lat="47.17551" lon="6.20611">
        <ele>564.91186523438</ele>
        <time>2011-04-17T13:33:32Z</time>
      </trkpt>
      <trkpt lat="47.17561" lon="6.20651">
        <ele>565.87329101562</ele>
        <time>2011-04-17T13:33:42Z</time>
      </trkpt>
      <trkpt lat="47.17572" lon="6.20692">
        <ele>565.87329101562</ele>
        <time>2011-04-17T13:33:52Z</time>
      </trkpt>
      <trkpt lat="47.17573" lon="6.20708">
        <ele>565.392578125</ele>
        <time>2011-04-17T13:33:56Z</time>
      </trkpt>
      <trkpt lat="47.17559" lon="6.20734">
        <ele>565.392578125</ele>
        <time>2011-04-17T13:34:02Z</time>
      </trkpt>
      <trkpt lat="47.17533" lon="6.20776">
        <ele>564.91186523438</ele>
        <time>2011-04-17T13:34:10Z</time>
      </trkpt>
      <trkpt lat="47.17504" lon="6.20826">
        <ele>566.35375976562</ele>
        <time>2011-04-17T13:34:20Z</time>
      </trkpt>
      <trkpt lat="47.17481" lon="6.20862">
        <ele>567.79565429688</ele>
        <time>2011-04-17T13:34:29Z</time>
      </trkpt>
      <trkpt lat="47.17456" lon="6.20902">
        <ele>569.71850585938</ele>
        <time>2011-04-17T13:34:40Z</time>
      </trkpt>
      <trkpt lat="47.17429" lon="6.20945">
        <ele>571.64086914062</ele>
        <time>2011-04-17T13:34:52Z</time>
      </trkpt>
      <trkpt lat="47.17406" lon="6.20981">
        <ele>571.64086914062</ele>
        <time>2011-04-17T13:35:02Z</time>
      </trkpt>
      <trkpt lat="47.17382" lon="6.21021">
        <ele>572.12182617188</ele>
        <time>2011-04-17T13:35:11Z</time>
      </trkpt>
      <trkpt lat="47.17369" lon="6.21051">
        <ele>571.16040039062</ele>
        <time>2011-04-17T13:35:16Z</time>
      </trkpt>
      <trkpt lat="47.17365" lon="6.21067">
        <ele>570.19897460938</ele>
        <time>2011-04-17T13:35:18Z</time>
      </trkpt>
      <trkpt lat="47.17355" lon="6.21104">
        <ele>567.79565429688</ele>
        <time>2011-04-17T13:35:22Z</time>
      </trkpt>
      <trkpt lat="47.1735" lon="6.21125">
        <ele>566.83447265625</ele>
        <time>2011-04-17T13:35:24Z</time>
      </trkpt>
      <trkpt lat="47.17334" lon="6.21192">
        <ele>564.43115234375</ele>
        <time>2011-04-17T13:35:30Z</time>
      </trkpt>
      <trkpt lat="47.17314" lon="6.21277">
        <ele>565.392578125</ele>
        <time>2011-04-17T13:35:38Z</time>
      </trkpt>
      <trkpt lat="47.173" lon="6.21336">
        <ele>567.79565429688</ele>
        <time>2011-04-17T13:35:45Z</time>
      </trkpt>
      <trkpt lat="47.17289" lon="6.21385">
        <ele>567.79565429688</ele>
        <time>2011-04-17T13:35:52Z</time>
      </trkpt>
      <trkpt lat="47.17276" lon="6.21436">
        <ele>565.87329101562</ele>
        <time>2011-04-17T13:35:58Z</time>
      </trkpt>
      <trkpt lat="47.17253" lon="6.21522">
        <ele>565.392578125</ele>
        <time>2011-04-17T13:36:07Z</time>
      </trkpt>
      <trkpt lat="47.17248" lon="6.21541">
        <ele>564.91186523438</ele>
        <time>2011-04-17T13:36:09Z</time>
      </trkpt>
      <trkpt lat="47.17229" lon="6.21608">
        <ele>562.9892578125</ele>
        <time>2011-04-17T13:36:16Z</time>
      </trkpt>
      <trkpt lat="47.17226" lon="6.21617">
        <ele>562.50854492188</ele>
        <time>2011-04-17T13:36:17Z</time>
      </trkpt>
      <trkpt lat="47.17219" lon="6.21645">
        <ele>562.02807617188</ele>
        <time>2011-04-17T13:36:20Z</time>
      </trkpt>
      <trkpt lat="47.17208" lon="6.21671">
        <ele>561.54736328125</ele>
        <time>2011-04-17T13:36:23Z</time>
      </trkpt>
      <trkpt lat="47.17186" lon="6.21684">
        <ele>561.54736328125</ele>
        <time>2011-04-17T13:36:27Z</time>
      </trkpt>
      <trkpt lat="47.17179" lon="6.2168">
        <ele>561.54736328125</ele>
        <time>2011-04-17T13:36:28Z</time>
      </trkpt>
      <trkpt lat="47.17139" lon="6.21658">
        <ele>562.9892578125</ele>
        <time>2011-04-17T13:36:35Z</time>
      </trkpt>
      <trkpt lat="47.17129" lon="6.21653">
        <ele>562.9892578125</ele>
        <time>2011-04-17T13:36:37Z</time>
      </trkpt>
      <trkpt lat="47.17112" lon="6.21638">
        <ele>564.43115234375</ele>
        <time>2011-04-17T13:36:41Z</time>
      </trkpt>
      <trkpt lat="47.17084" lon="6.21594">
        <ele>563.95043945312</ele>
        <time>2011-04-17T13:36:49Z</time>
      </trkpt>
      <trkpt lat="47.17053" lon="6.21542">
        <ele>562.9892578125</ele>
        <time>2011-04-17T13:36:57Z</time>
      </trkpt>
      <trkpt lat="47.17026" lon="6.21477">
        <ele>562.02807617188</ele>
        <time>2011-04-17T13:37:05Z</time>
      </trkpt>
      <trkpt lat="47.17015" lon="6.21444">
        <ele>562.02807617188</ele>
        <time>2011-04-17T13:37:09Z</time>
      </trkpt>
      <trkpt lat="47.16999" lon="6.21421">
        <ele>562.02807617188</ele>
        <time>2011-04-17T13:37:13Z</time>
      </trkpt>
      <trkpt lat="47.16987" lon="6.2142">
        <ele>560.5859375</ele>
        <time>2011-04-17T13:37:15Z</time>
      </trkpt>
      <trkpt lat="47.16952" lon="6.2143">
        <ele>557.7021484375</ele>
        <time>2011-04-17T13:37:20Z</time>
      </trkpt>
      <trkpt lat="47.16898" lon="6.21452">
        <ele>557.7021484375</ele>
        <time>2011-04-17T13:37:27Z</time>
      </trkpt>
      <trkpt lat="47.16873" lon="6.2147">
        <ele>559.14404296875</ele>
        <time>2011-04-17T13:37:31Z</time>
      </trkpt>
      <trkpt lat="47.16854" lon="6.21488">
        <ele>561.06665039062</ele>
        <time>2011-04-17T13:37:35Z</time>
      </trkpt>
      <trkpt lat="47.16823" lon="6.21517">
        <ele>562.02807617188</ele>
        <time>2011-04-17T13:37:43Z</time>
      </trkpt>
      <trkpt lat="47.16808" lon="6.21529">
        <ele>563.46997070312</ele>
        <time>2011-04-17T13:37:47Z</time>
      </trkpt>
      <trkpt lat="47.16785" lon="6.21532">
        <ele>564.43115234375</ele>
        <time>2011-04-17T13:37:53Z</time>
      </trkpt>
      <trkpt lat="47.16777" lon="6.21525">
        <ele>564.91186523438</ele>
        <time>2011-04-17T13:37:56Z</time>
      </trkpt>
      <trkpt lat="47.16768" lon="6.21515">
        <ele>566.35375976562</ele>
        <time>2011-04-17T13:38:00Z</time>
      </trkpt>
      <trkpt lat="47.1675" lon="6.21492">
        <ele>565.87329101562</ele>
        <time>2011-04-17T13:38:06Z</time>
      </trkpt>
      <trkpt lat="47.16718" lon="6.21466">
        <ele>564.91186523438</ele>
        <time>2011-04-17T13:38:14Z</time>
      </trkpt>
      <trkpt lat="47.16679" lon="6.21444">
        <ele>563.95043945312</ele>
        <time>2011-04-17T13:38:22Z</time>
      </trkpt>
      <trkpt lat="47.16642" lon="6.21425">
        <ele>562.02807617188</ele>
        <time>2011-04-17T13:38:28Z</time>
      </trkpt>
      <trkpt lat="47.16576" lon="6.21395">
        <ele>560.5859375</ele>
        <time>2011-04-17T13:38:37Z</time>
      </trkpt>
      <trkpt lat="47.16533" lon="6.21375">
        <ele>559.62475585938</ele>
        <time>2011-04-17T13:38:43Z</time>
      </trkpt>
      <trkpt lat="47.16496" lon="6.21376">
        <ele>559.62475585938</ele>
        <time>2011-04-17T13:38:48Z</time>
      </trkpt>
      <trkpt lat="47.16457" lon="6.21387">
        <ele>560.5859375</ele>
        <time>2011-04-17T13:38:54Z</time>
      </trkpt>
      <trkpt lat="47.1643" lon="6.2139">
        <ele>562.50854492188</ele>
        <time>2011-04-17T13:38:59Z</time>
      </trkpt>
      <trkpt lat="47.164" lon="6.21393">
        <ele>562.9892578125</ele>
        <time>2011-04-17T13:39:06Z</time>
      </trkpt>
      <trkpt lat="47.16357" lon="6.21399">
        <ele>563.46997070312</ele>
        <time>2011-04-17T13:39:17Z</time>
      </trkpt>
      <trkpt lat="47.1632" lon="6.214">
        <ele>562.9892578125</ele>
        <time>2011-04-17T13:39:25Z</time>
      </trkpt>
      <trkpt lat="47.16296" lon="6.21391">
        <ele>564.43115234375</ele>
        <time>2011-04-17T13:39:31Z</time>
      </trkpt>
      <trkpt lat="47.16269" lon="6.21376">
        <ele>566.35375976562</ele>
        <time>2011-04-17T13:39:39Z</time>
      </trkpt>
      <trkpt lat="47.16244" lon="6.21363">
        <ele>567.31518554688</ele>
        <time>2011-04-17T13:39:46Z</time>
      </trkpt>
      <trkpt lat="47.16218" lon="6.21356">
        <ele>565.392578125</ele>
        <time>2011-04-17T13:39:51Z</time>
      </trkpt>
      <trkpt lat="47.16174" lon="6.2135">
        <ele>563.46997070312</ele>
        <time>2011-04-17T13:39:58Z</time>
      </trkpt>
      <trkpt lat="47.16159" lon="6.21348">
        <ele>562.02807617188</ele>
        <time>2011-04-17T13:40:00Z</time>
      </trkpt>
      <trkpt lat="47.16096" lon="6.21341">
        <ele>560.10522460938</ele>
        <time>2011-04-17T13:40:09Z</time>
      </trkpt>
      <trkpt lat="47.16023" lon="6.21331">
        <ele>559.14404296875</ele>
        <time>2011-04-17T13:40:19Z</time>
      </trkpt>
      <trkpt lat="47.15946" lon="6.21321">
        <ele>556.26000976562</ele>
        <time>2011-04-17T13:40:29Z</time>
      </trkpt>
      <trkpt lat="47.15938" lon="6.2132">
        <ele>556.26000976562</ele>
        <time>2011-04-17T13:40:30Z</time>
      </trkpt>
      <trkpt lat="47.15883" lon="6.21317">
        <ele>553.85668945312</ele>
        <time>2011-04-17T13:40:36Z</time>
      </trkpt>
      <trkpt lat="47.15826" lon="6.21316">
        <ele>553.3759765625</ele>
        <time>2011-04-17T13:40:42Z</time>
      </trkpt>
      <trkpt lat="47.15783" lon="6.21302">
        <ele>552.89526367188</ele>
        <time>2011-04-17T13:40:47Z</time>
      </trkpt>
      <trkpt lat="47.15735" lon="6.21279">
        <ele>553.3759765625</ele>
        <time>2011-04-17T13:40:54Z</time>
      </trkpt>
      <trkpt lat="47.15686" lon="6.21258">
        <ele>551.93408203125</ele>
        <time>2011-04-17T13:41:01Z</time>
      </trkpt>
      <trkpt lat="47.15634" lon="6.21239">
        <ele>549.53076171875</ele>
        <time>2011-04-17T13:41:07Z</time>
      </trkpt>
      <trkpt lat="47.15537" lon="6.21203">
        <ele>547.12744140625</ele>
        <time>2011-04-17T13:41:17Z</time>
      </trkpt>
      <trkpt lat="47.15497" lon="6.21201">
        <ele>545.20483398438</ele>
        <time>2011-04-17T13:41:21Z</time>
      </trkpt>
      <trkpt lat="47.15431" lon="6.21197">
        <ele>544.72424316406</ele>
        <time>2011-04-17T13:41:28Z</time>
      </trkpt>
      <trkpt lat="47.15388" lon="6.21182">
        <ele>544.24365234375</ele>
        <time>2011-04-17T13:41:33Z</time>
      </trkpt>
      <trkpt lat="47.1531" lon="6.21142">
        <ele>541.35949707031</ele>
        <time>2011-04-17T13:41:43Z</time>
      </trkpt>
      <trkpt lat="47.15302" lon="6.21138">
        <ele>541.35949707031</ele>
        <time>2011-04-17T13:41:44Z</time>
      </trkpt>
      <trkpt lat="47.15236" lon="6.21105">
        <ele>538.95629882812</ele>
        <time>2011-04-17T13:41:52Z</time>
      </trkpt>
      <trkpt lat="47.15201" lon="6.21093">
        <ele>538.47570800781</ele>
        <time>2011-04-17T13:41:56Z</time>
      </trkpt>
      <trkpt lat="47.1515" lon="6.21081">
        <ele>537.03369140625</ele>
        <time>2011-04-17T13:42:02Z</time>
      </trkpt>
      <trkpt lat="47.15111" lon="6.21056">
        <ele>536.07238769531</ele>
        <time>2011-04-17T13:42:07Z</time>
      </trkpt>
      <trkpt lat="47.15096" lon="6.21047">
        <ele>536.07238769531</ele>
        <time>2011-04-17T13:42:09Z</time>
      </trkpt>
      <trkpt lat="47.15059" lon="6.21043">
        <ele>536.07238769531</ele>
        <time>2011-04-17T13:42:14Z</time>
      </trkpt>
      <trkpt lat="47.15045" lon="6.21048">
        <ele>536.07238769531</ele>
        <time>2011-04-17T13:42:16Z</time>
      </trkpt>
      <trkpt lat="47.15004" lon="6.21081">
        <ele>535.59155273438</ele>
        <time>2011-04-17T13:42:23Z</time>
      </trkpt>
      <trkpt lat="47.14964" lon="6.21123">
        <ele>535.59155273438</ele>
        <time>2011-04-17T13:42:31Z</time>
      </trkpt>
      <trkpt lat="47.14938" lon="6.21152">
        <ele>537.03369140625</ele>
        <time>2011-04-17T13:42:38Z</time>
      </trkpt>
      <trkpt lat="47.14911" lon="6.21176">
        <ele>536.55310058594</ele>
        <time>2011-04-17T13:42:45Z</time>
      </trkpt>
      <trkpt lat="47.1489" lon="6.21181">
        <ele>536.07238769531</ele>
        <time>2011-04-17T13:42:51Z</time>
      </trkpt>
      <trkpt lat="47.14872" lon="6.21183">
        <ele>534.63037109375</ele>
        <time>2011-04-17T13:42:56Z</time>
      </trkpt>
      <trkpt lat="47.14856" lon="6.212">
        <ele>532.22705078125</ele>
        <time>2011-04-17T13:43:00Z</time>
      </trkpt>
      <trkpt lat="47.14843" lon="6.21231">
        <ele>528.3818359375</ele>
        <time>2011-04-17T13:43:03Z</time>
      </trkpt>
      <trkpt lat="47.14841" lon="6.21261">
        <ele>527.42041015625</ele>
        <time>2011-04-17T13:43:05Z</time>
      </trkpt>
      <trkpt lat="47.14843" lon="6.21292">
        <ele>525.97839355469</ele>
        <time>2011-04-17T13:43:07Z</time>
      </trkpt>
      <trkpt lat="47.14844" lon="6.21318">
        <ele>525.01721191406</ele>
        <time>2011-04-17T13:43:09Z</time>
      </trkpt>
      <trkpt lat="47.14845" lon="6.21328">
        <ele>525.97839355469</ele>
        <time>2011-04-17T13:43:10Z</time>
      </trkpt>
      <trkpt lat="47.14839" lon="6.21356">
        <ele>524.05578613281</ele>
        <time>2011-04-17T13:43:13Z</time>
      </trkpt>
      <trkpt lat="47.14821" lon="6.21363">
        <ele>524.53649902344</ele>
        <time>2011-04-17T13:43:16Z</time>
      </trkpt>
      <trkpt lat="47.14808" lon="6.21354">
        <ele>525.49780273438</ele>
        <time>2011-04-17T13:43:19Z</time>
      </trkpt>
      <trkpt lat="47.14806" lon="6.21351">
        <ele>525.97839355469</ele>
        <time>2011-04-17T13:43:20Z</time>
      </trkpt>
      <trkpt lat="47.148" lon="6.21335">
        <ele>525.01721191406</ele>
        <time>2011-04-17T13:43:25Z</time>
      </trkpt>
      <trkpt lat="47.14798" lon="6.21332">
        <ele>524.05578613281</ele>
        <time>2011-04-17T13:43:29Z</time>
      </trkpt>
      <trkpt lat="47.14795" lon="6.2133">
        <ele>524.05578613281</ele>
        <time>2011-04-17T13:43:41Z</time>
      </trkpt>
      <trkpt lat="47.14795" lon="6.21329">
        <ele>524.05578613281</ele>
        <time>2011-04-17T13:43:42Z</time>
      </trkpt>
      <trkpt lat="47.14796" lon="6.21304">
        <ele>522.13317871094</ele>
        <time>2011-04-17T13:43:47Z</time>
      </trkpt>
      <trkpt lat="47.14795" lon="6.21285">
        <ele>521.65258789062</ele>
        <time>2011-04-17T13:43:50Z</time>
      </trkpt>
      <trkpt lat="47.14796" lon="6.2126">
        <ele>521.17199707031</ele>
        <time>2011-04-17T13:43:53Z</time>
      </trkpt>
      <trkpt lat="47.14794" lon="6.21229">
        <ele>522.61389160156</ele>
        <time>2011-04-17T13:43:58Z</time>
      </trkpt>
      <trkpt lat="47.14793" lon="6.2122">
        <ele>524.05578613281</ele>
        <time>2011-04-17T13:44:01Z</time>
      </trkpt>
      <trkpt lat="47.1479" lon="6.21203">
        <ele>524.53649902344</ele>
        <time>2011-04-17T13:44:08Z</time>
      </trkpt>
      <trkpt lat="47.14788" lon="6.21193">
        <ele>525.49780273438</ele>
        <time>2011-04-17T13:44:12Z</time>
      </trkpt>
      <trkpt lat="47.14782" lon="6.21177">
        <ele>527.42041015625</ele>
        <time>2011-04-17T13:44:20Z</time>
      </trkpt>
      <trkpt lat="47.14778" lon="6.21168">
        <ele>529.34313964844</ele>
        <time>2011-04-17T13:44:24Z</time>
      </trkpt>
      <trkpt lat="47.14774" lon="6.21161">
        <ele>530.30444335938</ele>
        <time>2011-04-17T13:44:28Z</time>
      </trkpt>
      <trkpt lat="47.14767" lon="6.21147">
        <ele>531.74633789062</ele>
        <time>2011-04-17T13:44:36Z</time>
      </trkpt>
      <trkpt lat="47.14763" lon="6.21142">
        <ele>532.22705078125</ele>
        <time>2011-04-17T13:44:40Z</time>
      </trkpt>
      <trkpt lat="47.14759" lon="6.21137">
        <ele>532.70776367188</ele>
        <time>2011-04-17T13:44:44Z</time>
      </trkpt>
      <trkpt lat="47.14751" lon="6.21136">
        <ele>533.6689453125</ele>
        <time>2011-04-17T13:44:50Z</time>
      </trkpt>
      <trkpt lat="47.14746" lon="6.21132">
        <ele>534.14965820312</ele>
        <time>2011-04-17T13:44:54Z</time>
      </trkpt>
      <trkpt lat="47.1474" lon="6.2112">
        <ele>534.63037109375</ele>
        <time>2011-04-17T13:45:01Z</time>
      </trkpt>
      <trkpt lat="47.14733" lon="6.21102">
        <ele>534.63037109375</ele>
        <time>2011-04-17T13:45:09Z</time>
      </trkpt>
      <trkpt lat="47.1473" lon="6.21095">
        <ele>534.63037109375</ele>
        <time>2011-04-17T13:45:12Z</time>
      </trkpt>
      <trkpt lat="47.14734" lon="6.21087">
        <ele>534.14965820312</ele>
        <time>2011-04-17T13:45:18Z</time>
      </trkpt>
      <trkpt lat="47.14733" lon="6.21086">
        <ele>534.14965820312</ele>
        <time>2011-04-17T13:45:22Z</time>
      </trkpt>
      <trkpt lat="47.14729" lon="6.21087">
        <ele>534.14965820312</ele>
        <time>2011-04-17T13:45:26Z</time>
      </trkpt>
      <trkpt lat="47.14721" lon="6.21079">
        <ele>534.63037109375</ele>
        <time>2011-04-17T13:45:32Z</time>
      </trkpt>
      <trkpt lat="47.14713" lon="6.21076">
        <ele>535.11096191406</ele>
        <time>2011-04-17T13:45:36Z</time>
      </trkpt>
      <trkpt lat="47.14712" lon="6.21077">
        <ele>535.11096191406</ele>
        <time>2011-04-17T13:45:37Z</time>
      </trkpt>
      <trkpt lat="47.14705" lon="6.21082">
        <ele>535.59155273438</ele>
        <time>2011-04-17T13:45:42Z</time>
      </trkpt>
      <trkpt lat="47.14699" lon="6.21079">
        <ele>537.03369140625</ele>
        <time>2011-04-17T13:45:47Z</time>
      </trkpt>
      <trkpt lat="47.14698" lon="6.21079">
        <ele>535.59155273438</ele>
        <time>2011-04-17T13:45:50Z</time>
      </trkpt>
      <trkpt lat="47.14704" lon="6.21086">
        <ele>534.63037109375</ele>
        <time>2011-04-17T13:48:38Z</time>
      </trkpt>
      <trkpt lat="47.14705" lon="6.21087">
        <ele>535.11096191406</ele>
        <time>2011-04-17T13:48:39Z</time>
      </trkpt>
      <trkpt lat="47.14705" lon="6.21087">
        <ele>535.11096191406</ele>
        <time>2011-04-17T13:48:41Z</time>
      </trkpt>
    </trkseg>
  </trk>
</gpx>